<?xml version="1.0" encoding="UTF-8" standalone="no" ?>
<gpx xmlns="http://www.topografix.com/GPX/1/1" xmlns:xsi="http://www.w3.org/2001/XMLSchema-instance" xsi:schemaLocation="http://www.topografix.com/GPX/1/1 http://www.topografix.com/GPX/1/1/gpx.xsd" version="1.1" creator="VisuGPX - https://www.visugpx.com">
  <metadata>
    <name>rando st avit</name>
  </metadata>
  <trk>
    <name><![CDATA[Saint-Avit Cyclisme]]></name>
    <trkseg>
      <trkpt lat="45.1974" lon="4.96971">
        <ele>348.20001220703</ele>
        <time>2018-05-20T05:54:43.000Z</time>
      </trkpt>
      <trkpt lat="45.19738" lon="4.96952">
        <ele>349.60000610352</ele>
        <time>2018-05-20T05:56:19.000Z</time>
      </trkpt>
      <trkpt lat="45.19738" lon="4.96947">
        <ele>350</ele>
        <time>2018-05-20T05:56:21.000Z</time>
      </trkpt>
      <trkpt lat="45.19738" lon="4.96946">
        <ele>350.20001220703</ele>
        <time>2018-05-20T05:56:22.000Z</time>
      </trkpt>
      <trkpt lat="45.19736" lon="4.96931">
        <ele>351.39999389648</ele>
        <time>2018-05-20T05:56:28.000Z</time>
      </trkpt>
      <trkpt lat="45.1973" lon="4.96927">
        <ele>351.79998779297</ele>
        <time>2018-05-20T05:56:31.000Z</time>
      </trkpt>
      <trkpt lat="45.19726" lon="4.96923">
        <ele>352.20001220703</ele>
        <time>2018-05-20T05:56:34.000Z</time>
      </trkpt>
      <trkpt lat="45.19718" lon="4.9692">
        <ele>352.60000610352</ele>
        <time>2018-05-20T05:56:38.000Z</time>
      </trkpt>
      <trkpt lat="45.19716" lon="4.96919">
        <ele>352.79998779297</ele>
        <time>2018-05-20T05:56:39.000Z</time>
      </trkpt>
      <trkpt lat="45.19703" lon="4.96914">
        <ele>353.39999389648</ele>
        <time>2018-05-20T05:56:45.000Z</time>
      </trkpt>
      <trkpt lat="45.19691" lon="4.96912">
        <ele>353.79998779297</ele>
        <time>2018-05-20T05:56:50.000Z</time>
      </trkpt>
      <trkpt lat="45.19674" lon="4.96912">
        <ele>354</ele>
        <time>2018-05-20T05:56:57.000Z</time>
      </trkpt>
      <trkpt lat="45.19653" lon="4.96918">
        <ele>354.60000610352</ele>
        <time>2018-05-20T05:57:04.000Z</time>
      </trkpt>
      <trkpt lat="45.19646" lon="4.9692">
        <ele>354.60000610352</ele>
        <time>2018-05-20T05:57:07.000Z</time>
      </trkpt>
      <trkpt lat="45.19644" lon="4.96925">
        <ele>354.79998779297</ele>
        <time>2018-05-20T05:57:09.000Z</time>
      </trkpt>
      <trkpt lat="45.19635" lon="4.96964">
        <ele>355.39999389648</ele>
        <time>2018-05-20T05:57:16.000Z</time>
      </trkpt>
      <trkpt lat="45.19622" lon="4.96998">
        <ele>355.20001220703</ele>
        <time>2018-05-20T05:57:23.000Z</time>
      </trkpt>
      <trkpt lat="45.19619" lon="4.97002">
        <ele>355.20001220703</ele>
        <time>2018-05-20T05:57:24.000Z</time>
      </trkpt>
      <trkpt lat="45.19613" lon="4.97004">
        <ele>355.60000610352</ele>
        <time>2018-05-20T05:57:26.000Z</time>
      </trkpt>
      <trkpt lat="45.19599" lon="4.97006">
        <ele>356.20001220703</ele>
        <time>2018-05-20T05:57:30.000Z</time>
      </trkpt>
      <trkpt lat="45.19592" lon="4.97007">
        <ele>356.39999389648</ele>
        <time>2018-05-20T05:57:32.000Z</time>
      </trkpt>
      <trkpt lat="45.19583" lon="4.97007">
        <ele>356.79998779297</ele>
        <time>2018-05-20T05:57:35.000Z</time>
      </trkpt>
      <trkpt lat="45.19564" lon="4.97008">
        <ele>357.20001220703</ele>
        <time>2018-05-20T05:57:41.000Z</time>
      </trkpt>
      <trkpt lat="45.19553" lon="4.9701">
        <ele>357.60000610352</ele>
        <time>2018-05-20T05:57:45.000Z</time>
      </trkpt>
      <trkpt lat="45.19541" lon="4.97012">
        <ele>358.20001220703</ele>
        <time>2018-05-20T05:57:49.000Z</time>
      </trkpt>
      <trkpt lat="45.19528" lon="4.97014">
        <ele>358.60000610352</ele>
        <time>2018-05-20T05:57:53.000Z</time>
      </trkpt>
      <trkpt lat="45.19514" lon="4.97018">
        <ele>359.39999389648</ele>
        <time>2018-05-20T05:57:58.000Z</time>
      </trkpt>
      <trkpt lat="45.19511" lon="4.97018">
        <ele>359.39999389648</ele>
        <time>2018-05-20T05:57:59.000Z</time>
      </trkpt>
      <trkpt lat="45.19499" lon="4.9702">
        <ele>360</ele>
        <time>2018-05-20T05:58:03.000Z</time>
      </trkpt>
      <trkpt lat="45.19487" lon="4.97023">
        <ele>361.39999389648</ele>
        <time>2018-05-20T05:58:07.000Z</time>
      </trkpt>
      <trkpt lat="45.19476" lon="4.97025">
        <ele>362.39999389648</ele>
        <time>2018-05-20T05:58:10.000Z</time>
      </trkpt>
      <trkpt lat="45.19459" lon="4.9703">
        <ele>362.79998779297</ele>
        <time>2018-05-20T05:58:15.000Z</time>
      </trkpt>
      <trkpt lat="45.19432" lon="4.9704">
        <ele>362.60000610352</ele>
        <time>2018-05-20T05:58:21.000Z</time>
      </trkpt>
      <trkpt lat="45.19409" lon="4.97048">
        <ele>361.79998779297</ele>
        <time>2018-05-20T05:58:26.000Z</time>
      </trkpt>
      <trkpt lat="45.19405" lon="4.97049">
        <ele>362</ele>
        <time>2018-05-20T05:58:27.000Z</time>
      </trkpt>
      <trkpt lat="45.19393" lon="4.97048">
        <ele>362.39999389648</ele>
        <time>2018-05-20T05:58:30.000Z</time>
      </trkpt>
      <trkpt lat="45.19382" lon="4.97049">
        <ele>362.79998779297</ele>
        <time>2018-05-20T05:58:33.000Z</time>
      </trkpt>
      <trkpt lat="45.19374" lon="4.97051">
        <ele>363.39999389648</ele>
        <time>2018-05-20T05:58:36.000Z</time>
      </trkpt>
      <trkpt lat="45.19369" lon="4.97055">
        <ele>364</ele>
        <time>2018-05-20T05:58:38.000Z</time>
      </trkpt>
      <trkpt lat="45.19367" lon="4.97058">
        <ele>364.39999389648</ele>
        <time>2018-05-20T05:58:39.000Z</time>
      </trkpt>
      <trkpt lat="45.19354" lon="4.97072">
        <ele>367.20001220703</ele>
        <time>2018-05-20T05:58:44.000Z</time>
      </trkpt>
      <trkpt lat="45.19349" lon="4.97077">
        <ele>367.79998779297</ele>
        <time>2018-05-20T05:58:46.000Z</time>
      </trkpt>
      <trkpt lat="45.19344" lon="4.97082">
        <ele>368.20001220703</ele>
        <time>2018-05-20T05:58:48.000Z</time>
      </trkpt>
      <trkpt lat="45.19334" lon="4.97089">
        <ele>369.60000610352</ele>
        <time>2018-05-20T05:58:52.000Z</time>
      </trkpt>
      <trkpt lat="45.19331" lon="4.9709">
        <ele>369.79998779297</ele>
        <time>2018-05-20T05:58:53.000Z</time>
      </trkpt>
      <trkpt lat="45.19324" lon="4.97092">
        <ele>370.39999389648</ele>
        <time>2018-05-20T05:58:56.000Z</time>
      </trkpt>
      <trkpt lat="45.19311" lon="4.97097">
        <ele>371.60000610352</ele>
        <time>2018-05-20T05:59:02.000Z</time>
      </trkpt>
      <trkpt lat="45.19301" lon="4.971">
        <ele>372.20001220703</ele>
        <time>2018-05-20T05:59:06.000Z</time>
      </trkpt>
      <trkpt lat="45.19296" lon="4.97102">
        <ele>372.79998779297</ele>
        <time>2018-05-20T05:59:08.000Z</time>
      </trkpt>
      <trkpt lat="45.1929" lon="4.97105">
        <ele>373</ele>
        <time>2018-05-20T05:59:11.000Z</time>
      </trkpt>
      <trkpt lat="45.19285" lon="4.97107">
        <ele>373.20001220703</ele>
        <time>2018-05-20T05:59:13.000Z</time>
      </trkpt>
      <trkpt lat="45.19274" lon="4.97113">
        <ele>374</ele>
        <time>2018-05-20T05:59:18.000Z</time>
      </trkpt>
      <trkpt lat="45.19272" lon="4.97115">
        <ele>374.20001220703</ele>
        <time>2018-05-20T05:59:19.000Z</time>
      </trkpt>
      <trkpt lat="45.19264" lon="4.9712">
        <ele>375</ele>
        <time>2018-05-20T05:59:23.000Z</time>
      </trkpt>
      <trkpt lat="45.19258" lon="4.97124">
        <ele>375.60000610352</ele>
        <time>2018-05-20T05:59:26.000Z</time>
      </trkpt>
      <trkpt lat="45.19256" lon="4.97126">
        <ele>375.60000610352</ele>
        <time>2018-05-20T05:59:27.000Z</time>
      </trkpt>
      <trkpt lat="45.19247" lon="4.97133">
        <ele>376.20001220703</ele>
        <time>2018-05-20T05:59:32.000Z</time>
      </trkpt>
      <trkpt lat="45.19243" lon="4.97136">
        <ele>376.39999389648</ele>
        <time>2018-05-20T05:59:34.000Z</time>
      </trkpt>
      <trkpt lat="45.19236" lon="4.97141">
        <ele>377</ele>
        <time>2018-05-20T05:59:38.000Z</time>
      </trkpt>
      <trkpt lat="45.19234" lon="4.97142">
        <ele>377.20001220703</ele>
        <time>2018-05-20T05:59:39.000Z</time>
      </trkpt>
      <trkpt lat="45.19227" lon="4.97147">
        <ele>378</ele>
        <time>2018-05-20T05:59:43.000Z</time>
      </trkpt>
      <trkpt lat="45.19222" lon="4.97149">
        <ele>378.39999389648</ele>
        <time>2018-05-20T05:59:46.000Z</time>
      </trkpt>
      <trkpt lat="45.1922" lon="4.9715">
        <ele>378.60000610352</ele>
        <time>2018-05-20T05:59:47.000Z</time>
      </trkpt>
      <trkpt lat="45.19213" lon="4.97153">
        <ele>379.20001220703</ele>
        <time>2018-05-20T05:59:51.000Z</time>
      </trkpt>
      <trkpt lat="45.1921" lon="4.97156">
        <ele>379.79998779297</ele>
        <time>2018-05-20T05:59:53.000Z</time>
      </trkpt>
      <trkpt lat="45.19208" lon="4.97157">
        <ele>380.20001220703</ele>
        <time>2018-05-20T05:59:55.000Z</time>
      </trkpt>
      <trkpt lat="45.19206" lon="4.97158">
        <ele>380.60000610352</ele>
        <time>2018-05-20T05:59:57.000Z</time>
      </trkpt>
      <trkpt lat="45.19204" lon="4.97158">
        <ele>380.79998779297</ele>
        <time>2018-05-20T05:59:58.000Z</time>
      </trkpt>
      <trkpt lat="45.19202" lon="4.97158">
        <ele>381</ele>
        <time>2018-05-20T05:59:59.000Z</time>
      </trkpt>
      <trkpt lat="45.19194" lon="4.9716">
        <ele>382</ele>
        <time>2018-05-20T06:00:04.000Z</time>
      </trkpt>
      <trkpt lat="45.19193" lon="4.97161">
        <ele>382.39999389648</ele>
        <time>2018-05-20T06:00:05.000Z</time>
      </trkpt>
      <trkpt lat="45.19184" lon="4.97166">
        <ele>384.79998779297</ele>
        <time>2018-05-20T06:00:10.000Z</time>
      </trkpt>
      <trkpt lat="45.1918" lon="4.97168">
        <ele>385.79998779297</ele>
        <time>2018-05-20T06:00:12.000Z</time>
      </trkpt>
      <trkpt lat="45.19175" lon="4.9717">
        <ele>386.79998779297</ele>
        <time>2018-05-20T06:00:15.000Z</time>
      </trkpt>
      <trkpt lat="45.19168" lon="4.97171">
        <ele>387.60000610352</ele>
        <time>2018-05-20T06:00:19.000Z</time>
      </trkpt>
      <trkpt lat="45.19167" lon="4.97171">
        <ele>387.79998779297</ele>
        <time>2018-05-20T06:00:20.000Z</time>
      </trkpt>
      <trkpt lat="45.19164" lon="4.97171">
        <ele>388</ele>
        <time>2018-05-20T06:00:22.000Z</time>
      </trkpt>
      <trkpt lat="45.19161" lon="4.97172">
        <ele>388.60000610352</ele>
        <time>2018-05-20T06:00:24.000Z</time>
      </trkpt>
      <trkpt lat="45.19151" lon="4.9717">
        <ele>388.20001220703</ele>
        <time>2018-05-20T06:00:29.000Z</time>
      </trkpt>
      <trkpt lat="45.19149" lon="4.9717">
        <ele>388.20001220703</ele>
        <time>2018-05-20T06:00:30.000Z</time>
      </trkpt>
      <trkpt lat="45.19144" lon="4.97172">
        <ele>388.79998779297</ele>
        <time>2018-05-20T06:00:33.000Z</time>
      </trkpt>
      <trkpt lat="45.19144" lon="4.97174">
        <ele>389.20001220703</ele>
        <time>2018-05-20T06:00:34.000Z</time>
      </trkpt>
      <trkpt lat="45.19143" lon="4.97176">
        <ele>389.79998779297</ele>
        <time>2018-05-20T06:00:35.000Z</time>
      </trkpt>
      <trkpt lat="45.19144" lon="4.97185">
        <ele>391.39999389648</ele>
        <time>2018-05-20T06:00:39.000Z</time>
      </trkpt>
      <trkpt lat="45.19147" lon="4.9719">
        <ele>391.79998779297</ele>
        <time>2018-05-20T06:00:41.000Z</time>
      </trkpt>
      <trkpt lat="45.19153" lon="4.97198">
        <ele>392.79998779297</ele>
        <time>2018-05-20T06:00:44.000Z</time>
      </trkpt>
      <trkpt lat="45.1916" lon="4.97207">
        <ele>393.60000610352</ele>
        <time>2018-05-20T06:00:48.000Z</time>
      </trkpt>
      <trkpt lat="45.19162" lon="4.97209">
        <ele>393.79998779297</ele>
        <time>2018-05-20T06:00:49.000Z</time>
      </trkpt>
      <trkpt lat="45.19171" lon="4.97225">
        <ele>394.39999389648</ele>
        <time>2018-05-20T06:00:56.000Z</time>
      </trkpt>
      <trkpt lat="45.19171" lon="4.97227">
        <ele>394.60000610352</ele>
        <time>2018-05-20T06:00:57.000Z</time>
      </trkpt>
      <trkpt lat="45.19171" lon="4.9724">
        <ele>396</ele>
        <time>2018-05-20T06:01:02.000Z</time>
      </trkpt>
      <trkpt lat="45.19168" lon="4.97247">
        <ele>396.60000610352</ele>
        <time>2018-05-20T06:01:05.000Z</time>
      </trkpt>
      <trkpt lat="45.19164" lon="4.97258">
        <ele>396.79998779297</ele>
        <time>2018-05-20T06:01:09.000Z</time>
      </trkpt>
      <trkpt lat="45.1916" lon="4.97271">
        <ele>397.39999389648</ele>
        <time>2018-05-20T06:01:14.000Z</time>
      </trkpt>
      <trkpt lat="45.19158" lon="4.97276">
        <ele>398</ele>
        <time>2018-05-20T06:01:16.000Z</time>
      </trkpt>
      <trkpt lat="45.19154" lon="4.97288">
        <ele>399</ele>
        <time>2018-05-20T06:01:20.000Z</time>
      </trkpt>
      <trkpt lat="45.19152" lon="4.97296">
        <ele>399.20001220703</ele>
        <time>2018-05-20T06:01:23.000Z</time>
      </trkpt>
      <trkpt lat="45.19149" lon="4.97305">
        <ele>399.60000610352</ele>
        <time>2018-05-20T06:01:26.000Z</time>
      </trkpt>
      <trkpt lat="45.19142" lon="4.97324">
        <ele>400</ele>
        <time>2018-05-20T06:01:32.000Z</time>
      </trkpt>
      <trkpt lat="45.1913" lon="4.97352">
        <ele>402.20001220703</ele>
        <time>2018-05-20T06:01:41.000Z</time>
      </trkpt>
      <trkpt lat="45.19122" lon="4.97372">
        <ele>403.79998779297</ele>
        <time>2018-05-20T06:01:48.000Z</time>
      </trkpt>
      <trkpt lat="45.1912" lon="4.97381">
        <ele>404.20001220703</ele>
        <time>2018-05-20T06:01:51.000Z</time>
      </trkpt>
      <trkpt lat="45.19119" lon="4.9739">
        <ele>404.20001220703</ele>
        <time>2018-05-20T06:01:54.000Z</time>
      </trkpt>
      <trkpt lat="45.19118" lon="4.974">
        <ele>404.79998779297</ele>
        <time>2018-05-20T06:01:57.000Z</time>
      </trkpt>
      <trkpt lat="45.19117" lon="4.97429">
        <ele>406</ele>
        <time>2018-05-20T06:02:06.000Z</time>
      </trkpt>
      <trkpt lat="45.19117" lon="4.97456">
        <ele>407.39999389648</ele>
        <time>2018-05-20T06:02:14.000Z</time>
      </trkpt>
      <trkpt lat="45.19117" lon="4.97481">
        <ele>408.20001220703</ele>
        <time>2018-05-20T06:02:21.000Z</time>
      </trkpt>
      <trkpt lat="45.19117" lon="4.97497">
        <ele>408.39999389648</ele>
        <time>2018-05-20T06:02:24.000Z</time>
      </trkpt>
      <trkpt lat="45.19117" lon="4.97529">
        <ele>408.39999389648</ele>
        <time>2018-05-20T06:02:30.000Z</time>
      </trkpt>
      <trkpt lat="45.19125" lon="4.97556">
        <ele>408.79998779297</ele>
        <time>2018-05-20T06:02:36.000Z</time>
      </trkpt>
      <trkpt lat="45.19133" lon="4.97581">
        <ele>409</ele>
        <time>2018-05-20T06:02:43.000Z</time>
      </trkpt>
      <trkpt lat="45.19134" lon="4.97588">
        <ele>409.20001220703</ele>
        <time>2018-05-20T06:02:45.000Z</time>
      </trkpt>
      <trkpt lat="45.19133" lon="4.97601">
        <ele>410.60000610352</ele>
        <time>2018-05-20T06:02:49.000Z</time>
      </trkpt>
      <trkpt lat="45.19132" lon="4.97603">
        <ele>410.60000610352</ele>
        <time>2018-05-20T06:02:50.000Z</time>
      </trkpt>
      <trkpt lat="45.1913" lon="4.97612">
        <ele>411</ele>
        <time>2018-05-20T06:02:53.000Z</time>
      </trkpt>
      <trkpt lat="45.19127" lon="4.97623">
        <ele>411.39999389648</ele>
        <time>2018-05-20T06:02:57.000Z</time>
      </trkpt>
      <trkpt lat="45.19126" lon="4.97626">
        <ele>411.39999389648</ele>
        <time>2018-05-20T06:02:58.000Z</time>
      </trkpt>
      <trkpt lat="45.19125" lon="4.97629">
        <ele>411.60000610352</ele>
        <time>2018-05-20T06:02:59.000Z</time>
      </trkpt>
      <trkpt lat="45.19116" lon="4.97645">
        <ele>412.39999389648</ele>
        <time>2018-05-20T06:03:04.000Z</time>
      </trkpt>
      <trkpt lat="45.19099" lon="4.97659">
        <ele>412.39999389648</ele>
        <time>2018-05-20T06:03:08.000Z</time>
      </trkpt>
      <trkpt lat="45.19088" lon="4.97683">
        <ele>410.79998779297</ele>
        <time>2018-05-20T06:03:12.000Z</time>
      </trkpt>
      <trkpt lat="45.19083" lon="4.97716">
        <ele>408.60000610352</ele>
        <time>2018-05-20T06:03:16.000Z</time>
      </trkpt>
      <trkpt lat="45.19081" lon="4.97724">
        <ele>408.79998779297</ele>
        <time>2018-05-20T06:03:17.000Z</time>
      </trkpt>
      <trkpt lat="45.19079" lon="4.97732">
        <ele>408.79998779297</ele>
        <time>2018-05-20T06:03:18.000Z</time>
      </trkpt>
      <trkpt lat="45.19078" lon="4.97752">
        <ele>408.39999389648</ele>
        <time>2018-05-20T06:03:21.000Z</time>
      </trkpt>
      <trkpt lat="45.19078" lon="4.97758">
        <ele>408</ele>
        <time>2018-05-20T06:03:22.000Z</time>
      </trkpt>
      <trkpt lat="45.19082" lon="4.97794">
        <ele>408.20001220703</ele>
        <time>2018-05-20T06:03:28.000Z</time>
      </trkpt>
      <trkpt lat="45.19085" lon="4.97813">
        <ele>408</ele>
        <time>2018-05-20T06:03:31.000Z</time>
      </trkpt>
      <trkpt lat="45.19085" lon="4.97825">
        <ele>407.60000610352</ele>
        <time>2018-05-20T06:03:33.000Z</time>
      </trkpt>
      <trkpt lat="45.19086" lon="4.97831">
        <ele>407.39999389648</ele>
        <time>2018-05-20T06:03:34.000Z</time>
      </trkpt>
      <trkpt lat="45.19086" lon="4.97868">
        <ele>406.60000610352</ele>
        <time>2018-05-20T06:03:41.000Z</time>
      </trkpt>
      <trkpt lat="45.19081" lon="4.97903">
        <ele>407.20001220703</ele>
        <time>2018-05-20T06:03:47.000Z</time>
      </trkpt>
      <trkpt lat="45.19073" lon="4.97928">
        <ele>408.20001220703</ele>
        <time>2018-05-20T06:03:51.000Z</time>
      </trkpt>
      <trkpt lat="45.19068" lon="4.97938">
        <ele>409</ele>
        <time>2018-05-20T06:03:53.000Z</time>
      </trkpt>
      <trkpt lat="45.19054" lon="4.97963">
        <ele>409.39999389648</ele>
        <time>2018-05-20T06:03:59.000Z</time>
      </trkpt>
      <trkpt lat="45.19045" lon="4.97985">
        <ele>408.20001220703</ele>
        <time>2018-05-20T06:04:04.000Z</time>
      </trkpt>
      <trkpt lat="45.1905" lon="4.98004">
        <ele>407.20001220703</ele>
        <time>2018-05-20T06:04:08.000Z</time>
      </trkpt>
      <trkpt lat="45.19061" lon="4.98027">
        <ele>406.60000610352</ele>
        <time>2018-05-20T06:04:13.000Z</time>
      </trkpt>
      <trkpt lat="45.19066" lon="4.98042">
        <ele>406.39999389648</ele>
        <time>2018-05-20T06:04:16.000Z</time>
      </trkpt>
      <trkpt lat="45.19076" lon="4.98075">
        <ele>407.20001220703</ele>
        <time>2018-05-20T06:04:23.000Z</time>
      </trkpt>
      <trkpt lat="45.19086" lon="4.98094">
        <ele>407.39999389648</ele>
        <time>2018-05-20T06:04:28.000Z</time>
      </trkpt>
      <trkpt lat="45.19106" lon="4.98121">
        <ele>408.60000610352</ele>
        <time>2018-05-20T06:04:36.000Z</time>
      </trkpt>
      <trkpt lat="45.19111" lon="4.98127">
        <ele>409</ele>
        <time>2018-05-20T06:04:38.000Z</time>
      </trkpt>
      <trkpt lat="45.1912" lon="4.98139">
        <ele>410.39999389648</ele>
        <time>2018-05-20T06:04:42.000Z</time>
      </trkpt>
      <trkpt lat="45.19125" lon="4.98148">
        <ele>411.39999389648</ele>
        <time>2018-05-20T06:04:45.000Z</time>
      </trkpt>
      <trkpt lat="45.19133" lon="4.98159">
        <ele>413</ele>
        <time>2018-05-20T06:04:50.000Z</time>
      </trkpt>
      <trkpt lat="45.19141" lon="4.98171">
        <ele>414.79998779297</ele>
        <time>2018-05-20T06:04:55.000Z</time>
      </trkpt>
      <trkpt lat="45.19146" lon="4.98176">
        <ele>416</ele>
        <time>2018-05-20T06:04:58.000Z</time>
      </trkpt>
      <trkpt lat="45.19149" lon="4.98179">
        <ele>416.60000610352</ele>
        <time>2018-05-20T06:05:00.000Z</time>
      </trkpt>
      <trkpt lat="45.19155" lon="4.98187">
        <ele>418</ele>
        <time>2018-05-20T06:05:04.000Z</time>
      </trkpt>
      <trkpt lat="45.19158" lon="4.98192">
        <ele>418.79998779297</ele>
        <time>2018-05-20T06:05:07.000Z</time>
      </trkpt>
      <trkpt lat="45.19159" lon="4.98193">
        <ele>419</ele>
        <time>2018-05-20T06:05:08.000Z</time>
      </trkpt>
      <trkpt lat="45.19165" lon="4.98201">
        <ele>420.20001220703</ele>
        <time>2018-05-20T06:05:12.000Z</time>
      </trkpt>
      <trkpt lat="45.19168" lon="4.98204">
        <ele>420.79998779297</ele>
        <time>2018-05-20T06:05:14.000Z</time>
      </trkpt>
      <trkpt lat="45.19171" lon="4.98211">
        <ele>421.60000610352</ele>
        <time>2018-05-20T06:05:17.000Z</time>
      </trkpt>
      <trkpt lat="45.19175" lon="4.98216">
        <ele>422.39999389648</ele>
        <time>2018-05-20T06:05:20.000Z</time>
      </trkpt>
      <trkpt lat="45.19177" lon="4.98218">
        <ele>422.79998779297</ele>
        <time>2018-05-20T06:05:21.000Z</time>
      </trkpt>
      <trkpt lat="45.19183" lon="4.98224">
        <ele>423.79998779297</ele>
        <time>2018-05-20T06:05:25.000Z</time>
      </trkpt>
      <trkpt lat="45.19187" lon="4.98229">
        <ele>424.60000610352</ele>
        <time>2018-05-20T06:05:28.000Z</time>
      </trkpt>
      <trkpt lat="45.19188" lon="4.98231">
        <ele>424.60000610352</ele>
        <time>2018-05-20T06:05:29.000Z</time>
      </trkpt>
      <trkpt lat="45.19194" lon="4.98235">
        <ele>424.79998779297</ele>
        <time>2018-05-20T06:05:32.000Z</time>
      </trkpt>
      <trkpt lat="45.19198" lon="4.9824">
        <ele>424.79998779297</ele>
        <time>2018-05-20T06:05:35.000Z</time>
      </trkpt>
      <trkpt lat="45.19202" lon="4.98243">
        <ele>425</ele>
        <time>2018-05-20T06:05:37.000Z</time>
      </trkpt>
      <trkpt lat="45.19204" lon="4.98247">
        <ele>425.20001220703</ele>
        <time>2018-05-20T06:05:39.000Z</time>
      </trkpt>
      <trkpt lat="45.19209" lon="4.98255">
        <ele>425.60000610352</ele>
        <time>2018-05-20T06:05:43.000Z</time>
      </trkpt>
      <trkpt lat="45.1921" lon="4.98257">
        <ele>425.79998779297</ele>
        <time>2018-05-20T06:05:44.000Z</time>
      </trkpt>
      <trkpt lat="45.19212" lon="4.98262">
        <ele>426</ele>
        <time>2018-05-20T06:05:46.000Z</time>
      </trkpt>
      <trkpt lat="45.19214" lon="4.9827">
        <ele>426</ele>
        <time>2018-05-20T06:05:49.000Z</time>
      </trkpt>
      <trkpt lat="45.19215" lon="4.98275">
        <ele>426</ele>
        <time>2018-05-20T06:05:51.000Z</time>
      </trkpt>
      <trkpt lat="45.19217" lon="4.9828">
        <ele>426</ele>
        <time>2018-05-20T06:05:53.000Z</time>
      </trkpt>
      <trkpt lat="45.19217" lon="4.98283">
        <ele>426</ele>
        <time>2018-05-20T06:05:54.000Z</time>
      </trkpt>
      <trkpt lat="45.19221" lon="4.98294">
        <ele>426.20001220703</ele>
        <time>2018-05-20T06:05:58.000Z</time>
      </trkpt>
      <trkpt lat="45.19225" lon="4.98309">
        <ele>426.79998779297</ele>
        <time>2018-05-20T06:06:03.000Z</time>
      </trkpt>
      <trkpt lat="45.19229" lon="4.98334">
        <ele>427.60000610352</ele>
        <time>2018-05-20T06:06:11.000Z</time>
      </trkpt>
      <trkpt lat="45.19229" lon="4.9834">
        <ele>428</ele>
        <time>2018-05-20T06:06:13.000Z</time>
      </trkpt>
      <trkpt lat="45.1923" lon="4.98356">
        <ele>429.20001220703</ele>
        <time>2018-05-20T06:06:19.000Z</time>
      </trkpt>
      <trkpt lat="45.19231" lon="4.98361">
        <ele>429.60000610352</ele>
        <time>2018-05-20T06:06:21.000Z</time>
      </trkpt>
      <trkpt lat="45.19232" lon="4.98363">
        <ele>429.79998779297</ele>
        <time>2018-05-20T06:06:22.000Z</time>
      </trkpt>
      <trkpt lat="45.19232" lon="4.98376">
        <ele>430.79998779297</ele>
        <time>2018-05-20T06:06:27.000Z</time>
      </trkpt>
      <trkpt lat="45.19233" lon="4.98381">
        <ele>431.39999389648</ele>
        <time>2018-05-20T06:06:29.000Z</time>
      </trkpt>
      <trkpt lat="45.19233" lon="4.98386">
        <ele>432</ele>
        <time>2018-05-20T06:06:31.000Z</time>
      </trkpt>
      <trkpt lat="45.19233" lon="4.98399">
        <ele>433.60000610352</ele>
        <time>2018-05-20T06:06:36.000Z</time>
      </trkpt>
      <trkpt lat="45.19233" lon="4.9841">
        <ele>435</ele>
        <time>2018-05-20T06:06:40.000Z</time>
      </trkpt>
      <trkpt lat="45.19232" lon="4.9842">
        <ele>436.60000610352</ele>
        <time>2018-05-20T06:06:44.000Z</time>
      </trkpt>
      <trkpt lat="45.19232" lon="4.98425">
        <ele>437.20001220703</ele>
        <time>2018-05-20T06:06:46.000Z</time>
      </trkpt>
      <trkpt lat="45.19232" lon="4.98437">
        <ele>438.79998779297</ele>
        <time>2018-05-20T06:06:50.000Z</time>
      </trkpt>
      <trkpt lat="45.19233" lon="4.98446">
        <ele>439.60000610352</ele>
        <time>2018-05-20T06:06:53.000Z</time>
      </trkpt>
      <trkpt lat="45.19237" lon="4.98467">
        <ele>442</ele>
        <time>2018-05-20T06:07:01.000Z</time>
      </trkpt>
      <trkpt lat="45.19238" lon="4.98469">
        <ele>442.20001220703</ele>
        <time>2018-05-20T06:07:02.000Z</time>
      </trkpt>
      <trkpt lat="45.1924" lon="4.9848">
        <ele>443.39999389648</ele>
        <time>2018-05-20T06:07:06.000Z</time>
      </trkpt>
      <trkpt lat="45.19243" lon="4.985">
        <ele>444.20001220703</ele>
        <time>2018-05-20T06:07:12.000Z</time>
      </trkpt>
      <trkpt lat="45.19244" lon="4.98533">
        <ele>444.39999389648</ele>
        <time>2018-05-20T06:07:18.000Z</time>
      </trkpt>
      <trkpt lat="45.19244" lon="4.9854">
        <ele>444.60000610352</ele>
        <time>2018-05-20T06:07:19.000Z</time>
      </trkpt>
      <trkpt lat="45.19241" lon="4.98571">
        <ele>443</ele>
        <time>2018-05-20T06:07:23.000Z</time>
      </trkpt>
      <trkpt lat="45.1924" lon="4.9858">
        <ele>442.39999389648</ele>
        <time>2018-05-20T06:07:24.000Z</time>
      </trkpt>
      <trkpt lat="45.19237" lon="4.98617">
        <ele>439.60000610352</ele>
        <time>2018-05-20T06:07:29.000Z</time>
      </trkpt>
      <trkpt lat="45.19237" lon="4.98623">
        <ele>439.20001220703</ele>
        <time>2018-05-20T06:07:30.000Z</time>
      </trkpt>
      <trkpt lat="45.19235" lon="4.98647">
        <ele>437.20001220703</ele>
        <time>2018-05-20T06:07:35.000Z</time>
      </trkpt>
      <trkpt lat="45.19233" lon="4.98662">
        <ele>437</ele>
        <time>2018-05-20T06:07:39.000Z</time>
      </trkpt>
      <trkpt lat="45.19232" lon="4.98674">
        <ele>437.20001220703</ele>
        <time>2018-05-20T06:07:42.000Z</time>
      </trkpt>
      <trkpt lat="45.19225" lon="4.98701">
        <ele>436.79998779297</ele>
        <time>2018-05-20T06:07:47.000Z</time>
      </trkpt>
      <trkpt lat="45.19224" lon="4.98708">
        <ele>436.60000610352</ele>
        <time>2018-05-20T06:07:48.000Z</time>
      </trkpt>
      <trkpt lat="45.19217" lon="4.98735">
        <ele>433.79998779297</ele>
        <time>2018-05-20T06:07:51.000Z</time>
      </trkpt>
      <trkpt lat="45.19214" lon="4.98746">
        <ele>432</ele>
        <time>2018-05-20T06:07:52.000Z</time>
      </trkpt>
      <trkpt lat="45.1921" lon="4.98773">
        <ele>427.79998779297</ele>
        <time>2018-05-20T06:07:54.000Z</time>
      </trkpt>
      <trkpt lat="45.19209" lon="4.98788">
        <ele>425.60000610352</ele>
        <time>2018-05-20T06:07:55.000Z</time>
      </trkpt>
      <trkpt lat="45.1921" lon="4.98802">
        <ele>423.79998779297</ele>
        <time>2018-05-20T06:07:56.000Z</time>
      </trkpt>
      <trkpt lat="45.19212" lon="4.98831">
        <ele>422.39999389648</ele>
        <time>2018-05-20T06:07:58.000Z</time>
      </trkpt>
      <trkpt lat="45.19212" lon="4.98845">
        <ele>423</ele>
        <time>2018-05-20T06:07:59.000Z</time>
      </trkpt>
      <trkpt lat="45.19211" lon="4.98858">
        <ele>423.20001220703</ele>
        <time>2018-05-20T06:08:00.000Z</time>
      </trkpt>
      <trkpt lat="45.19211" lon="4.98882">
        <ele>424</ele>
        <time>2018-05-20T06:08:02.000Z</time>
      </trkpt>
      <trkpt lat="45.19212" lon="4.98893">
        <ele>424.39999389648</ele>
        <time>2018-05-20T06:08:03.000Z</time>
      </trkpt>
      <trkpt lat="45.19212" lon="4.98901">
        <ele>424.79998779297</ele>
        <time>2018-05-20T06:08:04.000Z</time>
      </trkpt>
      <trkpt lat="45.19214" lon="4.98908">
        <ele>425.60000610352</ele>
        <time>2018-05-20T06:08:05.000Z</time>
      </trkpt>
      <trkpt lat="45.19216" lon="4.98913">
        <ele>425.79998779297</ele>
        <time>2018-05-20T06:08:06.000Z</time>
      </trkpt>
      <trkpt lat="45.1922" lon="4.98917">
        <ele>425.79998779297</ele>
        <time>2018-05-20T06:08:07.000Z</time>
      </trkpt>
      <trkpt lat="45.19227" lon="4.98925">
        <ele>425.60000610352</ele>
        <time>2018-05-20T06:08:09.000Z</time>
      </trkpt>
      <trkpt lat="45.1923" lon="4.9893">
        <ele>425.60000610352</ele>
        <time>2018-05-20T06:08:10.000Z</time>
      </trkpt>
      <trkpt lat="45.19235" lon="4.98942">
        <ele>426.60000610352</ele>
        <time>2018-05-20T06:08:12.000Z</time>
      </trkpt>
      <trkpt lat="45.1924" lon="4.98955">
        <ele>427.79998779297</ele>
        <time>2018-05-20T06:08:14.000Z</time>
      </trkpt>
      <trkpt lat="45.19243" lon="4.98959">
        <ele>427.79998779297</ele>
        <time>2018-05-20T06:08:15.000Z</time>
      </trkpt>
      <trkpt lat="45.19246" lon="4.98962">
        <ele>427.20001220703</ele>
        <time>2018-05-20T06:08:16.000Z</time>
      </trkpt>
      <trkpt lat="45.1925" lon="4.98964">
        <ele>426.39999389648</ele>
        <time>2018-05-20T06:08:17.000Z</time>
      </trkpt>
      <trkpt lat="45.19257" lon="4.9897">
        <ele>425.39999389648</ele>
        <time>2018-05-20T06:08:19.000Z</time>
      </trkpt>
      <trkpt lat="45.19264" lon="4.98981">
        <ele>424.79998779297</ele>
        <time>2018-05-20T06:08:21.000Z</time>
      </trkpt>
      <trkpt lat="45.19267" lon="4.98989">
        <ele>424.60000610352</ele>
        <time>2018-05-20T06:08:22.000Z</time>
      </trkpt>
      <trkpt lat="45.19271" lon="4.98998">
        <ele>423.60000610352</ele>
        <time>2018-05-20T06:08:23.000Z</time>
      </trkpt>
      <trkpt lat="45.19276" lon="4.99007">
        <ele>422.20001220703</ele>
        <time>2018-05-20T06:08:24.000Z</time>
      </trkpt>
      <trkpt lat="45.19282" lon="4.99016">
        <ele>420.79998779297</ele>
        <time>2018-05-20T06:08:25.000Z</time>
      </trkpt>
      <trkpt lat="45.19287" lon="4.99026">
        <ele>419.60000610352</ele>
        <time>2018-05-20T06:08:26.000Z</time>
      </trkpt>
      <trkpt lat="45.19295" lon="4.99047">
        <ele>417.60000610352</ele>
        <time>2018-05-20T06:08:28.000Z</time>
      </trkpt>
      <trkpt lat="45.19301" lon="4.99068">
        <ele>417.39999389648</ele>
        <time>2018-05-20T06:08:30.000Z</time>
      </trkpt>
      <trkpt lat="45.19305" lon="4.99078">
        <ele>417.79998779297</ele>
        <time>2018-05-20T06:08:31.000Z</time>
      </trkpt>
      <trkpt lat="45.1931" lon="4.99085">
        <ele>417.79998779297</ele>
        <time>2018-05-20T06:08:32.000Z</time>
      </trkpt>
      <trkpt lat="45.19316" lon="4.99091">
        <ele>417.60000610352</ele>
        <time>2018-05-20T06:08:33.000Z</time>
      </trkpt>
      <trkpt lat="45.19331" lon="4.99102">
        <ele>416.39999389648</ele>
        <time>2018-05-20T06:08:35.000Z</time>
      </trkpt>
      <trkpt lat="45.19347" lon="4.99113">
        <ele>414.79998779297</ele>
        <time>2018-05-20T06:08:37.000Z</time>
      </trkpt>
      <trkpt lat="45.19355" lon="4.99118">
        <ele>414</ele>
        <time>2018-05-20T06:08:38.000Z</time>
      </trkpt>
      <trkpt lat="45.19369" lon="4.99128">
        <ele>412.60000610352</ele>
        <time>2018-05-20T06:08:40.000Z</time>
      </trkpt>
      <trkpt lat="45.19375" lon="4.99134">
        <ele>412.20001220703</ele>
        <time>2018-05-20T06:08:41.000Z</time>
      </trkpt>
      <trkpt lat="45.19381" lon="4.99139">
        <ele>412</ele>
        <time>2018-05-20T06:08:42.000Z</time>
      </trkpt>
      <trkpt lat="45.19392" lon="4.9915">
        <ele>411.39999389648</ele>
        <time>2018-05-20T06:08:44.000Z</time>
      </trkpt>
      <trkpt lat="45.19414" lon="4.99171">
        <ele>412.60000610352</ele>
        <time>2018-05-20T06:08:48.000Z</time>
      </trkpt>
      <trkpt lat="45.19439" lon="4.99181">
        <ele>413</ele>
        <time>2018-05-20T06:08:52.000Z</time>
      </trkpt>
      <trkpt lat="45.19445" lon="4.99182">
        <ele>413.20001220703</ele>
        <time>2018-05-20T06:08:53.000Z</time>
      </trkpt>
      <trkpt lat="45.19469" lon="4.99186">
        <ele>413.20001220703</ele>
        <time>2018-05-20T06:08:57.000Z</time>
      </trkpt>
      <trkpt lat="45.19475" lon="4.99188">
        <ele>412.79998779297</ele>
        <time>2018-05-20T06:08:58.000Z</time>
      </trkpt>
      <trkpt lat="45.19502" lon="4.99208">
        <ele>412.20001220703</ele>
        <time>2018-05-20T06:09:03.000Z</time>
      </trkpt>
      <trkpt lat="45.19506" lon="4.99212">
        <ele>412</ele>
        <time>2018-05-20T06:09:04.000Z</time>
      </trkpt>
      <trkpt lat="45.19514" lon="4.99219">
        <ele>411.39999389648</ele>
        <time>2018-05-20T06:09:06.000Z</time>
      </trkpt>
      <trkpt lat="45.19528" lon="4.99231">
        <ele>411</ele>
        <time>2018-05-20T06:09:10.000Z</time>
      </trkpt>
      <trkpt lat="45.19559" lon="4.99255">
        <ele>410</ele>
        <time>2018-05-20T06:09:19.000Z</time>
      </trkpt>
      <trkpt lat="45.19562" lon="4.99258">
        <ele>410</ele>
        <time>2018-05-20T06:09:20.000Z</time>
      </trkpt>
      <trkpt lat="45.19576" lon="4.99266">
        <ele>409</ele>
        <time>2018-05-20T06:09:24.000Z</time>
      </trkpt>
      <trkpt lat="45.19588" lon="4.99282">
        <ele>407.60000610352</ele>
        <time>2018-05-20T06:09:29.000Z</time>
      </trkpt>
      <trkpt lat="45.19591" lon="4.99302">
        <ele>407.60000610352</ele>
        <time>2018-05-20T06:09:33.000Z</time>
      </trkpt>
      <trkpt lat="45.19589" lon="4.99328">
        <ele>408.79998779297</ele>
        <time>2018-05-20T06:09:36.000Z</time>
      </trkpt>
      <trkpt lat="45.19588" lon="4.99337">
        <ele>409.20001220703</ele>
        <time>2018-05-20T06:09:37.000Z</time>
      </trkpt>
      <trkpt lat="45.19586" lon="4.99357">
        <ele>409.39999389648</ele>
        <time>2018-05-20T06:09:39.000Z</time>
      </trkpt>
      <trkpt lat="45.19585" lon="4.99388">
        <ele>407.79998779297</ele>
        <time>2018-05-20T06:09:42.000Z</time>
      </trkpt>
      <trkpt lat="45.19585" lon="4.99397">
        <ele>407.39999389648</ele>
        <time>2018-05-20T06:09:43.000Z</time>
      </trkpt>
      <trkpt lat="45.19586" lon="4.99417">
        <ele>406</ele>
        <time>2018-05-20T06:09:45.000Z</time>
      </trkpt>
      <trkpt lat="45.19586" lon="4.99453">
        <ele>404.60000610352</ele>
        <time>2018-05-20T06:09:49.000Z</time>
      </trkpt>
      <trkpt lat="45.1958" lon="4.99509">
        <ele>405</ele>
        <time>2018-05-20T06:09:55.000Z</time>
      </trkpt>
      <trkpt lat="45.1958" lon="4.99518">
        <ele>405.39999389648</ele>
        <time>2018-05-20T06:09:56.000Z</time>
      </trkpt>
      <trkpt lat="45.19583" lon="4.99535">
        <ele>405.20001220703</ele>
        <time>2018-05-20T06:09:58.000Z</time>
      </trkpt>
      <trkpt lat="45.19588" lon="4.99542">
        <ele>404.79998779297</ele>
        <time>2018-05-20T06:09:59.000Z</time>
      </trkpt>
      <trkpt lat="45.19592" lon="4.99548">
        <ele>404.60000610352</ele>
        <time>2018-05-20T06:10:00.000Z</time>
      </trkpt>
      <trkpt lat="45.19601" lon="4.99562">
        <ele>404.60000610352</ele>
        <time>2018-05-20T06:10:02.000Z</time>
      </trkpt>
      <trkpt lat="45.19606" lon="4.99569">
        <ele>404.39999389648</ele>
        <time>2018-05-20T06:10:03.000Z</time>
      </trkpt>
      <trkpt lat="45.1962" lon="4.99589">
        <ele>401.20001220703</ele>
        <time>2018-05-20T06:10:06.000Z</time>
      </trkpt>
      <trkpt lat="45.19624" lon="4.99593">
        <ele>400.20001220703</ele>
        <time>2018-05-20T06:10:07.000Z</time>
      </trkpt>
      <trkpt lat="45.19629" lon="4.99596">
        <ele>399.39999389648</ele>
        <time>2018-05-20T06:10:08.000Z</time>
      </trkpt>
      <trkpt lat="45.19644" lon="4.99599">
        <ele>396.39999389648</ele>
        <time>2018-05-20T06:10:11.000Z</time>
      </trkpt>
      <trkpt lat="45.1966" lon="4.99597">
        <ele>393.79998779297</ele>
        <time>2018-05-20T06:10:13.000Z</time>
      </trkpt>
      <trkpt lat="45.19668" lon="4.99597">
        <ele>392.60000610352</ele>
        <time>2018-05-20T06:10:14.000Z</time>
      </trkpt>
      <trkpt lat="45.19676" lon="4.99598">
        <ele>391.39999389648</ele>
        <time>2018-05-20T06:10:15.000Z</time>
      </trkpt>
      <trkpt lat="45.19693" lon="4.99603">
        <ele>389</ele>
        <time>2018-05-20T06:10:17.000Z</time>
      </trkpt>
      <trkpt lat="45.197" lon="4.99606">
        <ele>387.60000610352</ele>
        <time>2018-05-20T06:10:18.000Z</time>
      </trkpt>
      <trkpt lat="45.19706" lon="4.9961">
        <ele>386.60000610352</ele>
        <time>2018-05-20T06:10:19.000Z</time>
      </trkpt>
      <trkpt lat="45.1971" lon="4.99615">
        <ele>386.20001220703</ele>
        <time>2018-05-20T06:10:20.000Z</time>
      </trkpt>
      <trkpt lat="45.19711" lon="4.99621">
        <ele>386.39999389648</ele>
        <time>2018-05-20T06:10:21.000Z</time>
      </trkpt>
      <trkpt lat="45.1971" lon="4.99627">
        <ele>386.60000610352</ele>
        <time>2018-05-20T06:10:22.000Z</time>
      </trkpt>
      <trkpt lat="45.19708" lon="4.99633">
        <ele>386.79998779297</ele>
        <time>2018-05-20T06:10:23.000Z</time>
      </trkpt>
      <trkpt lat="45.19705" lon="4.99638">
        <ele>387.20001220703</ele>
        <time>2018-05-20T06:10:24.000Z</time>
      </trkpt>
      <trkpt lat="45.19701" lon="4.99642">
        <ele>387.79998779297</ele>
        <time>2018-05-20T06:10:25.000Z</time>
      </trkpt>
      <trkpt lat="45.19695" lon="4.99647">
        <ele>388.60000610352</ele>
        <time>2018-05-20T06:10:26.000Z</time>
      </trkpt>
      <trkpt lat="45.1969" lon="4.99652">
        <ele>389.39999389648</ele>
        <time>2018-05-20T06:10:27.000Z</time>
      </trkpt>
      <trkpt lat="45.19679" lon="4.99664">
        <ele>390</ele>
        <time>2018-05-20T06:10:29.000Z</time>
      </trkpt>
      <trkpt lat="45.19671" lon="4.99681">
        <ele>389.39999389648</ele>
        <time>2018-05-20T06:10:31.000Z</time>
      </trkpt>
      <trkpt lat="45.19672" lon="4.99697">
        <ele>386.60000610352</ele>
        <time>2018-05-20T06:10:33.000Z</time>
      </trkpt>
      <trkpt lat="45.19675" lon="4.99703">
        <ele>385.39999389648</ele>
        <time>2018-05-20T06:10:34.000Z</time>
      </trkpt>
      <trkpt lat="45.19679" lon="4.9971">
        <ele>383.79998779297</ele>
        <time>2018-05-20T06:10:35.000Z</time>
      </trkpt>
      <trkpt lat="45.19682" lon="4.99717">
        <ele>381.79998779297</ele>
        <time>2018-05-20T06:10:36.000Z</time>
      </trkpt>
      <trkpt lat="45.19683" lon="4.99724">
        <ele>380</ele>
        <time>2018-05-20T06:10:37.000Z</time>
      </trkpt>
      <trkpt lat="45.19683" lon="4.99732">
        <ele>378.20001220703</ele>
        <time>2018-05-20T06:10:38.000Z</time>
      </trkpt>
      <trkpt lat="45.19682" lon="4.99738">
        <ele>377.39999389648</ele>
        <time>2018-05-20T06:10:39.000Z</time>
      </trkpt>
      <trkpt lat="45.19679" lon="4.99743">
        <ele>377.20001220703</ele>
        <time>2018-05-20T06:10:40.000Z</time>
      </trkpt>
      <trkpt lat="45.19675" lon="4.99747">
        <ele>377.39999389648</ele>
        <time>2018-05-20T06:10:41.000Z</time>
      </trkpt>
      <trkpt lat="45.1967" lon="4.99751">
        <ele>377.60000610352</ele>
        <time>2018-05-20T06:10:42.000Z</time>
      </trkpt>
      <trkpt lat="45.19658" lon="4.99756">
        <ele>378.39999389648</ele>
        <time>2018-05-20T06:10:44.000Z</time>
      </trkpt>
      <trkpt lat="45.19652" lon="4.99758">
        <ele>379</ele>
        <time>2018-05-20T06:10:45.000Z</time>
      </trkpt>
      <trkpt lat="45.19645" lon="4.99761">
        <ele>380.20001220703</ele>
        <time>2018-05-20T06:10:46.000Z</time>
      </trkpt>
      <trkpt lat="45.19633" lon="4.99769">
        <ele>381.39999389648</ele>
        <time>2018-05-20T06:10:48.000Z</time>
      </trkpt>
      <trkpt lat="45.19626" lon="4.99773">
        <ele>381.60000610352</ele>
        <time>2018-05-20T06:10:49.000Z</time>
      </trkpt>
      <trkpt lat="45.19606" lon="4.9978">
        <ele>383</ele>
        <time>2018-05-20T06:10:52.000Z</time>
      </trkpt>
      <trkpt lat="45.19584" lon="4.99791">
        <ele>381.20001220703</ele>
        <time>2018-05-20T06:10:55.000Z</time>
      </trkpt>
      <trkpt lat="45.19576" lon="4.99797">
        <ele>379</ele>
        <time>2018-05-20T06:10:56.000Z</time>
      </trkpt>
      <trkpt lat="45.19562" lon="4.99817">
        <ele>373.60000610352</ele>
        <time>2018-05-20T06:10:58.000Z</time>
      </trkpt>
      <trkpt lat="45.19556" lon="4.99828">
        <ele>371</ele>
        <time>2018-05-20T06:10:59.000Z</time>
      </trkpt>
      <trkpt lat="45.19543" lon="4.99848">
        <ele>368</ele>
        <time>2018-05-20T06:11:01.000Z</time>
      </trkpt>
      <trkpt lat="45.1953" lon="4.99866">
        <ele>365.60000610352</ele>
        <time>2018-05-20T06:11:03.000Z</time>
      </trkpt>
      <trkpt lat="45.19524" lon="4.99874">
        <ele>364.79998779297</ele>
        <time>2018-05-20T06:11:04.000Z</time>
      </trkpt>
      <trkpt lat="45.19506" lon="4.99898">
        <ele>363.20001220703</ele>
        <time>2018-05-20T06:11:07.000Z</time>
      </trkpt>
      <trkpt lat="45.19494" lon="4.99912">
        <ele>363</ele>
        <time>2018-05-20T06:11:09.000Z</time>
      </trkpt>
      <trkpt lat="45.19489" lon="4.99919">
        <ele>363.20001220703</ele>
        <time>2018-05-20T06:11:10.000Z</time>
      </trkpt>
      <trkpt lat="45.19477" lon="4.99932">
        <ele>363.39999389648</ele>
        <time>2018-05-20T06:11:12.000Z</time>
      </trkpt>
      <trkpt lat="45.19459" lon="4.99949">
        <ele>364</ele>
        <time>2018-05-20T06:11:15.000Z</time>
      </trkpt>
      <trkpt lat="45.19447" lon="4.99961">
        <ele>363.39999389648</ele>
        <time>2018-05-20T06:11:17.000Z</time>
      </trkpt>
      <trkpt lat="45.19424" lon="4.99982">
        <ele>363.20001220703</ele>
        <time>2018-05-20T06:11:21.000Z</time>
      </trkpt>
      <trkpt lat="45.19406" lon="4.99993">
        <ele>360.60000610352</ele>
        <time>2018-05-20T06:11:24.000Z</time>
      </trkpt>
      <trkpt lat="45.19383" lon="5.00004">
        <ele>360.79998779297</ele>
        <time>2018-05-20T06:11:28.000Z</time>
      </trkpt>
      <trkpt lat="45.19362" lon="5.00016">
        <ele>360.79998779297</ele>
        <time>2018-05-20T06:11:32.000Z</time>
      </trkpt>
      <trkpt lat="45.19358" lon="5.00022">
        <ele>360.60000610352</ele>
        <time>2018-05-20T06:11:33.000Z</time>
      </trkpt>
      <trkpt lat="45.19352" lon="5.00046">
        <ele>358</ele>
        <time>2018-05-20T06:11:36.000Z</time>
      </trkpt>
      <trkpt lat="45.19335" lon="5.00089">
        <ele>357.79998779297</ele>
        <time>2018-05-20T06:11:41.000Z</time>
      </trkpt>
      <trkpt lat="45.19329" lon="5.00107">
        <ele>357</ele>
        <time>2018-05-20T06:11:43.000Z</time>
      </trkpt>
      <trkpt lat="45.19327" lon="5.00116">
        <ele>356.39999389648</ele>
        <time>2018-05-20T06:11:44.000Z</time>
      </trkpt>
      <trkpt lat="45.19322" lon="5.00137">
        <ele>355.39999389648</ele>
        <time>2018-05-20T06:11:46.000Z</time>
      </trkpt>
      <trkpt lat="45.19318" lon="5.00148">
        <ele>354.79998779297</ele>
        <time>2018-05-20T06:11:47.000Z</time>
      </trkpt>
      <trkpt lat="45.19313" lon="5.00159">
        <ele>353.79998779297</ele>
        <time>2018-05-20T06:11:48.000Z</time>
      </trkpt>
      <trkpt lat="45.19303" lon="5.00183">
        <ele>350.60000610352</ele>
        <time>2018-05-20T06:11:50.000Z</time>
      </trkpt>
      <trkpt lat="45.19294" lon="5.00209">
        <ele>347</ele>
        <time>2018-05-20T06:11:52.000Z</time>
      </trkpt>
      <trkpt lat="45.1929" lon="5.00219">
        <ele>345.20001220703</ele>
        <time>2018-05-20T06:11:53.000Z</time>
      </trkpt>
      <trkpt lat="45.19286" lon="5.00232">
        <ele>343</ele>
        <time>2018-05-20T06:11:55.000Z</time>
      </trkpt>
      <trkpt lat="45.19283" lon="5.00236">
        <ele>342.39999389648</ele>
        <time>2018-05-20T06:11:56.000Z</time>
      </trkpt>
      <trkpt lat="45.1928" lon="5.00238">
        <ele>342.39999389648</ele>
        <time>2018-05-20T06:11:57.000Z</time>
      </trkpt>
      <trkpt lat="45.19278" lon="5.00238">
        <ele>342.39999389648</ele>
        <time>2018-05-20T06:11:58.000Z</time>
      </trkpt>
      <trkpt lat="45.19276" lon="5.00237">
        <ele>342.60000610352</ele>
        <time>2018-05-20T06:11:59.000Z</time>
      </trkpt>
      <trkpt lat="45.19274" lon="5.00237">
        <ele>342.79998779297</ele>
        <time>2018-05-20T06:12:00.000Z</time>
      </trkpt>
      <trkpt lat="45.19273" lon="5.00235">
        <ele>343</ele>
        <time>2018-05-20T06:12:01.000Z</time>
      </trkpt>
      <trkpt lat="45.19271" lon="5.00234">
        <ele>343.20001220703</ele>
        <time>2018-05-20T06:12:02.000Z</time>
      </trkpt>
      <trkpt lat="45.1927" lon="5.00232">
        <ele>343.60000610352</ele>
        <time>2018-05-20T06:12:03.000Z</time>
      </trkpt>
      <trkpt lat="45.19264" lon="5.00222">
        <ele>344.79998779297</ele>
        <time>2018-05-20T06:12:10.000Z</time>
      </trkpt>
      <trkpt lat="45.19262" lon="5.00221">
        <ele>345</ele>
        <time>2018-05-20T06:12:11.000Z</time>
      </trkpt>
      <trkpt lat="45.19249" lon="5.00215">
        <ele>345.20001220703</ele>
        <time>2018-05-20T06:12:17.000Z</time>
      </trkpt>
      <trkpt lat="45.19226" lon="5.00205">
        <ele>346</ele>
        <time>2018-05-20T06:12:25.000Z</time>
      </trkpt>
      <trkpt lat="45.19223" lon="5.00203">
        <ele>346</ele>
        <time>2018-05-20T06:12:26.000Z</time>
      </trkpt>
      <trkpt lat="45.19202" lon="5.00195">
        <ele>346.20001220703</ele>
        <time>2018-05-20T06:12:33.000Z</time>
      </trkpt>
      <trkpt lat="45.19179" lon="5.00186">
        <ele>346.20001220703</ele>
        <time>2018-05-20T06:12:41.000Z</time>
      </trkpt>
      <trkpt lat="45.19169" lon="5.00183">
        <ele>346.20001220703</ele>
        <time>2018-05-20T06:12:47.000Z</time>
      </trkpt>
      <trkpt lat="45.1917" lon="5.00183">
        <ele>346.20001220703</ele>
        <time>2018-05-20T06:13:17.000Z</time>
      </trkpt>
      <trkpt lat="45.19174" lon="5.00185">
        <ele>346.20001220703</ele>
        <time>2018-05-20T06:13:19.000Z</time>
      </trkpt>
      <trkpt lat="45.19196" lon="5.00192">
        <ele>346.20001220703</ele>
        <time>2018-05-20T06:13:25.000Z</time>
      </trkpt>
      <trkpt lat="45.19225" lon="5.00204">
        <ele>346</ele>
        <time>2018-05-20T06:13:33.000Z</time>
      </trkpt>
      <trkpt lat="45.19239" lon="5.00209">
        <ele>345.79998779297</ele>
        <time>2018-05-20T06:13:37.000Z</time>
      </trkpt>
      <trkpt lat="45.19247" lon="5.00212">
        <ele>345.79998779297</ele>
        <time>2018-05-20T06:13:40.000Z</time>
      </trkpt>
      <trkpt lat="45.19264" lon="5.00222">
        <ele>344.79998779297</ele>
        <time>2018-05-20T06:13:46.000Z</time>
      </trkpt>
      <trkpt lat="45.19275" lon="5.00231">
        <ele>343.60000610352</ele>
        <time>2018-05-20T06:13:51.000Z</time>
      </trkpt>
      <trkpt lat="45.19286" lon="5.00237">
        <ele>342.20001220703</ele>
        <time>2018-05-20T06:13:55.000Z</time>
      </trkpt>
      <trkpt lat="45.19289" lon="5.00238">
        <ele>342.20001220703</ele>
        <time>2018-05-20T06:13:57.000Z</time>
      </trkpt>
      <trkpt lat="45.19289" lon="5.00242">
        <ele>341.60000610352</ele>
        <time>2018-05-20T06:13:59.000Z</time>
      </trkpt>
      <trkpt lat="45.19287" lon="5.00251">
        <ele>340.79998779297</ele>
        <time>2018-05-20T06:14:01.000Z</time>
      </trkpt>
      <trkpt lat="45.19284" lon="5.00261">
        <ele>339.79998779297</ele>
        <time>2018-05-20T06:14:03.000Z</time>
      </trkpt>
      <trkpt lat="45.1928" lon="5.00269">
        <ele>339.20001220703</ele>
        <time>2018-05-20T06:14:05.000Z</time>
      </trkpt>
      <trkpt lat="45.19276" lon="5.00273">
        <ele>339.20001220703</ele>
        <time>2018-05-20T06:14:06.000Z</time>
      </trkpt>
      <trkpt lat="45.19271" lon="5.00276">
        <ele>339</ele>
        <time>2018-05-20T06:14:07.000Z</time>
      </trkpt>
      <trkpt lat="45.19258" lon="5.00287">
        <ele>338.39999389648</ele>
        <time>2018-05-20T06:14:09.000Z</time>
      </trkpt>
      <trkpt lat="45.19244" lon="5.00302">
        <ele>337.20001220703</ele>
        <time>2018-05-20T06:14:11.000Z</time>
      </trkpt>
      <trkpt lat="45.19237" lon="5.00311">
        <ele>336.60000610352</ele>
        <time>2018-05-20T06:14:12.000Z</time>
      </trkpt>
      <trkpt lat="45.1923" lon="5.00322">
        <ele>335.39999389648</ele>
        <time>2018-05-20T06:14:13.000Z</time>
      </trkpt>
      <trkpt lat="45.19218" lon="5.00342">
        <ele>333.39999389648</ele>
        <time>2018-05-20T06:14:15.000Z</time>
      </trkpt>
      <trkpt lat="45.19207" lon="5.00359">
        <ele>331.60000610352</ele>
        <time>2018-05-20T06:14:17.000Z</time>
      </trkpt>
      <trkpt lat="45.19202" lon="5.00365">
        <ele>330.79998779297</ele>
        <time>2018-05-20T06:14:18.000Z</time>
      </trkpt>
      <trkpt lat="45.19197" lon="5.00372">
        <ele>330</ele>
        <time>2018-05-20T06:14:19.000Z</time>
      </trkpt>
      <trkpt lat="45.19192" lon="5.00379">
        <ele>329.20001220703</ele>
        <time>2018-05-20T06:14:20.000Z</time>
      </trkpt>
      <trkpt lat="45.19186" lon="5.00386">
        <ele>328.60000610352</ele>
        <time>2018-05-20T06:14:21.000Z</time>
      </trkpt>
      <trkpt lat="45.19173" lon="5.004">
        <ele>327.39999389648</ele>
        <time>2018-05-20T06:14:23.000Z</time>
      </trkpt>
      <trkpt lat="45.19162" lon="5.00412">
        <ele>326.20001220703</ele>
        <time>2018-05-20T06:14:25.000Z</time>
      </trkpt>
      <trkpt lat="45.1915" lon="5.00422">
        <ele>326</ele>
        <time>2018-05-20T06:14:27.000Z</time>
      </trkpt>
      <trkpt lat="45.19144" lon="5.00426">
        <ele>326</ele>
        <time>2018-05-20T06:14:28.000Z</time>
      </trkpt>
      <trkpt lat="45.19138" lon="5.0043">
        <ele>326</ele>
        <time>2018-05-20T06:14:29.000Z</time>
      </trkpt>
      <trkpt lat="45.19134" lon="5.00434">
        <ele>326.20001220703</ele>
        <time>2018-05-20T06:14:30.000Z</time>
      </trkpt>
      <trkpt lat="45.1913" lon="5.00445">
        <ele>326.60000610352</ele>
        <time>2018-05-20T06:14:32.000Z</time>
      </trkpt>
      <trkpt lat="45.19128" lon="5.00464">
        <ele>327.79998779297</ele>
        <time>2018-05-20T06:14:36.000Z</time>
      </trkpt>
      <trkpt lat="45.19128" lon="5.00468">
        <ele>328.39999389648</ele>
        <time>2018-05-20T06:14:37.000Z</time>
      </trkpt>
      <trkpt lat="45.19124" lon="5.00486">
        <ele>331</ele>
        <time>2018-05-20T06:14:42.000Z</time>
      </trkpt>
      <trkpt lat="45.19122" lon="5.00495">
        <ele>332</ele>
        <time>2018-05-20T06:14:45.000Z</time>
      </trkpt>
      <trkpt lat="45.1912" lon="5.00503">
        <ele>332.79998779297</ele>
        <time>2018-05-20T06:14:48.000Z</time>
      </trkpt>
      <trkpt lat="45.19119" lon="5.00511">
        <ele>333.60000610352</ele>
        <time>2018-05-20T06:14:51.000Z</time>
      </trkpt>
      <trkpt lat="45.19118" lon="5.00518">
        <ele>334.39999389648</ele>
        <time>2018-05-20T06:14:54.000Z</time>
      </trkpt>
      <trkpt lat="45.19118" lon="5.00525">
        <ele>335.20001220703</ele>
        <time>2018-05-20T06:14:57.000Z</time>
      </trkpt>
      <trkpt lat="45.19118" lon="5.00532">
        <ele>335.79998779297</ele>
        <time>2018-05-20T06:15:00.000Z</time>
      </trkpt>
      <trkpt lat="45.19118" lon="5.00534">
        <ele>336</ele>
        <time>2018-05-20T06:15:01.000Z</time>
      </trkpt>
      <trkpt lat="45.19116" lon="5.00542">
        <ele>336.39999389648</ele>
        <time>2018-05-20T06:15:05.000Z</time>
      </trkpt>
      <trkpt lat="45.19115" lon="5.00547">
        <ele>337</ele>
        <time>2018-05-20T06:15:08.000Z</time>
      </trkpt>
      <trkpt lat="45.19115" lon="5.00549">
        <ele>337.20001220703</ele>
        <time>2018-05-20T06:15:09.000Z</time>
      </trkpt>
      <trkpt lat="45.19114" lon="5.00555">
        <ele>337.79998779297</ele>
        <time>2018-05-20T06:15:12.000Z</time>
      </trkpt>
      <trkpt lat="45.19112" lon="5.00565">
        <ele>338.79998779297</ele>
        <time>2018-05-20T06:15:16.000Z</time>
      </trkpt>
      <trkpt lat="45.19111" lon="5.0057">
        <ele>339.39999389648</ele>
        <time>2018-05-20T06:15:18.000Z</time>
      </trkpt>
      <trkpt lat="45.19109" lon="5.00584">
        <ele>340.60000610352</ele>
        <time>2018-05-20T06:15:25.000Z</time>
      </trkpt>
      <trkpt lat="45.19108" lon="5.00592">
        <ele>341</ele>
        <time>2018-05-20T06:15:29.000Z</time>
      </trkpt>
      <trkpt lat="45.19107" lon="5.006">
        <ele>341.39999389648</ele>
        <time>2018-05-20T06:15:33.000Z</time>
      </trkpt>
      <trkpt lat="45.19106" lon="5.00602">
        <ele>341.39999389648</ele>
        <time>2018-05-20T06:15:34.000Z</time>
      </trkpt>
      <trkpt lat="45.19106" lon="5.00609">
        <ele>341.60000610352</ele>
        <time>2018-05-20T06:15:38.000Z</time>
      </trkpt>
      <trkpt lat="45.19103" lon="5.00614">
        <ele>341.60000610352</ele>
        <time>2018-05-20T06:15:41.000Z</time>
      </trkpt>
      <trkpt lat="45.19099" lon="5.00613">
        <ele>341.20001220703</ele>
        <time>2018-05-20T06:15:43.000Z</time>
      </trkpt>
      <trkpt lat="45.19096" lon="5.00611">
        <ele>341</ele>
        <time>2018-05-20T06:15:45.000Z</time>
      </trkpt>
      <trkpt lat="45.1909" lon="5.00607">
        <ele>340.39999389648</ele>
        <time>2018-05-20T06:15:50.000Z</time>
      </trkpt>
      <trkpt lat="45.19088" lon="5.00606">
        <ele>340.20001220703</ele>
        <time>2018-05-20T06:15:51.000Z</time>
      </trkpt>
      <trkpt lat="45.1908" lon="5.00604">
        <ele>339.60000610352</ele>
        <time>2018-05-20T06:15:55.000Z</time>
      </trkpt>
      <trkpt lat="45.19079" lon="5.00603">
        <ele>339.39999389648</ele>
        <time>2018-05-20T06:15:56.000Z</time>
      </trkpt>
      <trkpt lat="45.19073" lon="5.00602">
        <ele>339</ele>
        <time>2018-05-20T06:16:00.000Z</time>
      </trkpt>
      <trkpt lat="45.1907" lon="5.00601">
        <ele>338.60000610352</ele>
        <time>2018-05-20T06:16:16.000Z</time>
      </trkpt>
      <trkpt lat="45.19063" lon="5.00598">
        <ele>337.79998779297</ele>
        <time>2018-05-20T06:16:19.000Z</time>
      </trkpt>
      <trkpt lat="45.19041" lon="5.00585">
        <ele>335.20001220703</ele>
        <time>2018-05-20T06:16:26.000Z</time>
      </trkpt>
      <trkpt lat="45.19035" lon="5.00581">
        <ele>334.79998779297</ele>
        <time>2018-05-20T06:16:28.000Z</time>
      </trkpt>
      <trkpt lat="45.1902" lon="5.00569">
        <ele>334</ele>
        <time>2018-05-20T06:16:32.000Z</time>
      </trkpt>
      <trkpt lat="45.19012" lon="5.00561">
        <ele>334</ele>
        <time>2018-05-20T06:16:34.000Z</time>
      </trkpt>
      <trkpt lat="45.19009" lon="5.00557">
        <ele>334</ele>
        <time>2018-05-20T06:16:35.000Z</time>
      </trkpt>
      <trkpt lat="45.19" lon="5.00543">
        <ele>333.79998779297</ele>
        <time>2018-05-20T06:16:38.000Z</time>
      </trkpt>
      <trkpt lat="45.18979" lon="5.00504">
        <ele>332.60000610352</ele>
        <time>2018-05-20T06:16:45.000Z</time>
      </trkpt>
      <trkpt lat="45.18964" lon="5.00478">
        <ele>332</ele>
        <time>2018-05-20T06:16:49.000Z</time>
      </trkpt>
      <trkpt lat="45.18951" lon="5.00458">
        <ele>331</ele>
        <time>2018-05-20T06:16:52.000Z</time>
      </trkpt>
      <trkpt lat="45.18941" lon="5.00444">
        <ele>330.39999389648</ele>
        <time>2018-05-20T06:16:54.000Z</time>
      </trkpt>
      <trkpt lat="45.18923" lon="5.00428">
        <ele>329.39999389648</ele>
        <time>2018-05-20T06:16:57.000Z</time>
      </trkpt>
      <trkpt lat="45.18916" lon="5.00423">
        <ele>329</ele>
        <time>2018-05-20T06:16:58.000Z</time>
      </trkpt>
      <trkpt lat="45.18896" lon="5.00408">
        <ele>327.79998779297</ele>
        <time>2018-05-20T06:17:01.000Z</time>
      </trkpt>
      <trkpt lat="45.18882" lon="5.00397">
        <ele>326.79998779297</ele>
        <time>2018-05-20T06:17:03.000Z</time>
      </trkpt>
      <trkpt lat="45.18876" lon="5.00393">
        <ele>326.39999389648</ele>
        <time>2018-05-20T06:17:04.000Z</time>
      </trkpt>
      <trkpt lat="45.1887" lon="5.00389">
        <ele>326.20001220703</ele>
        <time>2018-05-20T06:17:05.000Z</time>
      </trkpt>
      <trkpt lat="45.18859" lon="5.00382">
        <ele>325.39999389648</ele>
        <time>2018-05-20T06:17:07.000Z</time>
      </trkpt>
      <trkpt lat="45.18847" lon="5.00375">
        <ele>324.60000610352</ele>
        <time>2018-05-20T06:17:09.000Z</time>
      </trkpt>
      <trkpt lat="45.18835" lon="5.00369">
        <ele>324</ele>
        <time>2018-05-20T06:17:11.000Z</time>
      </trkpt>
      <trkpt lat="45.18829" lon="5.00368">
        <ele>323.60000610352</ele>
        <time>2018-05-20T06:17:12.000Z</time>
      </trkpt>
      <trkpt lat="45.18824" lon="5.00367">
        <ele>323.20001220703</ele>
        <time>2018-05-20T06:17:13.000Z</time>
      </trkpt>
      <trkpt lat="45.18815" lon="5.00371">
        <ele>322.79998779297</ele>
        <time>2018-05-20T06:17:15.000Z</time>
      </trkpt>
      <trkpt lat="45.18811" lon="5.00375">
        <ele>322.60000610352</ele>
        <time>2018-05-20T06:17:16.000Z</time>
      </trkpt>
      <trkpt lat="45.18807" lon="5.00379">
        <ele>322.39999389648</ele>
        <time>2018-05-20T06:17:17.000Z</time>
      </trkpt>
      <trkpt lat="45.18799" lon="5.0039">
        <ele>321.60000610352</ele>
        <time>2018-05-20T06:17:19.000Z</time>
      </trkpt>
      <trkpt lat="45.18791" lon="5.00398">
        <ele>320.60000610352</ele>
        <time>2018-05-20T06:17:21.000Z</time>
      </trkpt>
      <trkpt lat="45.18781" lon="5.00396">
        <ele>320.20001220703</ele>
        <time>2018-05-20T06:17:23.000Z</time>
      </trkpt>
      <trkpt lat="45.18776" lon="5.00394">
        <ele>320</ele>
        <time>2018-05-20T06:17:24.000Z</time>
      </trkpt>
      <trkpt lat="45.1877" lon="5.0039">
        <ele>319.60000610352</ele>
        <time>2018-05-20T06:17:25.000Z</time>
      </trkpt>
      <trkpt lat="45.18758" lon="5.00384">
        <ele>318.79998779297</ele>
        <time>2018-05-20T06:17:27.000Z</time>
      </trkpt>
      <trkpt lat="45.18747" lon="5.00379">
        <ele>318.39999389648</ele>
        <time>2018-05-20T06:17:29.000Z</time>
      </trkpt>
      <trkpt lat="45.18743" lon="5.00377">
        <ele>318.20001220703</ele>
        <time>2018-05-20T06:17:30.000Z</time>
      </trkpt>
      <trkpt lat="45.1874" lon="5.00376">
        <ele>318</ele>
        <time>2018-05-20T06:17:31.000Z</time>
      </trkpt>
      <trkpt lat="45.18737" lon="5.00376">
        <ele>317.79998779297</ele>
        <time>2018-05-20T06:17:32.000Z</time>
      </trkpt>
      <trkpt lat="45.18734" lon="5.00376">
        <ele>317.79998779297</ele>
        <time>2018-05-20T06:17:33.000Z</time>
      </trkpt>
      <trkpt lat="45.18732" lon="5.00376">
        <ele>317.60000610352</ele>
        <time>2018-05-20T06:17:34.000Z</time>
      </trkpt>
      <trkpt lat="45.18724" lon="5.00376">
        <ele>317.39999389648</ele>
        <time>2018-05-20T06:17:37.000Z</time>
      </trkpt>
      <trkpt lat="45.18719" lon="5.00376">
        <ele>317.20001220703</ele>
        <time>2018-05-20T06:17:39.000Z</time>
      </trkpt>
      <trkpt lat="45.18709" lon="5.00378">
        <ele>317.60000610352</ele>
        <time>2018-05-20T06:17:44.000Z</time>
      </trkpt>
      <trkpt lat="45.18707" lon="5.00378">
        <ele>317.79998779297</ele>
        <time>2018-05-20T06:17:45.000Z</time>
      </trkpt>
      <trkpt lat="45.18693" lon="5.00379">
        <ele>318.79998779297</ele>
        <time>2018-05-20T06:17:51.000Z</time>
      </trkpt>
      <trkpt lat="45.18667" lon="5.00374">
        <ele>319</ele>
        <time>2018-05-20T06:17:57.000Z</time>
      </trkpt>
      <trkpt lat="45.18663" lon="5.00373">
        <ele>319</ele>
        <time>2018-05-20T06:17:58.000Z</time>
      </trkpt>
      <trkpt lat="45.18645" lon="5.00372">
        <ele>318.60000610352</ele>
        <time>2018-05-20T06:18:04.000Z</time>
      </trkpt>
      <trkpt lat="45.18621" lon="5.00369">
        <ele>317.60000610352</ele>
        <time>2018-05-20T06:18:09.000Z</time>
      </trkpt>
      <trkpt lat="45.18609" lon="5.00366">
        <ele>316.79998779297</ele>
        <time>2018-05-20T06:18:12.000Z</time>
      </trkpt>
      <trkpt lat="45.18603" lon="5.00364">
        <ele>316.39999389648</ele>
        <time>2018-05-20T06:18:14.000Z</time>
      </trkpt>
      <trkpt lat="45.18578" lon="5.00349">
        <ele>316</ele>
        <time>2018-05-20T06:18:20.000Z</time>
      </trkpt>
      <trkpt lat="45.1857" lon="5.00345">
        <ele>315.60000610352</ele>
        <time>2018-05-20T06:18:22.000Z</time>
      </trkpt>
      <trkpt lat="45.18556" lon="5.00335">
        <ele>314.39999389648</ele>
        <time>2018-05-20T06:18:27.000Z</time>
      </trkpt>
      <trkpt lat="45.18538" lon="5.00315">
        <ele>312.60000610352</ele>
        <time>2018-05-20T06:18:32.000Z</time>
      </trkpt>
      <trkpt lat="45.18529" lon="5.00309">
        <ele>312</ele>
        <time>2018-05-20T06:18:34.000Z</time>
      </trkpt>
      <trkpt lat="45.18514" lon="5.00303">
        <ele>311.20001220703</ele>
        <time>2018-05-20T06:18:36.000Z</time>
      </trkpt>
      <trkpt lat="45.18491" lon="5.00279">
        <ele>309.39999389648</ele>
        <time>2018-05-20T06:18:41.000Z</time>
      </trkpt>
      <trkpt lat="45.18458" lon="5.00243">
        <ele>307</ele>
        <time>2018-05-20T06:18:48.000Z</time>
      </trkpt>
      <trkpt lat="45.18448" lon="5.00234">
        <ele>306.39999389648</ele>
        <time>2018-05-20T06:18:50.000Z</time>
      </trkpt>
      <trkpt lat="45.18438" lon="5.00228">
        <ele>306</ele>
        <time>2018-05-20T06:18:52.000Z</time>
      </trkpt>
      <trkpt lat="45.18426" lon="5.00225">
        <ele>306</ele>
        <time>2018-05-20T06:18:54.000Z</time>
      </trkpt>
      <trkpt lat="45.18409" lon="5.00223">
        <ele>305.39999389648</ele>
        <time>2018-05-20T06:18:57.000Z</time>
      </trkpt>
      <trkpt lat="45.18396" lon="5.00225">
        <ele>305</ele>
        <time>2018-05-20T06:18:59.000Z</time>
      </trkpt>
      <trkpt lat="45.18391" lon="5.00226">
        <ele>305</ele>
        <time>2018-05-20T06:19:00.000Z</time>
      </trkpt>
      <trkpt lat="45.1838" lon="5.00232">
        <ele>305</ele>
        <time>2018-05-20T06:19:02.000Z</time>
      </trkpt>
      <trkpt lat="45.18369" lon="5.00251">
        <ele>304</ele>
        <time>2018-05-20T06:19:05.000Z</time>
      </trkpt>
      <trkpt lat="45.18363" lon="5.0027">
        <ele>303</ele>
        <time>2018-05-20T06:19:07.000Z</time>
      </trkpt>
      <trkpt lat="45.18359" lon="5.00286">
        <ele>302.20001220703</ele>
        <time>2018-05-20T06:19:09.000Z</time>
      </trkpt>
      <trkpt lat="45.18357" lon="5.00294">
        <ele>302</ele>
        <time>2018-05-20T06:19:10.000Z</time>
      </trkpt>
      <trkpt lat="45.18343" lon="5.0034">
        <ele>300</ele>
        <time>2018-05-20T06:19:16.000Z</time>
      </trkpt>
      <trkpt lat="45.18341" lon="5.00349">
        <ele>299.79998779297</ele>
        <time>2018-05-20T06:19:17.000Z</time>
      </trkpt>
      <trkpt lat="45.18336" lon="5.00375">
        <ele>299.20001220703</ele>
        <time>2018-05-20T06:19:20.000Z</time>
      </trkpt>
      <trkpt lat="45.18331" lon="5.00391">
        <ele>298.79998779297</ele>
        <time>2018-05-20T06:19:22.000Z</time>
      </trkpt>
      <trkpt lat="45.1832" lon="5.0042">
        <ele>298.60000610352</ele>
        <time>2018-05-20T06:19:26.000Z</time>
      </trkpt>
      <trkpt lat="45.183" lon="5.0044">
        <ele>297.79998779297</ele>
        <time>2018-05-20T06:19:30.000Z</time>
      </trkpt>
      <trkpt lat="45.18265" lon="5.00475">
        <ele>297</ele>
        <time>2018-05-20T06:19:36.000Z</time>
      </trkpt>
      <trkpt lat="45.18236" lon="5.00509">
        <ele>296.20001220703</ele>
        <time>2018-05-20T06:19:41.000Z</time>
      </trkpt>
      <trkpt lat="45.18216" lon="5.00524">
        <ele>294.79998779297</ele>
        <time>2018-05-20T06:19:44.000Z</time>
      </trkpt>
      <trkpt lat="45.182" lon="5.00534">
        <ele>294.20001220703</ele>
        <time>2018-05-20T06:19:46.000Z</time>
      </trkpt>
      <trkpt lat="45.18157" lon="5.00568">
        <ele>293</ele>
        <time>2018-05-20T06:19:52.000Z</time>
      </trkpt>
      <trkpt lat="45.18141" lon="5.00587">
        <ele>292.39999389648</ele>
        <time>2018-05-20T06:19:55.000Z</time>
      </trkpt>
      <trkpt lat="45.18135" lon="5.00591">
        <ele>292.20001220703</ele>
        <time>2018-05-20T06:19:56.000Z</time>
      </trkpt>
      <trkpt lat="45.18124" lon="5.00598">
        <ele>291.79998779297</ele>
        <time>2018-05-20T06:19:58.000Z</time>
      </trkpt>
      <trkpt lat="45.18119" lon="5.00599">
        <ele>291.60000610352</ele>
        <time>2018-05-20T06:19:59.000Z</time>
      </trkpt>
      <trkpt lat="45.18114" lon="5.00598">
        <ele>291.39999389648</ele>
        <time>2018-05-20T06:20:00.000Z</time>
      </trkpt>
      <trkpt lat="45.18109" lon="5.0058">
        <ele>290.60000610352</ele>
        <time>2018-05-20T06:20:03.000Z</time>
      </trkpt>
      <trkpt lat="45.18109" lon="5.00565">
        <ele>290.60000610352</ele>
        <time>2018-05-20T06:20:05.000Z</time>
      </trkpt>
      <trkpt lat="45.18111" lon="5.00537">
        <ele>291</ele>
        <time>2018-05-20T06:20:09.000Z</time>
      </trkpt>
      <trkpt lat="45.18111" lon="5.00486">
        <ele>292.60000610352</ele>
        <time>2018-05-20T06:20:17.000Z</time>
      </trkpt>
      <trkpt lat="45.18111" lon="5.0048">
        <ele>293.39999389648</ele>
        <time>2018-05-20T06:20:18.000Z</time>
      </trkpt>
      <trkpt lat="45.18112" lon="5.00442">
        <ele>297.60000610352</ele>
        <time>2018-05-20T06:20:24.000Z</time>
      </trkpt>
      <trkpt lat="45.18112" lon="5.00417">
        <ele>299.39999389648</ele>
        <time>2018-05-20T06:20:28.000Z</time>
      </trkpt>
      <trkpt lat="45.18109" lon="5.00387">
        <ele>301.60000610352</ele>
        <time>2018-05-20T06:20:33.000Z</time>
      </trkpt>
      <trkpt lat="45.18106" lon="5.00372">
        <ele>302.60000610352</ele>
        <time>2018-05-20T06:20:36.000Z</time>
      </trkpt>
      <trkpt lat="45.18102" lon="5.00358">
        <ele>303.20001220703</ele>
        <time>2018-05-20T06:20:39.000Z</time>
      </trkpt>
      <trkpt lat="45.18095" lon="5.00346">
        <ele>303.60000610352</ele>
        <time>2018-05-20T06:20:42.000Z</time>
      </trkpt>
      <trkpt lat="45.18079" lon="5.00328">
        <ele>303</ele>
        <time>2018-05-20T06:20:48.000Z</time>
      </trkpt>
      <trkpt lat="45.18061" lon="5.0031">
        <ele>303.60000610352</ele>
        <time>2018-05-20T06:20:54.000Z</time>
      </trkpt>
      <trkpt lat="45.18054" lon="5.00302">
        <ele>304.20001220703</ele>
        <time>2018-05-20T06:20:57.000Z</time>
      </trkpt>
      <trkpt lat="45.18049" lon="5.00297">
        <ele>304.39999389648</ele>
        <time>2018-05-20T06:20:59.000Z</time>
      </trkpt>
      <trkpt lat="45.18035" lon="5.00282">
        <ele>306.39999389648</ele>
        <time>2018-05-20T06:21:05.000Z</time>
      </trkpt>
      <trkpt lat="45.18027" lon="5.00272">
        <ele>308</ele>
        <time>2018-05-20T06:21:09.000Z</time>
      </trkpt>
      <trkpt lat="45.18021" lon="5.00264">
        <ele>309</ele>
        <time>2018-05-20T06:21:12.000Z</time>
      </trkpt>
      <trkpt lat="45.18019" lon="5.00262">
        <ele>309.20001220703</ele>
        <time>2018-05-20T06:21:13.000Z</time>
      </trkpt>
      <trkpt lat="45.18012" lon="5.00252">
        <ele>310.79998779297</ele>
        <time>2018-05-20T06:21:17.000Z</time>
      </trkpt>
      <trkpt lat="45.18008" lon="5.00249">
        <ele>311.20001220703</ele>
        <time>2018-05-20T06:21:19.000Z</time>
      </trkpt>
      <trkpt lat="45.18004" lon="5.00245">
        <ele>311.79998779297</ele>
        <time>2018-05-20T06:21:21.000Z</time>
      </trkpt>
      <trkpt lat="45.17994" lon="5.0024">
        <ele>312.39999389648</ele>
        <time>2018-05-20T06:21:25.000Z</time>
      </trkpt>
      <trkpt lat="45.17992" lon="5.00239">
        <ele>312.79998779297</ele>
        <time>2018-05-20T06:21:26.000Z</time>
      </trkpt>
      <trkpt lat="45.17989" lon="5.00236">
        <ele>313.39999389648</ele>
        <time>2018-05-20T06:21:28.000Z</time>
      </trkpt>
      <trkpt lat="45.17985" lon="5.00235">
        <ele>314</ele>
        <time>2018-05-20T06:21:30.000Z</time>
      </trkpt>
      <trkpt lat="45.17981" lon="5.00233">
        <ele>314.60000610352</ele>
        <time>2018-05-20T06:21:32.000Z</time>
      </trkpt>
      <trkpt lat="45.1798" lon="5.00232">
        <ele>314.79998779297</ele>
        <time>2018-05-20T06:21:33.000Z</time>
      </trkpt>
      <trkpt lat="45.17973" lon="5.00229">
        <ele>315.79998779297</ele>
        <time>2018-05-20T06:21:37.000Z</time>
      </trkpt>
      <trkpt lat="45.17969" lon="5.00228">
        <ele>316.39999389648</ele>
        <time>2018-05-20T06:21:39.000Z</time>
      </trkpt>
      <trkpt lat="45.17967" lon="5.00228">
        <ele>316.79998779297</ele>
        <time>2018-05-20T06:21:40.000Z</time>
      </trkpt>
      <trkpt lat="45.1796" lon="5.00226">
        <ele>317.79998779297</ele>
        <time>2018-05-20T06:21:44.000Z</time>
      </trkpt>
      <trkpt lat="45.17956" lon="5.00224">
        <ele>318.20001220703</ele>
        <time>2018-05-20T06:21:46.000Z</time>
      </trkpt>
      <trkpt lat="45.17953" lon="5.00223">
        <ele>318.60000610352</ele>
        <time>2018-05-20T06:21:48.000Z</time>
      </trkpt>
      <trkpt lat="45.17945" lon="5.00223">
        <ele>319.60000610352</ele>
        <time>2018-05-20T06:21:53.000Z</time>
      </trkpt>
      <trkpt lat="45.17942" lon="5.00222">
        <ele>320.20001220703</ele>
        <time>2018-05-20T06:21:55.000Z</time>
      </trkpt>
      <trkpt lat="45.17938" lon="5.00222">
        <ele>320.60000610352</ele>
        <time>2018-05-20T06:21:57.000Z</time>
      </trkpt>
      <trkpt lat="45.17929" lon="5.00221">
        <ele>322</ele>
        <time>2018-05-20T06:22:02.000Z</time>
      </trkpt>
      <trkpt lat="45.17926" lon="5.00221">
        <ele>322.39999389648</ele>
        <time>2018-05-20T06:22:04.000Z</time>
      </trkpt>
      <trkpt lat="45.17921" lon="5.00221">
        <ele>323.20001220703</ele>
        <time>2018-05-20T06:22:07.000Z</time>
      </trkpt>
      <trkpt lat="45.17914" lon="5.0022">
        <ele>324</ele>
        <time>2018-05-20T06:22:11.000Z</time>
      </trkpt>
      <trkpt lat="45.17909" lon="5.00221">
        <ele>324.79998779297</ele>
        <time>2018-05-20T06:22:14.000Z</time>
      </trkpt>
      <trkpt lat="45.17908" lon="5.00221">
        <ele>325</ele>
        <time>2018-05-20T06:22:15.000Z</time>
      </trkpt>
      <trkpt lat="45.17903" lon="5.00222">
        <ele>325.79998779297</ele>
        <time>2018-05-20T06:22:18.000Z</time>
      </trkpt>
      <trkpt lat="45.17896" lon="5.00223">
        <ele>326.60000610352</ele>
        <time>2018-05-20T06:22:22.000Z</time>
      </trkpt>
      <trkpt lat="45.17889" lon="5.00223">
        <ele>327.79998779297</ele>
        <time>2018-05-20T06:22:27.000Z</time>
      </trkpt>
      <trkpt lat="45.17886" lon="5.00223">
        <ele>328.20001220703</ele>
        <time>2018-05-20T06:22:29.000Z</time>
      </trkpt>
      <trkpt lat="45.17882" lon="5.00223">
        <ele>328.79998779297</ele>
        <time>2018-05-20T06:22:32.000Z</time>
      </trkpt>
      <trkpt lat="45.17874" lon="5.00222">
        <ele>329.60000610352</ele>
        <time>2018-05-20T06:22:37.000Z</time>
      </trkpt>
      <trkpt lat="45.17866" lon="5.00221">
        <ele>330.60000610352</ele>
        <time>2018-05-20T06:22:42.000Z</time>
      </trkpt>
      <trkpt lat="45.17862" lon="5.00219">
        <ele>331</ele>
        <time>2018-05-20T06:22:45.000Z</time>
      </trkpt>
      <trkpt lat="45.1786" lon="5.00219">
        <ele>331</ele>
        <time>2018-05-20T06:22:46.000Z</time>
      </trkpt>
      <trkpt lat="45.17855" lon="5.00214">
        <ele>331.60000610352</ele>
        <time>2018-05-20T06:22:50.000Z</time>
      </trkpt>
      <trkpt lat="45.17852" lon="5.00212">
        <ele>331.79998779297</ele>
        <time>2018-05-20T06:22:52.000Z</time>
      </trkpt>
      <trkpt lat="45.1785" lon="5.00208">
        <ele>332.20001220703</ele>
        <time>2018-05-20T06:22:54.000Z</time>
      </trkpt>
      <trkpt lat="45.17844" lon="5.00199">
        <ele>333</ele>
        <time>2018-05-20T06:22:59.000Z</time>
      </trkpt>
      <trkpt lat="45.17842" lon="5.00194">
        <ele>333.20001220703</ele>
        <time>2018-05-20T06:23:01.000Z</time>
      </trkpt>
      <trkpt lat="45.17836" lon="5.00181">
        <ele>333.79998779297</ele>
        <time>2018-05-20T06:23:07.000Z</time>
      </trkpt>
      <trkpt lat="45.17831" lon="5.00165">
        <ele>335.39999389648</ele>
        <time>2018-05-20T06:23:13.000Z</time>
      </trkpt>
      <trkpt lat="45.17831" lon="5.00158">
        <ele>335.79998779297</ele>
        <time>2018-05-20T06:23:15.000Z</time>
      </trkpt>
      <trkpt lat="45.17831" lon="5.00126">
        <ele>336.60000610352</ele>
        <time>2018-05-20T06:23:23.000Z</time>
      </trkpt>
      <trkpt lat="45.17831" lon="5.00122">
        <ele>336.60000610352</ele>
        <time>2018-05-20T06:23:24.000Z</time>
      </trkpt>
      <trkpt lat="45.17826" lon="5.00089">
        <ele>336.20001220703</ele>
        <time>2018-05-20T06:23:32.000Z</time>
      </trkpt>
      <trkpt lat="45.17817" lon="5.00078">
        <ele>337.20001220703</ele>
        <time>2018-05-20T06:23:37.000Z</time>
      </trkpt>
      <trkpt lat="45.17811" lon="5.00077">
        <ele>337.79998779297</ele>
        <time>2018-05-20T06:23:39.000Z</time>
      </trkpt>
      <trkpt lat="45.17801" lon="5.0008">
        <ele>339</ele>
        <time>2018-05-20T06:23:42.000Z</time>
      </trkpt>
      <trkpt lat="45.17779" lon="5.00086">
        <ele>341</ele>
        <time>2018-05-20T06:23:49.000Z</time>
      </trkpt>
      <trkpt lat="45.17758" lon="5.00087">
        <ele>341.60000610352</ele>
        <time>2018-05-20T06:23:56.000Z</time>
      </trkpt>
      <trkpt lat="45.17755" lon="5.00086">
        <ele>341.39999389648</ele>
        <time>2018-05-20T06:23:57.000Z</time>
      </trkpt>
      <trkpt lat="45.17738" lon="5.0008">
        <ele>340</ele>
        <time>2018-05-20T06:24:02.000Z</time>
      </trkpt>
      <trkpt lat="45.1772" lon="5.00074">
        <ele>338.79998779297</ele>
        <time>2018-05-20T06:24:06.000Z</time>
      </trkpt>
      <trkpt lat="45.17716" lon="5.00074">
        <ele>338.60000610352</ele>
        <time>2018-05-20T06:24:07.000Z</time>
      </trkpt>
      <trkpt lat="45.17712" lon="5.00074">
        <ele>338.39999389648</ele>
        <time>2018-05-20T06:24:08.000Z</time>
      </trkpt>
      <trkpt lat="45.17697" lon="5.00077">
        <ele>337.60000610352</ele>
        <time>2018-05-20T06:24:11.000Z</time>
      </trkpt>
      <trkpt lat="45.17686" lon="5.00083">
        <ele>337.39999389648</ele>
        <time>2018-05-20T06:24:13.000Z</time>
      </trkpt>
      <trkpt lat="45.1768" lon="5.00086">
        <ele>336.79998779297</ele>
        <time>2018-05-20T06:24:14.000Z</time>
      </trkpt>
      <trkpt lat="45.17664" lon="5.001">
        <ele>335.20001220703</ele>
        <time>2018-05-20T06:24:17.000Z</time>
      </trkpt>
      <trkpt lat="45.17659" lon="5.00106">
        <ele>334.60000610352</ele>
        <time>2018-05-20T06:24:18.000Z</time>
      </trkpt>
      <trkpt lat="45.17652" lon="5.00125">
        <ele>333.60000610352</ele>
        <time>2018-05-20T06:24:20.000Z</time>
      </trkpt>
      <trkpt lat="45.17649" lon="5.00136">
        <ele>332.79998779297</ele>
        <time>2018-05-20T06:24:21.000Z</time>
      </trkpt>
      <trkpt lat="45.17647" lon="5.00146">
        <ele>332</ele>
        <time>2018-05-20T06:24:22.000Z</time>
      </trkpt>
      <trkpt lat="45.1764" lon="5.00176">
        <ele>330.39999389648</ele>
        <time>2018-05-20T06:24:25.000Z</time>
      </trkpt>
      <trkpt lat="45.17636" lon="5.00182">
        <ele>329.79998779297</ele>
        <time>2018-05-20T06:24:26.000Z</time>
      </trkpt>
      <trkpt lat="45.17631" lon="5.00186">
        <ele>329.20001220703</ele>
        <time>2018-05-20T06:24:27.000Z</time>
      </trkpt>
      <trkpt lat="45.17618" lon="5.00187">
        <ele>327.79998779297</ele>
        <time>2018-05-20T06:24:29.000Z</time>
      </trkpt>
      <trkpt lat="45.17612" lon="5.00187">
        <ele>327</ele>
        <time>2018-05-20T06:24:30.000Z</time>
      </trkpt>
      <trkpt lat="45.17605" lon="5.00186">
        <ele>326.20001220703</ele>
        <time>2018-05-20T06:24:31.000Z</time>
      </trkpt>
      <trkpt lat="45.17575" lon="5.00182">
        <ele>322.20001220703</ele>
        <time>2018-05-20T06:24:35.000Z</time>
      </trkpt>
      <trkpt lat="45.17559" lon="5.00179">
        <ele>319.20001220703</ele>
        <time>2018-05-20T06:24:37.000Z</time>
      </trkpt>
      <trkpt lat="45.17542" lon="5.00176">
        <ele>316.60000610352</ele>
        <time>2018-05-20T06:24:39.000Z</time>
      </trkpt>
      <trkpt lat="45.17525" lon="5.00173">
        <ele>315.20001220703</ele>
        <time>2018-05-20T06:24:41.000Z</time>
      </trkpt>
      <trkpt lat="45.17515" lon="5.00172">
        <ele>314.60000610352</ele>
        <time>2018-05-20T06:24:42.000Z</time>
      </trkpt>
      <trkpt lat="45.17486" lon="5.0017">
        <ele>313.39999389648</ele>
        <time>2018-05-20T06:24:45.000Z</time>
      </trkpt>
      <trkpt lat="45.17466" lon="5.00169">
        <ele>312.20001220703</ele>
        <time>2018-05-20T06:24:47.000Z</time>
      </trkpt>
      <trkpt lat="45.17449" lon="5.00171">
        <ele>311.39999389648</ele>
        <time>2018-05-20T06:24:49.000Z</time>
      </trkpt>
      <trkpt lat="45.17443" lon="5.00173">
        <ele>310.79998779297</ele>
        <time>2018-05-20T06:24:50.000Z</time>
      </trkpt>
      <trkpt lat="45.17439" lon="5.00172">
        <ele>310.60000610352</ele>
        <time>2018-05-20T06:24:51.000Z</time>
      </trkpt>
      <trkpt lat="45.17437" lon="5.00172">
        <ele>310.39999389648</ele>
        <time>2018-05-20T06:24:52.000Z</time>
      </trkpt>
      <trkpt lat="45.17436" lon="5.00171">
        <ele>310.39999389648</ele>
        <time>2018-05-20T06:24:53.000Z</time>
      </trkpt>
      <trkpt lat="45.17439" lon="5.00167">
        <ele>310.79998779297</ele>
        <time>2018-05-20T06:24:56.000Z</time>
      </trkpt>
      <trkpt lat="45.17455" lon="5.00156">
        <ele>311.60000610352</ele>
        <time>2018-05-20T06:24:59.000Z</time>
      </trkpt>
      <trkpt lat="45.17466" lon="5.00146">
        <ele>311.79998779297</ele>
        <time>2018-05-20T06:25:01.000Z</time>
      </trkpt>
      <trkpt lat="45.17479" lon="5.00134">
        <ele>312</ele>
        <time>2018-05-20T06:25:03.000Z</time>
      </trkpt>
      <trkpt lat="45.17488" lon="5.00129">
        <ele>312</ele>
        <time>2018-05-20T06:25:04.000Z</time>
      </trkpt>
      <trkpt lat="45.17499" lon="5.00114">
        <ele>311</ele>
        <time>2018-05-20T06:25:06.000Z</time>
      </trkpt>
      <trkpt lat="45.175" lon="5.00104">
        <ele>310.20001220703</ele>
        <time>2018-05-20T06:25:07.000Z</time>
      </trkpt>
      <trkpt lat="45.17497" lon="5.00088">
        <ele>308.60000610352</ele>
        <time>2018-05-20T06:25:09.000Z</time>
      </trkpt>
      <trkpt lat="45.1749" lon="5.00078">
        <ele>307.60000610352</ele>
        <time>2018-05-20T06:25:11.000Z</time>
      </trkpt>
      <trkpt lat="45.17486" lon="5.00075">
        <ele>307.60000610352</ele>
        <time>2018-05-20T06:25:12.000Z</time>
      </trkpt>
      <trkpt lat="45.17482" lon="5.00075">
        <ele>307.79998779297</ele>
        <time>2018-05-20T06:25:13.000Z</time>
      </trkpt>
      <trkpt lat="45.17473" lon="5.00077">
        <ele>308.20001220703</ele>
        <time>2018-05-20T06:25:15.000Z</time>
      </trkpt>
      <trkpt lat="45.17451" lon="5.00076">
        <ele>307.39999389648</ele>
        <time>2018-05-20T06:25:21.000Z</time>
      </trkpt>
      <trkpt lat="45.17438" lon="5.00072">
        <ele>306.20001220703</ele>
        <time>2018-05-20T06:25:24.000Z</time>
      </trkpt>
      <trkpt lat="45.17429" lon="5.00069">
        <ele>305.79998779297</ele>
        <time>2018-05-20T06:25:26.000Z</time>
      </trkpt>
      <trkpt lat="45.17425" lon="5.00067">
        <ele>305.60000610352</ele>
        <time>2018-05-20T06:25:27.000Z</time>
      </trkpt>
      <trkpt lat="45.17405" lon="5.00058">
        <ele>304.39999389648</ele>
        <time>2018-05-20T06:25:31.000Z</time>
      </trkpt>
      <trkpt lat="45.174" lon="5.00056">
        <ele>304</ele>
        <time>2018-05-20T06:25:32.000Z</time>
      </trkpt>
      <trkpt lat="45.17375" lon="5.00042">
        <ele>301.79998779297</ele>
        <time>2018-05-20T06:25:37.000Z</time>
      </trkpt>
      <trkpt lat="45.17363" lon="5.0004">
        <ele>301.39999389648</ele>
        <time>2018-05-20T06:25:39.000Z</time>
      </trkpt>
      <trkpt lat="45.17346" lon="5.00038">
        <ele>300.79998779297</ele>
        <time>2018-05-20T06:25:42.000Z</time>
      </trkpt>
      <trkpt lat="45.17341" lon="5.00039">
        <ele>300.60000610352</ele>
        <time>2018-05-20T06:25:43.000Z</time>
      </trkpt>
      <trkpt lat="45.17324" lon="5.00038">
        <ele>300</ele>
        <time>2018-05-20T06:25:46.000Z</time>
      </trkpt>
      <trkpt lat="45.17317" lon="5.00039">
        <ele>299.39999389648</ele>
        <time>2018-05-20T06:25:48.000Z</time>
      </trkpt>
      <trkpt lat="45.17313" lon="5.00046">
        <ele>298.79998779297</ele>
        <time>2018-05-20T06:25:51.000Z</time>
      </trkpt>
      <trkpt lat="45.17309" lon="5.00053">
        <ele>298.39999389648</ele>
        <time>2018-05-20T06:25:53.000Z</time>
      </trkpt>
      <trkpt lat="45.17294" lon="5.00072">
        <ele>295.79998779297</ele>
        <time>2018-05-20T06:25:57.000Z</time>
      </trkpt>
      <trkpt lat="45.17274" lon="5.00082">
        <ele>293.79998779297</ele>
        <time>2018-05-20T06:26:01.000Z</time>
      </trkpt>
      <trkpt lat="45.17251" lon="5.00092">
        <ele>292.60000610352</ele>
        <time>2018-05-20T06:26:05.000Z</time>
      </trkpt>
      <trkpt lat="45.17238" lon="5.00098">
        <ele>292</ele>
        <time>2018-05-20T06:26:07.000Z</time>
      </trkpt>
      <trkpt lat="45.17204" lon="5.00124">
        <ele>292.39999389648</ele>
        <time>2018-05-20T06:26:13.000Z</time>
      </trkpt>
      <trkpt lat="45.172" lon="5.0013">
        <ele>292.39999389648</ele>
        <time>2018-05-20T06:26:14.000Z</time>
      </trkpt>
      <trkpt lat="45.17193" lon="5.00137">
        <ele>292.39999389648</ele>
        <time>2018-05-20T06:26:16.000Z</time>
      </trkpt>
      <trkpt lat="45.17189" lon="5.00136">
        <ele>292.39999389648</ele>
        <time>2018-05-20T06:26:17.000Z</time>
      </trkpt>
      <trkpt lat="45.17184" lon="5.0013">
        <ele>292.79998779297</ele>
        <time>2018-05-20T06:26:20.000Z</time>
      </trkpt>
      <trkpt lat="45.17182" lon="5.00129">
        <ele>292.79998779297</ele>
        <time>2018-05-20T06:26:21.000Z</time>
      </trkpt>
      <trkpt lat="45.17169" lon="5.00123">
        <ele>293</ele>
        <time>2018-05-20T06:26:25.000Z</time>
      </trkpt>
      <trkpt lat="45.1713" lon="5.00106">
        <ele>292</ele>
        <time>2018-05-20T06:26:35.000Z</time>
      </trkpt>
      <trkpt lat="45.17109" lon="5.001">
        <ele>292</ele>
        <time>2018-05-20T06:26:41.000Z</time>
      </trkpt>
      <trkpt lat="45.17101" lon="5.00099">
        <ele>292</ele>
        <time>2018-05-20T06:26:43.000Z</time>
      </trkpt>
      <trkpt lat="45.17094" lon="5.00097">
        <ele>292.79998779297</ele>
        <time>2018-05-20T06:26:45.000Z</time>
      </trkpt>
      <trkpt lat="45.17063" lon="5.00091">
        <ele>296.20001220703</ele>
        <time>2018-05-20T06:26:53.000Z</time>
      </trkpt>
      <trkpt lat="45.17059" lon="5.00091">
        <ele>296.60000610352</ele>
        <time>2018-05-20T06:26:54.000Z</time>
      </trkpt>
      <trkpt lat="45.17041" lon="5.00085">
        <ele>298</ele>
        <time>2018-05-20T06:26:59.000Z</time>
      </trkpt>
      <trkpt lat="45.17036" lon="5.00083">
        <ele>298.39999389648</ele>
        <time>2018-05-20T06:27:01.000Z</time>
      </trkpt>
      <trkpt lat="45.1703" lon="5.00081">
        <ele>298.79998779297</ele>
        <time>2018-05-20T06:27:03.000Z</time>
      </trkpt>
      <trkpt lat="45.17021" lon="5.00077">
        <ele>299.39999389648</ele>
        <time>2018-05-20T06:27:06.000Z</time>
      </trkpt>
      <trkpt lat="45.17013" lon="5.00074">
        <ele>299.39999389648</ele>
        <time>2018-05-20T06:27:09.000Z</time>
      </trkpt>
      <trkpt lat="45.1701" lon="5.00072">
        <ele>299.39999389648</ele>
        <time>2018-05-20T06:27:10.000Z</time>
      </trkpt>
      <trkpt lat="45.17002" lon="5.00067">
        <ele>299.79998779297</ele>
        <time>2018-05-20T06:27:14.000Z</time>
      </trkpt>
      <trkpt lat="45.16999" lon="5.00065">
        <ele>300</ele>
        <time>2018-05-20T06:27:16.000Z</time>
      </trkpt>
      <trkpt lat="45.16995" lon="5.00061">
        <ele>300.39999389648</ele>
        <time>2018-05-20T06:27:18.000Z</time>
      </trkpt>
      <trkpt lat="45.16993" lon="5.00053">
        <ele>301.39999389648</ele>
        <time>2018-05-20T06:27:21.000Z</time>
      </trkpt>
      <trkpt lat="45.16993" lon="5.00051">
        <ele>301.79998779297</ele>
        <time>2018-05-20T06:27:22.000Z</time>
      </trkpt>
      <trkpt lat="45.16993" lon="5.00042">
        <ele>303</ele>
        <time>2018-05-20T06:27:26.000Z</time>
      </trkpt>
      <trkpt lat="45.16992" lon="5.00039">
        <ele>303.39999389648</ele>
        <time>2018-05-20T06:27:27.000Z</time>
      </trkpt>
      <trkpt lat="45.16991" lon="5.00035">
        <ele>304</ele>
        <time>2018-05-20T06:27:29.000Z</time>
      </trkpt>
      <trkpt lat="45.1699" lon="5.00032">
        <ele>304.39999389648</ele>
        <time>2018-05-20T06:27:30.000Z</time>
      </trkpt>
      <trkpt lat="45.16986" lon="5.00024">
        <ele>305.39999389648</ele>
        <time>2018-05-20T06:27:34.000Z</time>
      </trkpt>
      <trkpt lat="45.16985" lon="5.00023">
        <ele>305.79998779297</ele>
        <time>2018-05-20T06:27:35.000Z</time>
      </trkpt>
      <trkpt lat="45.16981" lon="5.0002">
        <ele>306.20001220703</ele>
        <time>2018-05-20T06:27:38.000Z</time>
      </trkpt>
      <trkpt lat="45.16975" lon="5.00019">
        <ele>306.20001220703</ele>
        <time>2018-05-20T06:27:41.000Z</time>
      </trkpt>
      <trkpt lat="45.16968" lon="5.00018">
        <ele>306.39999389648</ele>
        <time>2018-05-20T06:27:45.000Z</time>
      </trkpt>
      <trkpt lat="45.16965" lon="5.00015">
        <ele>306.79998779297</ele>
        <time>2018-05-20T06:27:47.000Z</time>
      </trkpt>
      <trkpt lat="45.1696" lon="5.00006">
        <ele>307.20001220703</ele>
        <time>2018-05-20T06:27:52.000Z</time>
      </trkpt>
      <trkpt lat="45.1696" lon="5.00003">
        <ele>307.39999389648</ele>
        <time>2018-05-20T06:27:53.000Z</time>
      </trkpt>
      <trkpt lat="45.1696" lon="5.00001">
        <ele>307.60000610352</ele>
        <time>2018-05-20T06:27:54.000Z</time>
      </trkpt>
      <trkpt lat="45.1696" lon="4.99998">
        <ele>307.79998779297</ele>
        <time>2018-05-20T06:27:55.000Z</time>
      </trkpt>
      <trkpt lat="45.16966" lon="4.99987">
        <ele>309</ele>
        <time>2018-05-20T06:27:59.000Z</time>
      </trkpt>
      <trkpt lat="45.16975" lon="4.99976">
        <ele>311.60000610352</ele>
        <time>2018-05-20T06:28:04.000Z</time>
      </trkpt>
      <trkpt lat="45.16979" lon="4.99972">
        <ele>312.39999389648</ele>
        <time>2018-05-20T06:28:06.000Z</time>
      </trkpt>
      <trkpt lat="45.16984" lon="4.99961">
        <ele>313.79998779297</ele>
        <time>2018-05-20T06:28:10.000Z</time>
      </trkpt>
      <trkpt lat="45.16986" lon="4.99955">
        <ele>314.39999389648</ele>
        <time>2018-05-20T06:28:12.000Z</time>
      </trkpt>
      <trkpt lat="45.16988" lon="4.99933">
        <ele>317.20001220703</ele>
        <time>2018-05-20T06:28:18.000Z</time>
      </trkpt>
      <trkpt lat="45.1699" lon="4.99906">
        <ele>319.60000610352</ele>
        <time>2018-05-20T06:28:23.000Z</time>
      </trkpt>
      <trkpt lat="45.16981" lon="4.99884">
        <ele>321</ele>
        <time>2018-05-20T06:28:27.000Z</time>
      </trkpt>
      <trkpt lat="45.16977" lon="4.99879">
        <ele>321</ele>
        <time>2018-05-20T06:28:28.000Z</time>
      </trkpt>
      <trkpt lat="45.16969" lon="4.99866">
        <ele>321.79998779297</ele>
        <time>2018-05-20T06:28:31.000Z</time>
      </trkpt>
      <trkpt lat="45.16963" lon="4.99855">
        <ele>322.79998779297</ele>
        <time>2018-05-20T06:28:34.000Z</time>
      </trkpt>
      <trkpt lat="45.16959" lon="4.99846">
        <ele>323.79998779297</ele>
        <time>2018-05-20T06:28:36.000Z</time>
      </trkpt>
      <trkpt lat="45.16951" lon="4.99828">
        <ele>325.60000610352</ele>
        <time>2018-05-20T06:28:40.000Z</time>
      </trkpt>
      <trkpt lat="45.16941" lon="4.99818">
        <ele>325.60000610352</ele>
        <time>2018-05-20T06:28:43.000Z</time>
      </trkpt>
      <trkpt lat="45.16936" lon="4.99821">
        <ele>325</ele>
        <time>2018-05-20T06:28:44.000Z</time>
      </trkpt>
      <trkpt lat="45.16924" lon="4.9984">
        <ele>321.79998779297</ele>
        <time>2018-05-20T06:28:48.000Z</time>
      </trkpt>
      <trkpt lat="45.16921" lon="4.99845">
        <ele>321.20001220703</ele>
        <time>2018-05-20T06:28:49.000Z</time>
      </trkpt>
      <trkpt lat="45.16909" lon="4.99854">
        <ele>320</ele>
        <time>2018-05-20T06:28:52.000Z</time>
      </trkpt>
      <trkpt lat="45.1689" lon="4.99854">
        <ele>319.39999389648</ele>
        <time>2018-05-20T06:28:57.000Z</time>
      </trkpt>
      <trkpt lat="45.16857" lon="4.9984">
        <ele>322.60000610352</ele>
        <time>2018-05-20T06:29:04.000Z</time>
      </trkpt>
      <trkpt lat="45.16837" lon="4.99818">
        <ele>326.79998779297</ele>
        <time>2018-05-20T06:29:09.000Z</time>
      </trkpt>
      <trkpt lat="45.16817" lon="4.99799">
        <ele>328.79998779297</ele>
        <time>2018-05-20T06:29:15.000Z</time>
      </trkpt>
      <trkpt lat="45.16806" lon="4.99783">
        <ele>330.39999389648</ele>
        <time>2018-05-20T06:29:20.000Z</time>
      </trkpt>
      <trkpt lat="45.168" lon="4.99779">
        <ele>330</ele>
        <time>2018-05-20T06:29:22.000Z</time>
      </trkpt>
      <trkpt lat="45.16793" lon="4.99781">
        <ele>328.79998779297</ele>
        <time>2018-05-20T06:29:24.000Z</time>
      </trkpt>
      <trkpt lat="45.16791" lon="4.99782">
        <ele>328.20001220703</ele>
        <time>2018-05-20T06:29:25.000Z</time>
      </trkpt>
      <trkpt lat="45.16788" lon="4.99784">
        <ele>327.79998779297</ele>
        <time>2018-05-20T06:29:26.000Z</time>
      </trkpt>
      <trkpt lat="45.16768" lon="4.99789">
        <ele>326.39999389648</ele>
        <time>2018-05-20T06:29:30.000Z</time>
      </trkpt>
      <trkpt lat="45.16752" lon="4.99785">
        <ele>326.39999389648</ele>
        <time>2018-05-20T06:29:33.000Z</time>
      </trkpt>
      <trkpt lat="45.16748" lon="4.99781">
        <ele>326.79998779297</ele>
        <time>2018-05-20T06:29:34.000Z</time>
      </trkpt>
      <trkpt lat="45.16739" lon="4.99766">
        <ele>328.79998779297</ele>
        <time>2018-05-20T06:29:37.000Z</time>
      </trkpt>
      <trkpt lat="45.16736" lon="4.99763">
        <ele>329.20001220703</ele>
        <time>2018-05-20T06:29:38.000Z</time>
      </trkpt>
      <trkpt lat="45.16723" lon="4.99767">
        <ele>329.20001220703</ele>
        <time>2018-05-20T06:29:41.000Z</time>
      </trkpt>
      <trkpt lat="45.16707" lon="4.99784">
        <ele>326.20001220703</ele>
        <time>2018-05-20T06:29:45.000Z</time>
      </trkpt>
      <trkpt lat="45.1669" lon="4.99807">
        <ele>323.20001220703</ele>
        <time>2018-05-20T06:29:49.000Z</time>
      </trkpt>
      <trkpt lat="45.16686" lon="4.99811">
        <ele>322.79998779297</ele>
        <time>2018-05-20T06:29:50.000Z</time>
      </trkpt>
      <trkpt lat="45.16681" lon="4.99814">
        <ele>322.60000610352</ele>
        <time>2018-05-20T06:29:51.000Z</time>
      </trkpt>
      <trkpt lat="45.16666" lon="4.99819">
        <ele>322</ele>
        <time>2018-05-20T06:29:54.000Z</time>
      </trkpt>
      <trkpt lat="45.16641" lon="4.99831">
        <ele>322.79998779297</ele>
        <time>2018-05-20T06:30:00.000Z</time>
      </trkpt>
      <trkpt lat="45.16636" lon="4.99835">
        <ele>323</ele>
        <time>2018-05-20T06:30:01.000Z</time>
      </trkpt>
      <trkpt lat="45.1662" lon="4.99844">
        <ele>324</ele>
        <time>2018-05-20T06:30:05.000Z</time>
      </trkpt>
      <trkpt lat="45.16607" lon="4.99846">
        <ele>324.79998779297</ele>
        <time>2018-05-20T06:30:08.000Z</time>
      </trkpt>
      <trkpt lat="45.16604" lon="4.99848">
        <ele>325</ele>
        <time>2018-05-20T06:30:09.000Z</time>
      </trkpt>
      <trkpt lat="45.16603" lon="4.99853">
        <ele>325.39999389648</ele>
        <time>2018-05-20T06:30:12.000Z</time>
      </trkpt>
      <trkpt lat="45.16605" lon="4.99854">
        <ele>325.39999389648</ele>
        <time>2018-05-20T06:30:13.000Z</time>
      </trkpt>
      <trkpt lat="45.16623" lon="4.99867">
        <ele>324.79998779297</ele>
        <time>2018-05-20T06:30:19.000Z</time>
      </trkpt>
      <trkpt lat="45.16639" lon="4.99875">
        <ele>324</ele>
        <time>2018-05-20T06:30:25.000Z</time>
      </trkpt>
      <trkpt lat="45.16642" lon="4.99877">
        <ele>324</ele>
        <time>2018-05-20T06:30:27.000Z</time>
      </trkpt>
      <trkpt lat="45.16651" lon="4.99884">
        <ele>324.20001220703</ele>
        <time>2018-05-20T06:30:33.000Z</time>
      </trkpt>
      <trkpt lat="45.1666" lon="4.9989">
        <ele>324.60000610352</ele>
        <time>2018-05-20T06:30:38.000Z</time>
      </trkpt>
      <trkpt lat="45.16666" lon="4.99896">
        <ele>325.60000610352</ele>
        <time>2018-05-20T06:30:41.000Z</time>
      </trkpt>
      <trkpt lat="45.16673" lon="4.99905">
        <ele>326.60000610352</ele>
        <time>2018-05-20T06:30:45.000Z</time>
      </trkpt>
      <trkpt lat="45.16679" lon="4.99914">
        <ele>327.39999389648</ele>
        <time>2018-05-20T06:30:49.000Z</time>
      </trkpt>
      <trkpt lat="45.16685" lon="4.99922">
        <ele>328.20001220703</ele>
        <time>2018-05-20T06:30:53.000Z</time>
      </trkpt>
      <trkpt lat="45.1669" lon="4.99927">
        <ele>328</ele>
        <time>2018-05-20T06:30:56.000Z</time>
      </trkpt>
      <trkpt lat="45.16695" lon="4.99935">
        <ele>328.39999389648</ele>
        <time>2018-05-20T06:31:00.000Z</time>
      </trkpt>
      <trkpt lat="45.16698" lon="4.9994">
        <ele>328.60000610352</ele>
        <time>2018-05-20T06:31:02.000Z</time>
      </trkpt>
      <trkpt lat="45.16701" lon="4.99951">
        <ele>329.39999389648</ele>
        <time>2018-05-20T06:31:06.000Z</time>
      </trkpt>
      <trkpt lat="45.16701" lon="4.99954">
        <ele>329.60000610352</ele>
        <time>2018-05-20T06:31:07.000Z</time>
      </trkpt>
      <trkpt lat="45.16701" lon="4.99957">
        <ele>329.79998779297</ele>
        <time>2018-05-20T06:31:08.000Z</time>
      </trkpt>
      <trkpt lat="45.16704" lon="4.99978">
        <ele>331</ele>
        <time>2018-05-20T06:31:14.000Z</time>
      </trkpt>
      <trkpt lat="45.16704" lon="4.99984">
        <ele>331.60000610352</ele>
        <time>2018-05-20T06:31:16.000Z</time>
      </trkpt>
      <trkpt lat="45.16703" lon="4.99994">
        <ele>331.60000610352</ele>
        <time>2018-05-20T06:31:20.000Z</time>
      </trkpt>
      <trkpt lat="45.16701" lon="4.99998">
        <ele>331.39999389648</ele>
        <time>2018-05-20T06:31:22.000Z</time>
      </trkpt>
      <trkpt lat="45.167" lon="5.00002">
        <ele>331.39999389648</ele>
        <time>2018-05-20T06:31:24.000Z</time>
      </trkpt>
      <trkpt lat="45.16616" lon="4.99994">
        <ele>349.39999389648</ele>
        <time>2018-05-20T06:32:24.000Z</time>
      </trkpt>
      <trkpt lat="45.16614" lon="4.99994">
        <ele>350.20001220703</ele>
        <time>2018-05-20T06:32:25.000Z</time>
      </trkpt>
      <trkpt lat="45.16601" lon="4.99996">
        <ele>355</ele>
        <time>2018-05-20T06:32:32.000Z</time>
      </trkpt>
      <trkpt lat="45.16596" lon="4.99998">
        <ele>355.79998779297</ele>
        <time>2018-05-20T06:32:34.000Z</time>
      </trkpt>
      <trkpt lat="45.16591" lon="5.00001">
        <ele>357</ele>
        <time>2018-05-20T06:32:37.000Z</time>
      </trkpt>
      <trkpt lat="45.16585" lon="5.00003">
        <ele>357.79998779297</ele>
        <time>2018-05-20T06:32:41.000Z</time>
      </trkpt>
      <trkpt lat="45.16583" lon="5.00003">
        <ele>358</ele>
        <time>2018-05-20T06:32:42.000Z</time>
      </trkpt>
      <trkpt lat="45.16575" lon="5.00004">
        <ele>359</ele>
        <time>2018-05-20T06:32:46.000Z</time>
      </trkpt>
      <trkpt lat="45.16572" lon="5.00006">
        <ele>359</ele>
        <time>2018-05-20T06:32:48.000Z</time>
      </trkpt>
      <trkpt lat="45.16567" lon="5.00007">
        <ele>359.20001220703</ele>
        <time>2018-05-20T06:32:51.000Z</time>
      </trkpt>
      <trkpt lat="45.1656" lon="5.0001">
        <ele>359.79998779297</ele>
        <time>2018-05-20T06:32:57.000Z</time>
      </trkpt>
      <trkpt lat="45.16552" lon="5.00014">
        <ele>360.60000610352</ele>
        <time>2018-05-20T06:33:02.000Z</time>
      </trkpt>
      <trkpt lat="45.1655" lon="5.00017">
        <ele>360.60000610352</ele>
        <time>2018-05-20T06:33:04.000Z</time>
      </trkpt>
      <trkpt lat="45.16548" lon="5.00019">
        <ele>360.79998779297</ele>
        <time>2018-05-20T06:33:06.000Z</time>
      </trkpt>
      <trkpt lat="45.16443" lon="5.00065">
        <ele>382.20001220703</ele>
        <time>2018-05-20T06:34:35.000Z</time>
      </trkpt>
      <trkpt lat="45.16437" lon="5.00059">
        <ele>382.79998779297</ele>
        <time>2018-05-20T06:34:39.000Z</time>
      </trkpt>
      <trkpt lat="45.16431" lon="5.00055">
        <ele>383.20001220703</ele>
        <time>2018-05-20T06:34:41.000Z</time>
      </trkpt>
      <trkpt lat="45.16426" lon="5.00051">
        <ele>383.39999389648</ele>
        <time>2018-05-20T06:34:43.000Z</time>
      </trkpt>
      <trkpt lat="45.16417" lon="5.00043">
        <ele>383.60000610352</ele>
        <time>2018-05-20T06:34:47.000Z</time>
      </trkpt>
      <trkpt lat="45.16403" lon="5.00019">
        <ele>383.60000610352</ele>
        <time>2018-05-20T06:34:53.000Z</time>
      </trkpt>
      <trkpt lat="45.16386" lon="4.99983">
        <ele>381.79998779297</ele>
        <time>2018-05-20T06:34:59.000Z</time>
      </trkpt>
      <trkpt lat="45.16372" lon="4.99954">
        <ele>383.79998779297</ele>
        <time>2018-05-20T06:35:04.000Z</time>
      </trkpt>
      <trkpt lat="45.16367" lon="4.99944">
        <ele>384.39999389648</ele>
        <time>2018-05-20T06:35:06.000Z</time>
      </trkpt>
      <trkpt lat="45.16363" lon="4.99939">
        <ele>384.60000610352</ele>
        <time>2018-05-20T06:35:07.000Z</time>
      </trkpt>
      <trkpt lat="45.16351" lon="4.99926">
        <ele>385.79998779297</ele>
        <time>2018-05-20T06:35:11.000Z</time>
      </trkpt>
      <trkpt lat="45.16337" lon="4.99904">
        <ele>385.60000610352</ele>
        <time>2018-05-20T06:35:17.000Z</time>
      </trkpt>
      <trkpt lat="45.16327" lon="4.99874">
        <ele>384.20001220703</ele>
        <time>2018-05-20T06:35:22.000Z</time>
      </trkpt>
      <trkpt lat="45.16324" lon="4.99869">
        <ele>384.20001220703</ele>
        <time>2018-05-20T06:35:23.000Z</time>
      </trkpt>
      <trkpt lat="45.16313" lon="4.99853">
        <ele>382.60000610352</ele>
        <time>2018-05-20T06:35:27.000Z</time>
      </trkpt>
      <trkpt lat="45.16307" lon="4.99831">
        <ele>381.60000610352</ele>
        <time>2018-05-20T06:35:31.000Z</time>
      </trkpt>
      <trkpt lat="45.16302" lon="4.99824">
        <ele>381.60000610352</ele>
        <time>2018-05-20T06:35:32.000Z</time>
      </trkpt>
      <trkpt lat="45.16279" lon="4.99785">
        <ele>382</ele>
        <time>2018-05-20T06:35:39.000Z</time>
      </trkpt>
      <trkpt lat="45.16267" lon="4.99768">
        <ele>382.20001220703</ele>
        <time>2018-05-20T06:35:43.000Z</time>
      </trkpt>
      <trkpt lat="45.16263" lon="4.99757">
        <ele>381.79998779297</ele>
        <time>2018-05-20T06:35:45.000Z</time>
      </trkpt>
      <trkpt lat="45.16252" lon="4.99727">
        <ele>380.79998779297</ele>
        <time>2018-05-20T06:35:51.000Z</time>
      </trkpt>
      <trkpt lat="45.16239" lon="4.99702">
        <ele>380</ele>
        <time>2018-05-20T06:35:56.000Z</time>
      </trkpt>
      <trkpt lat="45.16236" lon="4.99696">
        <ele>379.39999389648</ele>
        <time>2018-05-20T06:35:57.000Z</time>
      </trkpt>
      <trkpt lat="45.16224" lon="4.99686">
        <ele>378.39999389648</ele>
        <time>2018-05-20T06:36:01.000Z</time>
      </trkpt>
      <trkpt lat="45.1622" lon="4.99688">
        <ele>378.79998779297</ele>
        <time>2018-05-20T06:36:02.000Z</time>
      </trkpt>
      <trkpt lat="45.16212" lon="4.99695">
        <ele>380</ele>
        <time>2018-05-20T06:36:05.000Z</time>
      </trkpt>
      <trkpt lat="45.16209" lon="4.99696">
        <ele>380.20001220703</ele>
        <time>2018-05-20T06:36:06.000Z</time>
      </trkpt>
      <trkpt lat="45.1619" lon="4.99697">
        <ele>379.79998779297</ele>
        <time>2018-05-20T06:36:12.000Z</time>
      </trkpt>
      <trkpt lat="45.16156" lon="4.99692">
        <ele>380.60000610352</ele>
        <time>2018-05-20T06:36:19.000Z</time>
      </trkpt>
      <trkpt lat="45.16146" lon="4.99688">
        <ele>380.60000610352</ele>
        <time>2018-05-20T06:36:21.000Z</time>
      </trkpt>
      <trkpt lat="45.16129" lon="4.99686">
        <ele>380.79998779297</ele>
        <time>2018-05-20T06:36:25.000Z</time>
      </trkpt>
      <trkpt lat="45.16117" lon="4.99684">
        <ele>380.39999389648</ele>
        <time>2018-05-20T06:36:30.000Z</time>
      </trkpt>
      <trkpt lat="45.16103" lon="4.99686">
        <ele>380.79998779297</ele>
        <time>2018-05-20T06:36:35.000Z</time>
      </trkpt>
      <trkpt lat="45.16098" lon="4.99685">
        <ele>381</ele>
        <time>2018-05-20T06:36:37.000Z</time>
      </trkpt>
      <trkpt lat="45.16082" lon="4.99686">
        <ele>381.60000610352</ele>
        <time>2018-05-20T06:36:45.000Z</time>
      </trkpt>
      <trkpt lat="45.16066" lon="4.99688">
        <ele>382.60000610352</ele>
        <time>2018-05-20T06:36:50.000Z</time>
      </trkpt>
      <trkpt lat="45.16046" lon="4.99688">
        <ele>383</ele>
        <time>2018-05-20T06:36:57.000Z</time>
      </trkpt>
      <trkpt lat="45.16041" lon="4.99687">
        <ele>383.20001220703</ele>
        <time>2018-05-20T06:36:59.000Z</time>
      </trkpt>
      <trkpt lat="45.16039" lon="4.99687">
        <ele>383.20001220703</ele>
        <time>2018-05-20T06:37:00.000Z</time>
      </trkpt>
      <trkpt lat="45.16032" lon="4.99687">
        <ele>383.60000610352</ele>
        <time>2018-05-20T06:37:03.000Z</time>
      </trkpt>
      <trkpt lat="45.16018" lon="4.99688">
        <ele>384</ele>
        <time>2018-05-20T06:37:10.000Z</time>
      </trkpt>
      <trkpt lat="45.16015" lon="4.99689">
        <ele>384</ele>
        <time>2018-05-20T06:37:12.000Z</time>
      </trkpt>
      <trkpt lat="45.15999" lon="4.99693">
        <ele>384.20001220703</ele>
        <time>2018-05-20T06:37:18.000Z</time>
      </trkpt>
      <trkpt lat="45.15976" lon="4.99697">
        <ele>384.79998779297</ele>
        <time>2018-05-20T06:37:25.000Z</time>
      </trkpt>
      <trkpt lat="45.15952" lon="4.99702">
        <ele>385.20001220703</ele>
        <time>2018-05-20T06:37:32.000Z</time>
      </trkpt>
      <trkpt lat="45.15935" lon="4.9971">
        <ele>387.20001220703</ele>
        <time>2018-05-20T06:37:38.000Z</time>
      </trkpt>
      <trkpt lat="45.15918" lon="4.99719">
        <ele>388.39999389648</ele>
        <time>2018-05-20T06:37:44.000Z</time>
      </trkpt>
      <trkpt lat="45.15915" lon="4.99721">
        <ele>388.79998779297</ele>
        <time>2018-05-20T06:37:45.000Z</time>
      </trkpt>
      <trkpt lat="45.15895" lon="4.99733">
        <ele>389.39999389648</ele>
        <time>2018-05-20T06:37:53.000Z</time>
      </trkpt>
      <trkpt lat="45.15883" lon="4.99742">
        <ele>389.20001220703</ele>
        <time>2018-05-20T06:37:58.000Z</time>
      </trkpt>
      <trkpt lat="45.15878" lon="4.99743">
        <ele>388.79998779297</ele>
        <time>2018-05-20T06:38:12.000Z</time>
      </trkpt>
      <trkpt lat="45.15867" lon="4.99742">
        <ele>388</ele>
        <time>2018-05-20T06:38:15.000Z</time>
      </trkpt>
      <trkpt lat="45.15848" lon="4.99749">
        <ele>387.79998779297</ele>
        <time>2018-05-20T06:38:20.000Z</time>
      </trkpt>
      <trkpt lat="45.15822" lon="4.99757">
        <ele>389.20001220703</ele>
        <time>2018-05-20T06:38:27.000Z</time>
      </trkpt>
      <trkpt lat="45.15811" lon="4.99763">
        <ele>389.39999389648</ele>
        <time>2018-05-20T06:38:29.000Z</time>
      </trkpt>
      <trkpt lat="45.15794" lon="4.99774">
        <ele>390.39999389648</ele>
        <time>2018-05-20T06:38:33.000Z</time>
      </trkpt>
      <trkpt lat="45.1579" lon="4.99777">
        <ele>391</ele>
        <time>2018-05-20T06:38:34.000Z</time>
      </trkpt>
      <trkpt lat="45.1578" lon="4.99787">
        <ele>392</ele>
        <time>2018-05-20T06:38:37.000Z</time>
      </trkpt>
      <trkpt lat="45.15773" lon="4.99802">
        <ele>393.39999389648</ele>
        <time>2018-05-20T06:38:41.000Z</time>
      </trkpt>
      <trkpt lat="45.15768" lon="4.99809">
        <ele>393.79998779297</ele>
        <time>2018-05-20T06:38:43.000Z</time>
      </trkpt>
      <trkpt lat="45.15761" lon="4.9983">
        <ele>395.20001220703</ele>
        <time>2018-05-20T06:38:48.000Z</time>
      </trkpt>
      <trkpt lat="45.15757" lon="4.99861">
        <ele>397.60000610352</ele>
        <time>2018-05-20T06:38:53.000Z</time>
      </trkpt>
      <trkpt lat="45.15756" lon="4.99868">
        <ele>398.20001220703</ele>
        <time>2018-05-20T06:38:54.000Z</time>
      </trkpt>
      <trkpt lat="45.15746" lon="4.99912">
        <ele>399.79998779297</ele>
        <time>2018-05-20T06:39:01.000Z</time>
      </trkpt>
      <trkpt lat="45.15741" lon="4.99931">
        <ele>400.20001220703</ele>
        <time>2018-05-20T06:39:04.000Z</time>
      </trkpt>
      <trkpt lat="45.15736" lon="4.99944">
        <ele>399.60000610352</ele>
        <time>2018-05-20T06:39:06.000Z</time>
      </trkpt>
      <trkpt lat="45.15731" lon="4.99959">
        <ele>399</ele>
        <time>2018-05-20T06:39:08.000Z</time>
      </trkpt>
      <trkpt lat="45.15721" lon="4.9998">
        <ele>398.20001220703</ele>
        <time>2018-05-20T06:39:11.000Z</time>
      </trkpt>
      <trkpt lat="45.15717" lon="4.99987">
        <ele>400.60000610352</ele>
        <time>2018-05-20T06:39:12.000Z</time>
      </trkpt>
      <trkpt lat="45.15699" lon="5.00012">
        <ele>400.79998779297</ele>
        <time>2018-05-20T06:39:16.000Z</time>
      </trkpt>
      <trkpt lat="45.15661" lon="5.0005">
        <ele>399.60000610352</ele>
        <time>2018-05-20T06:39:23.000Z</time>
      </trkpt>
      <trkpt lat="45.15647" lon="5.00058">
        <ele>399.20001220703</ele>
        <time>2018-05-20T06:39:25.000Z</time>
      </trkpt>
      <trkpt lat="45.15634" lon="5.00062">
        <ele>398.39999389648</ele>
        <time>2018-05-20T06:39:27.000Z</time>
      </trkpt>
      <trkpt lat="45.15603" lon="5.00076">
        <ele>396.79998779297</ele>
        <time>2018-05-20T06:39:33.000Z</time>
      </trkpt>
      <trkpt lat="45.15599" lon="5.00076">
        <ele>396.60000610352</ele>
        <time>2018-05-20T06:39:34.000Z</time>
      </trkpt>
      <trkpt lat="45.15586" lon="5.00075">
        <ele>396.60000610352</ele>
        <time>2018-05-20T06:39:37.000Z</time>
      </trkpt>
      <trkpt lat="45.15559" lon="5.00067">
        <ele>396</ele>
        <time>2018-05-20T06:39:43.000Z</time>
      </trkpt>
      <trkpt lat="45.15539" lon="5.00069">
        <ele>395</ele>
        <time>2018-05-20T06:39:48.000Z</time>
      </trkpt>
      <trkpt lat="45.15534" lon="5.00073">
        <ele>394.39999389648</ele>
        <time>2018-05-20T06:39:50.000Z</time>
      </trkpt>
      <trkpt lat="45.15535" lon="5.00082">
        <ele>394.39999389648</ele>
        <time>2018-05-20T06:39:52.000Z</time>
      </trkpt>
      <trkpt lat="45.15545" lon="5.00087">
        <ele>395.79998779297</ele>
        <time>2018-05-20T06:39:55.000Z</time>
      </trkpt>
      <trkpt lat="45.1555" lon="5.00093">
        <ele>396.20001220703</ele>
        <time>2018-05-20T06:39:57.000Z</time>
      </trkpt>
      <trkpt lat="45.15555" lon="5.001">
        <ele>396.60000610352</ele>
        <time>2018-05-20T06:39:59.000Z</time>
      </trkpt>
      <trkpt lat="45.15562" lon="5.00108">
        <ele>396.79998779297</ele>
        <time>2018-05-20T06:40:02.000Z</time>
      </trkpt>
      <trkpt lat="45.15565" lon="5.00111">
        <ele>396.79998779297</ele>
        <time>2018-05-20T06:40:03.000Z</time>
      </trkpt>
      <trkpt lat="45.1558" lon="5.00127">
        <ele>397.39999389648</ele>
        <time>2018-05-20T06:40:09.000Z</time>
      </trkpt>
      <trkpt lat="45.15601" lon="5.00141">
        <ele>399</ele>
        <time>2018-05-20T06:40:16.000Z</time>
      </trkpt>
      <trkpt lat="45.15623" lon="5.00146">
        <ele>401.39999389648</ele>
        <time>2018-05-20T06:40:23.000Z</time>
      </trkpt>
      <trkpt lat="45.15638" lon="5.00153">
        <ele>402.79998779297</ele>
        <time>2018-05-20T06:40:28.000Z</time>
      </trkpt>
      <trkpt lat="45.15642" lon="5.00156">
        <ele>403.20001220703</ele>
        <time>2018-05-20T06:40:30.000Z</time>
      </trkpt>
      <trkpt lat="45.15656" lon="5.00166">
        <ele>403.39999389648</ele>
        <time>2018-05-20T06:40:35.000Z</time>
      </trkpt>
      <trkpt lat="45.15659" lon="5.00169">
        <ele>403.39999389648</ele>
        <time>2018-05-20T06:40:36.000Z</time>
      </trkpt>
      <trkpt lat="45.15678" lon="5.00188">
        <ele>401.39999389648</ele>
        <time>2018-05-20T06:40:43.000Z</time>
      </trkpt>
      <trkpt lat="45.15697" lon="5.00209">
        <ele>398.79998779297</ele>
        <time>2018-05-20T06:40:49.000Z</time>
      </trkpt>
      <trkpt lat="45.15722" lon="5.00237">
        <ele>395.60000610352</ele>
        <time>2018-05-20T06:40:55.000Z</time>
      </trkpt>
      <trkpt lat="45.15732" lon="5.00244">
        <ele>394.39999389648</ele>
        <time>2018-05-20T06:40:57.000Z</time>
      </trkpt>
      <trkpt lat="45.15743" lon="5.00245">
        <ele>394</ele>
        <time>2018-05-20T06:40:59.000Z</time>
      </trkpt>
      <trkpt lat="45.15759" lon="5.00244">
        <ele>393.79998779297</ele>
        <time>2018-05-20T06:41:02.000Z</time>
      </trkpt>
      <trkpt lat="45.15765" lon="5.00244">
        <ele>394</ele>
        <time>2018-05-20T06:41:03.000Z</time>
      </trkpt>
      <trkpt lat="45.15776" lon="5.00242">
        <ele>393.79998779297</ele>
        <time>2018-05-20T06:41:05.000Z</time>
      </trkpt>
      <trkpt lat="45.15788" lon="5.00242">
        <ele>393.39999389648</ele>
        <time>2018-05-20T06:41:07.000Z</time>
      </trkpt>
      <trkpt lat="45.158" lon="5.00243">
        <ele>392.60000610352</ele>
        <time>2018-05-20T06:41:09.000Z</time>
      </trkpt>
      <trkpt lat="45.1581" lon="5.00248">
        <ele>390.79998779297</ele>
        <time>2018-05-20T06:41:11.000Z</time>
      </trkpt>
      <trkpt lat="45.15815" lon="5.00251">
        <ele>390</ele>
        <time>2018-05-20T06:41:12.000Z</time>
      </trkpt>
      <trkpt lat="45.15828" lon="5.00262">
        <ele>387.20001220703</ele>
        <time>2018-05-20T06:41:15.000Z</time>
      </trkpt>
      <trkpt lat="45.15837" lon="5.00274">
        <ele>386</ele>
        <time>2018-05-20T06:41:17.000Z</time>
      </trkpt>
      <trkpt lat="45.15842" lon="5.0028">
        <ele>385.60000610352</ele>
        <time>2018-05-20T06:41:18.000Z</time>
      </trkpt>
      <trkpt lat="45.15847" lon="5.00286">
        <ele>385.39999389648</ele>
        <time>2018-05-20T06:41:19.000Z</time>
      </trkpt>
      <trkpt lat="45.1585" lon="5.00293">
        <ele>385</ele>
        <time>2018-05-20T06:41:20.000Z</time>
      </trkpt>
      <trkpt lat="45.15859" lon="5.00308">
        <ele>383.60000610352</ele>
        <time>2018-05-20T06:41:22.000Z</time>
      </trkpt>
      <trkpt lat="45.15865" lon="5.00317">
        <ele>382.60000610352</ele>
        <time>2018-05-20T06:41:23.000Z</time>
      </trkpt>
      <trkpt lat="45.15869" lon="5.00325">
        <ele>381.39999389648</ele>
        <time>2018-05-20T06:41:24.000Z</time>
      </trkpt>
      <trkpt lat="45.15876" lon="5.00339">
        <ele>378.60000610352</ele>
        <time>2018-05-20T06:41:26.000Z</time>
      </trkpt>
      <trkpt lat="45.15883" lon="5.00352">
        <ele>375.79998779297</ele>
        <time>2018-05-20T06:41:28.000Z</time>
      </trkpt>
      <trkpt lat="45.15888" lon="5.00362">
        <ele>373.39999389648</ele>
        <time>2018-05-20T06:41:30.000Z</time>
      </trkpt>
      <trkpt lat="45.15891" lon="5.00368">
        <ele>372</ele>
        <time>2018-05-20T06:41:31.000Z</time>
      </trkpt>
      <trkpt lat="45.15894" lon="5.00374">
        <ele>370.79998779297</ele>
        <time>2018-05-20T06:41:32.000Z</time>
      </trkpt>
      <trkpt lat="45.15897" lon="5.0038">
        <ele>369.79998779297</ele>
        <time>2018-05-20T06:41:33.000Z</time>
      </trkpt>
      <trkpt lat="45.15899" lon="5.00385">
        <ele>368.79998779297</ele>
        <time>2018-05-20T06:41:34.000Z</time>
      </trkpt>
      <trkpt lat="45.15902" lon="5.00391">
        <ele>368</ele>
        <time>2018-05-20T06:41:35.000Z</time>
      </trkpt>
      <trkpt lat="45.15904" lon="5.00396">
        <ele>367</ele>
        <time>2018-05-20T06:41:36.000Z</time>
      </trkpt>
      <trkpt lat="45.15907" lon="5.00402">
        <ele>366.20001220703</ele>
        <time>2018-05-20T06:41:37.000Z</time>
      </trkpt>
      <trkpt lat="45.15909" lon="5.00408">
        <ele>365</ele>
        <time>2018-05-20T06:41:38.000Z</time>
      </trkpt>
      <trkpt lat="45.15912" lon="5.00414">
        <ele>364</ele>
        <time>2018-05-20T06:41:39.000Z</time>
      </trkpt>
      <trkpt lat="45.15914" lon="5.00418">
        <ele>363.20001220703</ele>
        <time>2018-05-20T06:41:40.000Z</time>
      </trkpt>
      <trkpt lat="45.15917" lon="5.00421">
        <ele>362.60000610352</ele>
        <time>2018-05-20T06:41:41.000Z</time>
      </trkpt>
      <trkpt lat="45.1592" lon="5.00424">
        <ele>362.20001220703</ele>
        <time>2018-05-20T06:41:42.000Z</time>
      </trkpt>
      <trkpt lat="45.15923" lon="5.00427">
        <ele>361.79998779297</ele>
        <time>2018-05-20T06:41:43.000Z</time>
      </trkpt>
      <trkpt lat="45.15928" lon="5.00434">
        <ele>360.60000610352</ele>
        <time>2018-05-20T06:41:45.000Z</time>
      </trkpt>
      <trkpt lat="45.15931" lon="5.00438">
        <ele>360</ele>
        <time>2018-05-20T06:41:46.000Z</time>
      </trkpt>
      <trkpt lat="45.15934" lon="5.00443">
        <ele>359.20001220703</ele>
        <time>2018-05-20T06:41:47.000Z</time>
      </trkpt>
      <trkpt lat="45.15936" lon="5.00449">
        <ele>358.20001220703</ele>
        <time>2018-05-20T06:41:48.000Z</time>
      </trkpt>
      <trkpt lat="45.15941" lon="5.00456">
        <ele>356.60000610352</ele>
        <time>2018-05-20T06:41:49.000Z</time>
      </trkpt>
      <trkpt lat="45.15946" lon="5.00464">
        <ele>354.79998779297</ele>
        <time>2018-05-20T06:41:50.000Z</time>
      </trkpt>
      <trkpt lat="45.1595" lon="5.00469">
        <ele>353.39999389648</ele>
        <time>2018-05-20T06:41:51.000Z</time>
      </trkpt>
      <trkpt lat="45.15953" lon="5.00474">
        <ele>352.20001220703</ele>
        <time>2018-05-20T06:41:52.000Z</time>
      </trkpt>
      <trkpt lat="45.15956" lon="5.00479">
        <ele>351</ele>
        <time>2018-05-20T06:41:53.000Z</time>
      </trkpt>
      <trkpt lat="45.1596" lon="5.00483">
        <ele>350</ele>
        <time>2018-05-20T06:41:54.000Z</time>
      </trkpt>
      <trkpt lat="45.15962" lon="5.00486">
        <ele>349</ele>
        <time>2018-05-20T06:41:55.000Z</time>
      </trkpt>
      <trkpt lat="45.15966" lon="5.0049">
        <ele>348.20001220703</ele>
        <time>2018-05-20T06:41:56.000Z</time>
      </trkpt>
      <trkpt lat="45.15971" lon="5.00491">
        <ele>347.39999389648</ele>
        <time>2018-05-20T06:41:57.000Z</time>
      </trkpt>
      <trkpt lat="45.15975" lon="5.00491">
        <ele>347</ele>
        <time>2018-05-20T06:41:58.000Z</time>
      </trkpt>
      <trkpt lat="45.15983" lon="5.00494">
        <ele>345.79998779297</ele>
        <time>2018-05-20T06:42:00.000Z</time>
      </trkpt>
      <trkpt lat="45.15986" lon="5.00494">
        <ele>345.39999389648</ele>
        <time>2018-05-20T06:42:01.000Z</time>
      </trkpt>
      <trkpt lat="45.15989" lon="5.00493">
        <ele>345.20001220703</ele>
        <time>2018-05-20T06:42:02.000Z</time>
      </trkpt>
      <trkpt lat="45.15994" lon="5.00487">
        <ele>345.39999389648</ele>
        <time>2018-05-20T06:42:04.000Z</time>
      </trkpt>
      <trkpt lat="45.15996" lon="5.00485">
        <ele>345.20001220703</ele>
        <time>2018-05-20T06:42:05.000Z</time>
      </trkpt>
      <trkpt lat="45.15997" lon="5.00483">
        <ele>345</ele>
        <time>2018-05-20T06:42:06.000Z</time>
      </trkpt>
      <trkpt lat="45.16" lon="5.0048">
        <ele>344.79998779297</ele>
        <time>2018-05-20T06:42:08.000Z</time>
      </trkpt>
      <trkpt lat="45.16" lon="5.00483">
        <ele>344.39999389648</ele>
        <time>2018-05-20T06:42:09.000Z</time>
      </trkpt>
      <trkpt lat="45.16001" lon="5.00485">
        <ele>344.20001220703</ele>
        <time>2018-05-20T06:42:10.000Z</time>
      </trkpt>
      <trkpt lat="45.16007" lon="5.00493">
        <ele>342.79998779297</ele>
        <time>2018-05-20T06:42:12.000Z</time>
      </trkpt>
      <trkpt lat="45.16013" lon="5.0049">
        <ele>341.79998779297</ele>
        <time>2018-05-20T06:42:14.000Z</time>
      </trkpt>
      <trkpt lat="45.16016" lon="5.00487">
        <ele>341.39999389648</ele>
        <time>2018-05-20T06:42:15.000Z</time>
      </trkpt>
      <trkpt lat="45.16019" lon="5.00486">
        <ele>341</ele>
        <time>2018-05-20T06:42:16.000Z</time>
      </trkpt>
      <trkpt lat="45.16027" lon="5.00482">
        <ele>340.60000610352</ele>
        <time>2018-05-20T06:42:20.000Z</time>
      </trkpt>
      <trkpt lat="45.16034" lon="5.00475">
        <ele>340.39999389648</ele>
        <time>2018-05-20T06:42:22.000Z</time>
      </trkpt>
      <trkpt lat="45.1604" lon="5.0047">
        <ele>339.20001220703</ele>
        <time>2018-05-20T06:42:24.000Z</time>
      </trkpt>
      <trkpt lat="45.16043" lon="5.00468">
        <ele>338.79998779297</ele>
        <time>2018-05-20T06:42:25.000Z</time>
      </trkpt>
      <trkpt lat="45.16048" lon="5.00462">
        <ele>337.79998779297</ele>
        <time>2018-05-20T06:42:27.000Z</time>
      </trkpt>
      <trkpt lat="45.16053" lon="5.00459">
        <ele>336.79998779297</ele>
        <time>2018-05-20T06:42:29.000Z</time>
      </trkpt>
      <trkpt lat="45.16056" lon="5.00458">
        <ele>336.20001220703</ele>
        <time>2018-05-20T06:42:31.000Z</time>
      </trkpt>
      <trkpt lat="45.16063" lon="5.00458">
        <ele>335</ele>
        <time>2018-05-20T06:42:33.000Z</time>
      </trkpt>
      <trkpt lat="45.16067" lon="5.00463">
        <ele>334.39999389648</ele>
        <time>2018-05-20T06:42:34.000Z</time>
      </trkpt>
      <trkpt lat="45.16071" lon="5.00468">
        <ele>334</ele>
        <time>2018-05-20T06:42:35.000Z</time>
      </trkpt>
      <trkpt lat="45.16076" lon="5.00478">
        <ele>333.39999389648</ele>
        <time>2018-05-20T06:42:37.000Z</time>
      </trkpt>
      <trkpt lat="45.16079" lon="5.00483">
        <ele>333.20001220703</ele>
        <time>2018-05-20T06:42:38.000Z</time>
      </trkpt>
      <trkpt lat="45.16081" lon="5.00487">
        <ele>333</ele>
        <time>2018-05-20T06:42:39.000Z</time>
      </trkpt>
      <trkpt lat="45.16099" lon="5.00512">
        <ele>332.20001220703</ele>
        <time>2018-05-20T06:42:44.000Z</time>
      </trkpt>
      <trkpt lat="45.1612" lon="5.00543">
        <ele>331.79998779297</ele>
        <time>2018-05-20T06:42:49.000Z</time>
      </trkpt>
      <trkpt lat="45.16128" lon="5.00554">
        <ele>331.20001220703</ele>
        <time>2018-05-20T06:42:51.000Z</time>
      </trkpt>
      <trkpt lat="45.16142" lon="5.0057">
        <ele>329</ele>
        <time>2018-05-20T06:42:54.000Z</time>
      </trkpt>
      <trkpt lat="45.16172" lon="5.00614">
        <ele>323</ele>
        <time>2018-05-20T06:43:00.000Z</time>
      </trkpt>
      <trkpt lat="45.16176" lon="5.00624">
        <ele>322.39999389648</ele>
        <time>2018-05-20T06:43:01.000Z</time>
      </trkpt>
      <trkpt lat="45.1618" lon="5.00635">
        <ele>321.79998779297</ele>
        <time>2018-05-20T06:43:02.000Z</time>
      </trkpt>
      <trkpt lat="45.16183" lon="5.00659">
        <ele>321.60000610352</ele>
        <time>2018-05-20T06:43:04.000Z</time>
      </trkpt>
      <trkpt lat="45.16184" lon="5.00683">
        <ele>321.20001220703</ele>
        <time>2018-05-20T06:43:06.000Z</time>
      </trkpt>
      <trkpt lat="45.16185" lon="5.00696">
        <ele>320.39999389648</ele>
        <time>2018-05-20T06:43:07.000Z</time>
      </trkpt>
      <trkpt lat="45.16186" lon="5.00722">
        <ele>318.79998779297</ele>
        <time>2018-05-20T06:43:09.000Z</time>
      </trkpt>
      <trkpt lat="45.16187" lon="5.00734">
        <ele>317.79998779297</ele>
        <time>2018-05-20T06:43:10.000Z</time>
      </trkpt>
      <trkpt lat="45.16187" lon="5.00758">
        <ele>313.20001220703</ele>
        <time>2018-05-20T06:43:12.000Z</time>
      </trkpt>
      <trkpt lat="45.16186" lon="5.00771">
        <ele>310.79998779297</ele>
        <time>2018-05-20T06:43:13.000Z</time>
      </trkpt>
      <trkpt lat="45.16185" lon="5.00781">
        <ele>308.79998779297</ele>
        <time>2018-05-20T06:43:14.000Z</time>
      </trkpt>
      <trkpt lat="45.16183" lon="5.0079">
        <ele>307.60000610352</ele>
        <time>2018-05-20T06:43:15.000Z</time>
      </trkpt>
      <trkpt lat="45.16174" lon="5.00801">
        <ele>305.79998779297</ele>
        <time>2018-05-20T06:43:17.000Z</time>
      </trkpt>
      <trkpt lat="45.16169" lon="5.00805">
        <ele>305.20001220703</ele>
        <time>2018-05-20T06:43:18.000Z</time>
      </trkpt>
      <trkpt lat="45.16162" lon="5.00806">
        <ele>305.20001220703</ele>
        <time>2018-05-20T06:43:19.000Z</time>
      </trkpt>
      <trkpt lat="45.16147" lon="5.00809">
        <ele>305.20001220703</ele>
        <time>2018-05-20T06:43:21.000Z</time>
      </trkpt>
      <trkpt lat="45.16138" lon="5.00809">
        <ele>305.20001220703</ele>
        <time>2018-05-20T06:43:22.000Z</time>
      </trkpt>
      <trkpt lat="45.16121" lon="5.0081">
        <ele>302.79998779297</ele>
        <time>2018-05-20T06:43:24.000Z</time>
      </trkpt>
      <trkpt lat="45.16112" lon="5.0081">
        <ele>301</ele>
        <time>2018-05-20T06:43:25.000Z</time>
      </trkpt>
      <trkpt lat="45.16102" lon="5.00808">
        <ele>299.39999389648</ele>
        <time>2018-05-20T06:43:26.000Z</time>
      </trkpt>
      <trkpt lat="45.16085" lon="5.00801">
        <ele>297.79998779297</ele>
        <time>2018-05-20T06:43:28.000Z</time>
      </trkpt>
      <trkpt lat="45.16069" lon="5.00792">
        <ele>297.20001220703</ele>
        <time>2018-05-20T06:43:30.000Z</time>
      </trkpt>
      <trkpt lat="45.16061" lon="5.00788">
        <ele>297</ele>
        <time>2018-05-20T06:43:31.000Z</time>
      </trkpt>
      <trkpt lat="45.16051" lon="5.00786">
        <ele>295.60000610352</ele>
        <time>2018-05-20T06:43:32.000Z</time>
      </trkpt>
      <trkpt lat="45.16042" lon="5.00785">
        <ele>294.39999389648</ele>
        <time>2018-05-20T06:43:33.000Z</time>
      </trkpt>
      <trkpt lat="45.16028" lon="5.00784">
        <ele>292</ele>
        <time>2018-05-20T06:43:35.000Z</time>
      </trkpt>
      <trkpt lat="45.16021" lon="5.00785">
        <ele>290.60000610352</ele>
        <time>2018-05-20T06:43:36.000Z</time>
      </trkpt>
      <trkpt lat="45.16014" lon="5.00787">
        <ele>288.79998779297</ele>
        <time>2018-05-20T06:43:37.000Z</time>
      </trkpt>
      <trkpt lat="45.16008" lon="5.0079">
        <ele>286.79998779297</ele>
        <time>2018-05-20T06:43:38.000Z</time>
      </trkpt>
      <trkpt lat="45.16001" lon="5.00794">
        <ele>284.39999389648</ele>
        <time>2018-05-20T06:43:39.000Z</time>
      </trkpt>
      <trkpt lat="45.15994" lon="5.00799">
        <ele>281.79998779297</ele>
        <time>2018-05-20T06:43:40.000Z</time>
      </trkpt>
      <trkpt lat="45.15987" lon="5.00803">
        <ele>280</ele>
        <time>2018-05-20T06:43:41.000Z</time>
      </trkpt>
      <trkpt lat="45.15981" lon="5.00807">
        <ele>278.20001220703</ele>
        <time>2018-05-20T06:43:42.000Z</time>
      </trkpt>
      <trkpt lat="45.15973" lon="5.0081">
        <ele>276.79998779297</ele>
        <time>2018-05-20T06:43:43.000Z</time>
      </trkpt>
      <trkpt lat="45.15967" lon="5.00812">
        <ele>275.79998779297</ele>
        <time>2018-05-20T06:43:44.000Z</time>
      </trkpt>
      <trkpt lat="45.15959" lon="5.00812">
        <ele>274.79998779297</ele>
        <time>2018-05-20T06:43:45.000Z</time>
      </trkpt>
      <trkpt lat="45.15952" lon="5.00812">
        <ele>274</ele>
        <time>2018-05-20T06:43:46.000Z</time>
      </trkpt>
      <trkpt lat="45.15946" lon="5.0081">
        <ele>273.79998779297</ele>
        <time>2018-05-20T06:43:47.000Z</time>
      </trkpt>
      <trkpt lat="45.1594" lon="5.00808">
        <ele>273.60000610352</ele>
        <time>2018-05-20T06:43:48.000Z</time>
      </trkpt>
      <trkpt lat="45.15929" lon="5.00807">
        <ele>273.39999389648</ele>
        <time>2018-05-20T06:43:50.000Z</time>
      </trkpt>
      <trkpt lat="45.15924" lon="5.00809">
        <ele>273.20001220703</ele>
        <time>2018-05-20T06:43:51.000Z</time>
      </trkpt>
      <trkpt lat="45.15918" lon="5.00811">
        <ele>272.20001220703</ele>
        <time>2018-05-20T06:43:52.000Z</time>
      </trkpt>
      <trkpt lat="45.15912" lon="5.00815">
        <ele>271.20001220703</ele>
        <time>2018-05-20T06:43:53.000Z</time>
      </trkpt>
      <trkpt lat="45.15904" lon="5.00819">
        <ele>269.79998779297</ele>
        <time>2018-05-20T06:43:54.000Z</time>
      </trkpt>
      <trkpt lat="45.15896" lon="5.00824">
        <ele>268.39999389648</ele>
        <time>2018-05-20T06:43:55.000Z</time>
      </trkpt>
      <trkpt lat="45.15884" lon="5.00831">
        <ele>266.60000610352</ele>
        <time>2018-05-20T06:43:57.000Z</time>
      </trkpt>
      <trkpt lat="45.1588" lon="5.00834">
        <ele>266</ele>
        <time>2018-05-20T06:43:58.000Z</time>
      </trkpt>
      <trkpt lat="45.15878" lon="5.00839">
        <ele>265.79998779297</ele>
        <time>2018-05-20T06:43:59.000Z</time>
      </trkpt>
      <trkpt lat="45.15877" lon="5.00849">
        <ele>264.79998779297</ele>
        <time>2018-05-20T06:44:01.000Z</time>
      </trkpt>
      <trkpt lat="45.15876" lon="5.00855">
        <ele>264.20001220703</ele>
        <time>2018-05-20T06:44:02.000Z</time>
      </trkpt>
      <trkpt lat="45.15877" lon="5.00869">
        <ele>262.60000610352</ele>
        <time>2018-05-20T06:44:04.000Z</time>
      </trkpt>
      <trkpt lat="45.15878" lon="5.00875">
        <ele>262</ele>
        <time>2018-05-20T06:44:05.000Z</time>
      </trkpt>
      <trkpt lat="45.15878" lon="5.0088">
        <ele>261.79998779297</ele>
        <time>2018-05-20T06:44:06.000Z</time>
      </trkpt>
      <trkpt lat="45.15881" lon="5.0089">
        <ele>261.60000610352</ele>
        <time>2018-05-20T06:44:09.000Z</time>
      </trkpt>
      <trkpt lat="45.15885" lon="5.0089">
        <ele>261.79998779297</ele>
        <time>2018-05-20T06:44:10.000Z</time>
      </trkpt>
      <trkpt lat="45.15892" lon="5.00886">
        <ele>262.60000610352</ele>
        <time>2018-05-20T06:44:12.000Z</time>
      </trkpt>
      <trkpt lat="45.15897" lon="5.00884">
        <ele>263.20001220703</ele>
        <time>2018-05-20T06:44:14.000Z</time>
      </trkpt>
      <trkpt lat="45.15904" lon="5.00883">
        <ele>264</ele>
        <time>2018-05-20T06:44:16.000Z</time>
      </trkpt>
      <trkpt lat="45.15911" lon="5.00882">
        <ele>264.79998779297</ele>
        <time>2018-05-20T06:44:18.000Z</time>
      </trkpt>
      <trkpt lat="45.15916" lon="5.00884">
        <ele>265</ele>
        <time>2018-05-20T06:44:20.000Z</time>
      </trkpt>
      <trkpt lat="45.15921" lon="5.00894">
        <ele>264.60000610352</ele>
        <time>2018-05-20T06:44:22.000Z</time>
      </trkpt>
      <trkpt lat="45.15925" lon="5.00905">
        <ele>264.20001220703</ele>
        <time>2018-05-20T06:44:24.000Z</time>
      </trkpt>
      <trkpt lat="45.15931" lon="5.00914">
        <ele>263.79998779297</ele>
        <time>2018-05-20T06:44:26.000Z</time>
      </trkpt>
      <trkpt lat="45.15934" lon="5.00918">
        <ele>263.79998779297</ele>
        <time>2018-05-20T06:44:27.000Z</time>
      </trkpt>
      <trkpt lat="45.15949" lon="5.00932">
        <ele>262.39999389648</ele>
        <time>2018-05-20T06:44:32.000Z</time>
      </trkpt>
      <trkpt lat="45.15956" lon="5.0094">
        <ele>261.60000610352</ele>
        <time>2018-05-20T06:44:34.000Z</time>
      </trkpt>
      <trkpt lat="45.15967" lon="5.00956">
        <ele>260</ele>
        <time>2018-05-20T06:44:37.000Z</time>
      </trkpt>
      <trkpt lat="45.15985" lon="5.00988">
        <ele>258</ele>
        <time>2018-05-20T06:44:42.000Z</time>
      </trkpt>
      <trkpt lat="45.15992" lon="5.01">
        <ele>258.60000610352</ele>
        <time>2018-05-20T06:44:44.000Z</time>
      </trkpt>
      <trkpt lat="45.16016" lon="5.0104">
        <ele>261.79998779297</ele>
        <time>2018-05-20T06:44:51.000Z</time>
      </trkpt>
      <trkpt lat="45.16022" lon="5.01051">
        <ele>261.60000610352</ele>
        <time>2018-05-20T06:44:53.000Z</time>
      </trkpt>
      <trkpt lat="45.1604" lon="5.01081">
        <ele>259.39999389648</ele>
        <time>2018-05-20T06:44:58.000Z</time>
      </trkpt>
      <trkpt lat="45.16044" lon="5.01085">
        <ele>259</ele>
        <time>2018-05-20T06:44:59.000Z</time>
      </trkpt>
      <trkpt lat="45.16064" lon="5.01106">
        <ele>257</ele>
        <time>2018-05-20T06:45:05.000Z</time>
      </trkpt>
      <trkpt lat="45.16081" lon="5.01124">
        <ele>256.20001220703</ele>
        <time>2018-05-20T06:45:13.000Z</time>
      </trkpt>
      <trkpt lat="45.16097" lon="5.01142">
        <ele>256.79998779297</ele>
        <time>2018-05-20T06:45:19.000Z</time>
      </trkpt>
      <trkpt lat="45.16103" lon="5.01149">
        <ele>257</ele>
        <time>2018-05-20T06:45:21.000Z</time>
      </trkpt>
      <trkpt lat="45.16119" lon="5.01167">
        <ele>257.60000610352</ele>
        <time>2018-05-20T06:45:26.000Z</time>
      </trkpt>
      <trkpt lat="45.16145" lon="5.01196">
        <ele>258.60000610352</ele>
        <time>2018-05-20T06:45:34.000Z</time>
      </trkpt>
      <trkpt lat="45.16161" lon="5.01217">
        <ele>259.20001220703</ele>
        <time>2018-05-20T06:45:39.000Z</time>
      </trkpt>
      <trkpt lat="45.16179" lon="5.01235">
        <ele>259.79998779297</ele>
        <time>2018-05-20T06:45:44.000Z</time>
      </trkpt>
      <trkpt lat="45.16183" lon="5.01239">
        <ele>260</ele>
        <time>2018-05-20T06:45:45.000Z</time>
      </trkpt>
      <trkpt lat="45.16221" lon="5.01279">
        <ele>261.60000610352</ele>
        <time>2018-05-20T06:45:55.000Z</time>
      </trkpt>
      <trkpt lat="45.16246" lon="5.01302">
        <ele>261.79998779297</ele>
        <time>2018-05-20T06:46:01.000Z</time>
      </trkpt>
      <trkpt lat="45.16255" lon="5.01307">
        <ele>261.39999389648</ele>
        <time>2018-05-20T06:46:03.000Z</time>
      </trkpt>
      <trkpt lat="45.16259" lon="5.01309">
        <ele>261.39999389648</ele>
        <time>2018-05-20T06:46:04.000Z</time>
      </trkpt>
      <trkpt lat="45.16274" lon="5.01313">
        <ele>261</ele>
        <time>2018-05-20T06:46:07.000Z</time>
      </trkpt>
      <trkpt lat="45.16283" lon="5.01315">
        <ele>261</ele>
        <time>2018-05-20T06:46:09.000Z</time>
      </trkpt>
      <trkpt lat="45.16292" lon="5.01318">
        <ele>261</ele>
        <time>2018-05-20T06:46:11.000Z</time>
      </trkpt>
      <trkpt lat="45.16309" lon="5.01323">
        <ele>261</ele>
        <time>2018-05-20T06:46:15.000Z</time>
      </trkpt>
      <trkpt lat="45.16313" lon="5.01323">
        <ele>261</ele>
        <time>2018-05-20T06:46:16.000Z</time>
      </trkpt>
      <trkpt lat="45.16332" lon="5.01325">
        <ele>261.60000610352</ele>
        <time>2018-05-20T06:46:21.000Z</time>
      </trkpt>
      <trkpt lat="45.16358" lon="5.01331">
        <ele>263</ele>
        <time>2018-05-20T06:46:28.000Z</time>
      </trkpt>
      <trkpt lat="45.16369" lon="5.01333">
        <ele>263</ele>
        <time>2018-05-20T06:46:31.000Z</time>
      </trkpt>
      <trkpt lat="45.16383" lon="5.01335">
        <ele>263.20001220703</ele>
        <time>2018-05-20T06:46:34.000Z</time>
      </trkpt>
      <trkpt lat="45.16403" lon="5.0134">
        <ele>264.60000610352</ele>
        <time>2018-05-20T06:46:38.000Z</time>
      </trkpt>
      <trkpt lat="45.16413" lon="5.01343">
        <ele>265</ele>
        <time>2018-05-20T06:46:40.000Z</time>
      </trkpt>
      <trkpt lat="45.16433" lon="5.01346">
        <ele>265</ele>
        <time>2018-05-20T06:46:44.000Z</time>
      </trkpt>
      <trkpt lat="45.16451" lon="5.0135">
        <ele>264</ele>
        <time>2018-05-20T06:46:48.000Z</time>
      </trkpt>
      <trkpt lat="45.16474" lon="5.0136">
        <ele>263.79998779297</ele>
        <time>2018-05-20T06:46:54.000Z</time>
      </trkpt>
      <trkpt lat="45.16476" lon="5.01363">
        <ele>264.20001220703</ele>
        <time>2018-05-20T06:46:55.000Z</time>
      </trkpt>
      <trkpt lat="45.16477" lon="5.01372">
        <ele>264.79998779297</ele>
        <time>2018-05-20T06:46:57.000Z</time>
      </trkpt>
      <trkpt lat="45.16475" lon="5.01411">
        <ele>266.60000610352</ele>
        <time>2018-05-20T06:47:04.000Z</time>
      </trkpt>
      <trkpt lat="45.16469" lon="5.01442">
        <ele>268.39999389648</ele>
        <time>2018-05-20T06:47:10.000Z</time>
      </trkpt>
      <trkpt lat="45.16467" lon="5.01446">
        <ele>269</ele>
        <time>2018-05-20T06:47:11.000Z</time>
      </trkpt>
      <trkpt lat="45.16456" lon="5.01462">
        <ele>272</ele>
        <time>2018-05-20T06:47:16.000Z</time>
      </trkpt>
      <trkpt lat="45.16454" lon="5.01465">
        <ele>272.60000610352</ele>
        <time>2018-05-20T06:47:17.000Z</time>
      </trkpt>
      <trkpt lat="45.16442" lon="5.01486">
        <ele>278.39999389648</ele>
        <time>2018-05-20T06:47:24.000Z</time>
      </trkpt>
      <trkpt lat="45.16444" lon="5.01489">
        <ele>279.20001220703</ele>
        <time>2018-05-20T06:47:25.000Z</time>
      </trkpt>
      <trkpt lat="45.16449" lon="5.01492">
        <ele>279.60000610352</ele>
        <time>2018-05-20T06:47:27.000Z</time>
      </trkpt>
      <trkpt lat="45.16458" lon="5.01495">
        <ele>278.79998779297</ele>
        <time>2018-05-20T06:47:31.000Z</time>
      </trkpt>
      <trkpt lat="45.16466" lon="5.01498">
        <ele>279</ele>
        <time>2018-05-20T06:47:34.000Z</time>
      </trkpt>
      <trkpt lat="45.16471" lon="5.015">
        <ele>279.39999389648</ele>
        <time>2018-05-20T06:47:36.000Z</time>
      </trkpt>
      <trkpt lat="45.16479" lon="5.01506">
        <ele>281.60000610352</ele>
        <time>2018-05-20T06:47:40.000Z</time>
      </trkpt>
      <trkpt lat="45.16481" lon="5.01508">
        <ele>282</ele>
        <time>2018-05-20T06:47:41.000Z</time>
      </trkpt>
      <trkpt lat="45.16489" lon="5.01517">
        <ele>284.79998779297</ele>
        <time>2018-05-20T06:47:45.000Z</time>
      </trkpt>
      <trkpt lat="45.16492" lon="5.01524">
        <ele>287.20001220703</ele>
        <time>2018-05-20T06:47:48.000Z</time>
      </trkpt>
      <trkpt lat="45.16495" lon="5.0153">
        <ele>289.20001220703</ele>
        <time>2018-05-20T06:47:51.000Z</time>
      </trkpt>
      <trkpt lat="45.16501" lon="5.01533">
        <ele>290</ele>
        <time>2018-05-20T06:47:54.000Z</time>
      </trkpt>
      <trkpt lat="45.16503" lon="5.01533">
        <ele>290.20001220703</ele>
        <time>2018-05-20T06:47:55.000Z</time>
      </trkpt>
      <trkpt lat="45.16512" lon="5.01533">
        <ele>289.79998779297</ele>
        <time>2018-05-20T06:48:00.000Z</time>
      </trkpt>
      <trkpt lat="45.16522" lon="5.01533">
        <ele>289.79998779297</ele>
        <time>2018-05-20T06:48:06.000Z</time>
      </trkpt>
      <trkpt lat="45.16524" lon="5.01534">
        <ele>290</ele>
        <time>2018-05-20T06:48:07.000Z</time>
      </trkpt>
      <trkpt lat="45.16532" lon="5.01535">
        <ele>289.79998779297</ele>
        <time>2018-05-20T06:48:11.000Z</time>
      </trkpt>
      <trkpt lat="45.16538" lon="5.01537">
        <ele>289.79998779297</ele>
        <time>2018-05-20T06:48:14.000Z</time>
      </trkpt>
      <trkpt lat="45.16541" lon="5.01537">
        <ele>289.79998779297</ele>
        <time>2018-05-20T06:48:16.000Z</time>
      </trkpt>
      <trkpt lat="45.16545" lon="5.01539">
        <ele>290</ele>
        <time>2018-05-20T06:48:19.000Z</time>
      </trkpt>
      <trkpt lat="45.16548" lon="5.01539">
        <ele>289.79998779297</ele>
        <time>2018-05-20T06:48:21.000Z</time>
      </trkpt>
      <trkpt lat="45.16555" lon="5.0154">
        <ele>289.79998779297</ele>
        <time>2018-05-20T06:48:26.000Z</time>
      </trkpt>
      <trkpt lat="45.1656" lon="5.01543">
        <ele>290.20001220703</ele>
        <time>2018-05-20T06:48:29.000Z</time>
      </trkpt>
      <trkpt lat="45.16561" lon="5.01544">
        <ele>290.39999389648</ele>
        <time>2018-05-20T06:48:30.000Z</time>
      </trkpt>
      <trkpt lat="45.16568" lon="5.01551">
        <ele>291.60000610352</ele>
        <time>2018-05-20T06:48:35.000Z</time>
      </trkpt>
      <trkpt lat="45.1657" lon="5.01554">
        <ele>292.20001220703</ele>
        <time>2018-05-20T06:48:37.000Z</time>
      </trkpt>
      <trkpt lat="45.16575" lon="5.01557">
        <ele>292.79998779297</ele>
        <time>2018-05-20T06:48:40.000Z</time>
      </trkpt>
      <trkpt lat="45.1661" lon="5.01602">
        <ele>300.60000610352</ele>
        <time>2018-05-20T06:49:17.000Z</time>
      </trkpt>
      <trkpt lat="45.16611" lon="5.01605">
        <ele>301.20001220703</ele>
        <time>2018-05-20T06:49:19.000Z</time>
      </trkpt>
      <trkpt lat="45.16614" lon="5.0161">
        <ele>302.20001220703</ele>
        <time>2018-05-20T06:49:23.000Z</time>
      </trkpt>
      <trkpt lat="45.1663" lon="5.01634">
        <ele>305.79998779297</ele>
        <time>2018-05-20T06:49:40.000Z</time>
      </trkpt>
      <trkpt lat="45.16634" lon="5.01639">
        <ele>305.79998779297</ele>
        <time>2018-05-20T06:49:44.000Z</time>
      </trkpt>
      <trkpt lat="45.16635" lon="5.01641">
        <ele>305.79998779297</ele>
        <time>2018-05-20T06:49:45.000Z</time>
      </trkpt>
      <trkpt lat="45.16637" lon="5.01645">
        <ele>306</ele>
        <time>2018-05-20T06:49:48.000Z</time>
      </trkpt>
      <trkpt lat="45.16638" lon="5.01649">
        <ele>306.39999389648</ele>
        <time>2018-05-20T06:49:50.000Z</time>
      </trkpt>
      <trkpt lat="45.16638" lon="5.01651">
        <ele>306.60000610352</ele>
        <time>2018-05-20T06:49:51.000Z</time>
      </trkpt>
      <trkpt lat="45.16637" lon="5.01653">
        <ele>306.79998779297</ele>
        <time>2018-05-20T06:49:52.000Z</time>
      </trkpt>
      <trkpt lat="45.16637" lon="5.01655">
        <ele>307</ele>
        <time>2018-05-20T06:49:53.000Z</time>
      </trkpt>
      <trkpt lat="45.16635" lon="5.01656">
        <ele>307.60000610352</ele>
        <time>2018-05-20T06:49:55.000Z</time>
      </trkpt>
      <trkpt lat="45.16634" lon="5.01657">
        <ele>307.79998779297</ele>
        <time>2018-05-20T06:49:56.000Z</time>
      </trkpt>
      <trkpt lat="45.16633" lon="5.01657">
        <ele>308</ele>
        <time>2018-05-20T06:49:57.000Z</time>
      </trkpt>
      <trkpt lat="45.16628" lon="5.01655">
        <ele>308.39999389648</ele>
        <time>2018-05-20T06:50:01.000Z</time>
      </trkpt>
      <trkpt lat="45.16624" lon="5.01651">
        <ele>308</ele>
        <time>2018-05-20T06:50:04.000Z</time>
      </trkpt>
      <trkpt lat="45.16622" lon="5.01649">
        <ele>307.79998779297</ele>
        <time>2018-05-20T06:50:05.000Z</time>
      </trkpt>
      <trkpt lat="45.16608" lon="5.01638">
        <ele>306.39999389648</ele>
        <time>2018-05-20T06:50:10.000Z</time>
      </trkpt>
      <trkpt lat="45.16583" lon="5.01627">
        <ele>305</ele>
        <time>2018-05-20T06:50:18.000Z</time>
      </trkpt>
      <trkpt lat="45.16573" lon="5.01625">
        <ele>305</ele>
        <time>2018-05-20T06:50:21.000Z</time>
      </trkpt>
      <trkpt lat="45.16558" lon="5.01623">
        <ele>307.39999389648</ele>
        <time>2018-05-20T06:50:26.000Z</time>
      </trkpt>
      <trkpt lat="45.16547" lon="5.01622">
        <ele>309.20001220703</ele>
        <time>2018-05-20T06:50:29.000Z</time>
      </trkpt>
      <trkpt lat="45.16538" lon="5.01622">
        <ele>310</ele>
        <time>2018-05-20T06:50:31.000Z</time>
      </trkpt>
      <trkpt lat="45.16533" lon="5.01621">
        <ele>310.39999389648</ele>
        <time>2018-05-20T06:50:32.000Z</time>
      </trkpt>
      <trkpt lat="45.16525" lon="5.01619">
        <ele>310.60000610352</ele>
        <time>2018-05-20T06:50:34.000Z</time>
      </trkpt>
      <trkpt lat="45.16513" lon="5.01616">
        <ele>311</ele>
        <time>2018-05-20T06:50:37.000Z</time>
      </trkpt>
      <trkpt lat="45.16491" lon="5.01621">
        <ele>314</ele>
        <time>2018-05-20T06:50:43.000Z</time>
      </trkpt>
      <trkpt lat="45.16472" lon="5.01626">
        <ele>319.20001220703</ele>
        <time>2018-05-20T06:50:49.000Z</time>
      </trkpt>
      <trkpt lat="45.16467" lon="5.01625">
        <ele>320</ele>
        <time>2018-05-20T06:50:51.000Z</time>
      </trkpt>
      <trkpt lat="45.16459" lon="5.01622">
        <ele>320.79998779297</ele>
        <time>2018-05-20T06:50:54.000Z</time>
      </trkpt>
      <trkpt lat="45.16456" lon="5.01621">
        <ele>321.20001220703</ele>
        <time>2018-05-20T06:50:56.000Z</time>
      </trkpt>
      <trkpt lat="45.16451" lon="5.0162">
        <ele>322</ele>
        <time>2018-05-20T06:50:59.000Z</time>
      </trkpt>
      <trkpt lat="45.16449" lon="5.01619">
        <ele>322.20001220703</ele>
        <time>2018-05-20T06:51:00.000Z</time>
      </trkpt>
      <trkpt lat="45.16438" lon="5.01612">
        <ele>322.60000610352</ele>
        <time>2018-05-20T06:51:05.000Z</time>
      </trkpt>
      <trkpt lat="45.16422" lon="5.01608">
        <ele>325.20001220703</ele>
        <time>2018-05-20T06:51:12.000Z</time>
      </trkpt>
      <trkpt lat="45.16409" lon="5.01607">
        <ele>328.20001220703</ele>
        <time>2018-05-20T06:51:18.000Z</time>
      </trkpt>
      <trkpt lat="45.16407" lon="5.01606">
        <ele>328.39999389648</ele>
        <time>2018-05-20T06:51:19.000Z</time>
      </trkpt>
      <trkpt lat="45.16401" lon="5.01605">
        <ele>328.79998779297</ele>
        <time>2018-05-20T06:51:22.000Z</time>
      </trkpt>
      <trkpt lat="45.1639" lon="5.016">
        <ele>328.60000610352</ele>
        <time>2018-05-20T06:51:26.000Z</time>
      </trkpt>
      <trkpt lat="45.16373" lon="5.01593">
        <ele>327.60000610352</ele>
        <time>2018-05-20T06:51:32.000Z</time>
      </trkpt>
      <trkpt lat="45.16358" lon="5.01589">
        <ele>326.60000610352</ele>
        <time>2018-05-20T06:51:37.000Z</time>
      </trkpt>
      <trkpt lat="45.16355" lon="5.01589">
        <ele>326.60000610352</ele>
        <time>2018-05-20T06:51:38.000Z</time>
      </trkpt>
      <trkpt lat="45.16326" lon="5.01585">
        <ele>326.79998779297</ele>
        <time>2018-05-20T06:51:45.000Z</time>
      </trkpt>
      <trkpt lat="45.16311" lon="5.01583">
        <ele>328</ele>
        <time>2018-05-20T06:51:49.000Z</time>
      </trkpt>
      <trkpt lat="45.16304" lon="5.01581">
        <ele>328.39999389648</ele>
        <time>2018-05-20T06:51:51.000Z</time>
      </trkpt>
      <trkpt lat="45.16287" lon="5.01577">
        <ele>329.20001220703</ele>
        <time>2018-05-20T06:51:56.000Z</time>
      </trkpt>
      <trkpt lat="45.16279" lon="5.01576">
        <ele>329.60000610352</ele>
        <time>2018-05-20T06:51:58.000Z</time>
      </trkpt>
      <trkpt lat="45.16257" lon="5.01577">
        <ele>332.20001220703</ele>
        <time>2018-05-20T06:52:05.000Z</time>
      </trkpt>
      <trkpt lat="45.16243" lon="5.01586">
        <ele>336.39999389648</ele>
        <time>2018-05-20T06:52:10.000Z</time>
      </trkpt>
      <trkpt lat="45.1624" lon="5.01585">
        <ele>336.60000610352</ele>
        <time>2018-05-20T06:52:11.000Z</time>
      </trkpt>
      <trkpt lat="45.1622" lon="5.0158">
        <ele>336.39999389648</ele>
        <time>2018-05-20T06:52:17.000Z</time>
      </trkpt>
      <trkpt lat="45.16206" lon="5.0158">
        <ele>335.79998779297</ele>
        <time>2018-05-20T06:52:21.000Z</time>
      </trkpt>
      <trkpt lat="45.16198" lon="5.01581">
        <ele>335.79998779297</ele>
        <time>2018-05-20T06:52:23.000Z</time>
      </trkpt>
      <trkpt lat="45.16173" lon="5.01583">
        <ele>336</ele>
        <time>2018-05-20T06:52:30.000Z</time>
      </trkpt>
      <trkpt lat="45.16159" lon="5.01585">
        <ele>335.39999389648</ele>
        <time>2018-05-20T06:52:33.000Z</time>
      </trkpt>
      <trkpt lat="45.16146" lon="5.01586">
        <ele>334.79998779297</ele>
        <time>2018-05-20T06:52:36.000Z</time>
      </trkpt>
      <trkpt lat="45.16117" lon="5.01589">
        <ele>331.60000610352</ele>
        <time>2018-05-20T06:52:42.000Z</time>
      </trkpt>
      <trkpt lat="45.16086" lon="5.01593">
        <ele>331.60000610352</ele>
        <time>2018-05-20T06:52:49.000Z</time>
      </trkpt>
      <trkpt lat="45.1606" lon="5.01595">
        <ele>333.20001220703</ele>
        <time>2018-05-20T06:52:56.000Z</time>
      </trkpt>
      <trkpt lat="45.16035" lon="5.01598">
        <ele>336.79998779297</ele>
        <time>2018-05-20T06:53:03.000Z</time>
      </trkpt>
      <trkpt lat="45.16009" lon="5.01604">
        <ele>341</ele>
        <time>2018-05-20T06:53:09.000Z</time>
      </trkpt>
      <trkpt lat="45.15996" lon="5.01604">
        <ele>341</ele>
        <time>2018-05-20T06:53:12.000Z</time>
      </trkpt>
      <trkpt lat="45.15988" lon="5.01603">
        <ele>341.60000610352</ele>
        <time>2018-05-20T06:53:14.000Z</time>
      </trkpt>
      <trkpt lat="45.15978" lon="5.01601">
        <ele>341.39999389648</ele>
        <time>2018-05-20T06:53:16.000Z</time>
      </trkpt>
      <trkpt lat="45.15961" lon="5.01596">
        <ele>340.39999389648</ele>
        <time>2018-05-20T06:53:19.000Z</time>
      </trkpt>
      <trkpt lat="45.15928" lon="5.0159">
        <ele>337.20001220703</ele>
        <time>2018-05-20T06:53:25.000Z</time>
      </trkpt>
      <trkpt lat="45.15902" lon="5.01588">
        <ele>337.79998779297</ele>
        <time>2018-05-20T06:53:30.000Z</time>
      </trkpt>
      <trkpt lat="45.15893" lon="5.0159">
        <ele>338.20001220703</ele>
        <time>2018-05-20T06:53:32.000Z</time>
      </trkpt>
      <trkpt lat="45.15885" lon="5.01594">
        <ele>339</ele>
        <time>2018-05-20T06:53:34.000Z</time>
      </trkpt>
      <trkpt lat="45.15876" lon="5.01602">
        <ele>340.60000610352</ele>
        <time>2018-05-20T06:53:37.000Z</time>
      </trkpt>
      <trkpt lat="45.15859" lon="5.01618">
        <ele>342.39999389648</ele>
        <time>2018-05-20T06:53:42.000Z</time>
      </trkpt>
      <trkpt lat="45.15845" lon="5.01609">
        <ele>337.39999389648</ele>
        <time>2018-05-20T06:53:46.000Z</time>
      </trkpt>
      <trkpt lat="45.15824" lon="5.01601">
        <ele>332.79998779297</ele>
        <time>2018-05-20T06:53:51.000Z</time>
      </trkpt>
      <trkpt lat="45.15809" lon="5.01584">
        <ele>330</ele>
        <time>2018-05-20T06:53:55.000Z</time>
      </trkpt>
      <trkpt lat="45.15784" lon="5.01573">
        <ele>330.79998779297</ele>
        <time>2018-05-20T06:54:00.000Z</time>
      </trkpt>
      <trkpt lat="45.1576" lon="5.01567">
        <ele>333.60000610352</ele>
        <time>2018-05-20T06:54:05.000Z</time>
      </trkpt>
      <trkpt lat="45.15755" lon="5.01566">
        <ele>334.20001220703</ele>
        <time>2018-05-20T06:54:06.000Z</time>
      </trkpt>
      <trkpt lat="45.1575" lon="5.01565">
        <ele>334.79998779297</ele>
        <time>2018-05-20T06:54:07.000Z</time>
      </trkpt>
      <trkpt lat="45.15731" lon="5.01566">
        <ele>336.79998779297</ele>
        <time>2018-05-20T06:54:11.000Z</time>
      </trkpt>
      <trkpt lat="45.15727" lon="5.01567">
        <ele>337.39999389648</ele>
        <time>2018-05-20T06:54:12.000Z</time>
      </trkpt>
      <trkpt lat="45.15707" lon="5.01571">
        <ele>339.60000610352</ele>
        <time>2018-05-20T06:54:16.000Z</time>
      </trkpt>
      <trkpt lat="45.15698" lon="5.01572">
        <ele>340.79998779297</ele>
        <time>2018-05-20T06:54:18.000Z</time>
      </trkpt>
      <trkpt lat="45.15673" lon="5.01572">
        <ele>342.20001220703</ele>
        <time>2018-05-20T06:54:24.000Z</time>
      </trkpt>
      <trkpt lat="45.15669" lon="5.01572">
        <ele>342.20001220703</ele>
        <time>2018-05-20T06:54:25.000Z</time>
      </trkpt>
      <trkpt lat="45.15635" lon="5.01574">
        <ele>344</ele>
        <time>2018-05-20T06:54:31.000Z</time>
      </trkpt>
      <trkpt lat="45.15607" lon="5.01577">
        <ele>346.60000610352</ele>
        <time>2018-05-20T06:54:37.000Z</time>
      </trkpt>
      <trkpt lat="45.15603" lon="5.01577">
        <ele>346.60000610352</ele>
        <time>2018-05-20T06:54:38.000Z</time>
      </trkpt>
      <trkpt lat="45.1558" lon="5.01578">
        <ele>347.79998779297</ele>
        <time>2018-05-20T06:54:44.000Z</time>
      </trkpt>
      <trkpt lat="45.15577" lon="5.01577">
        <ele>347.60000610352</ele>
        <time>2018-05-20T06:54:45.000Z</time>
      </trkpt>
      <trkpt lat="45.15562" lon="5.01568">
        <ele>346.60000610352</ele>
        <time>2018-05-20T06:54:49.000Z</time>
      </trkpt>
      <trkpt lat="45.1554" lon="5.01558">
        <ele>346</ele>
        <time>2018-05-20T06:54:54.000Z</time>
      </trkpt>
      <trkpt lat="45.15535" lon="5.01556">
        <ele>346</ele>
        <time>2018-05-20T06:54:55.000Z</time>
      </trkpt>
      <trkpt lat="45.15531" lon="5.01555">
        <ele>345.79998779297</ele>
        <time>2018-05-20T06:54:56.000Z</time>
      </trkpt>
      <trkpt lat="45.1551" lon="5.01551">
        <ele>344.79998779297</ele>
        <time>2018-05-20T06:55:01.000Z</time>
      </trkpt>
      <trkpt lat="45.15487" lon="5.01552">
        <ele>343.20001220703</ele>
        <time>2018-05-20T06:55:07.000Z</time>
      </trkpt>
      <trkpt lat="45.15483" lon="5.01552">
        <ele>343</ele>
        <time>2018-05-20T06:55:08.000Z</time>
      </trkpt>
      <trkpt lat="45.15466" lon="5.01556">
        <ele>342.39999389648</ele>
        <time>2018-05-20T06:55:12.000Z</time>
      </trkpt>
      <trkpt lat="45.15455" lon="5.01565">
        <ele>343</ele>
        <time>2018-05-20T06:55:15.000Z</time>
      </trkpt>
      <trkpt lat="45.15446" lon="5.01569">
        <ele>342.39999389648</ele>
        <time>2018-05-20T06:55:17.000Z</time>
      </trkpt>
      <trkpt lat="45.15442" lon="5.01569">
        <ele>341.79998779297</ele>
        <time>2018-05-20T06:55:18.000Z</time>
      </trkpt>
      <trkpt lat="45.15428" lon="5.01567">
        <ele>340.60000610352</ele>
        <time>2018-05-20T06:55:21.000Z</time>
      </trkpt>
      <trkpt lat="45.15414" lon="5.01557">
        <ele>338.60000610352</ele>
        <time>2018-05-20T06:55:25.000Z</time>
      </trkpt>
      <trkpt lat="45.15407" lon="5.01547">
        <ele>336.79998779297</ele>
        <time>2018-05-20T06:55:28.000Z</time>
      </trkpt>
      <trkpt lat="45.15399" lon="5.01541">
        <ele>336.39999389648</ele>
        <time>2018-05-20T06:55:30.000Z</time>
      </trkpt>
      <trkpt lat="45.15387" lon="5.0153">
        <ele>336</ele>
        <time>2018-05-20T06:55:33.000Z</time>
      </trkpt>
      <trkpt lat="45.15382" lon="5.01527">
        <ele>336.20001220703</ele>
        <time>2018-05-20T06:55:34.000Z</time>
      </trkpt>
      <trkpt lat="45.15377" lon="5.01525">
        <ele>336.39999389648</ele>
        <time>2018-05-20T06:55:35.000Z</time>
      </trkpt>
      <trkpt lat="45.15367" lon="5.01521">
        <ele>337.39999389648</ele>
        <time>2018-05-20T06:55:37.000Z</time>
      </trkpt>
      <trkpt lat="45.15352" lon="5.01514">
        <ele>338.79998779297</ele>
        <time>2018-05-20T06:55:41.000Z</time>
      </trkpt>
      <trkpt lat="45.15328" lon="5.015">
        <ele>338.60000610352</ele>
        <time>2018-05-20T06:55:47.000Z</time>
      </trkpt>
      <trkpt lat="45.1532" lon="5.01495">
        <ele>338.79998779297</ele>
        <time>2018-05-20T06:55:49.000Z</time>
      </trkpt>
      <trkpt lat="45.15315" lon="5.01492">
        <ele>339</ele>
        <time>2018-05-20T06:55:50.000Z</time>
      </trkpt>
      <trkpt lat="45.15301" lon="5.01485">
        <ele>340.20001220703</ele>
        <time>2018-05-20T06:55:53.000Z</time>
      </trkpt>
      <trkpt lat="45.15285" lon="5.01477">
        <ele>341.60000610352</ele>
        <time>2018-05-20T06:55:56.000Z</time>
      </trkpt>
      <trkpt lat="45.15274" lon="5.01473">
        <ele>342.79998779297</ele>
        <time>2018-05-20T06:55:58.000Z</time>
      </trkpt>
      <trkpt lat="45.15238" lon="5.01471">
        <ele>344</ele>
        <time>2018-05-20T06:56:05.000Z</time>
      </trkpt>
      <trkpt lat="45.15219" lon="5.01473">
        <ele>341.79998779297</ele>
        <time>2018-05-20T06:56:09.000Z</time>
      </trkpt>
      <trkpt lat="45.15202" lon="5.01483">
        <ele>341</ele>
        <time>2018-05-20T06:56:12.000Z</time>
      </trkpt>
      <trkpt lat="45.15198" lon="5.01486">
        <ele>340.60000610352</ele>
        <time>2018-05-20T06:56:13.000Z</time>
      </trkpt>
      <trkpt lat="45.15193" lon="5.01488">
        <ele>340.20001220703</ele>
        <time>2018-05-20T06:56:14.000Z</time>
      </trkpt>
      <trkpt lat="45.15182" lon="5.01495">
        <ele>339</ele>
        <time>2018-05-20T06:56:17.000Z</time>
      </trkpt>
      <trkpt lat="45.15179" lon="5.01496">
        <ele>338.60000610352</ele>
        <time>2018-05-20T06:56:19.000Z</time>
      </trkpt>
      <trkpt lat="45.15178" lon="5.01491">
        <ele>338.20001220703</ele>
        <time>2018-05-20T06:56:21.000Z</time>
      </trkpt>
      <trkpt lat="45.15177" lon="5.01488">
        <ele>338</ele>
        <time>2018-05-20T06:56:22.000Z</time>
      </trkpt>
      <trkpt lat="45.15173" lon="5.01478">
        <ele>336.20001220703</ele>
        <time>2018-05-20T06:56:25.000Z</time>
      </trkpt>
      <trkpt lat="45.15169" lon="5.01469">
        <ele>334.60000610352</ele>
        <time>2018-05-20T06:56:27.000Z</time>
      </trkpt>
      <trkpt lat="45.15161" lon="5.01459">
        <ele>332.60000610352</ele>
        <time>2018-05-20T06:56:29.000Z</time>
      </trkpt>
      <trkpt lat="45.15158" lon="5.01454">
        <ele>331</ele>
        <time>2018-05-20T06:56:30.000Z</time>
      </trkpt>
      <trkpt lat="45.15156" lon="5.01448">
        <ele>329.39999389648</ele>
        <time>2018-05-20T06:56:31.000Z</time>
      </trkpt>
      <trkpt lat="45.15151" lon="5.01438">
        <ele>326.39999389648</ele>
        <time>2018-05-20T06:56:33.000Z</time>
      </trkpt>
      <trkpt lat="45.15148" lon="5.01428">
        <ele>323.60000610352</ele>
        <time>2018-05-20T06:56:35.000Z</time>
      </trkpt>
      <trkpt lat="45.1514" lon="5.01418">
        <ele>319.60000610352</ele>
        <time>2018-05-20T06:56:37.000Z</time>
      </trkpt>
      <trkpt lat="45.15134" lon="5.01411">
        <ele>316.79998779297</ele>
        <time>2018-05-20T06:56:39.000Z</time>
      </trkpt>
      <trkpt lat="45.15132" lon="5.0141">
        <ele>316.39999389648</ele>
        <time>2018-05-20T06:56:40.000Z</time>
      </trkpt>
      <trkpt lat="45.1513" lon="5.01411">
        <ele>316</ele>
        <time>2018-05-20T06:56:41.000Z</time>
      </trkpt>
      <trkpt lat="45.1512" lon="5.01414">
        <ele>315.20001220703</ele>
        <time>2018-05-20T06:56:43.000Z</time>
      </trkpt>
      <trkpt lat="45.15114" lon="5.01423">
        <ele>315.79998779297</ele>
        <time>2018-05-20T06:56:45.000Z</time>
      </trkpt>
      <trkpt lat="45.15111" lon="5.01435">
        <ele>317.79998779297</ele>
        <time>2018-05-20T06:56:47.000Z</time>
      </trkpt>
      <trkpt lat="45.15111" lon="5.01441">
        <ele>318.79998779297</ele>
        <time>2018-05-20T06:56:48.000Z</time>
      </trkpt>
      <trkpt lat="45.15112" lon="5.01454">
        <ele>321</ele>
        <time>2018-05-20T06:56:50.000Z</time>
      </trkpt>
      <trkpt lat="45.15113" lon="5.01461">
        <ele>322.20001220703</ele>
        <time>2018-05-20T06:56:51.000Z</time>
      </trkpt>
      <trkpt lat="45.15114" lon="5.01467">
        <ele>323</ele>
        <time>2018-05-20T06:56:52.000Z</time>
      </trkpt>
      <trkpt lat="45.15115" lon="5.01482">
        <ele>325.20001220703</ele>
        <time>2018-05-20T06:56:55.000Z</time>
      </trkpt>
      <trkpt lat="45.15116" lon="5.01485">
        <ele>325.79998779297</ele>
        <time>2018-05-20T06:56:56.000Z</time>
      </trkpt>
      <trkpt lat="45.15119" lon="5.01489">
        <ele>326.79998779297</ele>
        <time>2018-05-20T06:56:58.000Z</time>
      </trkpt>
      <trkpt lat="45.15122" lon="5.01497">
        <ele>328.20001220703</ele>
        <time>2018-05-20T06:57:01.000Z</time>
      </trkpt>
      <trkpt lat="45.15119" lon="5.01497">
        <ele>327.60000610352</ele>
        <time>2018-05-20T06:57:02.000Z</time>
      </trkpt>
      <trkpt lat="45.15116" lon="5.01496">
        <ele>326.79998779297</ele>
        <time>2018-05-20T06:57:03.000Z</time>
      </trkpt>
      <trkpt lat="45.1511" lon="5.01496">
        <ele>325.60000610352</ele>
        <time>2018-05-20T06:57:04.000Z</time>
      </trkpt>
      <trkpt lat="45.15029" lon="5.01467">
        <ele>306.39999389648</ele>
        <time>2018-05-20T06:57:07.000Z</time>
      </trkpt>
      <trkpt lat="45.15023" lon="5.01466">
        <ele>305.79998779297</ele>
        <time>2018-05-20T06:57:08.000Z</time>
      </trkpt>
      <trkpt lat="45.15011" lon="5.01463">
        <ele>304.60000610352</ele>
        <time>2018-05-20T06:57:10.000Z</time>
      </trkpt>
      <trkpt lat="45.14999" lon="5.01462">
        <ele>303.79998779297</ele>
        <time>2018-05-20T06:57:12.000Z</time>
      </trkpt>
      <trkpt lat="45.14994" lon="5.01462">
        <ele>303.39999389648</ele>
        <time>2018-05-20T06:57:13.000Z</time>
      </trkpt>
      <trkpt lat="45.14988" lon="5.01463">
        <ele>302.60000610352</ele>
        <time>2018-05-20T06:57:14.000Z</time>
      </trkpt>
      <trkpt lat="45.14977" lon="5.01472">
        <ele>301.20001220703</ele>
        <time>2018-05-20T06:57:16.000Z</time>
      </trkpt>
      <trkpt lat="45.14968" lon="5.0148">
        <ele>300.79998779297</ele>
        <time>2018-05-20T06:57:18.000Z</time>
      </trkpt>
      <trkpt lat="45.14956" lon="5.01481">
        <ele>299.39999389648</ele>
        <time>2018-05-20T06:57:20.000Z</time>
      </trkpt>
      <trkpt lat="45.14947" lon="5.01483">
        <ele>297</ele>
        <time>2018-05-20T06:57:22.000Z</time>
      </trkpt>
      <trkpt lat="45.14943" lon="5.01486">
        <ele>296</ele>
        <time>2018-05-20T06:57:23.000Z</time>
      </trkpt>
      <trkpt lat="45.1494" lon="5.01494">
        <ele>294.60000610352</ele>
        <time>2018-05-20T06:57:25.000Z</time>
      </trkpt>
      <trkpt lat="45.1494" lon="5.01498">
        <ele>294.20001220703</ele>
        <time>2018-05-20T06:57:26.000Z</time>
      </trkpt>
      <trkpt lat="45.1494" lon="5.01502">
        <ele>294</ele>
        <time>2018-05-20T06:57:27.000Z</time>
      </trkpt>
      <trkpt lat="45.14939" lon="5.01507">
        <ele>293.39999389648</ele>
        <time>2018-05-20T06:57:29.000Z</time>
      </trkpt>
      <trkpt lat="45.14938" lon="5.01509">
        <ele>293</ele>
        <time>2018-05-20T06:57:30.000Z</time>
      </trkpt>
      <trkpt lat="45.14933" lon="5.01506">
        <ele>292</ele>
        <time>2018-05-20T06:57:33.000Z</time>
      </trkpt>
      <trkpt lat="45.1493" lon="5.01503">
        <ele>291.39999389648</ele>
        <time>2018-05-20T06:57:34.000Z</time>
      </trkpt>
      <trkpt lat="45.14927" lon="5.01501">
        <ele>290.79998779297</ele>
        <time>2018-05-20T06:57:35.000Z</time>
      </trkpt>
      <trkpt lat="45.14921" lon="5.01493">
        <ele>289.60000610352</ele>
        <time>2018-05-20T06:57:37.000Z</time>
      </trkpt>
      <trkpt lat="45.14914" lon="5.01485">
        <ele>288.20001220703</ele>
        <time>2018-05-20T06:57:39.000Z</time>
      </trkpt>
      <trkpt lat="45.14908" lon="5.01481">
        <ele>286.39999389648</ele>
        <time>2018-05-20T06:57:41.000Z</time>
      </trkpt>
      <trkpt lat="45.14905" lon="5.01481">
        <ele>285.60000610352</ele>
        <time>2018-05-20T06:57:42.000Z</time>
      </trkpt>
      <trkpt lat="45.14903" lon="5.01483">
        <ele>284.79998779297</ele>
        <time>2018-05-20T06:57:43.000Z</time>
      </trkpt>
      <trkpt lat="45.14901" lon="5.01486">
        <ele>283.79998779297</ele>
        <time>2018-05-20T06:57:44.000Z</time>
      </trkpt>
      <trkpt lat="45.14899" lon="5.0149">
        <ele>282.60000610352</ele>
        <time>2018-05-20T06:57:45.000Z</time>
      </trkpt>
      <trkpt lat="45.14897" lon="5.01494">
        <ele>281.60000610352</ele>
        <time>2018-05-20T06:57:46.000Z</time>
      </trkpt>
      <trkpt lat="45.14896" lon="5.015">
        <ele>280</ele>
        <time>2018-05-20T06:57:48.000Z</time>
      </trkpt>
      <trkpt lat="45.14893" lon="5.01505">
        <ele>278.20001220703</ele>
        <time>2018-05-20T06:57:50.000Z</time>
      </trkpt>
      <trkpt lat="45.14891" lon="5.01507">
        <ele>276.79998779297</ele>
        <time>2018-05-20T06:57:52.000Z</time>
      </trkpt>
      <trkpt lat="45.1489" lon="5.0151">
        <ele>275.60000610352</ele>
        <time>2018-05-20T06:57:54.000Z</time>
      </trkpt>
      <trkpt lat="45.14889" lon="5.01512">
        <ele>274.79998779297</ele>
        <time>2018-05-20T06:57:55.000Z</time>
      </trkpt>
      <trkpt lat="45.14888" lon="5.01513">
        <ele>274</ele>
        <time>2018-05-20T06:57:56.000Z</time>
      </trkpt>
      <trkpt lat="45.14885" lon="5.01516">
        <ele>271.79998779297</ele>
        <time>2018-05-20T06:57:58.000Z</time>
      </trkpt>
      <trkpt lat="45.14883" lon="5.01519">
        <ele>270.39999389648</ele>
        <time>2018-05-20T06:58:00.000Z</time>
      </trkpt>
      <trkpt lat="45.14884" lon="5.01522">
        <ele>270.20001220703</ele>
        <time>2018-05-20T06:58:01.000Z</time>
      </trkpt>
      <trkpt lat="45.14891" lon="5.01534">
        <ele>270</ele>
        <time>2018-05-20T06:58:04.000Z</time>
      </trkpt>
      <trkpt lat="45.14895" lon="5.0154">
        <ele>270.20001220703</ele>
        <time>2018-05-20T06:58:05.000Z</time>
      </trkpt>
      <trkpt lat="45.14905" lon="5.01555">
        <ele>268.60000610352</ele>
        <time>2018-05-20T06:58:08.000Z</time>
      </trkpt>
      <trkpt lat="45.14909" lon="5.0156">
        <ele>268</ele>
        <time>2018-05-20T06:58:09.000Z</time>
      </trkpt>
      <trkpt lat="45.14923" lon="5.01577">
        <ele>265.79998779297</ele>
        <time>2018-05-20T06:58:12.000Z</time>
      </trkpt>
      <trkpt lat="45.14934" lon="5.01587">
        <ele>265.20001220703</ele>
        <time>2018-05-20T06:58:14.000Z</time>
      </trkpt>
      <trkpt lat="45.14939" lon="5.01591">
        <ele>265</ele>
        <time>2018-05-20T06:58:15.000Z</time>
      </trkpt>
      <trkpt lat="45.14944" lon="5.01592">
        <ele>265.39999389648</ele>
        <time>2018-05-20T06:58:16.000Z</time>
      </trkpt>
      <trkpt lat="45.14949" lon="5.01592">
        <ele>266.39999389648</ele>
        <time>2018-05-20T06:58:17.000Z</time>
      </trkpt>
      <trkpt lat="45.14953" lon="5.01592">
        <ele>267.39999389648</ele>
        <time>2018-05-20T06:58:18.000Z</time>
      </trkpt>
      <trkpt lat="45.14956" lon="5.01593">
        <ele>267.60000610352</ele>
        <time>2018-05-20T06:58:19.000Z</time>
      </trkpt>
      <trkpt lat="45.14957" lon="5.01595">
        <ele>267</ele>
        <time>2018-05-20T06:58:20.000Z</time>
      </trkpt>
      <trkpt lat="45.14957" lon="5.01598">
        <ele>265.79998779297</ele>
        <time>2018-05-20T06:58:21.000Z</time>
      </trkpt>
      <trkpt lat="45.14952" lon="5.01604">
        <ele>263.39999389648</ele>
        <time>2018-05-20T06:58:23.000Z</time>
      </trkpt>
      <trkpt lat="45.14939" lon="5.01621">
        <ele>257.39999389648</ele>
        <time>2018-05-20T06:58:26.000Z</time>
      </trkpt>
      <trkpt lat="45.14919" lon="5.01652">
        <ele>253</ele>
        <time>2018-05-20T06:58:30.000Z</time>
      </trkpt>
      <trkpt lat="45.14916" lon="5.01658">
        <ele>252.19999694824</ele>
        <time>2018-05-20T06:58:31.000Z</time>
      </trkpt>
      <trkpt lat="45.14912" lon="5.01664">
        <ele>251.39999389648</ele>
        <time>2018-05-20T06:58:32.000Z</time>
      </trkpt>
      <trkpt lat="45.14906" lon="5.01673">
        <ele>249.80000305176</ele>
        <time>2018-05-20T06:58:34.000Z</time>
      </trkpt>
      <trkpt lat="45.14903" lon="5.01675">
        <ele>249.39999389648</ele>
        <time>2018-05-20T06:58:35.000Z</time>
      </trkpt>
      <trkpt lat="45.14902" lon="5.01677">
        <ele>249</ele>
        <time>2018-05-20T06:58:36.000Z</time>
      </trkpt>
      <trkpt lat="45.14898" lon="5.0168">
        <ele>248.80000305176</ele>
        <time>2018-05-20T06:58:38.000Z</time>
      </trkpt>
      <trkpt lat="45.14895" lon="5.01682">
        <ele>248.60000610352</ele>
        <time>2018-05-20T06:58:39.000Z</time>
      </trkpt>
      <trkpt lat="45.14892" lon="5.01685">
        <ele>248.39999389648</ele>
        <time>2018-05-20T06:58:40.000Z</time>
      </trkpt>
      <trkpt lat="45.14882" lon="5.01698">
        <ele>247.39999389648</ele>
        <time>2018-05-20T06:58:43.000Z</time>
      </trkpt>
      <trkpt lat="45.14872" lon="5.0171">
        <ele>247</ele>
        <time>2018-05-20T06:58:45.000Z</time>
      </trkpt>
      <trkpt lat="45.14859" lon="5.01727">
        <ele>246</ele>
        <time>2018-05-20T06:58:48.000Z</time>
      </trkpt>
      <trkpt lat="45.14855" lon="5.01733">
        <ele>245.39999389648</ele>
        <time>2018-05-20T06:58:49.000Z</time>
      </trkpt>
      <trkpt lat="45.14831" lon="5.01764">
        <ele>243.39999389648</ele>
        <time>2018-05-20T06:58:54.000Z</time>
      </trkpt>
      <trkpt lat="45.14826" lon="5.0177">
        <ele>242.80000305176</ele>
        <time>2018-05-20T06:58:55.000Z</time>
      </trkpt>
      <trkpt lat="45.14816" lon="5.01791">
        <ele>242</ele>
        <time>2018-05-20T06:58:58.000Z</time>
      </trkpt>
      <trkpt lat="45.14813" lon="5.01797">
        <ele>242</ele>
        <time>2018-05-20T06:58:59.000Z</time>
      </trkpt>
      <trkpt lat="45.14811" lon="5.01804">
        <ele>242</ele>
        <time>2018-05-20T06:59:00.000Z</time>
      </trkpt>
      <trkpt lat="45.14818" lon="5.01821">
        <ele>242</ele>
        <time>2018-05-20T06:59:03.000Z</time>
      </trkpt>
      <trkpt lat="45.14818" lon="5.01827">
        <ele>242</ele>
        <time>2018-05-20T06:59:04.000Z</time>
      </trkpt>
      <trkpt lat="45.14817" lon="5.01832">
        <ele>242</ele>
        <time>2018-05-20T06:59:06.000Z</time>
      </trkpt>
      <trkpt lat="45.14809" lon="5.01831">
        <ele>242</ele>
        <time>2018-05-20T06:59:10.000Z</time>
      </trkpt>
      <trkpt lat="45.14806" lon="5.01833">
        <ele>242</ele>
        <time>2018-05-20T06:59:11.000Z</time>
      </trkpt>
      <trkpt lat="45.14802" lon="5.01839">
        <ele>242</ele>
        <time>2018-05-20T06:59:13.000Z</time>
      </trkpt>
      <trkpt lat="45.14804" lon="5.01846">
        <ele>242</ele>
        <time>2018-05-20T06:59:16.000Z</time>
      </trkpt>
      <trkpt lat="45.14805" lon="5.01846">
        <ele>242</ele>
        <time>2018-05-20T06:59:17.000Z</time>
      </trkpt>
      <trkpt lat="45.14795" lon="5.01841">
        <ele>242</ele>
        <time>2018-05-20T07:06:09.000Z</time>
      </trkpt>
      <trkpt lat="45.14794" lon="5.0184">
        <ele>242</ele>
        <time>2018-05-20T07:06:10.000Z</time>
      </trkpt>
      <trkpt lat="45.14789" lon="5.01842">
        <ele>241.80000305176</ele>
        <time>2018-05-20T07:06:13.000Z</time>
      </trkpt>
      <trkpt lat="45.14783" lon="5.01844">
        <ele>241.60000610352</ele>
        <time>2018-05-20T07:06:16.000Z</time>
      </trkpt>
      <trkpt lat="45.1477" lon="5.01861">
        <ele>241</ele>
        <time>2018-05-20T07:06:22.000Z</time>
      </trkpt>
      <trkpt lat="45.1475" lon="5.01886">
        <ele>239.60000610352</ele>
        <time>2018-05-20T07:06:29.000Z</time>
      </trkpt>
      <trkpt lat="45.14743" lon="5.01894">
        <ele>239.19999694824</ele>
        <time>2018-05-20T07:06:31.000Z</time>
      </trkpt>
      <trkpt lat="45.14726" lon="5.01916">
        <ele>238.39999389648</ele>
        <time>2018-05-20T07:06:36.000Z</time>
      </trkpt>
      <trkpt lat="45.14698" lon="5.01964">
        <ele>239.19999694824</ele>
        <time>2018-05-20T07:06:45.000Z</time>
      </trkpt>
      <trkpt lat="45.14676" lon="5.0201">
        <ele>238</ele>
        <time>2018-05-20T07:06:53.000Z</time>
      </trkpt>
      <trkpt lat="45.14649" lon="5.02067">
        <ele>239</ele>
        <time>2018-05-20T07:07:03.000Z</time>
      </trkpt>
      <trkpt lat="45.14631" lon="5.02102">
        <ele>240</ele>
        <time>2018-05-20T07:07:09.000Z</time>
      </trkpt>
      <trkpt lat="45.14599" lon="5.02163">
        <ele>240</ele>
        <time>2018-05-20T07:07:19.000Z</time>
      </trkpt>
      <trkpt lat="45.14569" lon="5.02202">
        <ele>240.60000610352</ele>
        <time>2018-05-20T07:07:27.000Z</time>
      </trkpt>
      <trkpt lat="45.14554" lon="5.02216">
        <ele>240.19999694824</ele>
        <time>2018-05-20T07:07:31.000Z</time>
      </trkpt>
      <trkpt lat="45.14547" lon="5.02224">
        <ele>240</ele>
        <time>2018-05-20T07:07:33.000Z</time>
      </trkpt>
      <trkpt lat="45.14543" lon="5.02227">
        <ele>240</ele>
        <time>2018-05-20T07:07:34.000Z</time>
      </trkpt>
      <trkpt lat="45.14534" lon="5.0223">
        <ele>240</ele>
        <time>2018-05-20T07:07:37.000Z</time>
      </trkpt>
      <trkpt lat="45.14529" lon="5.02217">
        <ele>240</ele>
        <time>2018-05-20T07:07:40.000Z</time>
      </trkpt>
      <trkpt lat="45.14527" lon="5.0221">
        <ele>240</ele>
        <time>2018-05-20T07:07:41.000Z</time>
      </trkpt>
      <trkpt lat="45.14519" lon="5.02188">
        <ele>239.19999694824</ele>
        <time>2018-05-20T07:07:44.000Z</time>
      </trkpt>
      <trkpt lat="45.14511" lon="5.02174">
        <ele>239.19999694824</ele>
        <time>2018-05-20T07:07:46.000Z</time>
      </trkpt>
      <trkpt lat="45.14506" lon="5.02168">
        <ele>239.39999389648</ele>
        <time>2018-05-20T07:07:47.000Z</time>
      </trkpt>
      <trkpt lat="45.14501" lon="5.02163">
        <ele>239.60000610352</ele>
        <time>2018-05-20T07:07:48.000Z</time>
      </trkpt>
      <trkpt lat="45.14475" lon="5.02154">
        <ele>240</ele>
        <time>2018-05-20T07:07:52.000Z</time>
      </trkpt>
      <trkpt lat="45.14469" lon="5.02153">
        <ele>240</ele>
        <time>2018-05-20T07:07:53.000Z</time>
      </trkpt>
      <trkpt lat="45.14427" lon="5.02143">
        <ele>238.19999694824</ele>
        <time>2018-05-20T07:08:00.000Z</time>
      </trkpt>
      <trkpt lat="45.14393" lon="5.02135">
        <ele>236.60000610352</ele>
        <time>2018-05-20T07:08:06.000Z</time>
      </trkpt>
      <trkpt lat="45.14379" lon="5.0215">
        <ele>236</ele>
        <time>2018-05-20T07:08:09.000Z</time>
      </trkpt>
      <trkpt lat="45.14375" lon="5.02156">
        <ele>236</ele>
        <time>2018-05-20T07:08:10.000Z</time>
      </trkpt>
      <trkpt lat="45.1434" lon="5.02209">
        <ele>237.39999389648</ele>
        <time>2018-05-20T07:08:19.000Z</time>
      </trkpt>
      <trkpt lat="45.14303" lon="5.02262">
        <ele>240.19999694824</ele>
        <time>2018-05-20T07:08:29.000Z</time>
      </trkpt>
      <trkpt lat="45.14281" lon="5.02305">
        <ele>241</ele>
        <time>2018-05-20T07:08:37.000Z</time>
      </trkpt>
      <trkpt lat="45.14264" lon="5.02336">
        <ele>240.60000610352</ele>
        <time>2018-05-20T07:08:44.000Z</time>
      </trkpt>
      <trkpt lat="45.14259" lon="5.02342">
        <ele>240.80000305176</ele>
        <time>2018-05-20T07:08:46.000Z</time>
      </trkpt>
      <trkpt lat="45.14257" lon="5.02345">
        <ele>241.19999694824</ele>
        <time>2018-05-20T07:08:47.000Z</time>
      </trkpt>
      <trkpt lat="45.14245" lon="5.02355">
        <ele>243</ele>
        <time>2018-05-20T07:08:52.000Z</time>
      </trkpt>
      <trkpt lat="45.14241" lon="5.02358">
        <ele>244</ele>
        <time>2018-05-20T07:08:54.000Z</time>
      </trkpt>
      <trkpt lat="45.14228" lon="5.02366">
        <ele>246.80000305176</ele>
        <time>2018-05-20T07:09:00.000Z</time>
      </trkpt>
      <trkpt lat="45.14226" lon="5.02366">
        <ele>247.39999389648</ele>
        <time>2018-05-20T07:09:01.000Z</time>
      </trkpt>
      <trkpt lat="45.1422" lon="5.02368">
        <ele>249.60000610352</ele>
        <time>2018-05-20T07:09:05.000Z</time>
      </trkpt>
      <trkpt lat="45.14215" lon="5.02368">
        <ele>250.80000305176</ele>
        <time>2018-05-20T07:09:08.000Z</time>
      </trkpt>
      <trkpt lat="45.14212" lon="5.02369">
        <ele>251.60000610352</ele>
        <time>2018-05-20T07:09:10.000Z</time>
      </trkpt>
      <trkpt lat="45.14205" lon="5.02369">
        <ele>252.80000305176</ele>
        <time>2018-05-20T07:09:15.000Z</time>
      </trkpt>
      <trkpt lat="45.14203" lon="5.02369">
        <ele>253</ele>
        <time>2018-05-20T07:09:16.000Z</time>
      </trkpt>
      <trkpt lat="45.14198" lon="5.02367">
        <ele>253.60000610352</ele>
        <time>2018-05-20T07:09:20.000Z</time>
      </trkpt>
      <trkpt lat="45.14192" lon="5.02362">
        <ele>253.39999389648</ele>
        <time>2018-05-20T07:09:24.000Z</time>
      </trkpt>
      <trkpt lat="45.14191" lon="5.0236">
        <ele>253.19999694824</ele>
        <time>2018-05-20T07:09:25.000Z</time>
      </trkpt>
      <trkpt lat="45.14181" lon="5.02348">
        <ele>252.39999389648</ele>
        <time>2018-05-20T07:09:30.000Z</time>
      </trkpt>
      <trkpt lat="45.14167" lon="5.02331">
        <ele>250.80000305176</ele>
        <time>2018-05-20T07:09:35.000Z</time>
      </trkpt>
      <trkpt lat="45.1414" lon="5.023">
        <ele>248.80000305176</ele>
        <time>2018-05-20T07:09:42.000Z</time>
      </trkpt>
      <trkpt lat="45.14136" lon="5.02294">
        <ele>248.19999694824</ele>
        <time>2018-05-20T07:09:43.000Z</time>
      </trkpt>
      <trkpt lat="45.14131" lon="5.02288">
        <ele>247.80000305176</ele>
        <time>2018-05-20T07:09:44.000Z</time>
      </trkpt>
      <trkpt lat="45.14121" lon="5.02271">
        <ele>246.39999389648</ele>
        <time>2018-05-20T07:09:47.000Z</time>
      </trkpt>
      <trkpt lat="45.14112" lon="5.02258">
        <ele>246.39999389648</ele>
        <time>2018-05-20T07:09:49.000Z</time>
      </trkpt>
      <trkpt lat="45.14095" lon="5.02238">
        <ele>248</ele>
        <time>2018-05-20T07:09:52.000Z</time>
      </trkpt>
      <trkpt lat="45.1409" lon="5.0223">
        <ele>248.39999389648</ele>
        <time>2018-05-20T07:09:53.000Z</time>
      </trkpt>
      <trkpt lat="45.1407" lon="5.02198">
        <ele>248.80000305176</ele>
        <time>2018-05-20T07:09:57.000Z</time>
      </trkpt>
      <trkpt lat="45.14054" lon="5.02173">
        <ele>249</ele>
        <time>2018-05-20T07:10:00.000Z</time>
      </trkpt>
      <trkpt lat="45.14048" lon="5.02166">
        <ele>249.39999389648</ele>
        <time>2018-05-20T07:10:01.000Z</time>
      </trkpt>
      <trkpt lat="45.14037" lon="5.02154">
        <ele>249.39999389648</ele>
        <time>2018-05-20T07:10:03.000Z</time>
      </trkpt>
      <trkpt lat="45.14031" lon="5.02148">
        <ele>249.39999389648</ele>
        <time>2018-05-20T07:10:04.000Z</time>
      </trkpt>
      <trkpt lat="45.14009" lon="5.02125">
        <ele>249.19999694824</ele>
        <time>2018-05-20T07:10:08.000Z</time>
      </trkpt>
      <trkpt lat="45.13982" lon="5.021">
        <ele>248.60000610352</ele>
        <time>2018-05-20T07:10:13.000Z</time>
      </trkpt>
      <trkpt lat="45.13977" lon="5.02095">
        <ele>248.80000305176</ele>
        <time>2018-05-20T07:10:14.000Z</time>
      </trkpt>
      <trkpt lat="45.13944" lon="5.02075">
        <ele>251.39999389648</ele>
        <time>2018-05-20T07:10:20.000Z</time>
      </trkpt>
      <trkpt lat="45.13912" lon="5.02063">
        <ele>251</ele>
        <time>2018-05-20T07:10:26.000Z</time>
      </trkpt>
      <trkpt lat="45.13888" lon="5.02061">
        <ele>252.19999694824</ele>
        <time>2018-05-20T07:10:31.000Z</time>
      </trkpt>
      <trkpt lat="45.13885" lon="5.0206">
        <ele>252</ele>
        <time>2018-05-20T07:10:32.000Z</time>
      </trkpt>
      <trkpt lat="45.13877" lon="5.02049">
        <ele>250.60000610352</ele>
        <time>2018-05-20T07:10:35.000Z</time>
      </trkpt>
      <trkpt lat="45.13875" lon="5.02044">
        <ele>250.19999694824</ele>
        <time>2018-05-20T07:10:36.000Z</time>
      </trkpt>
      <trkpt lat="45.1386" lon="5.02022">
        <ele>248.60000610352</ele>
        <time>2018-05-20T07:10:40.000Z</time>
      </trkpt>
      <trkpt lat="45.13845" lon="5.01999">
        <ele>247.60000610352</ele>
        <time>2018-05-20T07:10:44.000Z</time>
      </trkpt>
      <trkpt lat="45.13836" lon="5.01988">
        <ele>247.60000610352</ele>
        <time>2018-05-20T07:10:46.000Z</time>
      </trkpt>
      <trkpt lat="45.13831" lon="5.01982">
        <ele>247.19999694824</ele>
        <time>2018-05-20T07:10:47.000Z</time>
      </trkpt>
      <trkpt lat="45.13808" lon="5.01958">
        <ele>248.19999694824</ele>
        <time>2018-05-20T07:10:51.000Z</time>
      </trkpt>
      <trkpt lat="45.13797" lon="5.01947">
        <ele>249.39999389648</ele>
        <time>2018-05-20T07:10:53.000Z</time>
      </trkpt>
      <trkpt lat="45.13775" lon="5.01926">
        <ele>250.19999694824</ele>
        <time>2018-05-20T07:10:57.000Z</time>
      </trkpt>
      <trkpt lat="45.13769" lon="5.0192">
        <ele>250</ele>
        <time>2018-05-20T07:10:58.000Z</time>
      </trkpt>
      <trkpt lat="45.13758" lon="5.01909">
        <ele>248.19999694824</ele>
        <time>2018-05-20T07:11:00.000Z</time>
      </trkpt>
      <trkpt lat="45.13751" lon="5.01906">
        <ele>247.80000305176</ele>
        <time>2018-05-20T07:11:01.000Z</time>
      </trkpt>
      <trkpt lat="45.13744" lon="5.01902">
        <ele>247.39999389648</ele>
        <time>2018-05-20T07:11:02.000Z</time>
      </trkpt>
      <trkpt lat="45.13726" lon="5.01882">
        <ele>243.39999389648</ele>
        <time>2018-05-20T07:11:05.000Z</time>
      </trkpt>
      <trkpt lat="45.13708" lon="5.01862">
        <ele>240.80000305176</ele>
        <time>2018-05-20T07:11:08.000Z</time>
      </trkpt>
      <trkpt lat="45.13696" lon="5.01848">
        <ele>240</ele>
        <time>2018-05-20T07:11:10.000Z</time>
      </trkpt>
      <trkpt lat="45.13683" lon="5.01836">
        <ele>239.60000610352</ele>
        <time>2018-05-20T07:11:12.000Z</time>
      </trkpt>
      <trkpt lat="45.13646" lon="5.01803">
        <ele>240</ele>
        <time>2018-05-20T07:11:18.000Z</time>
      </trkpt>
      <trkpt lat="45.13628" lon="5.01786">
        <ele>240.19999694824</ele>
        <time>2018-05-20T07:11:21.000Z</time>
      </trkpt>
      <trkpt lat="45.13612" lon="5.0177">
        <ele>240.19999694824</ele>
        <time>2018-05-20T07:11:24.000Z</time>
      </trkpt>
      <trkpt lat="45.13584" lon="5.01747">
        <ele>240.39999389648</ele>
        <time>2018-05-20T07:11:28.000Z</time>
      </trkpt>
      <trkpt lat="45.13538" lon="5.01712">
        <ele>242.60000610352</ele>
        <time>2018-05-20T07:11:34.000Z</time>
      </trkpt>
      <trkpt lat="45.13525" lon="5.01701">
        <ele>242.19999694824</ele>
        <time>2018-05-20T07:11:36.000Z</time>
      </trkpt>
      <trkpt lat="45.13503" lon="5.01683">
        <ele>241</ele>
        <time>2018-05-20T07:11:39.000Z</time>
      </trkpt>
      <trkpt lat="45.13471" lon="5.01662">
        <ele>240</ele>
        <time>2018-05-20T07:11:43.000Z</time>
      </trkpt>
      <trkpt lat="45.13455" lon="5.01654">
        <ele>239.60000610352</ele>
        <time>2018-05-20T07:11:45.000Z</time>
      </trkpt>
      <trkpt lat="45.13416" lon="5.01639">
        <ele>237.39999389648</ele>
        <time>2018-05-20T07:11:50.000Z</time>
      </trkpt>
      <trkpt lat="45.13376" lon="5.01618">
        <ele>235.19999694824</ele>
        <time>2018-05-20T07:11:56.000Z</time>
      </trkpt>
      <trkpt lat="45.1337" lon="5.01613">
        <ele>235.19999694824</ele>
        <time>2018-05-20T07:11:57.000Z</time>
      </trkpt>
      <trkpt lat="45.13352" lon="5.016">
        <ele>235.19999694824</ele>
        <time>2018-05-20T07:12:00.000Z</time>
      </trkpt>
      <trkpt lat="45.13329" lon="5.01577">
        <ele>233.80000305176</ele>
        <time>2018-05-20T07:12:04.000Z</time>
      </trkpt>
      <trkpt lat="45.13299" lon="5.01551">
        <ele>234.80000305176</ele>
        <time>2018-05-20T07:12:09.000Z</time>
      </trkpt>
      <trkpt lat="45.13269" lon="5.01524">
        <ele>235.80000305176</ele>
        <time>2018-05-20T07:12:14.000Z</time>
      </trkpt>
      <trkpt lat="45.13247" lon="5.01505">
        <ele>236</ele>
        <time>2018-05-20T07:12:18.000Z</time>
      </trkpt>
      <trkpt lat="45.1323" lon="5.01491">
        <ele>237.19999694824</ele>
        <time>2018-05-20T07:12:21.000Z</time>
      </trkpt>
      <trkpt lat="45.132" lon="5.01473">
        <ele>237.60000610352</ele>
        <time>2018-05-20T07:12:26.000Z</time>
      </trkpt>
      <trkpt lat="45.13194" lon="5.01472">
        <ele>237.19999694824</ele>
        <time>2018-05-20T07:12:27.000Z</time>
      </trkpt>
      <trkpt lat="45.13175" lon="5.01474">
        <ele>236</ele>
        <time>2018-05-20T07:12:30.000Z</time>
      </trkpt>
      <trkpt lat="45.13136" lon="5.01488">
        <ele>235.39999389648</ele>
        <time>2018-05-20T07:12:36.000Z</time>
      </trkpt>
      <trkpt lat="45.13084" lon="5.01508">
        <ele>241.39999389648</ele>
        <time>2018-05-20T07:12:44.000Z</time>
      </trkpt>
      <trkpt lat="45.13051" lon="5.01519">
        <ele>244</ele>
        <time>2018-05-20T07:12:50.000Z</time>
      </trkpt>
      <trkpt lat="45.13041" lon="5.01519">
        <ele>244.60000610352</ele>
        <time>2018-05-20T07:12:53.000Z</time>
      </trkpt>
      <trkpt lat="45.13038" lon="5.01515">
        <ele>244.80000305176</ele>
        <time>2018-05-20T07:12:54.000Z</time>
      </trkpt>
      <trkpt lat="45.13031" lon="5.01503">
        <ele>243.80000305176</ele>
        <time>2018-05-20T07:12:57.000Z</time>
      </trkpt>
      <trkpt lat="45.13027" lon="5.01495">
        <ele>243.19999694824</ele>
        <time>2018-05-20T07:12:59.000Z</time>
      </trkpt>
      <trkpt lat="45.13025" lon="5.01492">
        <ele>242.80000305176</ele>
        <time>2018-05-20T07:13:00.000Z</time>
      </trkpt>
      <trkpt lat="45.13017" lon="5.01476">
        <ele>240.80000305176</ele>
        <time>2018-05-20T07:13:04.000Z</time>
      </trkpt>
      <trkpt lat="45.13007" lon="5.01461">
        <ele>239.60000610352</ele>
        <time>2018-05-20T07:13:08.000Z</time>
      </trkpt>
      <trkpt lat="45.13004" lon="5.01458">
        <ele>239.19999694824</ele>
        <time>2018-05-20T07:13:09.000Z</time>
      </trkpt>
      <trkpt lat="45.12991" lon="5.01444">
        <ele>239.60000610352</ele>
        <time>2018-05-20T07:13:14.000Z</time>
      </trkpt>
      <trkpt lat="45.12983" lon="5.01437">
        <ele>240</ele>
        <time>2018-05-20T07:13:17.000Z</time>
      </trkpt>
      <trkpt lat="45.12975" lon="5.0143">
        <ele>240.60000610352</ele>
        <time>2018-05-20T07:13:20.000Z</time>
      </trkpt>
      <trkpt lat="45.12962" lon="5.0142">
        <ele>241.80000305176</ele>
        <time>2018-05-20T07:13:25.000Z</time>
      </trkpt>
      <trkpt lat="45.12947" lon="5.0141">
        <ele>243.39999389648</ele>
        <time>2018-05-20T07:13:31.000Z</time>
      </trkpt>
      <trkpt lat="45.1294" lon="5.01407">
        <ele>244.39999389648</ele>
        <time>2018-05-20T07:13:34.000Z</time>
      </trkpt>
      <trkpt lat="45.12938" lon="5.01406">
        <ele>244.60000610352</ele>
        <time>2018-05-20T07:13:35.000Z</time>
      </trkpt>
      <trkpt lat="45.12931" lon="5.01406">
        <ele>245.39999389648</ele>
        <time>2018-05-20T07:13:38.000Z</time>
      </trkpt>
      <trkpt lat="45.12927" lon="5.01408">
        <ele>245.80000305176</ele>
        <time>2018-05-20T07:13:40.000Z</time>
      </trkpt>
      <trkpt lat="45.12924" lon="5.01414">
        <ele>246.60000610352</ele>
        <time>2018-05-20T07:13:42.000Z</time>
      </trkpt>
      <trkpt lat="45.12921" lon="5.01424">
        <ele>247.19999694824</ele>
        <time>2018-05-20T07:13:45.000Z</time>
      </trkpt>
      <trkpt lat="45.1292" lon="5.01427">
        <ele>247.39999389648</ele>
        <time>2018-05-20T07:13:46.000Z</time>
      </trkpt>
      <trkpt lat="45.1292" lon="5.01441">
        <ele>248.19999694824</ele>
        <time>2018-05-20T07:13:50.000Z</time>
      </trkpt>
      <trkpt lat="45.12919" lon="5.01452">
        <ele>248.80000305176</ele>
        <time>2018-05-20T07:13:53.000Z</time>
      </trkpt>
      <trkpt lat="45.12919" lon="5.01455">
        <ele>248.80000305176</ele>
        <time>2018-05-20T07:13:54.000Z</time>
      </trkpt>
      <trkpt lat="45.12914" lon="5.01472">
        <ele>249.19999694824</ele>
        <time>2018-05-20T07:13:59.000Z</time>
      </trkpt>
      <trkpt lat="45.12911" lon="5.01478">
        <ele>249.19999694824</ele>
        <time>2018-05-20T07:14:01.000Z</time>
      </trkpt>
      <trkpt lat="45.12898" lon="5.01501">
        <ele>249.19999694824</ele>
        <time>2018-05-20T07:14:08.000Z</time>
      </trkpt>
      <trkpt lat="45.12894" lon="5.01507">
        <ele>249</ele>
        <time>2018-05-20T07:14:10.000Z</time>
      </trkpt>
      <trkpt lat="45.1288" lon="5.01515">
        <ele>248</ele>
        <time>2018-05-20T07:14:14.000Z</time>
      </trkpt>
      <trkpt lat="45.12853" lon="5.01526">
        <ele>249</ele>
        <time>2018-05-20T07:14:20.000Z</time>
      </trkpt>
      <trkpt lat="45.12823" lon="5.01539">
        <ele>250</ele>
        <time>2018-05-20T07:14:27.000Z</time>
      </trkpt>
      <trkpt lat="45.12791" lon="5.01558">
        <ele>250</ele>
        <time>2018-05-20T07:14:34.000Z</time>
      </trkpt>
      <trkpt lat="45.12752" lon="5.01586">
        <ele>249.39999389648</ele>
        <time>2018-05-20T07:14:42.000Z</time>
      </trkpt>
      <trkpt lat="45.12716" lon="5.01622">
        <ele>249.19999694824</ele>
        <time>2018-05-20T07:14:50.000Z</time>
      </trkpt>
      <trkpt lat="45.12711" lon="5.01627">
        <ele>249</ele>
        <time>2018-05-20T07:14:51.000Z</time>
      </trkpt>
      <trkpt lat="45.12681" lon="5.01655">
        <ele>251</ele>
        <time>2018-05-20T07:14:58.000Z</time>
      </trkpt>
      <trkpt lat="45.12664" lon="5.0167">
        <ele>251.19999694824</ele>
        <time>2018-05-20T07:15:02.000Z</time>
      </trkpt>
      <trkpt lat="45.12644" lon="5.01689">
        <ele>251.80000305176</ele>
        <time>2018-05-20T07:15:07.000Z</time>
      </trkpt>
      <trkpt lat="45.12629" lon="5.01704">
        <ele>252.80000305176</ele>
        <time>2018-05-20T07:15:11.000Z</time>
      </trkpt>
      <trkpt lat="45.1261" lon="5.01722">
        <ele>254.39999389648</ele>
        <time>2018-05-20T07:15:16.000Z</time>
      </trkpt>
      <trkpt lat="45.12603" lon="5.01729">
        <ele>254.80000305176</ele>
        <time>2018-05-20T07:15:18.000Z</time>
      </trkpt>
      <trkpt lat="45.12577" lon="5.01755">
        <ele>255.60000610352</ele>
        <time>2018-05-20T07:15:26.000Z</time>
      </trkpt>
      <trkpt lat="45.12573" lon="5.01758">
        <ele>255.80000305176</ele>
        <time>2018-05-20T07:15:27.000Z</time>
      </trkpt>
      <trkpt lat="45.12555" lon="5.01767">
        <ele>256</ele>
        <time>2018-05-20T07:15:32.000Z</time>
      </trkpt>
      <trkpt lat="45.12551" lon="5.01768">
        <ele>256.20001220703</ele>
        <time>2018-05-20T07:15:33.000Z</time>
      </trkpt>
      <trkpt lat="45.1254" lon="5.0177">
        <ele>256.20001220703</ele>
        <time>2018-05-20T07:15:36.000Z</time>
      </trkpt>
      <trkpt lat="45.12529" lon="5.01778">
        <ele>256.60000610352</ele>
        <time>2018-05-20T07:15:40.000Z</time>
      </trkpt>
      <trkpt lat="45.12526" lon="5.01795">
        <ele>257.79998779297</ele>
        <time>2018-05-20T07:15:45.000Z</time>
      </trkpt>
      <trkpt lat="45.12535" lon="5.01818">
        <ele>258.60000610352</ele>
        <time>2018-05-20T07:15:50.000Z</time>
      </trkpt>
      <trkpt lat="45.12538" lon="5.01823">
        <ele>258.60000610352</ele>
        <time>2018-05-20T07:15:51.000Z</time>
      </trkpt>
      <trkpt lat="45.12551" lon="5.01847">
        <ele>258.79998779297</ele>
        <time>2018-05-20T07:15:56.000Z</time>
      </trkpt>
      <trkpt lat="45.12552" lon="5.01853">
        <ele>259</ele>
        <time>2018-05-20T07:15:57.000Z</time>
      </trkpt>
      <trkpt lat="45.12549" lon="5.01869">
        <ele>259.60000610352</ele>
        <time>2018-05-20T07:16:00.000Z</time>
      </trkpt>
      <trkpt lat="45.12539" lon="5.0188">
        <ele>260.60000610352</ele>
        <time>2018-05-20T07:16:03.000Z</time>
      </trkpt>
      <trkpt lat="45.12534" lon="5.01888">
        <ele>261.20001220703</ele>
        <time>2018-05-20T07:16:05.000Z</time>
      </trkpt>
      <trkpt lat="45.12522" lon="5.01908">
        <ele>263</ele>
        <time>2018-05-20T07:16:12.000Z</time>
      </trkpt>
      <trkpt lat="45.12515" lon="5.01921">
        <ele>264.39999389648</ele>
        <time>2018-05-20T07:16:16.000Z</time>
      </trkpt>
      <trkpt lat="45.1251" lon="5.01931">
        <ele>265.39999389648</ele>
        <time>2018-05-20T07:16:19.000Z</time>
      </trkpt>
      <trkpt lat="45.12507" lon="5.01936">
        <ele>266.20001220703</ele>
        <time>2018-05-20T07:16:21.000Z</time>
      </trkpt>
      <trkpt lat="45.12499" lon="5.0195">
        <ele>268</ele>
        <time>2018-05-20T07:16:26.000Z</time>
      </trkpt>
      <trkpt lat="45.1249" lon="5.01965">
        <ele>269.39999389648</ele>
        <time>2018-05-20T07:16:32.000Z</time>
      </trkpt>
      <trkpt lat="45.12488" lon="5.01968">
        <ele>269.79998779297</ele>
        <time>2018-05-20T07:16:33.000Z</time>
      </trkpt>
      <trkpt lat="45.1248" lon="5.01979">
        <ele>271</ele>
        <time>2018-05-20T07:16:38.000Z</time>
      </trkpt>
      <trkpt lat="45.12475" lon="5.01987">
        <ele>271</ele>
        <time>2018-05-20T07:16:41.000Z</time>
      </trkpt>
      <trkpt lat="45.12471" lon="5.01994">
        <ele>271.20001220703</ele>
        <time>2018-05-20T07:16:44.000Z</time>
      </trkpt>
      <trkpt lat="45.12462" lon="5.02004">
        <ele>272.20001220703</ele>
        <time>2018-05-20T07:16:49.000Z</time>
      </trkpt>
      <trkpt lat="45.12459" lon="5.02014">
        <ele>273.20001220703</ele>
        <time>2018-05-20T07:16:54.000Z</time>
      </trkpt>
      <trkpt lat="45.12457" lon="5.02019">
        <ele>273.79998779297</ele>
        <time>2018-05-20T07:16:56.000Z</time>
      </trkpt>
      <trkpt lat="45.12453" lon="5.02026">
        <ele>274.79998779297</ele>
        <time>2018-05-20T07:17:00.000Z</time>
      </trkpt>
      <trkpt lat="45.12449" lon="5.02032">
        <ele>275.79998779297</ele>
        <time>2018-05-20T07:17:03.000Z</time>
      </trkpt>
      <trkpt lat="45.12446" lon="5.02037">
        <ele>276.20001220703</ele>
        <time>2018-05-20T07:17:06.000Z</time>
      </trkpt>
      <trkpt lat="45.1244" lon="5.02044">
        <ele>276.79998779297</ele>
        <time>2018-05-20T07:17:09.000Z</time>
      </trkpt>
      <trkpt lat="45.12439" lon="5.02048">
        <ele>277.20001220703</ele>
        <time>2018-05-20T07:17:11.000Z</time>
      </trkpt>
      <trkpt lat="45.12439" lon="5.02056">
        <ele>279.20001220703</ele>
        <time>2018-05-20T07:17:15.000Z</time>
      </trkpt>
      <trkpt lat="45.1244" lon="5.02058">
        <ele>279.39999389648</ele>
        <time>2018-05-20T07:17:16.000Z</time>
      </trkpt>
      <trkpt lat="45.12445" lon="5.0207">
        <ele>281</ele>
        <time>2018-05-20T07:17:22.000Z</time>
      </trkpt>
      <trkpt lat="45.12446" lon="5.02073">
        <ele>281.20001220703</ele>
        <time>2018-05-20T07:17:23.000Z</time>
      </trkpt>
      <trkpt lat="45.12454" lon="5.02092">
        <ele>281.20001220703</ele>
        <time>2018-05-20T07:17:29.000Z</time>
      </trkpt>
      <trkpt lat="45.12457" lon="5.02116">
        <ele>282</ele>
        <time>2018-05-20T07:17:35.000Z</time>
      </trkpt>
      <trkpt lat="45.12457" lon="5.0212">
        <ele>282.20001220703</ele>
        <time>2018-05-20T07:17:36.000Z</time>
      </trkpt>
      <trkpt lat="45.12451" lon="5.0214">
        <ele>284.60000610352</ele>
        <time>2018-05-20T07:17:43.000Z</time>
      </trkpt>
      <trkpt lat="45.12445" lon="5.02152">
        <ele>286.79998779297</ele>
        <time>2018-05-20T07:17:47.000Z</time>
      </trkpt>
      <trkpt lat="45.12441" lon="5.02158">
        <ele>288</ele>
        <time>2018-05-20T07:17:49.000Z</time>
      </trkpt>
      <trkpt lat="45.12437" lon="5.02168">
        <ele>288.79998779297</ele>
        <time>2018-05-20T07:17:52.000Z</time>
      </trkpt>
      <trkpt lat="45.12434" lon="5.02183">
        <ele>289</ele>
        <time>2018-05-20T07:17:57.000Z</time>
      </trkpt>
      <trkpt lat="45.12435" lon="5.02197">
        <ele>289</ele>
        <time>2018-05-20T07:18:02.000Z</time>
      </trkpt>
      <trkpt lat="45.12435" lon="5.022">
        <ele>288.79998779297</ele>
        <time>2018-05-20T07:18:03.000Z</time>
      </trkpt>
      <trkpt lat="45.12433" lon="5.02213">
        <ele>289.60000610352</ele>
        <time>2018-05-20T07:18:07.000Z</time>
      </trkpt>
      <trkpt lat="45.12432" lon="5.02217">
        <ele>290.39999389648</ele>
        <time>2018-05-20T07:18:09.000Z</time>
      </trkpt>
      <trkpt lat="45.12429" lon="5.02223">
        <ele>291.39999389648</ele>
        <time>2018-05-20T07:18:12.000Z</time>
      </trkpt>
      <trkpt lat="45.12429" lon="5.0223">
        <ele>292.39999389648</ele>
        <time>2018-05-20T07:18:16.000Z</time>
      </trkpt>
      <trkpt lat="45.12429" lon="5.02239">
        <ele>292.79998779297</ele>
        <time>2018-05-20T07:18:20.000Z</time>
      </trkpt>
      <trkpt lat="45.12428" lon="5.02244">
        <ele>293.39999389648</ele>
        <time>2018-05-20T07:18:22.000Z</time>
      </trkpt>
      <trkpt lat="45.12428" lon="5.02248">
        <ele>293.79998779297</ele>
        <time>2018-05-20T07:18:24.000Z</time>
      </trkpt>
      <trkpt lat="45.1243" lon="5.02273">
        <ele>296</ele>
        <time>2018-05-20T07:18:36.000Z</time>
      </trkpt>
      <trkpt lat="45.12429" lon="5.02278">
        <ele>296.39999389648</ele>
        <time>2018-05-20T07:18:38.000Z</time>
      </trkpt>
      <trkpt lat="45.12428" lon="5.02285">
        <ele>297.20001220703</ele>
        <time>2018-05-20T07:18:41.000Z</time>
      </trkpt>
      <trkpt lat="45.12426" lon="5.02294">
        <ele>297.60000610352</ele>
        <time>2018-05-20T07:18:45.000Z</time>
      </trkpt>
      <trkpt lat="45.12426" lon="5.02296">
        <ele>297.60000610352</ele>
        <time>2018-05-20T07:18:46.000Z</time>
      </trkpt>
      <trkpt lat="45.12426" lon="5.02304">
        <ele>297.60000610352</ele>
        <time>2018-05-20T07:18:49.000Z</time>
      </trkpt>
      <trkpt lat="45.12425" lon="5.02307">
        <ele>297.60000610352</ele>
        <time>2018-05-20T07:18:50.000Z</time>
      </trkpt>
      <trkpt lat="45.12423" lon="5.02311">
        <ele>297.79998779297</ele>
        <time>2018-05-20T07:18:52.000Z</time>
      </trkpt>
      <trkpt lat="45.1242" lon="5.0232">
        <ele>298</ele>
        <time>2018-05-20T07:18:56.000Z</time>
      </trkpt>
      <trkpt lat="45.12417" lon="5.02327">
        <ele>297.79998779297</ele>
        <time>2018-05-20T07:18:59.000Z</time>
      </trkpt>
      <trkpt lat="45.12412" lon="5.02337">
        <ele>297.39999389648</ele>
        <time>2018-05-20T07:19:04.000Z</time>
      </trkpt>
      <trkpt lat="45.1241" lon="5.0234">
        <ele>297.20001220703</ele>
        <time>2018-05-20T07:19:05.000Z</time>
      </trkpt>
      <trkpt lat="45.12396" lon="5.02355">
        <ele>298</ele>
        <time>2018-05-20T07:19:12.000Z</time>
      </trkpt>
      <trkpt lat="45.12394" lon="5.02357">
        <ele>298</ele>
        <time>2018-05-20T07:19:13.000Z</time>
      </trkpt>
      <trkpt lat="45.12379" lon="5.02369">
        <ele>299.39999389648</ele>
        <time>2018-05-20T07:19:20.000Z</time>
      </trkpt>
      <trkpt lat="45.12377" lon="5.02371">
        <ele>299.60000610352</ele>
        <time>2018-05-20T07:19:21.000Z</time>
      </trkpt>
      <trkpt lat="45.12363" lon="5.02388">
        <ele>300.39999389648</ele>
        <time>2018-05-20T07:19:28.000Z</time>
      </trkpt>
      <trkpt lat="45.12347" lon="5.02406">
        <ele>300.60000610352</ele>
        <time>2018-05-20T07:19:35.000Z</time>
      </trkpt>
      <trkpt lat="45.12325" lon="5.02429">
        <ele>302</ele>
        <time>2018-05-20T07:19:44.000Z</time>
      </trkpt>
      <trkpt lat="45.12322" lon="5.02432">
        <ele>302.20001220703</ele>
        <time>2018-05-20T07:19:45.000Z</time>
      </trkpt>
      <trkpt lat="45.12307" lon="5.02446">
        <ele>304.60000610352</ele>
        <time>2018-05-20T07:19:51.000Z</time>
      </trkpt>
      <trkpt lat="45.12296" lon="5.02458">
        <ele>305.79998779297</ele>
        <time>2018-05-20T07:19:55.000Z</time>
      </trkpt>
      <trkpt lat="45.1229" lon="5.02466">
        <ele>306.39999389648</ele>
        <time>2018-05-20T07:19:58.000Z</time>
      </trkpt>
      <trkpt lat="45.12283" lon="5.02477">
        <ele>307</ele>
        <time>2018-05-20T07:20:02.000Z</time>
      </trkpt>
      <trkpt lat="45.12277" lon="5.02485">
        <ele>307.60000610352</ele>
        <time>2018-05-20T07:20:05.000Z</time>
      </trkpt>
      <trkpt lat="45.12269" lon="5.02496">
        <ele>308.79998779297</ele>
        <time>2018-05-20T07:20:09.000Z</time>
      </trkpt>
      <trkpt lat="45.12262" lon="5.02502">
        <ele>309.79998779297</ele>
        <time>2018-05-20T07:20:12.000Z</time>
      </trkpt>
      <trkpt lat="45.12252" lon="5.02508">
        <ele>311.20001220703</ele>
        <time>2018-05-20T07:20:16.000Z</time>
      </trkpt>
      <trkpt lat="45.12245" lon="5.02513">
        <ele>312.20001220703</ele>
        <time>2018-05-20T07:20:19.000Z</time>
      </trkpt>
      <trkpt lat="45.12238" lon="5.02516">
        <ele>313</ele>
        <time>2018-05-20T07:20:22.000Z</time>
      </trkpt>
      <trkpt lat="45.1223" lon="5.0252">
        <ele>314</ele>
        <time>2018-05-20T07:20:26.000Z</time>
      </trkpt>
      <trkpt lat="45.12215" lon="5.02526">
        <ele>316</ele>
        <time>2018-05-20T07:20:32.000Z</time>
      </trkpt>
      <trkpt lat="45.12209" lon="5.02528">
        <ele>316.39999389648</ele>
        <time>2018-05-20T07:20:34.000Z</time>
      </trkpt>
      <trkpt lat="45.12198" lon="5.02534">
        <ele>316.60000610352</ele>
        <time>2018-05-20T07:20:39.000Z</time>
      </trkpt>
      <trkpt lat="45.12193" lon="5.02535">
        <ele>317</ele>
        <time>2018-05-20T07:20:41.000Z</time>
      </trkpt>
      <trkpt lat="45.12186" lon="5.02538">
        <ele>317.39999389648</ele>
        <time>2018-05-20T07:20:44.000Z</time>
      </trkpt>
      <trkpt lat="45.12175" lon="5.02541">
        <ele>317.39999389648</ele>
        <time>2018-05-20T07:20:49.000Z</time>
      </trkpt>
      <trkpt lat="45.12171" lon="5.02543">
        <ele>317.39999389648</ele>
        <time>2018-05-20T07:20:51.000Z</time>
      </trkpt>
      <trkpt lat="45.12161" lon="5.02547">
        <ele>317.39999389648</ele>
        <time>2018-05-20T07:20:55.000Z</time>
      </trkpt>
      <trkpt lat="45.1216" lon="5.02547">
        <ele>317.39999389648</ele>
        <time>2018-05-20T07:20:56.000Z</time>
      </trkpt>
      <trkpt lat="45.12151" lon="5.02547">
        <ele>317.60000610352</ele>
        <time>2018-05-20T07:21:00.000Z</time>
      </trkpt>
      <trkpt lat="45.12149" lon="5.02536">
        <ele>318.39999389648</ele>
        <time>2018-05-20T07:21:05.000Z</time>
      </trkpt>
      <trkpt lat="45.1215" lon="5.02533">
        <ele>318.79998779297</ele>
        <time>2018-05-20T07:21:06.000Z</time>
      </trkpt>
      <trkpt lat="45.12152" lon="5.02522">
        <ele>320.60000610352</ele>
        <time>2018-05-20T07:21:10.000Z</time>
      </trkpt>
      <trkpt lat="45.12151" lon="5.02516">
        <ele>321.39999389648</ele>
        <time>2018-05-20T07:21:12.000Z</time>
      </trkpt>
      <trkpt lat="45.12149" lon="5.0251">
        <ele>322</ele>
        <time>2018-05-20T07:21:15.000Z</time>
      </trkpt>
      <trkpt lat="45.12149" lon="5.02507">
        <ele>322.20001220703</ele>
        <time>2018-05-20T07:21:16.000Z</time>
      </trkpt>
      <trkpt lat="45.12148" lon="5.02501">
        <ele>322.79998779297</ele>
        <time>2018-05-20T07:21:18.000Z</time>
      </trkpt>
      <trkpt lat="45.1215" lon="5.0248">
        <ele>325.20001220703</ele>
        <time>2018-05-20T07:21:25.000Z</time>
      </trkpt>
      <trkpt lat="45.12149" lon="5.02465">
        <ele>326.79998779297</ele>
        <time>2018-05-20T07:21:31.000Z</time>
      </trkpt>
      <trkpt lat="45.12149" lon="5.02462">
        <ele>327.20001220703</ele>
        <time>2018-05-20T07:21:32.000Z</time>
      </trkpt>
      <trkpt lat="45.12148" lon="5.02449">
        <ele>328.60000610352</ele>
        <time>2018-05-20T07:21:36.000Z</time>
      </trkpt>
      <trkpt lat="45.12147" lon="5.02444">
        <ele>329</ele>
        <time>2018-05-20T07:21:37.000Z</time>
      </trkpt>
      <trkpt lat="45.12144" lon="5.02427">
        <ele>330.39999389648</ele>
        <time>2018-05-20T07:21:42.000Z</time>
      </trkpt>
      <trkpt lat="45.12143" lon="5.02411">
        <ele>331.79998779297</ele>
        <time>2018-05-20T07:21:47.000Z</time>
      </trkpt>
      <trkpt lat="45.12143" lon="5.02408">
        <ele>332</ele>
        <time>2018-05-20T07:21:48.000Z</time>
      </trkpt>
      <trkpt lat="45.12143" lon="5.02398">
        <ele>333.20001220703</ele>
        <time>2018-05-20T07:21:52.000Z</time>
      </trkpt>
      <trkpt lat="45.12143" lon="5.0239">
        <ele>334</ele>
        <time>2018-05-20T07:21:55.000Z</time>
      </trkpt>
      <trkpt lat="45.12143" lon="5.02388">
        <ele>334.20001220703</ele>
        <time>2018-05-20T07:21:56.000Z</time>
      </trkpt>
      <trkpt lat="45.1213" lon="5.02376">
        <ele>334.20001220703</ele>
        <time>2018-05-20T07:22:04.000Z</time>
      </trkpt>
      <trkpt lat="45.12125" lon="5.02374">
        <ele>334.20001220703</ele>
        <time>2018-05-20T07:22:06.000Z</time>
      </trkpt>
      <trkpt lat="45.12114" lon="5.02369">
        <ele>334.39999389648</ele>
        <time>2018-05-20T07:22:11.000Z</time>
      </trkpt>
      <trkpt lat="45.12112" lon="5.02369">
        <ele>334.39999389648</ele>
        <time>2018-05-20T07:22:12.000Z</time>
      </trkpt>
      <trkpt lat="45.12095" lon="5.02369">
        <ele>334</ele>
        <time>2018-05-20T07:22:18.000Z</time>
      </trkpt>
      <trkpt lat="45.12093" lon="5.02369">
        <ele>333.79998779297</ele>
        <time>2018-05-20T07:22:19.000Z</time>
      </trkpt>
      <trkpt lat="45.12078" lon="5.02372">
        <ele>332.79998779297</ele>
        <time>2018-05-20T07:22:25.000Z</time>
      </trkpt>
      <trkpt lat="45.12077" lon="5.02372">
        <ele>332.79998779297</ele>
        <time>2018-05-20T07:22:26.000Z</time>
      </trkpt>
      <trkpt lat="45.12069" lon="5.02375">
        <ele>332.39999389648</ele>
        <time>2018-05-20T07:22:30.000Z</time>
      </trkpt>
      <trkpt lat="45.1206" lon="5.02377">
        <ele>332.79998779297</ele>
        <time>2018-05-20T07:22:34.000Z</time>
      </trkpt>
      <trkpt lat="45.12057" lon="5.02378">
        <ele>333</ele>
        <time>2018-05-20T07:22:35.000Z</time>
      </trkpt>
      <trkpt lat="45.12045" lon="5.02379">
        <ele>333.60000610352</ele>
        <time>2018-05-20T07:22:40.000Z</time>
      </trkpt>
      <trkpt lat="45.12033" lon="5.0238">
        <ele>334.79998779297</ele>
        <time>2018-05-20T07:22:45.000Z</time>
      </trkpt>
      <trkpt lat="45.12025" lon="5.0238">
        <ele>335.60000610352</ele>
        <time>2018-05-20T07:22:48.000Z</time>
      </trkpt>
      <trkpt lat="45.12021" lon="5.0238">
        <ele>336</ele>
        <time>2018-05-20T07:22:50.000Z</time>
      </trkpt>
      <trkpt lat="45.12009" lon="5.02377">
        <ele>337.20001220703</ele>
        <time>2018-05-20T07:22:55.000Z</time>
      </trkpt>
      <trkpt lat="45.11992" lon="5.02376">
        <ele>338</ele>
        <time>2018-05-20T07:23:01.000Z</time>
      </trkpt>
      <trkpt lat="45.1199" lon="5.02376">
        <ele>338</ele>
        <time>2018-05-20T07:23:02.000Z</time>
      </trkpt>
      <trkpt lat="45.11977" lon="5.02376">
        <ele>338</ele>
        <time>2018-05-20T07:23:07.000Z</time>
      </trkpt>
      <trkpt lat="45.11959" lon="5.02375">
        <ele>338</ele>
        <time>2018-05-20T07:23:13.000Z</time>
      </trkpt>
      <trkpt lat="45.11937" lon="5.02364">
        <ele>338.79998779297</ele>
        <time>2018-05-20T07:23:18.000Z</time>
      </trkpt>
      <trkpt lat="45.1193" lon="5.02355">
        <ele>339.79998779297</ele>
        <time>2018-05-20T07:23:20.000Z</time>
      </trkpt>
      <trkpt lat="45.11925" lon="5.02346">
        <ele>341</ele>
        <time>2018-05-20T07:23:22.000Z</time>
      </trkpt>
      <trkpt lat="45.11912" lon="5.02324">
        <ele>344</ele>
        <time>2018-05-20T07:23:27.000Z</time>
      </trkpt>
      <trkpt lat="45.11909" lon="5.02315">
        <ele>344.79998779297</ele>
        <time>2018-05-20T07:23:29.000Z</time>
      </trkpt>
      <trkpt lat="45.11905" lon="5.02306">
        <ele>345.39999389648</ele>
        <time>2018-05-20T07:23:31.000Z</time>
      </trkpt>
      <trkpt lat="45.11902" lon="5.02294">
        <ele>346</ele>
        <time>2018-05-20T07:23:34.000Z</time>
      </trkpt>
      <trkpt lat="45.11901" lon="5.02289">
        <ele>346</ele>
        <time>2018-05-20T07:23:35.000Z</time>
      </trkpt>
      <trkpt lat="45.11899" lon="5.02273">
        <ele>346.79998779297</ele>
        <time>2018-05-20T07:23:39.000Z</time>
      </trkpt>
      <trkpt lat="45.119" lon="5.02263">
        <ele>347.79998779297</ele>
        <time>2018-05-20T07:23:41.000Z</time>
      </trkpt>
      <trkpt lat="45.11899" lon="5.02228">
        <ele>348.20001220703</ele>
        <time>2018-05-20T07:23:47.000Z</time>
      </trkpt>
      <trkpt lat="45.11897" lon="5.022">
        <ele>350</ele>
        <time>2018-05-20T07:23:53.000Z</time>
      </trkpt>
      <trkpt lat="45.11894" lon="5.02161">
        <ele>352.39999389648</ele>
        <time>2018-05-20T07:24:01.000Z</time>
      </trkpt>
      <trkpt lat="45.1189" lon="5.02116">
        <ele>352.79998779297</ele>
        <time>2018-05-20T07:24:09.000Z</time>
      </trkpt>
      <trkpt lat="45.11893" lon="5.02074">
        <ele>349</ele>
        <time>2018-05-20T07:24:15.000Z</time>
      </trkpt>
      <trkpt lat="45.11899" lon="5.02043">
        <ele>343.60000610352</ele>
        <time>2018-05-20T07:24:19.000Z</time>
      </trkpt>
      <trkpt lat="45.11895" lon="5.02036">
        <ele>341.79998779297</ele>
        <time>2018-05-20T07:24:20.000Z</time>
      </trkpt>
      <trkpt lat="45.1189" lon="5.02029">
        <ele>340</ele>
        <time>2018-05-20T07:24:21.000Z</time>
      </trkpt>
      <trkpt lat="45.11886" lon="5.02022">
        <ele>338.20001220703</ele>
        <time>2018-05-20T07:24:22.000Z</time>
      </trkpt>
      <trkpt lat="45.11883" lon="5.02014">
        <ele>336.20001220703</ele>
        <time>2018-05-20T07:24:23.000Z</time>
      </trkpt>
      <trkpt lat="45.1188" lon="5.02009">
        <ele>335</ele>
        <time>2018-05-20T07:24:24.000Z</time>
      </trkpt>
      <trkpt lat="45.11876" lon="5.02004">
        <ele>334.20001220703</ele>
        <time>2018-05-20T07:24:25.000Z</time>
      </trkpt>
      <trkpt lat="45.11871" lon="5.02002">
        <ele>333.79998779297</ele>
        <time>2018-05-20T07:24:26.000Z</time>
      </trkpt>
      <trkpt lat="45.11867" lon="5.01995">
        <ele>332.60000610352</ele>
        <time>2018-05-20T07:24:28.000Z</time>
      </trkpt>
      <trkpt lat="45.11856" lon="5.01983">
        <ele>330.79998779297</ele>
        <time>2018-05-20T07:24:30.000Z</time>
      </trkpt>
      <trkpt lat="45.11849" lon="5.01966">
        <ele>329.39999389648</ele>
        <time>2018-05-20T07:24:32.000Z</time>
      </trkpt>
      <trkpt lat="45.11847" lon="5.01957">
        <ele>328.79998779297</ele>
        <time>2018-05-20T07:24:33.000Z</time>
      </trkpt>
      <trkpt lat="45.11846" lon="5.01949">
        <ele>328</ele>
        <time>2018-05-20T07:24:34.000Z</time>
      </trkpt>
      <trkpt lat="45.11844" lon="5.01935">
        <ele>326.39999389648</ele>
        <time>2018-05-20T07:24:36.000Z</time>
      </trkpt>
      <trkpt lat="45.11837" lon="5.01929">
        <ele>326</ele>
        <time>2018-05-20T07:24:38.000Z</time>
      </trkpt>
      <trkpt lat="45.11833" lon="5.01929">
        <ele>326</ele>
        <time>2018-05-20T07:24:39.000Z</time>
      </trkpt>
      <trkpt lat="45.1182" lon="5.01927">
        <ele>325.79998779297</ele>
        <time>2018-05-20T07:24:42.000Z</time>
      </trkpt>
      <trkpt lat="45.11816" lon="5.01926">
        <ele>325.39999389648</ele>
        <time>2018-05-20T07:24:43.000Z</time>
      </trkpt>
      <trkpt lat="45.11808" lon="5.01922">
        <ele>324.79998779297</ele>
        <time>2018-05-20T07:24:46.000Z</time>
      </trkpt>
      <trkpt lat="45.118" lon="5.01918">
        <ele>324.20001220703</ele>
        <time>2018-05-20T07:24:48.000Z</time>
      </trkpt>
      <trkpt lat="45.11782" lon="5.01911">
        <ele>322.60000610352</ele>
        <time>2018-05-20T07:24:52.000Z</time>
      </trkpt>
      <trkpt lat="45.11776" lon="5.01909">
        <ele>322</ele>
        <time>2018-05-20T07:24:53.000Z</time>
      </trkpt>
      <trkpt lat="45.11771" lon="5.01904">
        <ele>321.39999389648</ele>
        <time>2018-05-20T07:24:54.000Z</time>
      </trkpt>
      <trkpt lat="45.11763" lon="5.01895">
        <ele>321.39999389648</ele>
        <time>2018-05-20T07:24:56.000Z</time>
      </trkpt>
      <trkpt lat="45.11758" lon="5.01889">
        <ele>321.39999389648</ele>
        <time>2018-05-20T07:24:57.000Z</time>
      </trkpt>
      <trkpt lat="45.11753" lon="5.01884">
        <ele>321.39999389648</ele>
        <time>2018-05-20T07:24:58.000Z</time>
      </trkpt>
      <trkpt lat="45.11744" lon="5.01874">
        <ele>321.60000610352</ele>
        <time>2018-05-20T07:25:01.000Z</time>
      </trkpt>
      <trkpt lat="45.11739" lon="5.01866">
        <ele>323.20001220703</ele>
        <time>2018-05-20T07:25:05.000Z</time>
      </trkpt>
      <trkpt lat="45.11735" lon="5.01858">
        <ele>324.39999389648</ele>
        <time>2018-05-20T07:25:09.000Z</time>
      </trkpt>
      <trkpt lat="45.11731" lon="5.01852">
        <ele>325.20001220703</ele>
        <time>2018-05-20T07:25:12.000Z</time>
      </trkpt>
      <trkpt lat="45.11725" lon="5.01845">
        <ele>325.79998779297</ele>
        <time>2018-05-20T07:25:15.000Z</time>
      </trkpt>
      <trkpt lat="45.11723" lon="5.01843">
        <ele>325.79998779297</ele>
        <time>2018-05-20T07:25:16.000Z</time>
      </trkpt>
      <trkpt lat="45.11715" lon="5.01835">
        <ele>326.20001220703</ele>
        <time>2018-05-20T07:25:20.000Z</time>
      </trkpt>
      <trkpt lat="45.11712" lon="5.01831">
        <ele>326.39999389648</ele>
        <time>2018-05-20T07:25:22.000Z</time>
      </trkpt>
      <trkpt lat="45.11706" lon="5.01826">
        <ele>326.39999389648</ele>
        <time>2018-05-20T07:25:25.000Z</time>
      </trkpt>
      <trkpt lat="45.117" lon="5.01816">
        <ele>326.79998779297</ele>
        <time>2018-05-20T07:25:29.000Z</time>
      </trkpt>
      <trkpt lat="45.11686" lon="5.01793">
        <ele>327.20001220703</ele>
        <time>2018-05-20T07:25:36.000Z</time>
      </trkpt>
      <trkpt lat="45.11683" lon="5.01791">
        <ele>327</ele>
        <time>2018-05-20T07:25:37.000Z</time>
      </trkpt>
      <trkpt lat="45.11671" lon="5.01789">
        <ele>326</ele>
        <time>2018-05-20T07:25:40.000Z</time>
      </trkpt>
      <trkpt lat="45.11646" lon="5.01783">
        <ele>323.60000610352</ele>
        <time>2018-05-20T07:25:46.000Z</time>
      </trkpt>
      <trkpt lat="45.11629" lon="5.01773">
        <ele>322.39999389648</ele>
        <time>2018-05-20T07:25:51.000Z</time>
      </trkpt>
      <trkpt lat="45.11615" lon="5.01754">
        <ele>323.60000610352</ele>
        <time>2018-05-20T07:25:56.000Z</time>
      </trkpt>
      <trkpt lat="45.11598" lon="5.01723">
        <ele>325.20001220703</ele>
        <time>2018-05-20T07:26:02.000Z</time>
      </trkpt>
      <trkpt lat="45.11586" lon="5.017">
        <ele>326</ele>
        <time>2018-05-20T07:26:07.000Z</time>
      </trkpt>
      <trkpt lat="45.11576" lon="5.0169">
        <ele>326.79998779297</ele>
        <time>2018-05-20T07:26:11.000Z</time>
      </trkpt>
      <trkpt lat="45.11564" lon="5.01677">
        <ele>327.60000610352</ele>
        <time>2018-05-20T07:26:16.000Z</time>
      </trkpt>
      <trkpt lat="45.11561" lon="5.01672">
        <ele>327.60000610352</ele>
        <time>2018-05-20T07:26:17.000Z</time>
      </trkpt>
      <trkpt lat="45.11543" lon="5.01645">
        <ele>327.20001220703</ele>
        <time>2018-05-20T07:26:23.000Z</time>
      </trkpt>
      <trkpt lat="45.11528" lon="5.01616">
        <ele>325.20001220703</ele>
        <time>2018-05-20T07:26:26.000Z</time>
      </trkpt>
      <trkpt lat="45.1152" lon="5.01598">
        <ele>323.79998779297</ele>
        <time>2018-05-20T07:26:28.000Z</time>
      </trkpt>
      <trkpt lat="45.11515" lon="5.01591">
        <ele>323.20001220703</ele>
        <time>2018-05-20T07:26:29.000Z</time>
      </trkpt>
      <trkpt lat="45.11509" lon="5.01584">
        <ele>322.39999389648</ele>
        <time>2018-05-20T07:26:30.000Z</time>
      </trkpt>
      <trkpt lat="45.11507" lon="5.01575">
        <ele>321.60000610352</ele>
        <time>2018-05-20T07:26:31.000Z</time>
      </trkpt>
      <trkpt lat="45.11502" lon="5.01558">
        <ele>320.20001220703</ele>
        <time>2018-05-20T07:26:33.000Z</time>
      </trkpt>
      <trkpt lat="45.11501" lon="5.01551">
        <ele>319.39999389648</ele>
        <time>2018-05-20T07:26:34.000Z</time>
      </trkpt>
      <trkpt lat="45.11503" lon="5.01531">
        <ele>317.20001220703</ele>
        <time>2018-05-20T07:26:36.000Z</time>
      </trkpt>
      <trkpt lat="45.11506" lon="5.01509">
        <ele>315.39999389648</ele>
        <time>2018-05-20T07:26:38.000Z</time>
      </trkpt>
      <trkpt lat="45.11508" lon="5.01498">
        <ele>314.20001220703</ele>
        <time>2018-05-20T07:26:39.000Z</time>
      </trkpt>
      <trkpt lat="45.11509" lon="5.01487">
        <ele>313</ele>
        <time>2018-05-20T07:26:40.000Z</time>
      </trkpt>
      <trkpt lat="45.1151" lon="5.01478">
        <ele>311.20001220703</ele>
        <time>2018-05-20T07:26:41.000Z</time>
      </trkpt>
      <trkpt lat="45.11511" lon="5.01469">
        <ele>309.60000610352</ele>
        <time>2018-05-20T07:26:42.000Z</time>
      </trkpt>
      <trkpt lat="45.1151" lon="5.01461">
        <ele>308.20001220703</ele>
        <time>2018-05-20T07:26:43.000Z</time>
      </trkpt>
      <trkpt lat="45.11509" lon="5.01454">
        <ele>307</ele>
        <time>2018-05-20T07:26:44.000Z</time>
      </trkpt>
      <trkpt lat="45.11506" lon="5.01449">
        <ele>306.39999389648</ele>
        <time>2018-05-20T07:26:45.000Z</time>
      </trkpt>
      <trkpt lat="45.11504" lon="5.01443">
        <ele>305.79998779297</ele>
        <time>2018-05-20T07:26:46.000Z</time>
      </trkpt>
      <trkpt lat="45.115" lon="5.01436">
        <ele>305.39999389648</ele>
        <time>2018-05-20T07:26:47.000Z</time>
      </trkpt>
      <trkpt lat="45.115" lon="5.01428">
        <ele>304.60000610352</ele>
        <time>2018-05-20T07:26:48.000Z</time>
      </trkpt>
      <trkpt lat="45.11499" lon="5.01422">
        <ele>304</ele>
        <time>2018-05-20T07:26:49.000Z</time>
      </trkpt>
      <trkpt lat="45.11499" lon="5.01416">
        <ele>303.39999389648</ele>
        <time>2018-05-20T07:26:50.000Z</time>
      </trkpt>
      <trkpt lat="45.11504" lon="5.01405">
        <ele>301.79998779297</ele>
        <time>2018-05-20T07:26:52.000Z</time>
      </trkpt>
      <trkpt lat="45.11509" lon="5.01399">
        <ele>301</ele>
        <time>2018-05-20T07:26:53.000Z</time>
      </trkpt>
      <trkpt lat="45.1152" lon="5.01381">
        <ele>298.60000610352</ele>
        <time>2018-05-20T07:26:55.000Z</time>
      </trkpt>
      <trkpt lat="45.11541" lon="5.01353">
        <ele>294.79998779297</ele>
        <time>2018-05-20T07:26:58.000Z</time>
      </trkpt>
      <trkpt lat="45.11549" lon="5.01345">
        <ele>293.20001220703</ele>
        <time>2018-05-20T07:26:59.000Z</time>
      </trkpt>
      <trkpt lat="45.11557" lon="5.01336">
        <ele>291.39999389648</ele>
        <time>2018-05-20T07:27:00.000Z</time>
      </trkpt>
      <trkpt lat="45.11572" lon="5.01318">
        <ele>287.79998779297</ele>
        <time>2018-05-20T07:27:02.000Z</time>
      </trkpt>
      <trkpt lat="45.11578" lon="5.01309">
        <ele>284.39999389648</ele>
        <time>2018-05-20T07:27:03.000Z</time>
      </trkpt>
      <trkpt lat="45.11584" lon="5.013">
        <ele>281</ele>
        <time>2018-05-20T07:27:04.000Z</time>
      </trkpt>
      <trkpt lat="45.11589" lon="5.01292">
        <ele>277.79998779297</ele>
        <time>2018-05-20T07:27:05.000Z</time>
      </trkpt>
      <trkpt lat="45.11593" lon="5.01286">
        <ele>275.39999389648</ele>
        <time>2018-05-20T07:27:06.000Z</time>
      </trkpt>
      <trkpt lat="45.11595" lon="5.01281">
        <ele>273.39999389648</ele>
        <time>2018-05-20T07:27:07.000Z</time>
      </trkpt>
      <trkpt lat="45.11594" lon="5.01278">
        <ele>272.60000610352</ele>
        <time>2018-05-20T07:27:08.000Z</time>
      </trkpt>
      <trkpt lat="45.11591" lon="5.01275">
        <ele>272.60000610352</ele>
        <time>2018-05-20T07:27:09.000Z</time>
      </trkpt>
      <trkpt lat="45.11589" lon="5.01272">
        <ele>272.39999389648</ele>
        <time>2018-05-20T07:27:10.000Z</time>
      </trkpt>
      <trkpt lat="45.11586" lon="5.01269">
        <ele>272.79998779297</ele>
        <time>2018-05-20T07:27:11.000Z</time>
      </trkpt>
      <trkpt lat="45.11581" lon="5.01266">
        <ele>273.20001220703</ele>
        <time>2018-05-20T07:27:12.000Z</time>
      </trkpt>
      <trkpt lat="45.11575" lon="5.01261">
        <ele>273.60000610352</ele>
        <time>2018-05-20T07:27:13.000Z</time>
      </trkpt>
      <trkpt lat="45.11566" lon="5.0125">
        <ele>273.60000610352</ele>
        <time>2018-05-20T07:27:15.000Z</time>
      </trkpt>
      <trkpt lat="45.11562" lon="5.01244">
        <ele>272.79998779297</ele>
        <time>2018-05-20T07:27:16.000Z</time>
      </trkpt>
      <trkpt lat="45.11556" lon="5.01231">
        <ele>271.79998779297</ele>
        <time>2018-05-20T07:27:18.000Z</time>
      </trkpt>
      <trkpt lat="45.11545" lon="5.0119">
        <ele>268.79998779297</ele>
        <time>2018-05-20T07:27:23.000Z</time>
      </trkpt>
      <trkpt lat="45.11543" lon="5.01179">
        <ele>268.39999389648</ele>
        <time>2018-05-20T07:27:24.000Z</time>
      </trkpt>
      <trkpt lat="45.11538" lon="5.01146">
        <ele>266.79998779297</ele>
        <time>2018-05-20T07:27:27.000Z</time>
      </trkpt>
      <trkpt lat="45.11536" lon="5.01133">
        <ele>265.60000610352</ele>
        <time>2018-05-20T07:27:28.000Z</time>
      </trkpt>
      <trkpt lat="45.11534" lon="5.01122">
        <ele>264.79998779297</ele>
        <time>2018-05-20T07:27:29.000Z</time>
      </trkpt>
      <trkpt lat="45.11534" lon="5.01111">
        <ele>263.39999389648</ele>
        <time>2018-05-20T07:27:30.000Z</time>
      </trkpt>
      <trkpt lat="45.11539" lon="5.01103">
        <ele>262.20001220703</ele>
        <time>2018-05-20T07:27:31.000Z</time>
      </trkpt>
      <trkpt lat="45.11545" lon="5.01096">
        <ele>260.79998779297</ele>
        <time>2018-05-20T07:27:32.000Z</time>
      </trkpt>
      <trkpt lat="45.1155" lon="5.01088">
        <ele>259</ele>
        <time>2018-05-20T07:27:33.000Z</time>
      </trkpt>
      <trkpt lat="45.11555" lon="5.01078">
        <ele>256.79998779297</ele>
        <time>2018-05-20T07:27:34.000Z</time>
      </trkpt>
      <trkpt lat="45.1156" lon="5.01068">
        <ele>255.80000305176</ele>
        <time>2018-05-20T07:27:35.000Z</time>
      </trkpt>
      <trkpt lat="45.11565" lon="5.01057">
        <ele>254.80000305176</ele>
        <time>2018-05-20T07:27:36.000Z</time>
      </trkpt>
      <trkpt lat="45.1157" lon="5.01047">
        <ele>254.19999694824</ele>
        <time>2018-05-20T07:27:37.000Z</time>
      </trkpt>
      <trkpt lat="45.11576" lon="5.01037">
        <ele>253.19999694824</ele>
        <time>2018-05-20T07:27:38.000Z</time>
      </trkpt>
      <trkpt lat="45.11588" lon="5.01015">
        <ele>251</ele>
        <time>2018-05-20T07:27:40.000Z</time>
      </trkpt>
      <trkpt lat="45.116" lon="5.00992">
        <ele>249.19999694824</ele>
        <time>2018-05-20T07:27:42.000Z</time>
      </trkpt>
      <trkpt lat="45.11612" lon="5.0097">
        <ele>248</ele>
        <time>2018-05-20T07:27:44.000Z</time>
      </trkpt>
      <trkpt lat="45.11624" lon="5.00947">
        <ele>247</ele>
        <time>2018-05-20T07:27:46.000Z</time>
      </trkpt>
      <trkpt lat="45.11636" lon="5.00924">
        <ele>246.19999694824</ele>
        <time>2018-05-20T07:27:48.000Z</time>
      </trkpt>
      <trkpt lat="45.11647" lon="5.00901">
        <ele>245.19999694824</ele>
        <time>2018-05-20T07:27:50.000Z</time>
      </trkpt>
      <trkpt lat="45.11653" lon="5.00889">
        <ele>244.60000610352</ele>
        <time>2018-05-20T07:27:51.000Z</time>
      </trkpt>
      <trkpt lat="45.11659" lon="5.00879">
        <ele>244</ele>
        <time>2018-05-20T07:27:52.000Z</time>
      </trkpt>
      <trkpt lat="45.11669" lon="5.00858">
        <ele>241.39999389648</ele>
        <time>2018-05-20T07:27:54.000Z</time>
      </trkpt>
      <trkpt lat="45.11679" lon="5.00839">
        <ele>239.60000610352</ele>
        <time>2018-05-20T07:27:56.000Z</time>
      </trkpt>
      <trkpt lat="45.11683" lon="5.00831">
        <ele>238.80000305176</ele>
        <time>2018-05-20T07:27:57.000Z</time>
      </trkpt>
      <trkpt lat="45.11687" lon="5.00824">
        <ele>238</ele>
        <time>2018-05-20T07:27:58.000Z</time>
      </trkpt>
      <trkpt lat="45.11693" lon="5.00814">
        <ele>237.19999694824</ele>
        <time>2018-05-20T07:28:00.000Z</time>
      </trkpt>
      <trkpt lat="45.11694" lon="5.0081">
        <ele>236.80000305176</ele>
        <time>2018-05-20T07:28:01.000Z</time>
      </trkpt>
      <trkpt lat="45.11695" lon="5.00805">
        <ele>236.60000610352</ele>
        <time>2018-05-20T07:28:02.000Z</time>
      </trkpt>
      <trkpt lat="45.11693" lon="5.008">
        <ele>236.19999694824</ele>
        <time>2018-05-20T07:28:03.000Z</time>
      </trkpt>
      <trkpt lat="45.11691" lon="5.00795">
        <ele>236.19999694824</ele>
        <time>2018-05-20T07:28:04.000Z</time>
      </trkpt>
      <trkpt lat="45.11684" lon="5.00796">
        <ele>236.19999694824</ele>
        <time>2018-05-20T07:28:07.000Z</time>
      </trkpt>
      <trkpt lat="45.11687" lon="5.00798">
        <ele>236.39999389648</ele>
        <time>2018-05-20T07:28:08.000Z</time>
      </trkpt>
      <trkpt lat="45.1169" lon="5.00797">
        <ele>236.19999694824</ele>
        <time>2018-05-20T07:28:09.000Z</time>
      </trkpt>
      <trkpt lat="45.11694" lon="5.00797">
        <ele>236.19999694824</ele>
        <time>2018-05-20T07:28:10.000Z</time>
      </trkpt>
      <trkpt lat="45.11706" lon="5.00791">
        <ele>236</ele>
        <time>2018-05-20T07:28:13.000Z</time>
      </trkpt>
      <trkpt lat="45.11716" lon="5.00769">
        <ele>234.19999694824</ele>
        <time>2018-05-20T07:28:16.000Z</time>
      </trkpt>
      <trkpt lat="45.11728" lon="5.00744">
        <ele>233.19999694824</ele>
        <time>2018-05-20T07:28:19.000Z</time>
      </trkpt>
      <trkpt lat="45.11744" lon="5.00711">
        <ele>232</ele>
        <time>2018-05-20T07:28:23.000Z</time>
      </trkpt>
      <trkpt lat="45.11757" lon="5.00686">
        <ele>232.39999389648</ele>
        <time>2018-05-20T07:28:26.000Z</time>
      </trkpt>
      <trkpt lat="45.11774" lon="5.00653">
        <ele>232.80000305176</ele>
        <time>2018-05-20T07:28:30.000Z</time>
      </trkpt>
      <trkpt lat="45.11778" lon="5.00644">
        <ele>233</ele>
        <time>2018-05-20T07:28:31.000Z</time>
      </trkpt>
      <trkpt lat="45.11803" lon="5.00596">
        <ele>231.80000305176</ele>
        <time>2018-05-20T07:28:37.000Z</time>
      </trkpt>
      <trkpt lat="45.11815" lon="5.00572">
        <ele>231.19999694824</ele>
        <time>2018-05-20T07:28:40.000Z</time>
      </trkpt>
      <trkpt lat="45.11824" lon="5.00553">
        <ele>231</ele>
        <time>2018-05-20T07:28:43.000Z</time>
      </trkpt>
      <trkpt lat="45.11826" lon="5.00551">
        <ele>231</ele>
        <time>2018-05-20T07:28:44.000Z</time>
      </trkpt>
      <trkpt lat="45.1183" lon="5.00551">
        <ele>231</ele>
        <time>2018-05-20T07:28:46.000Z</time>
      </trkpt>
      <trkpt lat="45.11831" lon="5.00555">
        <ele>231</ele>
        <time>2018-05-20T07:28:47.000Z</time>
      </trkpt>
      <trkpt lat="45.11838" lon="5.00568">
        <ele>231</ele>
        <time>2018-05-20T07:28:51.000Z</time>
      </trkpt>
      <trkpt lat="45.11843" lon="5.00576">
        <ele>231.19999694824</ele>
        <time>2018-05-20T07:28:53.000Z</time>
      </trkpt>
      <trkpt lat="45.11854" lon="5.00591">
        <ele>231.80000305176</ele>
        <time>2018-05-20T07:28:57.000Z</time>
      </trkpt>
      <trkpt lat="45.11876" lon="5.00622">
        <ele>232</ele>
        <time>2018-05-20T07:29:04.000Z</time>
      </trkpt>
      <trkpt lat="45.11904" lon="5.00663">
        <ele>231.60000610352</ele>
        <time>2018-05-20T07:29:12.000Z</time>
      </trkpt>
      <trkpt lat="45.11931" lon="5.00701">
        <ele>231.80000305176</ele>
        <time>2018-05-20T07:29:19.000Z</time>
      </trkpt>
      <trkpt lat="45.11945" lon="5.00714">
        <ele>232</ele>
        <time>2018-05-20T07:29:22.000Z</time>
      </trkpt>
      <trkpt lat="45.1196" lon="5.00723">
        <ele>232</ele>
        <time>2018-05-20T07:29:25.000Z</time>
      </trkpt>
      <trkpt lat="45.12" lon="5.00741">
        <ele>232.60000610352</ele>
        <time>2018-05-20T07:29:33.000Z</time>
      </trkpt>
      <trkpt lat="45.12018" lon="5.00743">
        <ele>232</ele>
        <time>2018-05-20T07:29:38.000Z</time>
      </trkpt>
      <trkpt lat="45.12019" lon="5.00741">
        <ele>232</ele>
        <time>2018-05-20T07:29:39.000Z</time>
      </trkpt>
      <trkpt lat="45.12023" lon="5.00738">
        <ele>231.80000305176</ele>
        <time>2018-05-20T07:30:50.000Z</time>
      </trkpt>
      <trkpt lat="45.12022" lon="5.00734">
        <ele>231.80000305176</ele>
        <time>2018-05-20T07:30:52.000Z</time>
      </trkpt>
      <trkpt lat="45.12022" lon="5.00726">
        <ele>231.39999389648</ele>
        <time>2018-05-20T07:30:56.000Z</time>
      </trkpt>
      <trkpt lat="45.12022" lon="5.00724">
        <ele>231.39999389648</ele>
        <time>2018-05-20T07:30:57.000Z</time>
      </trkpt>
      <trkpt lat="45.12025" lon="5.00707">
        <ele>231</ele>
        <time>2018-05-20T07:31:04.000Z</time>
      </trkpt>
      <trkpt lat="45.12026" lon="5.00695">
        <ele>230.60000610352</ele>
        <time>2018-05-20T07:31:09.000Z</time>
      </trkpt>
      <trkpt lat="45.12027" lon="5.00677">
        <ele>230.19999694824</ele>
        <time>2018-05-20T07:31:16.000Z</time>
      </trkpt>
      <trkpt lat="45.1203" lon="5.00658">
        <ele>230</ele>
        <time>2018-05-20T07:31:23.000Z</time>
      </trkpt>
      <trkpt lat="45.12034" lon="5.00627">
        <ele>231.19999694824</ele>
        <time>2018-05-20T07:31:31.000Z</time>
      </trkpt>
      <trkpt lat="45.12039" lon="5.00581">
        <ele>233.19999694824</ele>
        <time>2018-05-20T07:31:40.000Z</time>
      </trkpt>
      <trkpt lat="45.12043" lon="5.00547">
        <ele>233</ele>
        <time>2018-05-20T07:31:46.000Z</time>
      </trkpt>
      <trkpt lat="45.12043" lon="5.00529">
        <ele>232.80000305176</ele>
        <time>2018-05-20T07:31:49.000Z</time>
      </trkpt>
      <trkpt lat="45.12042" lon="5.00523">
        <ele>232.60000610352</ele>
        <time>2018-05-20T07:31:50.000Z</time>
      </trkpt>
      <trkpt lat="45.12035" lon="5.00498">
        <ele>232</ele>
        <time>2018-05-20T07:31:54.000Z</time>
      </trkpt>
      <trkpt lat="45.12019" lon="5.00456">
        <ele>231.39999389648</ele>
        <time>2018-05-20T07:32:01.000Z</time>
      </trkpt>
      <trkpt lat="45.12011" lon="5.00437">
        <ele>231.60000610352</ele>
        <time>2018-05-20T07:32:04.000Z</time>
      </trkpt>
      <trkpt lat="45.12003" lon="5.00417">
        <ele>231.39999389648</ele>
        <time>2018-05-20T07:32:07.000Z</time>
      </trkpt>
      <trkpt lat="45.12001" lon="5.0041">
        <ele>231.80000305176</ele>
        <time>2018-05-20T07:32:08.000Z</time>
      </trkpt>
      <trkpt lat="45.12" lon="5.00402">
        <ele>232.19999694824</ele>
        <time>2018-05-20T07:32:09.000Z</time>
      </trkpt>
      <trkpt lat="45.11997" lon="5.00385">
        <ele>232.39999389648</ele>
        <time>2018-05-20T07:32:11.000Z</time>
      </trkpt>
      <trkpt lat="45.11995" lon="5.00367">
        <ele>232.60000610352</ele>
        <time>2018-05-20T07:32:13.000Z</time>
      </trkpt>
      <trkpt lat="45.11991" lon="5.00349">
        <ele>232.19999694824</ele>
        <time>2018-05-20T07:32:15.000Z</time>
      </trkpt>
      <trkpt lat="45.11988" lon="5.0034">
        <ele>232.19999694824</ele>
        <time>2018-05-20T07:32:16.000Z</time>
      </trkpt>
      <trkpt lat="45.11973" lon="5.00305">
        <ele>232.19999694824</ele>
        <time>2018-05-20T07:32:20.000Z</time>
      </trkpt>
      <trkpt lat="45.11962" lon="5.00284">
        <ele>231.60000610352</ele>
        <time>2018-05-20T07:32:23.000Z</time>
      </trkpt>
      <trkpt lat="45.11955" lon="5.00271">
        <ele>231.80000305176</ele>
        <time>2018-05-20T07:32:25.000Z</time>
      </trkpt>
      <trkpt lat="45.1194" lon="5.00248">
        <ele>231.19999694824</ele>
        <time>2018-05-20T07:32:29.000Z</time>
      </trkpt>
      <trkpt lat="45.11936" lon="5.00243">
        <ele>231</ele>
        <time>2018-05-20T07:32:30.000Z</time>
      </trkpt>
      <trkpt lat="45.11914" lon="5.00209">
        <ele>230.80000305176</ele>
        <time>2018-05-20T07:32:37.000Z</time>
      </trkpt>
      <trkpt lat="45.11904" lon="5.00185">
        <ele>229.80000305176</ele>
        <time>2018-05-20T07:32:42.000Z</time>
      </trkpt>
      <trkpt lat="45.11903" lon="5.00179">
        <ele>229.60000610352</ele>
        <time>2018-05-20T07:32:43.000Z</time>
      </trkpt>
      <trkpt lat="45.11905" lon="5.00157">
        <ele>229.80000305176</ele>
        <time>2018-05-20T07:32:47.000Z</time>
      </trkpt>
      <trkpt lat="45.11906" lon="5.00153">
        <ele>230</ele>
        <time>2018-05-20T07:32:48.000Z</time>
      </trkpt>
      <trkpt lat="45.11919" lon="5.00127">
        <ele>231.19999694824</ele>
        <time>2018-05-20T07:32:53.000Z</time>
      </trkpt>
      <trkpt lat="45.11924" lon="5.00116">
        <ele>232.19999694824</ele>
        <time>2018-05-20T07:32:55.000Z</time>
      </trkpt>
      <trkpt lat="45.11932" lon="5.00096">
        <ele>233.60000610352</ele>
        <time>2018-05-20T07:32:58.000Z</time>
      </trkpt>
      <trkpt lat="45.11943" lon="5.00058">
        <ele>233.39999389648</ele>
        <time>2018-05-20T07:33:03.000Z</time>
      </trkpt>
      <trkpt lat="45.11945" lon="5.00049">
        <ele>233.39999389648</ele>
        <time>2018-05-20T07:33:04.000Z</time>
      </trkpt>
      <trkpt lat="45.11959" lon="4.99993">
        <ele>231.39999389648</ele>
        <time>2018-05-20T07:33:10.000Z</time>
      </trkpt>
      <trkpt lat="45.11961" lon="4.99982">
        <ele>225.60000610352</ele>
        <time>2018-05-20T07:33:11.000Z</time>
      </trkpt>
      <trkpt lat="45.11961" lon="4.99947">
        <ele>221.19999694824</ele>
        <time>2018-05-20T07:33:14.000Z</time>
      </trkpt>
      <trkpt lat="45.11961" lon="4.99907">
        <ele>216.39999389648</ele>
        <time>2018-05-20T07:33:17.000Z</time>
      </trkpt>
      <trkpt lat="45.11963" lon="4.99882">
        <ele>212.80000305176</ele>
        <time>2018-05-20T07:33:19.000Z</time>
      </trkpt>
      <trkpt lat="45.11963" lon="4.99872">
        <ele>211.80000305176</ele>
        <time>2018-05-20T07:33:20.000Z</time>
      </trkpt>
      <trkpt lat="45.11966" lon="4.99853">
        <ele>210.80000305176</ele>
        <time>2018-05-20T07:33:22.000Z</time>
      </trkpt>
      <trkpt lat="45.11967" lon="4.99842">
        <ele>210.39999389648</ele>
        <time>2018-05-20T07:33:23.000Z</time>
      </trkpt>
      <trkpt lat="45.11967" lon="4.99832">
        <ele>210</ele>
        <time>2018-05-20T07:33:24.000Z</time>
      </trkpt>
      <trkpt lat="45.11967" lon="4.99823">
        <ele>209.80000305176</ele>
        <time>2018-05-20T07:33:25.000Z</time>
      </trkpt>
      <trkpt lat="45.11967" lon="4.99804">
        <ele>209.19999694824</ele>
        <time>2018-05-20T07:33:27.000Z</time>
      </trkpt>
      <trkpt lat="45.11968" lon="4.99786">
        <ele>208.60000610352</ele>
        <time>2018-05-20T07:33:29.000Z</time>
      </trkpt>
      <trkpt lat="45.11968" lon="4.99754">
        <ele>207.39999389648</ele>
        <time>2018-05-20T07:33:33.000Z</time>
      </trkpt>
      <trkpt lat="45.11968" lon="4.99732">
        <ele>207</ele>
        <time>2018-05-20T07:33:37.000Z</time>
      </trkpt>
      <trkpt lat="45.11975" lon="4.99713">
        <ele>207</ele>
        <time>2018-05-20T07:33:42.000Z</time>
      </trkpt>
      <trkpt lat="45.11991" lon="4.99682">
        <ele>207</ele>
        <time>2018-05-20T07:33:49.000Z</time>
      </trkpt>
      <trkpt lat="45.12013" lon="4.99642">
        <ele>208.19999694824</ele>
        <time>2018-05-20T07:33:57.000Z</time>
      </trkpt>
      <trkpt lat="45.1204" lon="4.99592">
        <ele>208</ele>
        <time>2018-05-20T07:34:06.000Z</time>
      </trkpt>
      <trkpt lat="45.12075" lon="4.99531">
        <ele>206.39999389648</ele>
        <time>2018-05-20T07:34:17.000Z</time>
      </trkpt>
      <trkpt lat="45.12104" lon="4.99479">
        <ele>209</ele>
        <time>2018-05-20T07:34:26.000Z</time>
      </trkpt>
      <trkpt lat="45.12112" lon="4.99462">
        <ele>209</ele>
        <time>2018-05-20T07:34:29.000Z</time>
      </trkpt>
      <trkpt lat="45.12112" lon="4.99457">
        <ele>209</ele>
        <time>2018-05-20T07:34:30.000Z</time>
      </trkpt>
      <trkpt lat="45.1211" lon="4.99455">
        <ele>209</ele>
        <time>2018-05-20T07:34:31.000Z</time>
      </trkpt>
      <trkpt lat="45.12107" lon="4.99456">
        <ele>209</ele>
        <time>2018-05-20T07:34:32.000Z</time>
      </trkpt>
      <trkpt lat="45.12102" lon="4.99465">
        <ele>209</ele>
        <time>2018-05-20T07:34:34.000Z</time>
      </trkpt>
      <trkpt lat="45.12096" lon="4.99475">
        <ele>208.80000305176</ele>
        <time>2018-05-20T07:34:36.000Z</time>
      </trkpt>
      <trkpt lat="45.12092" lon="4.9948">
        <ele>208.60000610352</ele>
        <time>2018-05-20T07:34:37.000Z</time>
      </trkpt>
      <trkpt lat="45.1207" lon="4.99513">
        <ele>207</ele>
        <time>2018-05-20T07:34:43.000Z</time>
      </trkpt>
      <trkpt lat="45.12065" lon="4.99518">
        <ele>206.80000305176</ele>
        <time>2018-05-20T07:34:44.000Z</time>
      </trkpt>
      <trkpt lat="45.12049" lon="4.99519">
        <ele>206.80000305176</ele>
        <time>2018-05-20T07:34:47.000Z</time>
      </trkpt>
      <trkpt lat="45.12035" lon="4.99505">
        <ele>206.60000610352</ele>
        <time>2018-05-20T07:34:50.000Z</time>
      </trkpt>
      <trkpt lat="45.1201" lon="4.99479">
        <ele>205.80000305176</ele>
        <time>2018-05-20T07:34:55.000Z</time>
      </trkpt>
      <trkpt lat="45.11984" lon="4.99456">
        <ele>205</ele>
        <time>2018-05-20T07:35:00.000Z</time>
      </trkpt>
      <trkpt lat="45.11968" lon="4.99444">
        <ele>205</ele>
        <time>2018-05-20T07:35:03.000Z</time>
      </trkpt>
      <trkpt lat="45.11942" lon="4.99425">
        <ele>205.80000305176</ele>
        <time>2018-05-20T07:35:09.000Z</time>
      </trkpt>
      <trkpt lat="45.11937" lon="4.99423">
        <ele>205.80000305176</ele>
        <time>2018-05-20T07:35:10.000Z</time>
      </trkpt>
      <trkpt lat="45.11912" lon="4.99414">
        <ele>206.60000610352</ele>
        <time>2018-05-20T07:35:15.000Z</time>
      </trkpt>
      <trkpt lat="45.11902" lon="4.99407">
        <ele>206.80000305176</ele>
        <time>2018-05-20T07:35:17.000Z</time>
      </trkpt>
      <trkpt lat="45.11858" lon="4.99375">
        <ele>206</ele>
        <time>2018-05-20T07:35:26.000Z</time>
      </trkpt>
      <trkpt lat="45.11827" lon="4.99351">
        <ele>206</ele>
        <time>2018-05-20T07:35:32.000Z</time>
      </trkpt>
      <trkpt lat="45.11823" lon="4.99345">
        <ele>206</ele>
        <time>2018-05-20T07:35:33.000Z</time>
      </trkpt>
      <trkpt lat="45.11814" lon="4.99324">
        <ele>204.80000305176</ele>
        <time>2018-05-20T07:35:36.000Z</time>
      </trkpt>
      <trkpt lat="45.11808" lon="4.99309">
        <ele>204.19999694824</ele>
        <time>2018-05-20T07:35:38.000Z</time>
      </trkpt>
      <trkpt lat="45.11796" lon="4.99281">
        <ele>202.60000610352</ele>
        <time>2018-05-20T07:35:42.000Z</time>
      </trkpt>
      <trkpt lat="45.11794" lon="4.99273">
        <ele>202.39999389648</ele>
        <time>2018-05-20T07:35:43.000Z</time>
      </trkpt>
      <trkpt lat="45.11792" lon="4.99265">
        <ele>202.19999694824</ele>
        <time>2018-05-20T07:35:44.000Z</time>
      </trkpt>
      <trkpt lat="45.11793" lon="4.99249">
        <ele>202.19999694824</ele>
        <time>2018-05-20T07:35:46.000Z</time>
      </trkpt>
      <trkpt lat="45.11794" lon="4.99232">
        <ele>202.19999694824</ele>
        <time>2018-05-20T07:35:48.000Z</time>
      </trkpt>
      <trkpt lat="45.118" lon="4.99178">
        <ele>203.19999694824</ele>
        <time>2018-05-20T07:35:55.000Z</time>
      </trkpt>
      <trkpt lat="45.11801" lon="4.99172">
        <ele>203.19999694824</ele>
        <time>2018-05-20T07:35:56.000Z</time>
      </trkpt>
      <trkpt lat="45.11801" lon="4.99158">
        <ele>203.19999694824</ele>
        <time>2018-05-20T07:35:58.000Z</time>
      </trkpt>
      <trkpt lat="45.11799" lon="4.99153">
        <ele>203.19999694824</ele>
        <time>2018-05-20T07:35:59.000Z</time>
      </trkpt>
      <trkpt lat="45.11797" lon="4.9915">
        <ele>203</ele>
        <time>2018-05-20T07:36:02.000Z</time>
      </trkpt>
      <trkpt lat="45.11797" lon="4.99155">
        <ele>203</ele>
        <time>2018-05-20T07:36:05.000Z</time>
      </trkpt>
      <trkpt lat="45.11798" lon="4.99156">
        <ele>203.19999694824</ele>
        <time>2018-05-20T07:36:06.000Z</time>
      </trkpt>
      <trkpt lat="45.11798" lon="4.99158">
        <ele>203.19999694824</ele>
        <time>2018-05-20T07:36:07.000Z</time>
      </trkpt>
      <trkpt lat="45.11794" lon="4.99159">
        <ele>203</ele>
        <time>2018-05-20T07:36:10.000Z</time>
      </trkpt>
      <trkpt lat="45.11782" lon="4.9915">
        <ele>203</ele>
        <time>2018-05-20T07:36:15.000Z</time>
      </trkpt>
      <trkpt lat="45.11774" lon="4.99139">
        <ele>203.39999389648</ele>
        <time>2018-05-20T07:36:17.000Z</time>
      </trkpt>
      <trkpt lat="45.1177" lon="4.99134">
        <ele>203.60000610352</ele>
        <time>2018-05-20T07:36:18.000Z</time>
      </trkpt>
      <trkpt lat="45.11767" lon="4.99128">
        <ele>203.80000305176</ele>
        <time>2018-05-20T07:36:19.000Z</time>
      </trkpt>
      <trkpt lat="45.11764" lon="4.99115">
        <ele>204.39999389648</ele>
        <time>2018-05-20T07:36:22.000Z</time>
      </trkpt>
      <trkpt lat="45.11763" lon="4.99094">
        <ele>205.19999694824</ele>
        <time>2018-05-20T07:36:27.000Z</time>
      </trkpt>
      <trkpt lat="45.11757" lon="4.99072">
        <ele>205.39999389648</ele>
        <time>2018-05-20T07:36:31.000Z</time>
      </trkpt>
      <trkpt lat="45.11752" lon="4.99062">
        <ele>205.80000305176</ele>
        <time>2018-05-20T07:36:33.000Z</time>
      </trkpt>
      <trkpt lat="45.11748" lon="4.9905">
        <ele>206.39999389648</ele>
        <time>2018-05-20T07:36:35.000Z</time>
      </trkpt>
      <trkpt lat="45.11746" lon="4.99044">
        <ele>206.60000610352</ele>
        <time>2018-05-20T07:36:36.000Z</time>
      </trkpt>
      <trkpt lat="45.11739" lon="4.99029">
        <ele>207.39999389648</ele>
        <time>2018-05-20T07:36:39.000Z</time>
      </trkpt>
      <trkpt lat="45.11737" lon="4.99024">
        <ele>207.80000305176</ele>
        <time>2018-05-20T07:36:40.000Z</time>
      </trkpt>
      <trkpt lat="45.11736" lon="4.99004">
        <ele>208.39999389648</ele>
        <time>2018-05-20T07:36:44.000Z</time>
      </trkpt>
      <trkpt lat="45.11733" lon="4.98971">
        <ele>208.80000305176</ele>
        <time>2018-05-20T07:36:50.000Z</time>
      </trkpt>
      <trkpt lat="45.11732" lon="4.98958">
        <ele>208.80000305176</ele>
        <time>2018-05-20T07:36:52.000Z</time>
      </trkpt>
      <trkpt lat="45.11732" lon="4.98938">
        <ele>207.80000305176</ele>
        <time>2018-05-20T07:36:55.000Z</time>
      </trkpt>
      <trkpt lat="45.11732" lon="4.98929">
        <ele>207.39999389648</ele>
        <time>2018-05-20T07:36:56.000Z</time>
      </trkpt>
      <trkpt lat="45.11732" lon="4.98906">
        <ele>207.19999694824</ele>
        <time>2018-05-20T07:36:59.000Z</time>
      </trkpt>
      <trkpt lat="45.11728" lon="4.98884">
        <ele>207</ele>
        <time>2018-05-20T07:37:02.000Z</time>
      </trkpt>
      <trkpt lat="45.11728" lon="4.98874">
        <ele>207</ele>
        <time>2018-05-20T07:37:06.000Z</time>
      </trkpt>
      <trkpt lat="45.1173" lon="4.98859">
        <ele>206.80000305176</ele>
        <time>2018-05-20T07:37:10.000Z</time>
      </trkpt>
      <trkpt lat="45.11734" lon="4.98838">
        <ele>206.19999694824</ele>
        <time>2018-05-20T07:37:15.000Z</time>
      </trkpt>
      <trkpt lat="45.11735" lon="4.98821">
        <ele>205.60000610352</ele>
        <time>2018-05-20T07:37:20.000Z</time>
      </trkpt>
      <trkpt lat="45.11736" lon="4.98806">
        <ele>205.19999694824</ele>
        <time>2018-05-20T07:37:24.000Z</time>
      </trkpt>
      <trkpt lat="45.11737" lon="4.98801">
        <ele>205.19999694824</ele>
        <time>2018-05-20T07:37:25.000Z</time>
      </trkpt>
      <trkpt lat="45.11739" lon="4.98771">
        <ele>204.19999694824</ele>
        <time>2018-05-20T07:37:31.000Z</time>
      </trkpt>
      <trkpt lat="45.11738" lon="4.98757">
        <ele>203.80000305176</ele>
        <time>2018-05-20T07:37:33.000Z</time>
      </trkpt>
      <trkpt lat="45.11738" lon="4.98737">
        <ele>202.39999389648</ele>
        <time>2018-05-20T07:37:36.000Z</time>
      </trkpt>
      <trkpt lat="45.11741" lon="4.98724">
        <ele>201.60000610352</ele>
        <time>2018-05-20T07:37:38.000Z</time>
      </trkpt>
      <trkpt lat="45.11744" lon="4.98718">
        <ele>201.19999694824</ele>
        <time>2018-05-20T07:37:39.000Z</time>
      </trkpt>
      <trkpt lat="45.1175" lon="4.98705">
        <ele>200.60000610352</ele>
        <time>2018-05-20T07:37:41.000Z</time>
      </trkpt>
      <trkpt lat="45.11755" lon="4.98692">
        <ele>199.80000305176</ele>
        <time>2018-05-20T07:37:43.000Z</time>
      </trkpt>
      <trkpt lat="45.11757" lon="4.98671">
        <ele>199</ele>
        <time>2018-05-20T07:37:46.000Z</time>
      </trkpt>
      <trkpt lat="45.1176" lon="4.98656">
        <ele>198.39999389648</ele>
        <time>2018-05-20T07:37:48.000Z</time>
      </trkpt>
      <trkpt lat="45.11766" lon="4.98634">
        <ele>198</ele>
        <time>2018-05-20T07:37:51.000Z</time>
      </trkpt>
      <trkpt lat="45.11774" lon="4.98626">
        <ele>198.19999694824</ele>
        <time>2018-05-20T07:37:53.000Z</time>
      </trkpt>
      <trkpt lat="45.11786" lon="4.98615">
        <ele>199</ele>
        <time>2018-05-20T07:37:56.000Z</time>
      </trkpt>
      <trkpt lat="45.11816" lon="4.98596">
        <ele>200.80000305176</ele>
        <time>2018-05-20T07:38:04.000Z</time>
      </trkpt>
      <trkpt lat="45.11836" lon="4.98579">
        <ele>201</ele>
        <time>2018-05-20T07:38:10.000Z</time>
      </trkpt>
      <trkpt lat="45.1186" lon="4.98553">
        <ele>201</ele>
        <time>2018-05-20T07:38:18.000Z</time>
      </trkpt>
      <trkpt lat="45.11872" lon="4.98539">
        <ele>201</ele>
        <time>2018-05-20T07:38:22.000Z</time>
      </trkpt>
      <trkpt lat="45.11882" lon="4.98532">
        <ele>201.39999389648</ele>
        <time>2018-05-20T07:38:25.000Z</time>
      </trkpt>
      <trkpt lat="45.11897" lon="4.98525">
        <ele>202</ele>
        <time>2018-05-20T07:38:29.000Z</time>
      </trkpt>
      <trkpt lat="45.11905" lon="4.98524">
        <ele>202</ele>
        <time>2018-05-20T07:38:31.000Z</time>
      </trkpt>
      <trkpt lat="45.11945" lon="4.98522">
        <ele>204.39999389648</ele>
        <time>2018-05-20T07:38:41.000Z</time>
      </trkpt>
      <trkpt lat="45.11978" lon="4.98521">
        <ele>205</ele>
        <time>2018-05-20T07:38:49.000Z</time>
      </trkpt>
      <trkpt lat="45.12013" lon="4.98523">
        <ele>204.39999389648</ele>
        <time>2018-05-20T07:38:58.000Z</time>
      </trkpt>
      <trkpt lat="45.12014" lon="4.98523">
        <ele>204.39999389648</ele>
        <time>2018-05-20T07:38:59.000Z</time>
      </trkpt>
      <trkpt lat="45.12016" lon="4.98517">
        <ele>204.80000305176</ele>
        <time>2018-05-20T07:39:02.000Z</time>
      </trkpt>
      <trkpt lat="45.12016" lon="4.98514">
        <ele>205</ele>
        <time>2018-05-20T07:39:03.000Z</time>
      </trkpt>
      <trkpt lat="45.12017" lon="4.98506">
        <ele>205.60000610352</ele>
        <time>2018-05-20T07:39:05.000Z</time>
      </trkpt>
      <trkpt lat="45.12018" lon="4.98496">
        <ele>206.19999694824</ele>
        <time>2018-05-20T07:39:07.000Z</time>
      </trkpt>
      <trkpt lat="45.1202" lon="4.9847">
        <ele>207</ele>
        <time>2018-05-20T07:39:12.000Z</time>
      </trkpt>
      <trkpt lat="45.12023" lon="4.9845">
        <ele>207</ele>
        <time>2018-05-20T07:39:16.000Z</time>
      </trkpt>
      <trkpt lat="45.12021" lon="4.98446">
        <ele>207</ele>
        <time>2018-05-20T07:39:17.000Z</time>
      </trkpt>
      <trkpt lat="45.12015" lon="4.98441">
        <ele>206.80000305176</ele>
        <time>2018-05-20T07:39:19.000Z</time>
      </trkpt>
      <trkpt lat="45.12001" lon="4.98432">
        <ele>205.80000305176</ele>
        <time>2018-05-20T07:39:22.000Z</time>
      </trkpt>
      <trkpt lat="45.11993" lon="4.98425">
        <ele>205.19999694824</ele>
        <time>2018-05-20T07:39:24.000Z</time>
      </trkpt>
      <trkpt lat="45.11985" lon="4.98417">
        <ele>204.60000610352</ele>
        <time>2018-05-20T07:39:26.000Z</time>
      </trkpt>
      <trkpt lat="45.11979" lon="4.98405">
        <ele>203.80000305176</ele>
        <time>2018-05-20T07:39:28.000Z</time>
      </trkpt>
      <trkpt lat="45.11973" lon="4.98386">
        <ele>203.19999694824</ele>
        <time>2018-05-20T07:39:31.000Z</time>
      </trkpt>
      <trkpt lat="45.11966" lon="4.98375">
        <ele>202.39999389648</ele>
        <time>2018-05-20T07:39:33.000Z</time>
      </trkpt>
      <trkpt lat="45.11949" lon="4.98356">
        <ele>202.60000610352</ele>
        <time>2018-05-20T07:39:37.000Z</time>
      </trkpt>
      <trkpt lat="45.11942" lon="4.98343">
        <ele>203.19999694824</ele>
        <time>2018-05-20T07:39:39.000Z</time>
      </trkpt>
      <trkpt lat="45.11937" lon="4.98321">
        <ele>204</ele>
        <time>2018-05-20T07:39:42.000Z</time>
      </trkpt>
      <trkpt lat="45.11935" lon="4.98313">
        <ele>204.19999694824</ele>
        <time>2018-05-20T07:39:43.000Z</time>
      </trkpt>
      <trkpt lat="45.11934" lon="4.98306">
        <ele>204.39999389648</ele>
        <time>2018-05-20T07:39:44.000Z</time>
      </trkpt>
      <trkpt lat="45.1193" lon="4.98292">
        <ele>204.80000305176</ele>
        <time>2018-05-20T07:39:46.000Z</time>
      </trkpt>
      <trkpt lat="45.11923" lon="4.98282">
        <ele>205</ele>
        <time>2018-05-20T07:39:48.000Z</time>
      </trkpt>
      <trkpt lat="45.11907" lon="4.98282">
        <ele>204.39999389648</ele>
        <time>2018-05-20T07:39:51.000Z</time>
      </trkpt>
      <trkpt lat="45.11902" lon="4.98284">
        <ele>204</ele>
        <time>2018-05-20T07:39:52.000Z</time>
      </trkpt>
      <trkpt lat="45.11864" lon="4.98296">
        <ele>201.80000305176</ele>
        <time>2018-05-20T07:39:59.000Z</time>
      </trkpt>
      <trkpt lat="45.11835" lon="4.98302">
        <ele>200</ele>
        <time>2018-05-20T07:40:04.000Z</time>
      </trkpt>
      <trkpt lat="45.1183" lon="4.98299">
        <ele>200</ele>
        <time>2018-05-20T07:40:05.000Z</time>
      </trkpt>
      <trkpt lat="45.11811" lon="4.98282">
        <ele>199.19999694824</ele>
        <time>2018-05-20T07:40:09.000Z</time>
      </trkpt>
      <trkpt lat="45.118" lon="4.98278">
        <ele>198.80000305176</ele>
        <time>2018-05-20T07:40:11.000Z</time>
      </trkpt>
      <trkpt lat="45.11792" lon="4.98266">
        <ele>198</ele>
        <time>2018-05-20T07:40:13.000Z</time>
      </trkpt>
      <trkpt lat="45.11786" lon="4.9825">
        <ele>197.60000610352</ele>
        <time>2018-05-20T07:40:15.000Z</time>
      </trkpt>
      <trkpt lat="45.1178" lon="4.98234">
        <ele>197.39999389648</ele>
        <time>2018-05-20T07:40:17.000Z</time>
      </trkpt>
      <trkpt lat="45.11772" lon="4.9822">
        <ele>197.19999694824</ele>
        <time>2018-05-20T07:40:19.000Z</time>
      </trkpt>
      <trkpt lat="45.11756" lon="4.98213">
        <ele>197</ele>
        <time>2018-05-20T07:40:22.000Z</time>
      </trkpt>
      <trkpt lat="45.11744" lon="4.98215">
        <ele>196.80000305176</ele>
        <time>2018-05-20T07:40:24.000Z</time>
      </trkpt>
      <trkpt lat="45.11732" lon="4.98219">
        <ele>196.39999389648</ele>
        <time>2018-05-20T07:40:26.000Z</time>
      </trkpt>
      <trkpt lat="45.11714" lon="4.98224">
        <ele>196</ele>
        <time>2018-05-20T07:40:29.000Z</time>
      </trkpt>
      <trkpt lat="45.11675" lon="4.98235">
        <ele>196.39999389648</ele>
        <time>2018-05-20T07:40:36.000Z</time>
      </trkpt>
      <trkpt lat="45.1167" lon="4.98237">
        <ele>196.39999389648</ele>
        <time>2018-05-20T07:40:37.000Z</time>
      </trkpt>
      <trkpt lat="45.11666" lon="4.98238">
        <ele>196.60000610352</ele>
        <time>2018-05-20T07:40:38.000Z</time>
      </trkpt>
      <trkpt lat="45.11662" lon="4.98236">
        <ele>196.80000305176</ele>
        <time>2018-05-20T07:40:39.000Z</time>
      </trkpt>
      <trkpt lat="45.1166" lon="4.98231">
        <ele>196.80000305176</ele>
        <time>2018-05-20T07:40:40.000Z</time>
      </trkpt>
      <trkpt lat="45.11656" lon="4.9822">
        <ele>197</ele>
        <time>2018-05-20T07:40:42.000Z</time>
      </trkpt>
      <trkpt lat="45.11649" lon="4.98201">
        <ele>197.19999694824</ele>
        <time>2018-05-20T07:40:45.000Z</time>
      </trkpt>
      <trkpt lat="45.11641" lon="4.98176">
        <ele>197.60000610352</ele>
        <time>2018-05-20T07:40:49.000Z</time>
      </trkpt>
      <trkpt lat="45.1164" lon="4.98169">
        <ele>198</ele>
        <time>2018-05-20T07:40:50.000Z</time>
      </trkpt>
      <trkpt lat="45.11628" lon="4.9813">
        <ele>199</ele>
        <time>2018-05-20T07:40:56.000Z</time>
      </trkpt>
      <trkpt lat="45.1162" lon="4.98105">
        <ele>199</ele>
        <time>2018-05-20T07:41:00.000Z</time>
      </trkpt>
      <trkpt lat="45.11621" lon="4.981">
        <ele>199</ele>
        <time>2018-05-20T07:41:01.000Z</time>
      </trkpt>
      <trkpt lat="45.11631" lon="4.98092">
        <ele>198.80000305176</ele>
        <time>2018-05-20T07:41:04.000Z</time>
      </trkpt>
      <trkpt lat="45.11639" lon="4.98081">
        <ele>198</ele>
        <time>2018-05-20T07:41:07.000Z</time>
      </trkpt>
      <trkpt lat="45.11639" lon="4.98076">
        <ele>198</ele>
        <time>2018-05-20T07:41:08.000Z</time>
      </trkpt>
      <trkpt lat="45.11629" lon="4.98047">
        <ele>198</ele>
        <time>2018-05-20T07:41:13.000Z</time>
      </trkpt>
      <trkpt lat="45.11614" lon="4.98005">
        <ele>196.19999694824</ele>
        <time>2018-05-20T07:41:20.000Z</time>
      </trkpt>
      <trkpt lat="45.11598" lon="4.97988">
        <ele>195.19999694824</ele>
        <time>2018-05-20T07:41:25.000Z</time>
      </trkpt>
      <trkpt lat="45.11594" lon="4.97985">
        <ele>195.19999694824</ele>
        <time>2018-05-20T07:41:26.000Z</time>
      </trkpt>
      <trkpt lat="45.11578" lon="4.97972">
        <ele>195.80000305176</ele>
        <time>2018-05-20T07:41:30.000Z</time>
      </trkpt>
      <trkpt lat="45.11569" lon="4.97965">
        <ele>196.19999694824</ele>
        <time>2018-05-20T07:41:32.000Z</time>
      </trkpt>
      <trkpt lat="45.11552" lon="4.97949">
        <ele>196.80000305176</ele>
        <time>2018-05-20T07:41:36.000Z</time>
      </trkpt>
      <trkpt lat="45.11545" lon="4.97938">
        <ele>196.60000610352</ele>
        <time>2018-05-20T07:41:38.000Z</time>
      </trkpt>
      <trkpt lat="45.11532" lon="4.97904">
        <ele>195.60000610352</ele>
        <time>2018-05-20T07:41:43.000Z</time>
      </trkpt>
      <trkpt lat="45.11519" lon="4.97835">
        <ele>194</ele>
        <time>2018-05-20T07:41:52.000Z</time>
      </trkpt>
      <trkpt lat="45.11517" lon="4.97828">
        <ele>194</ele>
        <time>2018-05-20T07:41:53.000Z</time>
      </trkpt>
      <trkpt lat="45.11507" lon="4.97769">
        <ele>194.80000305176</ele>
        <time>2018-05-20T07:42:01.000Z</time>
      </trkpt>
      <trkpt lat="45.11507" lon="4.97762">
        <ele>195</ele>
        <time>2018-05-20T07:42:02.000Z</time>
      </trkpt>
      <trkpt lat="45.11504" lon="4.97737">
        <ele>194.60000610352</ele>
        <time>2018-05-20T07:42:05.000Z</time>
      </trkpt>
      <trkpt lat="45.11495" lon="4.97717">
        <ele>194.80000305176</ele>
        <time>2018-05-20T07:42:08.000Z</time>
      </trkpt>
      <trkpt lat="45.11476" lon="4.97685">
        <ele>194.60000610352</ele>
        <time>2018-05-20T07:42:13.000Z</time>
      </trkpt>
      <trkpt lat="45.11472" lon="4.9767">
        <ele>195</ele>
        <time>2018-05-20T07:42:15.000Z</time>
      </trkpt>
      <trkpt lat="45.11467" lon="4.97647">
        <ele>195.60000610352</ele>
        <time>2018-05-20T07:42:18.000Z</time>
      </trkpt>
      <trkpt lat="45.1146" lon="4.97606">
        <ele>195</ele>
        <time>2018-05-20T07:42:23.000Z</time>
      </trkpt>
      <trkpt lat="45.11457" lon="4.9759">
        <ele>195</ele>
        <time>2018-05-20T07:42:25.000Z</time>
      </trkpt>
      <trkpt lat="45.11452" lon="4.97576">
        <ele>194.60000610352</ele>
        <time>2018-05-20T07:42:27.000Z</time>
      </trkpt>
      <trkpt lat="45.11435" lon="4.9755">
        <ele>194.19999694824</ele>
        <time>2018-05-20T07:42:32.000Z</time>
      </trkpt>
      <trkpt lat="45.1141" lon="4.97515">
        <ele>194.80000305176</ele>
        <time>2018-05-20T07:42:39.000Z</time>
      </trkpt>
      <trkpt lat="45.11395" lon="4.97496">
        <ele>195.80000305176</ele>
        <time>2018-05-20T07:42:43.000Z</time>
      </trkpt>
      <trkpt lat="45.11389" lon="4.97484">
        <ele>196</ele>
        <time>2018-05-20T07:42:45.000Z</time>
      </trkpt>
      <trkpt lat="45.11385" lon="4.97454">
        <ele>196</ele>
        <time>2018-05-20T07:42:49.000Z</time>
      </trkpt>
      <trkpt lat="45.11392" lon="4.97432">
        <ele>195.60000610352</ele>
        <time>2018-05-20T07:42:52.000Z</time>
      </trkpt>
      <trkpt lat="45.11395" lon="4.97426">
        <ele>194.80000305176</ele>
        <time>2018-05-20T07:42:53.000Z</time>
      </trkpt>
      <trkpt lat="45.11404" lon="4.97408">
        <ele>192.60000610352</ele>
        <time>2018-05-20T07:42:56.000Z</time>
      </trkpt>
      <trkpt lat="45.11405" lon="4.97395">
        <ele>192.19999694824</ele>
        <time>2018-05-20T07:42:58.000Z</time>
      </trkpt>
      <trkpt lat="45.11403" lon="4.97375">
        <ele>192.39999389648</ele>
        <time>2018-05-20T07:43:01.000Z</time>
      </trkpt>
      <trkpt lat="45.11404" lon="4.97355">
        <ele>192.39999389648</ele>
        <time>2018-05-20T07:43:04.000Z</time>
      </trkpt>
      <trkpt lat="45.11408" lon="4.97312">
        <ele>192.19999694824</ele>
        <time>2018-05-20T07:43:10.000Z</time>
      </trkpt>
      <trkpt lat="45.11409" lon="4.97277">
        <ele>192.39999389648</ele>
        <time>2018-05-20T07:43:15.000Z</time>
      </trkpt>
      <trkpt lat="45.11408" lon="4.97235">
        <ele>191</ele>
        <time>2018-05-20T07:43:22.000Z</time>
      </trkpt>
      <trkpt lat="45.11412" lon="4.97226">
        <ele>190.80000305176</ele>
        <time>2018-05-20T07:43:24.000Z</time>
      </trkpt>
      <trkpt lat="45.11412" lon="4.97221">
        <ele>190.80000305176</ele>
        <time>2018-05-20T07:43:25.000Z</time>
      </trkpt>
      <trkpt lat="45.1141" lon="4.97206">
        <ele>190.19999694824</ele>
        <time>2018-05-20T07:43:28.000Z</time>
      </trkpt>
      <trkpt lat="45.11407" lon="4.97195">
        <ele>190</ele>
        <time>2018-05-20T07:43:30.000Z</time>
      </trkpt>
      <trkpt lat="45.11397" lon="4.97153">
        <ele>190</ele>
        <time>2018-05-20T07:43:38.000Z</time>
      </trkpt>
      <trkpt lat="45.11383" lon="4.97118">
        <ele>189.39999389648</ele>
        <time>2018-05-20T07:43:44.000Z</time>
      </trkpt>
      <trkpt lat="45.11369" lon="4.97077">
        <ele>190.39999389648</ele>
        <time>2018-05-20T07:43:51.000Z</time>
      </trkpt>
      <trkpt lat="45.11375" lon="4.97071">
        <ele>190.80000305176</ele>
        <time>2018-05-20T07:43:54.000Z</time>
      </trkpt>
      <trkpt lat="45.11388" lon="4.97064">
        <ele>191</ele>
        <time>2018-05-20T07:43:58.000Z</time>
      </trkpt>
      <trkpt lat="45.11391" lon="4.97062">
        <ele>191</ele>
        <time>2018-05-20T07:43:59.000Z</time>
      </trkpt>
      <trkpt lat="45.11395" lon="4.97058">
        <ele>191</ele>
        <time>2018-05-20T07:44:00.000Z</time>
      </trkpt>
      <trkpt lat="45.11399" lon="4.97042">
        <ele>191</ele>
        <time>2018-05-20T07:44:03.000Z</time>
      </trkpt>
      <trkpt lat="45.11396" lon="4.97023">
        <ele>190.60000610352</ele>
        <time>2018-05-20T07:44:06.000Z</time>
      </trkpt>
      <trkpt lat="45.11395" lon="4.97017">
        <ele>190.60000610352</ele>
        <time>2018-05-20T07:44:07.000Z</time>
      </trkpt>
      <trkpt lat="45.11393" lon="4.97011">
        <ele>190.60000610352</ele>
        <time>2018-05-20T07:44:08.000Z</time>
      </trkpt>
      <trkpt lat="45.11393" lon="4.97003">
        <ele>190.60000610352</ele>
        <time>2018-05-20T07:44:10.000Z</time>
      </trkpt>
      <trkpt lat="45.11394" lon="4.97001">
        <ele>190.60000610352</ele>
        <time>2018-05-20T07:44:11.000Z</time>
      </trkpt>
      <trkpt lat="45.114" lon="4.96997">
        <ele>190.80000305176</ele>
        <time>2018-05-20T07:44:14.000Z</time>
      </trkpt>
      <trkpt lat="45.11402" lon="4.96992">
        <ele>190.80000305176</ele>
        <time>2018-05-20T07:44:16.000Z</time>
      </trkpt>
      <trkpt lat="45.11403" lon="4.96988">
        <ele>191</ele>
        <time>2018-05-20T07:44:18.000Z</time>
      </trkpt>
      <trkpt lat="45.11403" lon="4.96985">
        <ele>190.80000305176</ele>
        <time>2018-05-20T07:44:19.000Z</time>
      </trkpt>
      <trkpt lat="45.11402" lon="4.96991">
        <ele>190.80000305176</ele>
        <time>2018-05-20T07:45:40.000Z</time>
      </trkpt>
      <trkpt lat="45.11407" lon="4.9699">
        <ele>191</ele>
        <time>2018-05-20T07:45:43.000Z</time>
      </trkpt>
      <trkpt lat="45.11413" lon="4.9699">
        <ele>191.39999389648</ele>
        <time>2018-05-20T07:45:47.000Z</time>
      </trkpt>
      <trkpt lat="45.11429" lon="4.96988">
        <ele>192.60000610352</ele>
        <time>2018-05-20T07:45:54.000Z</time>
      </trkpt>
      <trkpt lat="45.1145" lon="4.96982">
        <ele>193.60000610352</ele>
        <time>2018-05-20T07:46:01.000Z</time>
      </trkpt>
      <trkpt lat="45.11454" lon="4.96981">
        <ele>193.80000305176</ele>
        <time>2018-05-20T07:46:02.000Z</time>
      </trkpt>
      <trkpt lat="45.11482" lon="4.96971">
        <ele>193.60000610352</ele>
        <time>2018-05-20T07:46:09.000Z</time>
      </trkpt>
      <trkpt lat="45.11488" lon="4.96964">
        <ele>193.80000305176</ele>
        <time>2018-05-20T07:46:11.000Z</time>
      </trkpt>
      <trkpt lat="45.11489" lon="4.96959">
        <ele>194</ele>
        <time>2018-05-20T07:46:12.000Z</time>
      </trkpt>
      <trkpt lat="45.11485" lon="4.96945">
        <ele>194</ele>
        <time>2018-05-20T07:46:15.000Z</time>
      </trkpt>
      <trkpt lat="45.11483" lon="4.9694">
        <ele>194</ele>
        <time>2018-05-20T07:46:16.000Z</time>
      </trkpt>
      <trkpt lat="45.11466" lon="4.96912">
        <ele>193.39999389648</ele>
        <time>2018-05-20T07:46:22.000Z</time>
      </trkpt>
      <trkpt lat="45.1145" lon="4.96884">
        <ele>193</ele>
        <time>2018-05-20T07:46:27.000Z</time>
      </trkpt>
      <trkpt lat="45.11449" lon="4.96877">
        <ele>193</ele>
        <time>2018-05-20T07:46:28.000Z</time>
      </trkpt>
      <trkpt lat="45.11451" lon="4.96866">
        <ele>193</ele>
        <time>2018-05-20T07:46:30.000Z</time>
      </trkpt>
      <trkpt lat="45.11465" lon="4.9686">
        <ele>193.19999694824</ele>
        <time>2018-05-20T07:46:33.000Z</time>
      </trkpt>
      <trkpt lat="45.11471" lon="4.96858">
        <ele>193.39999389648</ele>
        <time>2018-05-20T07:46:34.000Z</time>
      </trkpt>
      <trkpt lat="45.11501" lon="4.96849">
        <ele>194.39999389648</ele>
        <time>2018-05-20T07:46:39.000Z</time>
      </trkpt>
      <trkpt lat="45.11506" lon="4.96846">
        <ele>194.60000610352</ele>
        <time>2018-05-20T07:46:40.000Z</time>
      </trkpt>
      <trkpt lat="45.11548" lon="4.96833">
        <ele>195</ele>
        <time>2018-05-20T07:46:48.000Z</time>
      </trkpt>
      <trkpt lat="45.11584" lon="4.96822">
        <ele>195.39999389648</ele>
        <time>2018-05-20T07:46:56.000Z</time>
      </trkpt>
      <trkpt lat="45.11592" lon="4.96819">
        <ele>195.80000305176</ele>
        <time>2018-05-20T07:46:58.000Z</time>
      </trkpt>
      <trkpt lat="45.11609" lon="4.96815">
        <ele>195.80000305176</ele>
        <time>2018-05-20T07:47:02.000Z</time>
      </trkpt>
      <trkpt lat="45.11641" lon="4.96803">
        <ele>196</ele>
        <time>2018-05-20T07:47:10.000Z</time>
      </trkpt>
      <trkpt lat="45.11671" lon="4.96794">
        <ele>196</ele>
        <time>2018-05-20T07:47:18.000Z</time>
      </trkpt>
      <trkpt lat="45.11675" lon="4.96792">
        <ele>196</ele>
        <time>2018-05-20T07:47:19.000Z</time>
      </trkpt>
      <trkpt lat="45.11705" lon="4.96783">
        <ele>197</ele>
        <time>2018-05-20T07:47:28.000Z</time>
      </trkpt>
      <trkpt lat="45.1172" lon="4.96798">
        <ele>196.39999389648</ele>
        <time>2018-05-20T07:47:33.000Z</time>
      </trkpt>
      <trkpt lat="45.11728" lon="4.96808">
        <ele>195.80000305176</ele>
        <time>2018-05-20T07:47:36.000Z</time>
      </trkpt>
      <trkpt lat="45.1174" lon="4.96818">
        <ele>195</ele>
        <time>2018-05-20T07:47:40.000Z</time>
      </trkpt>
      <trkpt lat="45.1175" lon="4.96813">
        <ele>194.80000305176</ele>
        <time>2018-05-20T07:47:43.000Z</time>
      </trkpt>
      <trkpt lat="45.11756" lon="4.96804">
        <ele>195</ele>
        <time>2018-05-20T07:47:45.000Z</time>
      </trkpt>
      <trkpt lat="45.11769" lon="4.96788">
        <ele>195</ele>
        <time>2018-05-20T07:47:49.000Z</time>
      </trkpt>
      <trkpt lat="45.11784" lon="4.96777">
        <ele>195</ele>
        <time>2018-05-20T07:47:53.000Z</time>
      </trkpt>
      <trkpt lat="45.11788" lon="4.96775">
        <ele>195</ele>
        <time>2018-05-20T07:47:54.000Z</time>
      </trkpt>
      <trkpt lat="45.11804" lon="4.96763">
        <ele>195.60000610352</ele>
        <time>2018-05-20T07:47:58.000Z</time>
      </trkpt>
      <trkpt lat="45.11811" lon="4.96756">
        <ele>196.19999694824</ele>
        <time>2018-05-20T07:48:00.000Z</time>
      </trkpt>
      <trkpt lat="45.11817" lon="4.96748">
        <ele>196.60000610352</ele>
        <time>2018-05-20T07:48:02.000Z</time>
      </trkpt>
      <trkpt lat="45.1183" lon="4.96724">
        <ele>198.19999694824</ele>
        <time>2018-05-20T07:48:07.000Z</time>
      </trkpt>
      <trkpt lat="45.11843" lon="4.96693">
        <ele>200.19999694824</ele>
        <time>2018-05-20T07:48:13.000Z</time>
      </trkpt>
      <trkpt lat="45.11845" lon="4.96687">
        <ele>200.60000610352</ele>
        <time>2018-05-20T07:48:14.000Z</time>
      </trkpt>
      <trkpt lat="45.11853" lon="4.96661">
        <ele>202.60000610352</ele>
        <time>2018-05-20T07:48:19.000Z</time>
      </trkpt>
      <trkpt lat="45.11858" lon="4.9664">
        <ele>203.39999389648</ele>
        <time>2018-05-20T07:48:23.000Z</time>
      </trkpt>
      <trkpt lat="45.11863" lon="4.96624">
        <ele>203.19999694824</ele>
        <time>2018-05-20T07:48:26.000Z</time>
      </trkpt>
      <trkpt lat="45.1187" lon="4.96598">
        <ele>202.80000305176</ele>
        <time>2018-05-20T07:48:31.000Z</time>
      </trkpt>
      <trkpt lat="45.11876" lon="4.96565">
        <ele>203.39999389648</ele>
        <time>2018-05-20T07:48:37.000Z</time>
      </trkpt>
      <trkpt lat="45.11877" lon="4.96552">
        <ele>203.80000305176</ele>
        <time>2018-05-20T07:48:39.000Z</time>
      </trkpt>
      <trkpt lat="45.11878" lon="4.96545">
        <ele>203.80000305176</ele>
        <time>2018-05-20T07:48:40.000Z</time>
      </trkpt>
      <trkpt lat="45.11883" lon="4.96526">
        <ele>204.60000610352</ele>
        <time>2018-05-20T07:48:43.000Z</time>
      </trkpt>
      <trkpt lat="45.11885" lon="4.9652">
        <ele>205</ele>
        <time>2018-05-20T07:48:44.000Z</time>
      </trkpt>
      <trkpt lat="45.11886" lon="4.96507">
        <ele>205.80000305176</ele>
        <time>2018-05-20T07:48:46.000Z</time>
      </trkpt>
      <trkpt lat="45.11886" lon="4.96488">
        <ele>206.39999389648</ele>
        <time>2018-05-20T07:48:49.000Z</time>
      </trkpt>
      <trkpt lat="45.11884" lon="4.96476">
        <ele>207</ele>
        <time>2018-05-20T07:48:51.000Z</time>
      </trkpt>
      <trkpt lat="45.11881" lon="4.96464">
        <ele>207.80000305176</ele>
        <time>2018-05-20T07:48:53.000Z</time>
      </trkpt>
      <trkpt lat="45.11881" lon="4.96458">
        <ele>208</ele>
        <time>2018-05-20T07:48:54.000Z</time>
      </trkpt>
      <trkpt lat="45.11886" lon="4.96442">
        <ele>209.39999389648</ele>
        <time>2018-05-20T07:48:57.000Z</time>
      </trkpt>
      <trkpt lat="45.11888" lon="4.96437">
        <ele>209.80000305176</ele>
        <time>2018-05-20T07:48:58.000Z</time>
      </trkpt>
      <trkpt lat="45.11893" lon="4.96429">
        <ele>210.60000610352</ele>
        <time>2018-05-20T07:49:00.000Z</time>
      </trkpt>
      <trkpt lat="45.11895" lon="4.96425">
        <ele>210.80000305176</ele>
        <time>2018-05-20T07:49:01.000Z</time>
      </trkpt>
      <trkpt lat="45.11902" lon="4.96414">
        <ele>211.39999389648</ele>
        <time>2018-05-20T07:49:04.000Z</time>
      </trkpt>
      <trkpt lat="45.11905" lon="4.96402">
        <ele>212</ele>
        <time>2018-05-20T07:49:07.000Z</time>
      </trkpt>
      <trkpt lat="45.11908" lon="4.96395">
        <ele>212.39999389648</ele>
        <time>2018-05-20T07:49:09.000Z</time>
      </trkpt>
      <trkpt lat="45.11913" lon="4.96384">
        <ele>213.19999694824</ele>
        <time>2018-05-20T07:49:13.000Z</time>
      </trkpt>
      <trkpt lat="45.11916" lon="4.96375">
        <ele>213.39999389648</ele>
        <time>2018-05-20T07:49:16.000Z</time>
      </trkpt>
      <trkpt lat="45.11923" lon="4.96364">
        <ele>214.39999389648</ele>
        <time>2018-05-20T07:49:20.000Z</time>
      </trkpt>
      <trkpt lat="45.11925" lon="4.96362">
        <ele>214.60000610352</ele>
        <time>2018-05-20T07:49:21.000Z</time>
      </trkpt>
      <trkpt lat="45.11935" lon="4.96353">
        <ele>215.60000610352</ele>
        <time>2018-05-20T07:49:25.000Z</time>
      </trkpt>
      <trkpt lat="45.1194" lon="4.96348">
        <ele>216</ele>
        <time>2018-05-20T07:49:27.000Z</time>
      </trkpt>
      <trkpt lat="45.11947" lon="4.96339">
        <ele>216.60000610352</ele>
        <time>2018-05-20T07:49:30.000Z</time>
      </trkpt>
      <trkpt lat="45.11954" lon="4.96331">
        <ele>217.19999694824</ele>
        <time>2018-05-20T07:49:33.000Z</time>
      </trkpt>
      <trkpt lat="45.11957" lon="4.96328">
        <ele>217.39999389648</ele>
        <time>2018-05-20T07:49:34.000Z</time>
      </trkpt>
      <trkpt lat="45.11966" lon="4.96316">
        <ele>218.19999694824</ele>
        <time>2018-05-20T07:49:38.000Z</time>
      </trkpt>
      <trkpt lat="45.11972" lon="4.96301">
        <ele>219.19999694824</ele>
        <time>2018-05-20T07:49:42.000Z</time>
      </trkpt>
      <trkpt lat="45.11979" lon="4.96283">
        <ele>220.60000610352</ele>
        <time>2018-05-20T07:49:47.000Z</time>
      </trkpt>
      <trkpt lat="45.11981" lon="4.9628">
        <ele>220.80000305176</ele>
        <time>2018-05-20T07:49:48.000Z</time>
      </trkpt>
      <trkpt lat="45.11987" lon="4.96265">
        <ele>221.80000305176</ele>
        <time>2018-05-20T07:49:52.000Z</time>
      </trkpt>
      <trkpt lat="45.11994" lon="4.9625">
        <ele>223</ele>
        <time>2018-05-20T07:49:56.000Z</time>
      </trkpt>
      <trkpt lat="45.11998" lon="4.96243">
        <ele>223.39999389648</ele>
        <time>2018-05-20T07:49:58.000Z</time>
      </trkpt>
      <trkpt lat="45.12003" lon="4.96233">
        <ele>224.19999694824</ele>
        <time>2018-05-20T07:50:01.000Z</time>
      </trkpt>
      <trkpt lat="45.12007" lon="4.96226">
        <ele>225</ele>
        <time>2018-05-20T07:50:03.000Z</time>
      </trkpt>
      <trkpt lat="45.12013" lon="4.96217">
        <ele>225.39999389648</ele>
        <time>2018-05-20T07:50:06.000Z</time>
      </trkpt>
      <trkpt lat="45.12021" lon="4.96209">
        <ele>225.80000305176</ele>
        <time>2018-05-20T07:50:09.000Z</time>
      </trkpt>
      <trkpt lat="45.12029" lon="4.96201">
        <ele>226.19999694824</ele>
        <time>2018-05-20T07:50:12.000Z</time>
      </trkpt>
      <trkpt lat="45.12037" lon="4.96193">
        <ele>226.60000610352</ele>
        <time>2018-05-20T07:50:15.000Z</time>
      </trkpt>
      <trkpt lat="45.12049" lon="4.96179">
        <ele>227</ele>
        <time>2018-05-20T07:50:20.000Z</time>
      </trkpt>
      <trkpt lat="45.12051" lon="4.96176">
        <ele>227.19999694824</ele>
        <time>2018-05-20T07:50:21.000Z</time>
      </trkpt>
      <trkpt lat="45.12062" lon="4.96162">
        <ele>228.19999694824</ele>
        <time>2018-05-20T07:50:26.000Z</time>
      </trkpt>
      <trkpt lat="45.12065" lon="4.9616">
        <ele>228.39999389648</ele>
        <time>2018-05-20T07:50:27.000Z</time>
      </trkpt>
      <trkpt lat="45.12075" lon="4.96146">
        <ele>229.39999389648</ele>
        <time>2018-05-20T07:50:32.000Z</time>
      </trkpt>
      <trkpt lat="45.12081" lon="4.96139">
        <ele>230.19999694824</ele>
        <time>2018-05-20T07:50:35.000Z</time>
      </trkpt>
      <trkpt lat="45.12084" lon="4.96132">
        <ele>230.80000305176</ele>
        <time>2018-05-20T07:50:37.000Z</time>
      </trkpt>
      <trkpt lat="45.12089" lon="4.96119">
        <ele>232.19999694824</ele>
        <time>2018-05-20T07:50:41.000Z</time>
      </trkpt>
      <trkpt lat="45.1209" lon="4.96115">
        <ele>232.60000610352</ele>
        <time>2018-05-20T07:50:42.000Z</time>
      </trkpt>
      <trkpt lat="45.12092" lon="4.96105">
        <ele>233</ele>
        <time>2018-05-20T07:50:45.000Z</time>
      </trkpt>
      <trkpt lat="45.12094" lon="4.96092">
        <ele>233.39999389648</ele>
        <time>2018-05-20T07:50:49.000Z</time>
      </trkpt>
      <trkpt lat="45.12095" lon="4.96082">
        <ele>233.80000305176</ele>
        <time>2018-05-20T07:50:52.000Z</time>
      </trkpt>
      <trkpt lat="45.12096" lon="4.96067">
        <ele>234.19999694824</ele>
        <time>2018-05-20T07:50:56.000Z</time>
      </trkpt>
      <trkpt lat="45.12096" lon="4.96063">
        <ele>234.39999389648</ele>
        <time>2018-05-20T07:50:57.000Z</time>
      </trkpt>
      <trkpt lat="45.12098" lon="4.9604">
        <ele>235.19999694824</ele>
        <time>2018-05-20T07:51:03.000Z</time>
      </trkpt>
      <trkpt lat="45.12108" lon="4.96016">
        <ele>236</ele>
        <time>2018-05-20T07:51:09.000Z</time>
      </trkpt>
      <trkpt lat="45.12125" lon="4.95991">
        <ele>236.80000305176</ele>
        <time>2018-05-20T07:51:16.000Z</time>
      </trkpt>
      <trkpt lat="45.12129" lon="4.95987">
        <ele>237</ele>
        <time>2018-05-20T07:51:17.000Z</time>
      </trkpt>
      <trkpt lat="45.12154" lon="4.95962">
        <ele>238.80000305176</ele>
        <time>2018-05-20T07:51:25.000Z</time>
      </trkpt>
      <trkpt lat="45.12157" lon="4.9596">
        <ele>238.80000305176</ele>
        <time>2018-05-20T07:51:26.000Z</time>
      </trkpt>
      <trkpt lat="45.1217" lon="4.95949">
        <ele>238.80000305176</ele>
        <time>2018-05-20T07:51:30.000Z</time>
      </trkpt>
      <trkpt lat="45.12176" lon="4.95945">
        <ele>238.80000305176</ele>
        <time>2018-05-20T07:51:32.000Z</time>
      </trkpt>
      <trkpt lat="45.12192" lon="4.95935">
        <ele>238.80000305176</ele>
        <time>2018-05-20T07:51:37.000Z</time>
      </trkpt>
      <trkpt lat="45.12205" lon="4.95925">
        <ele>239.19999694824</ele>
        <time>2018-05-20T07:51:41.000Z</time>
      </trkpt>
      <trkpt lat="45.12208" lon="4.95923">
        <ele>239.19999694824</ele>
        <time>2018-05-20T07:51:42.000Z</time>
      </trkpt>
      <trkpt lat="45.12229" lon="4.95903">
        <ele>240.60000610352</ele>
        <time>2018-05-20T07:51:50.000Z</time>
      </trkpt>
      <trkpt lat="45.12234" lon="4.95897">
        <ele>241</ele>
        <time>2018-05-20T07:51:52.000Z</time>
      </trkpt>
      <trkpt lat="45.12243" lon="4.95894">
        <ele>241.39999389648</ele>
        <time>2018-05-20T07:51:55.000Z</time>
      </trkpt>
      <trkpt lat="45.12258" lon="4.95886">
        <ele>242.19999694824</ele>
        <time>2018-05-20T07:52:00.000Z</time>
      </trkpt>
      <trkpt lat="45.12265" lon="4.95883">
        <ele>242.60000610352</ele>
        <time>2018-05-20T07:52:02.000Z</time>
      </trkpt>
      <trkpt lat="45.12277" lon="4.95878">
        <ele>243.39999389648</ele>
        <time>2018-05-20T07:52:06.000Z</time>
      </trkpt>
      <trkpt lat="45.12289" lon="4.95872">
        <ele>243.80000305176</ele>
        <time>2018-05-20T07:52:10.000Z</time>
      </trkpt>
      <trkpt lat="45.12298" lon="4.95868">
        <ele>244.39999389648</ele>
        <time>2018-05-20T07:52:13.000Z</time>
      </trkpt>
      <trkpt lat="45.1231" lon="4.95863">
        <ele>245.39999389648</ele>
        <time>2018-05-20T07:52:17.000Z</time>
      </trkpt>
      <trkpt lat="45.12317" lon="4.9586">
        <ele>246</ele>
        <time>2018-05-20T07:52:19.000Z</time>
      </trkpt>
      <trkpt lat="45.12341" lon="4.9585">
        <ele>247</ele>
        <time>2018-05-20T07:52:27.000Z</time>
      </trkpt>
      <trkpt lat="45.12344" lon="4.95848">
        <ele>247</ele>
        <time>2018-05-20T07:52:28.000Z</time>
      </trkpt>
      <trkpt lat="45.12359" lon="4.95841">
        <ele>247.39999389648</ele>
        <time>2018-05-20T07:52:33.000Z</time>
      </trkpt>
      <trkpt lat="45.12375" lon="4.95834">
        <ele>248</ele>
        <time>2018-05-20T07:52:38.000Z</time>
      </trkpt>
      <trkpt lat="45.12381" lon="4.95831">
        <ele>248</ele>
        <time>2018-05-20T07:52:40.000Z</time>
      </trkpt>
      <trkpt lat="45.12406" lon="4.95821">
        <ele>249</ele>
        <time>2018-05-20T07:52:48.000Z</time>
      </trkpt>
      <trkpt lat="45.12415" lon="4.95817">
        <ele>249.39999389648</ele>
        <time>2018-05-20T07:52:51.000Z</time>
      </trkpt>
      <trkpt lat="45.12427" lon="4.9581">
        <ele>249.80000305176</ele>
        <time>2018-05-20T07:52:55.000Z</time>
      </trkpt>
      <trkpt lat="45.12439" lon="4.95805">
        <ele>250.60000610352</ele>
        <time>2018-05-20T07:52:59.000Z</time>
      </trkpt>
      <trkpt lat="45.12451" lon="4.95798">
        <ele>251</ele>
        <time>2018-05-20T07:53:03.000Z</time>
      </trkpt>
      <trkpt lat="45.12464" lon="4.95791">
        <ele>251</ele>
        <time>2018-05-20T07:53:07.000Z</time>
      </trkpt>
      <trkpt lat="45.12479" lon="4.95783">
        <ele>252.19999694824</ele>
        <time>2018-05-20T07:53:12.000Z</time>
      </trkpt>
      <trkpt lat="45.12489" lon="4.95778">
        <ele>252.80000305176</ele>
        <time>2018-05-20T07:53:15.000Z</time>
      </trkpt>
      <trkpt lat="45.12507" lon="4.95769">
        <ele>254.39999389648</ele>
        <time>2018-05-20T07:53:21.000Z</time>
      </trkpt>
      <trkpt lat="45.12522" lon="4.9576">
        <ele>255.60000610352</ele>
        <time>2018-05-20T07:53:26.000Z</time>
      </trkpt>
      <trkpt lat="45.12537" lon="4.95751">
        <ele>257.20001220703</ele>
        <time>2018-05-20T07:53:31.000Z</time>
      </trkpt>
      <trkpt lat="45.12558" lon="4.9574">
        <ele>258.60000610352</ele>
        <time>2018-05-20T07:53:38.000Z</time>
      </trkpt>
      <trkpt lat="45.12564" lon="4.95737">
        <ele>258.79998779297</ele>
        <time>2018-05-20T07:53:40.000Z</time>
      </trkpt>
      <trkpt lat="45.12576" lon="4.95734">
        <ele>259.20001220703</ele>
        <time>2018-05-20T07:53:44.000Z</time>
      </trkpt>
      <trkpt lat="45.12585" lon="4.95733">
        <ele>259.60000610352</ele>
        <time>2018-05-20T07:53:47.000Z</time>
      </trkpt>
      <trkpt lat="45.12588" lon="4.95734">
        <ele>259.79998779297</ele>
        <time>2018-05-20T07:53:48.000Z</time>
      </trkpt>
      <trkpt lat="45.12599" lon="4.9574">
        <ele>259.79998779297</ele>
        <time>2018-05-20T07:53:52.000Z</time>
      </trkpt>
      <trkpt lat="45.12612" lon="4.95737">
        <ele>260.79998779297</ele>
        <time>2018-05-20T07:53:57.000Z</time>
      </trkpt>
      <trkpt lat="45.12617" lon="4.95731">
        <ele>261.79998779297</ele>
        <time>2018-05-20T07:53:59.000Z</time>
      </trkpt>
      <trkpt lat="45.1263" lon="4.95716">
        <ele>263.39999389648</ele>
        <time>2018-05-20T07:54:04.000Z</time>
      </trkpt>
      <trkpt lat="45.12635" lon="4.95712">
        <ele>264.39999389648</ele>
        <time>2018-05-20T07:54:06.000Z</time>
      </trkpt>
      <trkpt lat="45.12651" lon="4.95704">
        <ele>266</ele>
        <time>2018-05-20T07:54:11.000Z</time>
      </trkpt>
      <trkpt lat="45.12661" lon="4.957">
        <ele>266.79998779297</ele>
        <time>2018-05-20T07:54:14.000Z</time>
      </trkpt>
      <trkpt lat="45.12678" lon="4.95696">
        <ele>268.39999389648</ele>
        <time>2018-05-20T07:54:19.000Z</time>
      </trkpt>
      <trkpt lat="45.12684" lon="4.95694">
        <ele>268.60000610352</ele>
        <time>2018-05-20T07:54:21.000Z</time>
      </trkpt>
      <trkpt lat="45.12694" lon="4.9569">
        <ele>269.39999389648</ele>
        <time>2018-05-20T07:54:24.000Z</time>
      </trkpt>
      <trkpt lat="45.12706" lon="4.95683">
        <ele>270.39999389648</ele>
        <time>2018-05-20T07:54:28.000Z</time>
      </trkpt>
      <trkpt lat="45.12709" lon="4.95682">
        <ele>270.79998779297</ele>
        <time>2018-05-20T07:54:29.000Z</time>
      </trkpt>
      <trkpt lat="45.12729" lon="4.95663">
        <ele>272</ele>
        <time>2018-05-20T07:54:36.000Z</time>
      </trkpt>
      <trkpt lat="45.12741" lon="4.95647">
        <ele>271.79998779297</ele>
        <time>2018-05-20T07:54:41.000Z</time>
      </trkpt>
      <trkpt lat="45.1275" lon="4.95635">
        <ele>271.79998779297</ele>
        <time>2018-05-20T07:54:45.000Z</time>
      </trkpt>
      <trkpt lat="45.12758" lon="4.95625">
        <ele>271</ele>
        <time>2018-05-20T07:54:48.000Z</time>
      </trkpt>
      <trkpt lat="45.12774" lon="4.95607">
        <ele>271.39999389648</ele>
        <time>2018-05-20T07:54:54.000Z</time>
      </trkpt>
      <trkpt lat="45.12776" lon="4.95604">
        <ele>271.60000610352</ele>
        <time>2018-05-20T07:54:55.000Z</time>
      </trkpt>
      <trkpt lat="45.12802" lon="4.95575">
        <ele>271.20001220703</ele>
        <time>2018-05-20T07:55:04.000Z</time>
      </trkpt>
      <trkpt lat="45.12821" lon="4.95555">
        <ele>271</ele>
        <time>2018-05-20T07:55:10.000Z</time>
      </trkpt>
      <trkpt lat="45.12829" lon="4.95549">
        <ele>270.60000610352</ele>
        <time>2018-05-20T07:55:12.000Z</time>
      </trkpt>
      <trkpt lat="45.1284" lon="4.95538">
        <ele>270.20001220703</ele>
        <time>2018-05-20T07:55:15.000Z</time>
      </trkpt>
      <trkpt lat="45.12854" lon="4.95528">
        <ele>269.20001220703</ele>
        <time>2018-05-20T07:55:18.000Z</time>
      </trkpt>
      <trkpt lat="45.12879" lon="4.95513">
        <ele>269</ele>
        <time>2018-05-20T07:55:23.000Z</time>
      </trkpt>
      <trkpt lat="45.12889" lon="4.95508">
        <ele>268.20001220703</ele>
        <time>2018-05-20T07:55:25.000Z</time>
      </trkpt>
      <trkpt lat="45.12895" lon="4.95505">
        <ele>267.60000610352</ele>
        <time>2018-05-20T07:55:26.000Z</time>
      </trkpt>
      <trkpt lat="45.12912" lon="4.95496">
        <ele>266.60000610352</ele>
        <time>2018-05-20T07:55:29.000Z</time>
      </trkpt>
      <trkpt lat="45.12924" lon="4.9549">
        <ele>265.79998779297</ele>
        <time>2018-05-20T07:55:31.000Z</time>
      </trkpt>
      <trkpt lat="45.12942" lon="4.95481">
        <ele>264.60000610352</ele>
        <time>2018-05-20T07:55:34.000Z</time>
      </trkpt>
      <trkpt lat="45.12968" lon="4.95469">
        <ele>262.60000610352</ele>
        <time>2018-05-20T07:55:38.000Z</time>
      </trkpt>
      <trkpt lat="45.12988" lon="4.95461">
        <ele>261.60000610352</ele>
        <time>2018-05-20T07:55:41.000Z</time>
      </trkpt>
      <trkpt lat="45.13014" lon="4.9545">
        <ele>260.79998779297</ele>
        <time>2018-05-20T07:55:45.000Z</time>
      </trkpt>
      <trkpt lat="45.13026" lon="4.95444">
        <ele>260.79998779297</ele>
        <time>2018-05-20T07:55:47.000Z</time>
      </trkpt>
      <trkpt lat="45.13045" lon="4.95435">
        <ele>260.79998779297</ele>
        <time>2018-05-20T07:55:50.000Z</time>
      </trkpt>
      <trkpt lat="45.13059" lon="4.95428">
        <ele>260.79998779297</ele>
        <time>2018-05-20T07:55:52.000Z</time>
      </trkpt>
      <trkpt lat="45.13066" lon="4.95424">
        <ele>261</ele>
        <time>2018-05-20T07:55:53.000Z</time>
      </trkpt>
      <trkpt lat="45.13103" lon="4.95393">
        <ele>262</ele>
        <time>2018-05-20T07:55:59.000Z</time>
      </trkpt>
      <trkpt lat="45.13109" lon="4.95387">
        <ele>262.39999389648</ele>
        <time>2018-05-20T07:56:00.000Z</time>
      </trkpt>
      <trkpt lat="45.13125" lon="4.95369">
        <ele>261.79998779297</ele>
        <time>2018-05-20T07:56:03.000Z</time>
      </trkpt>
      <trkpt lat="45.13133" lon="4.9536">
        <ele>261.39999389648</ele>
        <time>2018-05-20T07:56:05.000Z</time>
      </trkpt>
      <trkpt lat="45.13139" lon="4.95354">
        <ele>261.60000610352</ele>
        <time>2018-05-20T07:56:07.000Z</time>
      </trkpt>
      <trkpt lat="45.13143" lon="4.95353">
        <ele>261.39999389648</ele>
        <time>2018-05-20T07:56:08.000Z</time>
      </trkpt>
      <trkpt lat="45.13147" lon="4.9535">
        <ele>261.20001220703</ele>
        <time>2018-05-20T07:56:09.000Z</time>
      </trkpt>
      <trkpt lat="45.13154" lon="4.95342">
        <ele>261</ele>
        <time>2018-05-20T07:56:11.000Z</time>
      </trkpt>
      <trkpt lat="45.13157" lon="4.95337">
        <ele>260.79998779297</ele>
        <time>2018-05-20T07:56:12.000Z</time>
      </trkpt>
      <trkpt lat="45.13161" lon="4.95331">
        <ele>261</ele>
        <time>2018-05-20T07:56:13.000Z</time>
      </trkpt>
      <trkpt lat="45.13173" lon="4.95311">
        <ele>260.79998779297</ele>
        <time>2018-05-20T07:56:16.000Z</time>
      </trkpt>
      <trkpt lat="45.13178" lon="4.95305">
        <ele>260.79998779297</ele>
        <time>2018-05-20T07:56:17.000Z</time>
      </trkpt>
      <trkpt lat="45.13185" lon="4.95299">
        <ele>260.39999389648</ele>
        <time>2018-05-20T07:56:18.000Z</time>
      </trkpt>
      <trkpt lat="45.13202" lon="4.95281">
        <ele>261</ele>
        <time>2018-05-20T07:56:21.000Z</time>
      </trkpt>
      <trkpt lat="45.13208" lon="4.95274">
        <ele>261.39999389648</ele>
        <time>2018-05-20T07:56:23.000Z</time>
      </trkpt>
      <trkpt lat="45.1321" lon="4.95273">
        <ele>261.60000610352</ele>
        <time>2018-05-20T07:56:24.000Z</time>
      </trkpt>
      <trkpt lat="45.13212" lon="4.95273">
        <ele>261.60000610352</ele>
        <time>2018-05-20T07:56:25.000Z</time>
      </trkpt>
      <trkpt lat="45.13214" lon="4.95276">
        <ele>261.60000610352</ele>
        <time>2018-05-20T07:56:27.000Z</time>
      </trkpt>
      <trkpt lat="45.13216" lon="4.95278">
        <ele>261.79998779297</ele>
        <time>2018-05-20T07:56:28.000Z</time>
      </trkpt>
      <trkpt lat="45.1322" lon="4.95284">
        <ele>261.79998779297</ele>
        <time>2018-05-20T07:56:30.000Z</time>
      </trkpt>
      <trkpt lat="45.13228" lon="4.9529">
        <ele>262.20001220703</ele>
        <time>2018-05-20T07:56:33.000Z</time>
      </trkpt>
      <trkpt lat="45.13231" lon="4.9529">
        <ele>262.39999389648</ele>
        <time>2018-05-20T07:56:34.000Z</time>
      </trkpt>
      <trkpt lat="45.1325" lon="4.9529">
        <ele>264.20001220703</ele>
        <time>2018-05-20T07:56:39.000Z</time>
      </trkpt>
      <trkpt lat="45.13267" lon="4.95287">
        <ele>266.20001220703</ele>
        <time>2018-05-20T07:56:44.000Z</time>
      </trkpt>
      <trkpt lat="45.13286" lon="4.95286">
        <ele>267.60000610352</ele>
        <time>2018-05-20T07:56:49.000Z</time>
      </trkpt>
      <trkpt lat="45.13306" lon="4.95284">
        <ele>270.20001220703</ele>
        <time>2018-05-20T07:56:54.000Z</time>
      </trkpt>
      <trkpt lat="45.13318" lon="4.95289">
        <ele>271.39999389648</ele>
        <time>2018-05-20T07:56:58.000Z</time>
      </trkpt>
      <trkpt lat="45.13327" lon="4.95293">
        <ele>272</ele>
        <time>2018-05-20T07:57:02.000Z</time>
      </trkpt>
      <trkpt lat="45.13329" lon="4.95293">
        <ele>272.20001220703</ele>
        <time>2018-05-20T07:57:03.000Z</time>
      </trkpt>
      <trkpt lat="45.13333" lon="4.95297">
        <ele>272.20001220703</ele>
        <time>2018-05-20T07:57:05.000Z</time>
      </trkpt>
      <trkpt lat="45.13338" lon="4.95301">
        <ele>272</ele>
        <time>2018-05-20T07:57:07.000Z</time>
      </trkpt>
      <trkpt lat="45.13353" lon="4.9531">
        <ele>272.39999389648</ele>
        <time>2018-05-20T07:57:12.000Z</time>
      </trkpt>
      <trkpt lat="45.13371" lon="4.95327">
        <ele>272.60000610352</ele>
        <time>2018-05-20T07:57:18.000Z</time>
      </trkpt>
      <trkpt lat="45.13379" lon="4.95333">
        <ele>273</ele>
        <time>2018-05-20T07:57:21.000Z</time>
      </trkpt>
      <trkpt lat="45.13389" lon="4.95342">
        <ele>273</ele>
        <time>2018-05-20T07:57:24.000Z</time>
      </trkpt>
      <trkpt lat="45.13408" lon="4.95356">
        <ele>273.20001220703</ele>
        <time>2018-05-20T07:57:29.000Z</time>
      </trkpt>
      <trkpt lat="45.13424" lon="4.95359">
        <ele>273.39999389648</ele>
        <time>2018-05-20T07:57:34.000Z</time>
      </trkpt>
      <trkpt lat="45.13436" lon="4.95359">
        <ele>274</ele>
        <time>2018-05-20T07:57:39.000Z</time>
      </trkpt>
      <trkpt lat="45.13444" lon="4.95383">
        <ele>270.60000610352</ele>
        <time>2018-05-20T07:57:47.000Z</time>
      </trkpt>
      <trkpt lat="45.13444" lon="4.95384">
        <ele>270.60000610352</ele>
        <time>2018-05-20T07:57:48.000Z</time>
      </trkpt>
      <trkpt lat="45.13448" lon="4.95393">
        <ele>269.79998779297</ele>
        <time>2018-05-20T07:57:54.000Z</time>
      </trkpt>
      <trkpt lat="45.13449" lon="4.95395">
        <ele>269.60000610352</ele>
        <time>2018-05-20T07:57:55.000Z</time>
      </trkpt>
      <trkpt lat="45.13461" lon="4.95399">
        <ele>268.20001220703</ele>
        <time>2018-05-20T07:57:59.000Z</time>
      </trkpt>
      <trkpt lat="45.13476" lon="4.95413">
        <ele>266.60000610352</ele>
        <time>2018-05-20T07:58:04.000Z</time>
      </trkpt>
      <trkpt lat="45.13485" lon="4.95427">
        <ele>265.39999389648</ele>
        <time>2018-05-20T07:58:08.000Z</time>
      </trkpt>
      <trkpt lat="45.13491" lon="4.95433">
        <ele>265.20001220703</ele>
        <time>2018-05-20T07:58:11.000Z</time>
      </trkpt>
      <trkpt lat="45.13496" lon="4.95435">
        <ele>265.20001220703</ele>
        <time>2018-05-20T07:58:13.000Z</time>
      </trkpt>
      <trkpt lat="45.13506" lon="4.95438">
        <ele>265.79998779297</ele>
        <time>2018-05-20T07:58:17.000Z</time>
      </trkpt>
      <trkpt lat="45.13517" lon="4.95441">
        <ele>266.60000610352</ele>
        <time>2018-05-20T07:58:20.000Z</time>
      </trkpt>
      <trkpt lat="45.13524" lon="4.95444">
        <ele>266.79998779297</ele>
        <time>2018-05-20T07:58:22.000Z</time>
      </trkpt>
      <trkpt lat="45.13538" lon="4.95449">
        <ele>267.20001220703</ele>
        <time>2018-05-20T07:58:26.000Z</time>
      </trkpt>
      <trkpt lat="45.13548" lon="4.95453">
        <ele>267.20001220703</ele>
        <time>2018-05-20T07:58:30.000Z</time>
      </trkpt>
      <trkpt lat="45.13558" lon="4.95459">
        <ele>266.20001220703</ele>
        <time>2018-05-20T07:58:34.000Z</time>
      </trkpt>
      <trkpt lat="45.13574" lon="4.95458">
        <ele>265</ele>
        <time>2018-05-20T07:58:39.000Z</time>
      </trkpt>
      <trkpt lat="45.13576" lon="4.95456">
        <ele>265.20001220703</ele>
        <time>2018-05-20T07:58:40.000Z</time>
      </trkpt>
      <trkpt lat="45.13583" lon="4.95451">
        <ele>266</ele>
        <time>2018-05-20T07:58:43.000Z</time>
      </trkpt>
      <trkpt lat="45.1359" lon="4.95447">
        <ele>266.60000610352</ele>
        <time>2018-05-20T07:58:47.000Z</time>
      </trkpt>
      <trkpt lat="45.13597" lon="4.95453">
        <ele>265.60000610352</ele>
        <time>2018-05-20T07:58:53.000Z</time>
      </trkpt>
      <trkpt lat="45.13611" lon="4.95477">
        <ele>266.79998779297</ele>
        <time>2018-05-20T07:59:06.000Z</time>
      </trkpt>
      <trkpt lat="45.13613" lon="4.95478">
        <ele>267</ele>
        <time>2018-05-20T07:59:08.000Z</time>
      </trkpt>
      <trkpt lat="45.13615" lon="4.95475">
        <ele>266.79998779297</ele>
        <time>2018-05-20T07:59:10.000Z</time>
      </trkpt>
      <trkpt lat="45.13625" lon="4.95465">
        <ele>268.20001220703</ele>
        <time>2018-05-20T07:59:13.000Z</time>
      </trkpt>
      <trkpt lat="45.13636" lon="4.95464">
        <ele>269.39999389648</ele>
        <time>2018-05-20T07:59:17.000Z</time>
      </trkpt>
      <trkpt lat="45.13645" lon="4.95473">
        <ele>269.60000610352</ele>
        <time>2018-05-20T07:59:22.000Z</time>
      </trkpt>
      <trkpt lat="45.13646" lon="4.95474">
        <ele>269.60000610352</ele>
        <time>2018-05-20T07:59:23.000Z</time>
      </trkpt>
      <trkpt lat="45.13656" lon="4.95479">
        <ele>270.79998779297</ele>
        <time>2018-05-20T07:59:39.000Z</time>
      </trkpt>
      <trkpt lat="45.13658" lon="4.95479">
        <ele>271</ele>
        <time>2018-05-20T07:59:40.000Z</time>
      </trkpt>
      <trkpt lat="45.1367" lon="4.95483">
        <ele>271.20001220703</ele>
        <time>2018-05-20T07:59:46.000Z</time>
      </trkpt>
      <trkpt lat="45.13678" lon="4.95492">
        <ele>271</ele>
        <time>2018-05-20T07:59:51.000Z</time>
      </trkpt>
      <trkpt lat="45.13678" lon="4.95493">
        <ele>271</ele>
        <time>2018-05-20T07:59:52.000Z</time>
      </trkpt>
      <trkpt lat="45.13686" lon="4.95502">
        <ele>270.79998779297</ele>
        <time>2018-05-20T07:59:56.000Z</time>
      </trkpt>
      <trkpt lat="45.13689" lon="4.95504">
        <ele>270.79998779297</ele>
        <time>2018-05-20T07:59:57.000Z</time>
      </trkpt>
      <trkpt lat="45.1369" lon="4.95506">
        <ele>270.60000610352</ele>
        <time>2018-05-20T07:59:58.000Z</time>
      </trkpt>
      <trkpt lat="45.13695" lon="4.95511">
        <ele>270.39999389648</ele>
        <time>2018-05-20T08:00:01.000Z</time>
      </trkpt>
      <trkpt lat="45.13704" lon="4.95524">
        <ele>270.20001220703</ele>
        <time>2018-05-20T08:00:07.000Z</time>
      </trkpt>
      <trkpt lat="45.13714" lon="4.95529">
        <ele>270.60000610352</ele>
        <time>2018-05-20T08:00:12.000Z</time>
      </trkpt>
      <trkpt lat="45.13716" lon="4.95528">
        <ele>270.79998779297</ele>
        <time>2018-05-20T08:00:13.000Z</time>
      </trkpt>
      <trkpt lat="45.13721" lon="4.95526">
        <ele>271.20001220703</ele>
        <time>2018-05-20T08:00:15.000Z</time>
      </trkpt>
      <trkpt lat="45.13726" lon="4.9552">
        <ele>271.79998779297</ele>
        <time>2018-05-20T08:00:18.000Z</time>
      </trkpt>
      <trkpt lat="45.13738" lon="4.95506">
        <ele>273.39999389648</ele>
        <time>2018-05-20T08:00:24.000Z</time>
      </trkpt>
      <trkpt lat="45.13748" lon="4.95495">
        <ele>275.20001220703</ele>
        <time>2018-05-20T08:00:30.000Z</time>
      </trkpt>
      <trkpt lat="45.1375" lon="4.95497">
        <ele>275.20001220703</ele>
        <time>2018-05-20T08:00:32.000Z</time>
      </trkpt>
      <trkpt lat="45.1375" lon="4.95499">
        <ele>275.20001220703</ele>
        <time>2018-05-20T08:00:33.000Z</time>
      </trkpt>
      <trkpt lat="45.13752" lon="4.955">
        <ele>275.20001220703</ele>
        <time>2018-05-20T08:00:34.000Z</time>
      </trkpt>
      <trkpt lat="45.13753" lon="4.95506">
        <ele>275</ele>
        <time>2018-05-20T08:00:37.000Z</time>
      </trkpt>
      <trkpt lat="45.13754" lon="4.9551">
        <ele>274.79998779297</ele>
        <time>2018-05-20T08:00:39.000Z</time>
      </trkpt>
      <trkpt lat="45.13758" lon="4.95514">
        <ele>275</ele>
        <time>2018-05-20T08:00:41.000Z</time>
      </trkpt>
      <trkpt lat="45.13762" lon="4.95521">
        <ele>275.39999389648</ele>
        <time>2018-05-20T08:00:44.000Z</time>
      </trkpt>
      <trkpt lat="45.13774" lon="4.95526">
        <ele>276.39999389648</ele>
        <time>2018-05-20T08:00:53.000Z</time>
      </trkpt>
      <trkpt lat="45.1378" lon="4.95523">
        <ele>276.79998779297</ele>
        <time>2018-05-20T08:00:54.000Z</time>
      </trkpt>
      <trkpt lat="45.13796" lon="4.9552">
        <ele>278</ele>
        <time>2018-05-20T08:00:58.000Z</time>
      </trkpt>
      <trkpt lat="45.13802" lon="4.95519">
        <ele>277.79998779297</ele>
        <time>2018-05-20T08:01:00.000Z</time>
      </trkpt>
      <trkpt lat="45.13817" lon="4.95518">
        <ele>277.79998779297</ele>
        <time>2018-05-20T08:01:05.000Z</time>
      </trkpt>
      <trkpt lat="45.1382" lon="4.95518">
        <ele>277.79998779297</ele>
        <time>2018-05-20T08:01:06.000Z</time>
      </trkpt>
      <trkpt lat="45.13839" lon="4.95518">
        <ele>277.79998779297</ele>
        <time>2018-05-20T08:01:12.000Z</time>
      </trkpt>
      <trkpt lat="45.13855" lon="4.95523">
        <ele>278</ele>
        <time>2018-05-20T08:01:18.000Z</time>
      </trkpt>
      <trkpt lat="45.13871" lon="4.95528">
        <ele>279</ele>
        <time>2018-05-20T08:01:24.000Z</time>
      </trkpt>
      <trkpt lat="45.13889" lon="4.95524">
        <ele>280.39999389648</ele>
        <time>2018-05-20T08:01:30.000Z</time>
      </trkpt>
      <trkpt lat="45.13901" lon="4.95521">
        <ele>281.20001220703</ele>
        <time>2018-05-20T08:01:36.000Z</time>
      </trkpt>
      <trkpt lat="45.13915" lon="4.95526">
        <ele>281.39999389648</ele>
        <time>2018-05-20T08:01:42.000Z</time>
      </trkpt>
      <trkpt lat="45.13917" lon="4.95526">
        <ele>281.39999389648</ele>
        <time>2018-05-20T08:01:43.000Z</time>
      </trkpt>
      <trkpt lat="45.13926" lon="4.95526">
        <ele>281.60000610352</ele>
        <time>2018-05-20T08:01:48.000Z</time>
      </trkpt>
      <trkpt lat="45.13935" lon="4.95521">
        <ele>281.60000610352</ele>
        <time>2018-05-20T08:01:57.000Z</time>
      </trkpt>
      <trkpt lat="45.13937" lon="4.9552">
        <ele>281.79998779297</ele>
        <time>2018-05-20T08:01:58.000Z</time>
      </trkpt>
      <trkpt lat="45.13939" lon="4.95519">
        <ele>281.79998779297</ele>
        <time>2018-05-20T08:01:59.000Z</time>
      </trkpt>
      <trkpt lat="45.13953" lon="4.9552">
        <ele>281.79998779297</ele>
        <time>2018-05-20T08:02:05.000Z</time>
      </trkpt>
      <trkpt lat="45.13968" lon="4.95521">
        <ele>282</ele>
        <time>2018-05-20T08:02:12.000Z</time>
      </trkpt>
      <trkpt lat="45.13971" lon="4.9552">
        <ele>282</ele>
        <time>2018-05-20T08:02:13.000Z</time>
      </trkpt>
      <trkpt lat="45.13982" lon="4.95527">
        <ele>282.20001220703</ele>
        <time>2018-05-20T08:02:19.000Z</time>
      </trkpt>
      <trkpt lat="45.13993" lon="4.9553">
        <ele>282.79998779297</ele>
        <time>2018-05-20T08:02:24.000Z</time>
      </trkpt>
      <trkpt lat="45.14009" lon="4.95528">
        <ele>284.20001220703</ele>
        <time>2018-05-20T08:02:45.000Z</time>
      </trkpt>
      <trkpt lat="45.14011" lon="4.95527">
        <ele>284.20001220703</ele>
        <time>2018-05-20T08:02:46.000Z</time>
      </trkpt>
      <trkpt lat="45.14019" lon="4.95521">
        <ele>284.39999389648</ele>
        <time>2018-05-20T08:02:59.000Z</time>
      </trkpt>
      <trkpt lat="45.1402" lon="4.95521">
        <ele>284.60000610352</ele>
        <time>2018-05-20T08:03:00.000Z</time>
      </trkpt>
      <trkpt lat="45.14024" lon="4.95515">
        <ele>284.39999389648</ele>
        <time>2018-05-20T08:03:05.000Z</time>
      </trkpt>
      <trkpt lat="45.14027" lon="4.95507">
        <ele>284.79998779297</ele>
        <time>2018-05-20T08:03:14.000Z</time>
      </trkpt>
      <trkpt lat="45.14035" lon="4.95499">
        <ele>285.39999389648</ele>
        <time>2018-05-20T08:03:25.000Z</time>
      </trkpt>
      <trkpt lat="45.14038" lon="4.95497">
        <ele>285.60000610352</ele>
        <time>2018-05-20T08:03:27.000Z</time>
      </trkpt>
      <trkpt lat="45.1404" lon="4.95493">
        <ele>285.79998779297</ele>
        <time>2018-05-20T08:03:29.000Z</time>
      </trkpt>
      <trkpt lat="45.14048" lon="4.95486">
        <ele>286</ele>
        <time>2018-05-20T08:03:34.000Z</time>
      </trkpt>
      <trkpt lat="45.14058" lon="4.95476">
        <ele>286.79998779297</ele>
        <time>2018-05-20T08:03:40.000Z</time>
      </trkpt>
      <trkpt lat="45.14071" lon="4.95471">
        <ele>286.60000610352</ele>
        <time>2018-05-20T08:03:46.000Z</time>
      </trkpt>
      <trkpt lat="45.14083" lon="4.95468">
        <ele>286.79998779297</ele>
        <time>2018-05-20T08:03:51.000Z</time>
      </trkpt>
      <trkpt lat="45.14088" lon="4.95466">
        <ele>286.60000610352</ele>
        <time>2018-05-20T08:03:53.000Z</time>
      </trkpt>
      <trkpt lat="45.14105" lon="4.95461">
        <ele>286.20001220703</ele>
        <time>2018-05-20T08:04:00.000Z</time>
      </trkpt>
      <trkpt lat="45.14124" lon="4.95453">
        <ele>285.60000610352</ele>
        <time>2018-05-20T08:04:07.000Z</time>
      </trkpt>
      <trkpt lat="45.14142" lon="4.95441">
        <ele>286.20001220703</ele>
        <time>2018-05-20T08:04:13.000Z</time>
      </trkpt>
      <trkpt lat="45.14159" lon="4.95425">
        <ele>285.20001220703</ele>
        <time>2018-05-20T08:04:19.000Z</time>
      </trkpt>
      <trkpt lat="45.14174" lon="4.95413">
        <ele>286</ele>
        <time>2018-05-20T08:04:24.000Z</time>
      </trkpt>
      <trkpt lat="45.1418" lon="4.95407">
        <ele>286</ele>
        <time>2018-05-20T08:04:26.000Z</time>
      </trkpt>
      <trkpt lat="45.14202" lon="4.95383">
        <ele>288</ele>
        <time>2018-05-20T08:04:34.000Z</time>
      </trkpt>
      <trkpt lat="45.14219" lon="4.95373">
        <ele>288.60000610352</ele>
        <time>2018-05-20T08:04:40.000Z</time>
      </trkpt>
      <trkpt lat="45.14232" lon="4.95367">
        <ele>288.79998779297</ele>
        <time>2018-05-20T08:04:45.000Z</time>
      </trkpt>
      <trkpt lat="45.14248" lon="4.95362">
        <ele>289</ele>
        <time>2018-05-20T08:04:50.000Z</time>
      </trkpt>
      <trkpt lat="45.14252" lon="4.95361">
        <ele>289.20001220703</ele>
        <time>2018-05-20T08:04:51.000Z</time>
      </trkpt>
      <trkpt lat="45.14266" lon="4.95362">
        <ele>288</ele>
        <time>2018-05-20T08:04:56.000Z</time>
      </trkpt>
      <trkpt lat="45.14277" lon="4.95361">
        <ele>288.39999389648</ele>
        <time>2018-05-20T08:05:08.000Z</time>
      </trkpt>
      <trkpt lat="45.14286" lon="4.95365">
        <ele>288.60000610352</ele>
        <time>2018-05-20T08:05:18.000Z</time>
      </trkpt>
      <trkpt lat="45.14292" lon="4.95368">
        <ele>288.60000610352</ele>
        <time>2018-05-20T08:05:21.000Z</time>
      </trkpt>
      <trkpt lat="45.14307" lon="4.95371">
        <ele>289.20001220703</ele>
        <time>2018-05-20T08:05:27.000Z</time>
      </trkpt>
      <trkpt lat="45.14322" lon="4.95374">
        <ele>290</ele>
        <time>2018-05-20T08:05:32.000Z</time>
      </trkpt>
      <trkpt lat="45.14328" lon="4.95372">
        <ele>290.39999389648</ele>
        <time>2018-05-20T08:05:34.000Z</time>
      </trkpt>
      <trkpt lat="45.1435" lon="4.95362">
        <ele>292.60000610352</ele>
        <time>2018-05-20T08:05:41.000Z</time>
      </trkpt>
      <trkpt lat="45.14372" lon="4.9536">
        <ele>293.60000610352</ele>
        <time>2018-05-20T08:05:48.000Z</time>
      </trkpt>
      <trkpt lat="45.14383" lon="4.95362">
        <ele>293.39999389648</ele>
        <time>2018-05-20T08:05:51.000Z</time>
      </trkpt>
      <trkpt lat="45.14392" lon="4.95361">
        <ele>293.79998779297</ele>
        <time>2018-05-20T08:05:54.000Z</time>
      </trkpt>
      <trkpt lat="45.14397" lon="4.95358">
        <ele>294.39999389648</ele>
        <time>2018-05-20T08:05:56.000Z</time>
      </trkpt>
      <trkpt lat="45.14408" lon="4.95356">
        <ele>295</ele>
        <time>2018-05-20T08:06:00.000Z</time>
      </trkpt>
      <trkpt lat="45.1441" lon="4.95357">
        <ele>294.79998779297</ele>
        <time>2018-05-20T08:06:01.000Z</time>
      </trkpt>
      <trkpt lat="45.14417" lon="4.95365">
        <ele>293.79998779297</ele>
        <time>2018-05-20T08:06:04.000Z</time>
      </trkpt>
      <trkpt lat="45.14423" lon="4.95377">
        <ele>292.79998779297</ele>
        <time>2018-05-20T08:06:07.000Z</time>
      </trkpt>
      <trkpt lat="45.14427" lon="4.95384">
        <ele>292.60000610352</ele>
        <time>2018-05-20T08:06:09.000Z</time>
      </trkpt>
      <trkpt lat="45.14428" lon="4.95387">
        <ele>292.60000610352</ele>
        <time>2018-05-20T08:06:10.000Z</time>
      </trkpt>
      <trkpt lat="45.14439" lon="4.95401">
        <ele>291.79998779297</ele>
        <time>2018-05-20T08:06:15.000Z</time>
      </trkpt>
      <trkpt lat="45.14442" lon="4.95402">
        <ele>291.79998779297</ele>
        <time>2018-05-20T08:06:16.000Z</time>
      </trkpt>
      <trkpt lat="45.14447" lon="4.95406">
        <ele>291.60000610352</ele>
        <time>2018-05-20T08:06:18.000Z</time>
      </trkpt>
      <trkpt lat="45.14446" lon="4.95411">
        <ele>292</ele>
        <time>2018-05-20T08:06:31.000Z</time>
      </trkpt>
      <trkpt lat="45.14445" lon="4.95411">
        <ele>292</ele>
        <time>2018-05-20T08:06:32.000Z</time>
      </trkpt>
      <trkpt lat="45.14449" lon="4.95406">
        <ele>291.60000610352</ele>
        <time>2018-05-20T08:06:42.000Z</time>
      </trkpt>
      <trkpt lat="45.14452" lon="4.95405">
        <ele>291.60000610352</ele>
        <time>2018-05-20T08:06:43.000Z</time>
      </trkpt>
      <trkpt lat="45.14458" lon="4.95397">
        <ele>291.39999389648</ele>
        <time>2018-05-20T08:06:47.000Z</time>
      </trkpt>
      <trkpt lat="45.14466" lon="4.9538">
        <ele>293</ele>
        <time>2018-05-20T08:06:52.000Z</time>
      </trkpt>
      <trkpt lat="45.14472" lon="4.9537">
        <ele>293.79998779297</ele>
        <time>2018-05-20T08:06:55.000Z</time>
      </trkpt>
      <trkpt lat="45.14479" lon="4.95362">
        <ele>294.79998779297</ele>
        <time>2018-05-20T08:06:58.000Z</time>
      </trkpt>
      <trkpt lat="45.14481" lon="4.95362">
        <ele>294.79998779297</ele>
        <time>2018-05-20T08:06:59.000Z</time>
      </trkpt>
      <trkpt lat="45.14486" lon="4.95367">
        <ele>294.60000610352</ele>
        <time>2018-05-20T08:07:02.000Z</time>
      </trkpt>
      <trkpt lat="45.14498" lon="4.95379">
        <ele>295</ele>
        <time>2018-05-20T08:07:08.000Z</time>
      </trkpt>
      <trkpt lat="45.14499" lon="4.95379">
        <ele>295</ele>
        <time>2018-05-20T08:07:09.000Z</time>
      </trkpt>
      <trkpt lat="45.14504" lon="4.9537">
        <ele>294.79998779297</ele>
        <time>2018-05-20T08:07:13.000Z</time>
      </trkpt>
      <trkpt lat="45.14505" lon="4.95368">
        <ele>295</ele>
        <time>2018-05-20T08:07:14.000Z</time>
      </trkpt>
      <trkpt lat="45.14514" lon="4.9535">
        <ele>296.60000610352</ele>
        <time>2018-05-20T08:07:17.000Z</time>
      </trkpt>
      <trkpt lat="45.14527" lon="4.95326">
        <ele>300.60000610352</ele>
        <time>2018-05-20T08:07:23.000Z</time>
      </trkpt>
      <trkpt lat="45.14533" lon="4.95322">
        <ele>301.20001220703</ele>
        <time>2018-05-20T08:07:25.000Z</time>
      </trkpt>
      <trkpt lat="45.1454" lon="4.95322">
        <ele>301.39999389648</ele>
        <time>2018-05-20T08:07:27.000Z</time>
      </trkpt>
      <trkpt lat="45.14558" lon="4.95324">
        <ele>300.60000610352</ele>
        <time>2018-05-20T08:07:32.000Z</time>
      </trkpt>
      <trkpt lat="45.14562" lon="4.95324">
        <ele>300.39999389648</ele>
        <time>2018-05-20T08:07:33.000Z</time>
      </trkpt>
      <trkpt lat="45.14582" lon="4.95322">
        <ele>299.60000610352</ele>
        <time>2018-05-20T08:07:38.000Z</time>
      </trkpt>
      <trkpt lat="45.14593" lon="4.95322">
        <ele>299.20001220703</ele>
        <time>2018-05-20T08:07:42.000Z</time>
      </trkpt>
      <trkpt lat="45.14595" lon="4.95321">
        <ele>299.20001220703</ele>
        <time>2018-05-20T08:07:43.000Z</time>
      </trkpt>
      <trkpt lat="45.14604" lon="4.95317">
        <ele>299.20001220703</ele>
        <time>2018-05-20T08:07:55.000Z</time>
      </trkpt>
      <trkpt lat="45.14605" lon="4.95316">
        <ele>299.20001220703</ele>
        <time>2018-05-20T08:07:56.000Z</time>
      </trkpt>
      <trkpt lat="45.1462" lon="4.95315">
        <ele>299.39999389648</ele>
        <time>2018-05-20T08:08:02.000Z</time>
      </trkpt>
      <trkpt lat="45.14628" lon="4.95313">
        <ele>299.60000610352</ele>
        <time>2018-05-20T08:08:04.000Z</time>
      </trkpt>
      <trkpt lat="45.14636" lon="4.95306">
        <ele>301</ele>
        <time>2018-05-20T08:08:07.000Z</time>
      </trkpt>
      <trkpt lat="45.14639" lon="4.95298">
        <ele>302</ele>
        <time>2018-05-20T08:08:10.000Z</time>
      </trkpt>
      <trkpt lat="45.14638" lon="4.95296">
        <ele>301.79998779297</ele>
        <time>2018-05-20T08:08:11.000Z</time>
      </trkpt>
      <trkpt lat="45.14634" lon="4.95293">
        <ele>302</ele>
        <time>2018-05-20T08:08:13.000Z</time>
      </trkpt>
      <trkpt lat="45.14632" lon="4.95291">
        <ele>302</ele>
        <time>2018-05-20T08:08:14.000Z</time>
      </trkpt>
      <trkpt lat="45.14627" lon="4.9529">
        <ele>302.20001220703</ele>
        <time>2018-05-20T08:08:16.000Z</time>
      </trkpt>
      <trkpt lat="45.14622" lon="4.95288">
        <ele>302.79998779297</ele>
        <time>2018-05-20T08:08:19.000Z</time>
      </trkpt>
      <trkpt lat="45.14618" lon="4.95287">
        <ele>303.20001220703</ele>
        <time>2018-05-20T08:08:22.000Z</time>
      </trkpt>
      <trkpt lat="45.14615" lon="4.95286">
        <ele>303.39999389648</ele>
        <time>2018-05-20T08:08:24.000Z</time>
      </trkpt>
      <trkpt lat="45.14608" lon="4.95283">
        <ele>304.20001220703</ele>
        <time>2018-05-20T08:08:28.000Z</time>
      </trkpt>
      <trkpt lat="45.14606" lon="4.95284">
        <ele>304.20001220703</ele>
        <time>2018-05-20T08:08:29.000Z</time>
      </trkpt>
      <trkpt lat="45.14594" lon="4.95282">
        <ele>305</ele>
        <time>2018-05-20T08:08:35.000Z</time>
      </trkpt>
      <trkpt lat="45.14593" lon="4.95282">
        <ele>305.20001220703</ele>
        <time>2018-05-20T08:08:36.000Z</time>
      </trkpt>
      <trkpt lat="45.14583" lon="4.95279">
        <ele>306.39999389648</ele>
        <time>2018-05-20T08:08:41.000Z</time>
      </trkpt>
      <trkpt lat="45.14575" lon="4.95274">
        <ele>307.79998779297</ele>
        <time>2018-05-20T08:08:46.000Z</time>
      </trkpt>
      <trkpt lat="45.14573" lon="4.95273">
        <ele>308.20001220703</ele>
        <time>2018-05-20T08:08:47.000Z</time>
      </trkpt>
      <trkpt lat="45.14563" lon="4.95263">
        <ele>310.60000610352</ele>
        <time>2018-05-20T08:08:52.000Z</time>
      </trkpt>
      <trkpt lat="45.14562" lon="4.95262">
        <ele>311</ele>
        <time>2018-05-20T08:08:53.000Z</time>
      </trkpt>
      <trkpt lat="45.14559" lon="4.95261">
        <ele>311.39999389648</ele>
        <time>2018-05-20T08:08:55.000Z</time>
      </trkpt>
      <trkpt lat="45.14547" lon="4.95256">
        <ele>313.20001220703</ele>
        <time>2018-05-20T08:09:05.000Z</time>
      </trkpt>
      <trkpt lat="45.1453" lon="4.95252">
        <ele>314.20001220703</ele>
        <time>2018-05-20T08:09:17.000Z</time>
      </trkpt>
      <trkpt lat="45.14522" lon="4.9525">
        <ele>314.79998779297</ele>
        <time>2018-05-20T08:09:22.000Z</time>
      </trkpt>
      <trkpt lat="45.14517" lon="4.95248">
        <ele>315</ele>
        <time>2018-05-20T08:09:25.000Z</time>
      </trkpt>
      <trkpt lat="45.14513" lon="4.95247">
        <ele>314.79998779297</ele>
        <time>2018-05-20T08:09:28.000Z</time>
      </trkpt>
      <trkpt lat="45.14509" lon="4.95244">
        <ele>314.60000610352</ele>
        <time>2018-05-20T08:09:32.000Z</time>
      </trkpt>
      <trkpt lat="45.14507" lon="4.95244">
        <ele>314.60000610352</ele>
        <time>2018-05-20T08:09:33.000Z</time>
      </trkpt>
      <trkpt lat="45.14506" lon="4.95243">
        <ele>314.60000610352</ele>
        <time>2018-05-20T08:09:34.000Z</time>
      </trkpt>
      <trkpt lat="45.14504" lon="4.9524">
        <ele>314.79998779297</ele>
        <time>2018-05-20T08:09:37.000Z</time>
      </trkpt>
      <trkpt lat="45.14502" lon="4.95237">
        <ele>315</ele>
        <time>2018-05-20T08:09:39.000Z</time>
      </trkpt>
      <trkpt lat="45.145" lon="4.95232">
        <ele>315.39999389648</ele>
        <time>2018-05-20T08:09:42.000Z</time>
      </trkpt>
      <trkpt lat="45.14499" lon="4.95228">
        <ele>316</ele>
        <time>2018-05-20T08:09:45.000Z</time>
      </trkpt>
      <trkpt lat="45.14498" lon="4.95224">
        <ele>316.39999389648</ele>
        <time>2018-05-20T08:09:47.000Z</time>
      </trkpt>
      <trkpt lat="45.14497" lon="4.95205">
        <ele>319.39999389648</ele>
        <time>2018-05-20T08:09:58.000Z</time>
      </trkpt>
      <trkpt lat="45.14498" lon="4.95202">
        <ele>319.60000610352</ele>
        <time>2018-05-20T08:09:59.000Z</time>
      </trkpt>
      <trkpt lat="45.14497" lon="4.95187">
        <ele>321.20001220703</ele>
        <time>2018-05-20T08:10:04.000Z</time>
      </trkpt>
      <trkpt lat="45.14498" lon="4.95181">
        <ele>322.20001220703</ele>
        <time>2018-05-20T08:10:06.000Z</time>
      </trkpt>
      <trkpt lat="45.14494" lon="4.95162">
        <ele>323.79998779297</ele>
        <time>2018-05-20T08:10:12.000Z</time>
      </trkpt>
      <trkpt lat="45.14493" lon="4.95155">
        <ele>324.20001220703</ele>
        <time>2018-05-20T08:10:14.000Z</time>
      </trkpt>
      <trkpt lat="45.14488" lon="4.95145">
        <ele>324.39999389648</ele>
        <time>2018-05-20T08:10:17.000Z</time>
      </trkpt>
      <trkpt lat="45.14476" lon="4.95144">
        <ele>323.20001220703</ele>
        <time>2018-05-20T08:10:22.000Z</time>
      </trkpt>
      <trkpt lat="45.14466" lon="4.95143">
        <ele>322.39999389648</ele>
        <time>2018-05-20T08:10:26.000Z</time>
      </trkpt>
      <trkpt lat="45.14457" lon="4.95142">
        <ele>322.39999389648</ele>
        <time>2018-05-20T08:10:30.000Z</time>
      </trkpt>
      <trkpt lat="45.14454" lon="4.95141">
        <ele>322.79998779297</ele>
        <time>2018-05-20T08:10:31.000Z</time>
      </trkpt>
      <trkpt lat="45.14445" lon="4.95136">
        <ele>323.79998779297</ele>
        <time>2018-05-20T08:10:35.000Z</time>
      </trkpt>
      <trkpt lat="45.14441" lon="4.95134">
        <ele>324.20001220703</ele>
        <time>2018-05-20T08:10:37.000Z</time>
      </trkpt>
      <trkpt lat="45.14429" lon="4.95127">
        <ele>325.79998779297</ele>
        <time>2018-05-20T08:10:42.000Z</time>
      </trkpt>
      <trkpt lat="45.1441" lon="4.95114">
        <ele>328.79998779297</ele>
        <time>2018-05-20T08:10:50.000Z</time>
      </trkpt>
      <trkpt lat="45.14409" lon="4.95112">
        <ele>329.39999389648</ele>
        <time>2018-05-20T08:10:51.000Z</time>
      </trkpt>
      <trkpt lat="45.1441" lon="4.95111">
        <ele>329.60000610352</ele>
        <time>2018-05-20T08:10:52.000Z</time>
      </trkpt>
      <trkpt lat="45.14411" lon="4.95111">
        <ele>329.60000610352</ele>
        <time>2018-05-20T08:10:53.000Z</time>
      </trkpt>
      <trkpt lat="45.14414" lon="4.95112">
        <ele>329.20001220703</ele>
        <time>2018-05-20T08:10:55.000Z</time>
      </trkpt>
      <trkpt lat="45.14421" lon="4.95116">
        <ele>328.20001220703</ele>
        <time>2018-05-20T08:10:58.000Z</time>
      </trkpt>
      <trkpt lat="45.14429" lon="4.95121">
        <ele>326.79998779297</ele>
        <time>2018-05-20T08:11:02.000Z</time>
      </trkpt>
      <trkpt lat="45.14432" lon="4.95123">
        <ele>326.20001220703</ele>
        <time>2018-05-20T08:11:03.000Z</time>
      </trkpt>
      <trkpt lat="45.1445" lon="4.95132">
        <ele>324</ele>
        <time>2018-05-20T08:11:08.000Z</time>
      </trkpt>
      <trkpt lat="45.14465" lon="4.95124">
        <ele>324.20001220703</ele>
        <time>2018-05-20T08:11:11.000Z</time>
      </trkpt>
      <trkpt lat="45.14482" lon="4.95111">
        <ele>328</ele>
        <time>2018-05-20T08:11:16.000Z</time>
      </trkpt>
      <trkpt lat="45.14496" lon="4.9511">
        <ele>329.20001220703</ele>
        <time>2018-05-20T08:11:20.000Z</time>
      </trkpt>
      <trkpt lat="45.14499" lon="4.9511">
        <ele>329.60000610352</ele>
        <time>2018-05-20T08:11:21.000Z</time>
      </trkpt>
      <trkpt lat="45.14508" lon="4.95112">
        <ele>330.79998779297</ele>
        <time>2018-05-20T08:11:25.000Z</time>
      </trkpt>
      <trkpt lat="45.14511" lon="4.95113">
        <ele>331.20001220703</ele>
        <time>2018-05-20T08:11:26.000Z</time>
      </trkpt>
      <trkpt lat="45.14516" lon="4.95122">
        <ele>331</ele>
        <time>2018-05-20T08:11:30.000Z</time>
      </trkpt>
      <trkpt lat="45.1452" lon="4.95135">
        <ele>330.79998779297</ele>
        <time>2018-05-20T08:11:34.000Z</time>
      </trkpt>
      <trkpt lat="45.14522" lon="4.95143">
        <ele>330.79998779297</ele>
        <time>2018-05-20T08:11:36.000Z</time>
      </trkpt>
      <trkpt lat="45.14526" lon="4.95162">
        <ele>329.60000610352</ele>
        <time>2018-05-20T08:11:42.000Z</time>
      </trkpt>
      <trkpt lat="45.14527" lon="4.95165">
        <ele>329.60000610352</ele>
        <time>2018-05-20T08:11:43.000Z</time>
      </trkpt>
      <trkpt lat="45.14537" lon="4.95168">
        <ele>330.20001220703</ele>
        <time>2018-05-20T08:11:47.000Z</time>
      </trkpt>
      <trkpt lat="45.14544" lon="4.95164">
        <ele>331.39999389648</ele>
        <time>2018-05-20T08:11:51.000Z</time>
      </trkpt>
      <trkpt lat="45.14551" lon="4.95163">
        <ele>331.60000610352</ele>
        <time>2018-05-20T08:11:54.000Z</time>
      </trkpt>
      <trkpt lat="45.14553" lon="4.95162">
        <ele>331.60000610352</ele>
        <time>2018-05-20T08:11:55.000Z</time>
      </trkpt>
      <trkpt lat="45.14561" lon="4.95156">
        <ele>332.39999389648</ele>
        <time>2018-05-20T08:12:00.000Z</time>
      </trkpt>
      <trkpt lat="45.14562" lon="4.95155">
        <ele>332.60000610352</ele>
        <time>2018-05-20T08:12:01.000Z</time>
      </trkpt>
      <trkpt lat="45.14566" lon="4.95149">
        <ele>333.20001220703</ele>
        <time>2018-05-20T08:12:05.000Z</time>
      </trkpt>
      <trkpt lat="45.14567" lon="4.95147">
        <ele>333.60000610352</ele>
        <time>2018-05-20T08:12:07.000Z</time>
      </trkpt>
      <trkpt lat="45.14569" lon="4.95141">
        <ele>334.20001220703</ele>
        <time>2018-05-20T08:12:10.000Z</time>
      </trkpt>
      <trkpt lat="45.1457" lon="4.95132">
        <ele>335.20001220703</ele>
        <time>2018-05-20T08:12:13.000Z</time>
      </trkpt>
      <trkpt lat="45.1457" lon="4.95126">
        <ele>335.79998779297</ele>
        <time>2018-05-20T08:12:15.000Z</time>
      </trkpt>
      <trkpt lat="45.14571" lon="4.95118">
        <ele>336.79998779297</ele>
        <time>2018-05-20T08:12:18.000Z</time>
      </trkpt>
      <trkpt lat="45.14572" lon="4.95115">
        <ele>337.39999389648</ele>
        <time>2018-05-20T08:12:19.000Z</time>
      </trkpt>
      <trkpt lat="45.14575" lon="4.95109">
        <ele>338.39999389648</ele>
        <time>2018-05-20T08:12:21.000Z</time>
      </trkpt>
      <trkpt lat="45.14581" lon="4.95105">
        <ele>338.60000610352</ele>
        <time>2018-05-20T08:12:23.000Z</time>
      </trkpt>
      <trkpt lat="45.14589" lon="4.95097">
        <ele>340.20001220703</ele>
        <time>2018-05-20T08:12:25.000Z</time>
      </trkpt>
      <trkpt lat="45.14598" lon="4.95086">
        <ele>342</ele>
        <time>2018-05-20T08:12:27.000Z</time>
      </trkpt>
      <trkpt lat="45.14603" lon="4.95081">
        <ele>342.79998779297</ele>
        <time>2018-05-20T08:12:28.000Z</time>
      </trkpt>
      <trkpt lat="45.14608" lon="4.95078">
        <ele>343.79998779297</ele>
        <time>2018-05-20T08:12:29.000Z</time>
      </trkpt>
      <trkpt lat="45.14612" lon="4.95079">
        <ele>343.79998779297</ele>
        <time>2018-05-20T08:12:30.000Z</time>
      </trkpt>
      <trkpt lat="45.14616" lon="4.95079">
        <ele>344.20001220703</ele>
        <time>2018-05-20T08:12:31.000Z</time>
      </trkpt>
      <trkpt lat="45.14624" lon="4.9508">
        <ele>344.79998779297</ele>
        <time>2018-05-20T08:12:33.000Z</time>
      </trkpt>
      <trkpt lat="45.14635" lon="4.95079">
        <ele>346</ele>
        <time>2018-05-20T08:12:36.000Z</time>
      </trkpt>
      <trkpt lat="45.14646" lon="4.95082">
        <ele>346.20001220703</ele>
        <time>2018-05-20T08:12:39.000Z</time>
      </trkpt>
      <trkpt lat="45.14652" lon="4.95085">
        <ele>345.79998779297</ele>
        <time>2018-05-20T08:12:41.000Z</time>
      </trkpt>
      <trkpt lat="45.14659" lon="4.95087">
        <ele>345.60000610352</ele>
        <time>2018-05-20T08:12:43.000Z</time>
      </trkpt>
      <trkpt lat="45.14675" lon="4.95091">
        <ele>345.60000610352</ele>
        <time>2018-05-20T08:12:47.000Z</time>
      </trkpt>
      <trkpt lat="45.14701" lon="4.95094">
        <ele>346</ele>
        <time>2018-05-20T08:12:52.000Z</time>
      </trkpt>
      <trkpt lat="45.14736" lon="4.95096">
        <ele>345.20001220703</ele>
        <time>2018-05-20T08:12:59.000Z</time>
      </trkpt>
      <trkpt lat="45.14746" lon="4.95096">
        <ele>344.60000610352</ele>
        <time>2018-05-20T08:13:01.000Z</time>
      </trkpt>
      <trkpt lat="45.1478" lon="4.951">
        <ele>339.60000610352</ele>
        <time>2018-05-20T08:13:08.000Z</time>
      </trkpt>
      <trkpt lat="45.14805" lon="4.95101">
        <ele>334.60000610352</ele>
        <time>2018-05-20T08:13:12.000Z</time>
      </trkpt>
      <trkpt lat="45.14819" lon="4.951">
        <ele>333.20001220703</ele>
        <time>2018-05-20T08:13:14.000Z</time>
      </trkpt>
      <trkpt lat="45.14835" lon="4.95099">
        <ele>332.39999389648</ele>
        <time>2018-05-20T08:13:16.000Z</time>
      </trkpt>
      <trkpt lat="45.14842" lon="4.95097">
        <ele>332.39999389648</ele>
        <time>2018-05-20T08:13:17.000Z</time>
      </trkpt>
      <trkpt lat="45.14856" lon="4.95091">
        <ele>332.20001220703</ele>
        <time>2018-05-20T08:13:19.000Z</time>
      </trkpt>
      <trkpt lat="45.14867" lon="4.95083">
        <ele>332</ele>
        <time>2018-05-20T08:13:21.000Z</time>
      </trkpt>
      <trkpt lat="45.14872" lon="4.95081">
        <ele>331.79998779297</ele>
        <time>2018-05-20T08:13:22.000Z</time>
      </trkpt>
      <trkpt lat="45.14878" lon="4.95074">
        <ele>332</ele>
        <time>2018-05-20T08:13:25.000Z</time>
      </trkpt>
      <trkpt lat="45.14877" lon="4.95072">
        <ele>332.79998779297</ele>
        <time>2018-05-20T08:13:26.000Z</time>
      </trkpt>
      <trkpt lat="45.14874" lon="4.95067">
        <ele>333.79998779297</ele>
        <time>2018-05-20T08:13:28.000Z</time>
      </trkpt>
      <trkpt lat="45.14871" lon="4.95064">
        <ele>334.60000610352</ele>
        <time>2018-05-20T08:13:30.000Z</time>
      </trkpt>
      <trkpt lat="45.14869" lon="4.95063">
        <ele>335</ele>
        <time>2018-05-20T08:13:31.000Z</time>
      </trkpt>
      <trkpt lat="45.14865" lon="4.95061">
        <ele>335.79998779297</ele>
        <time>2018-05-20T08:13:34.000Z</time>
      </trkpt>
      <trkpt lat="45.14861" lon="4.95057">
        <ele>336.79998779297</ele>
        <time>2018-05-20T08:13:38.000Z</time>
      </trkpt>
      <trkpt lat="45.14859" lon="4.95056">
        <ele>337.20001220703</ele>
        <time>2018-05-20T08:13:40.000Z</time>
      </trkpt>
      <trkpt lat="45.14858" lon="4.95055">
        <ele>337.39999389648</ele>
        <time>2018-05-20T08:13:41.000Z</time>
      </trkpt>
      <trkpt lat="45.14854" lon="4.95053">
        <ele>338.20001220703</ele>
        <time>2018-05-20T08:13:45.000Z</time>
      </trkpt>
      <trkpt lat="45.14852" lon="4.95053">
        <ele>338.60000610352</ele>
        <time>2018-05-20T08:13:47.000Z</time>
      </trkpt>
      <trkpt lat="45.1485" lon="4.95051">
        <ele>339</ele>
        <time>2018-05-20T08:13:49.000Z</time>
      </trkpt>
      <trkpt lat="45.14848" lon="4.95051">
        <ele>339.60000610352</ele>
        <time>2018-05-20T08:13:51.000Z</time>
      </trkpt>
      <trkpt lat="45.14845" lon="4.95051">
        <ele>340.39999389648</ele>
        <time>2018-05-20T08:13:54.000Z</time>
      </trkpt>
      <trkpt lat="45.14843" lon="4.95051">
        <ele>341</ele>
        <time>2018-05-20T08:13:56.000Z</time>
      </trkpt>
      <trkpt lat="45.1484" lon="4.95051">
        <ele>341.60000610352</ele>
        <time>2018-05-20T08:13:58.000Z</time>
      </trkpt>
      <trkpt lat="45.14834" lon="4.95055">
        <ele>343</ele>
        <time>2018-05-20T08:14:03.000Z</time>
      </trkpt>
      <trkpt lat="45.14826" lon="4.95059">
        <ele>344.39999389648</ele>
        <time>2018-05-20T08:14:08.000Z</time>
      </trkpt>
      <trkpt lat="45.14822" lon="4.95062">
        <ele>345.20001220703</ele>
        <time>2018-05-20T08:14:10.000Z</time>
      </trkpt>
      <trkpt lat="45.14801" lon="4.95071">
        <ele>343.60000610352</ele>
        <time>2018-05-20T08:14:18.000Z</time>
      </trkpt>
      <trkpt lat="45.14786" lon="4.9507">
        <ele>345.79998779297</ele>
        <time>2018-05-20T08:14:25.000Z</time>
      </trkpt>
      <trkpt lat="45.14783" lon="4.9507">
        <ele>346.39999389648</ele>
        <time>2018-05-20T08:14:27.000Z</time>
      </trkpt>
      <trkpt lat="45.14775" lon="4.95069">
        <ele>347.79998779297</ele>
        <time>2018-05-20T08:14:31.000Z</time>
      </trkpt>
      <trkpt lat="45.14771" lon="4.95067">
        <ele>348.79998779297</ele>
        <time>2018-05-20T08:14:33.000Z</time>
      </trkpt>
      <trkpt lat="45.14766" lon="4.95063">
        <ele>350.79998779297</ele>
        <time>2018-05-20T08:14:37.000Z</time>
      </trkpt>
      <trkpt lat="45.14762" lon="4.95061">
        <ele>351.39999389648</ele>
        <time>2018-05-20T08:14:39.000Z</time>
      </trkpt>
      <trkpt lat="45.14757" lon="4.95057">
        <ele>353</ele>
        <time>2018-05-20T08:14:43.000Z</time>
      </trkpt>
      <trkpt lat="45.14752" lon="4.95054">
        <ele>354.39999389648</ele>
        <time>2018-05-20T08:14:47.000Z</time>
      </trkpt>
      <trkpt lat="45.14747" lon="4.95052">
        <ele>355.39999389648</ele>
        <time>2018-05-20T08:14:50.000Z</time>
      </trkpt>
      <trkpt lat="45.14744" lon="4.95051">
        <ele>356</ele>
        <time>2018-05-20T08:14:52.000Z</time>
      </trkpt>
      <trkpt lat="45.14733" lon="4.95049">
        <ele>356.79998779297</ele>
        <time>2018-05-20T08:14:57.000Z</time>
      </trkpt>
      <trkpt lat="45.14718" lon="4.95051">
        <ele>356.20001220703</ele>
        <time>2018-05-20T08:15:01.000Z</time>
      </trkpt>
      <trkpt lat="45.14705" lon="4.95049">
        <ele>356.39999389648</ele>
        <time>2018-05-20T08:15:06.000Z</time>
      </trkpt>
      <trkpt lat="45.14694" lon="4.95043">
        <ele>357.60000610352</ele>
        <time>2018-05-20T08:15:12.000Z</time>
      </trkpt>
      <trkpt lat="45.14689" lon="4.95041">
        <ele>358</ele>
        <time>2018-05-20T08:15:15.000Z</time>
      </trkpt>
      <trkpt lat="45.14687" lon="4.95037">
        <ele>358.79998779297</ele>
        <time>2018-05-20T08:15:18.000Z</time>
      </trkpt>
      <trkpt lat="45.14685" lon="4.95036">
        <ele>358.79998779297</ele>
        <time>2018-05-20T08:15:19.000Z</time>
      </trkpt>
      <trkpt lat="45.14683" lon="4.95037">
        <ele>358.60000610352</ele>
        <time>2018-05-20T08:15:20.000Z</time>
      </trkpt>
      <trkpt lat="45.14679" lon="4.95035">
        <ele>359</ele>
        <time>2018-05-20T08:15:22.000Z</time>
      </trkpt>
      <trkpt lat="45.14677" lon="4.95034">
        <ele>359.20001220703</ele>
        <time>2018-05-20T08:15:23.000Z</time>
      </trkpt>
      <trkpt lat="45.1467" lon="4.95027">
        <ele>360.39999389648</ele>
        <time>2018-05-20T08:15:28.000Z</time>
      </trkpt>
      <trkpt lat="45.14666" lon="4.95023">
        <ele>361.20001220703</ele>
        <time>2018-05-20T08:15:32.000Z</time>
      </trkpt>
      <trkpt lat="45.14664" lon="4.9502">
        <ele>361.60000610352</ele>
        <time>2018-05-20T08:15:34.000Z</time>
      </trkpt>
      <trkpt lat="45.14662" lon="4.95018">
        <ele>362</ele>
        <time>2018-05-20T08:15:36.000Z</time>
      </trkpt>
      <trkpt lat="45.14658" lon="4.95014">
        <ele>362.79998779297</ele>
        <time>2018-05-20T08:15:40.000Z</time>
      </trkpt>
      <trkpt lat="45.14657" lon="4.95012">
        <ele>363.20001220703</ele>
        <time>2018-05-20T08:15:42.000Z</time>
      </trkpt>
      <trkpt lat="45.14655" lon="4.9501">
        <ele>363.60000610352</ele>
        <time>2018-05-20T08:15:44.000Z</time>
      </trkpt>
      <trkpt lat="45.14652" lon="4.95006">
        <ele>364.39999389648</ele>
        <time>2018-05-20T08:15:47.000Z</time>
      </trkpt>
      <trkpt lat="45.14647" lon="4.95003">
        <ele>365</ele>
        <time>2018-05-20T08:15:51.000Z</time>
      </trkpt>
      <trkpt lat="45.14642" lon="4.94997">
        <ele>366.20001220703</ele>
        <time>2018-05-20T08:15:56.000Z</time>
      </trkpt>
      <trkpt lat="45.14641" lon="4.94997">
        <ele>366.39999389648</ele>
        <time>2018-05-20T08:15:57.000Z</time>
      </trkpt>
      <trkpt lat="45.14637" lon="4.94992">
        <ele>367.60000610352</ele>
        <time>2018-05-20T08:16:02.000Z</time>
      </trkpt>
      <trkpt lat="45.14635" lon="4.9499">
        <ele>368</ele>
        <time>2018-05-20T08:16:04.000Z</time>
      </trkpt>
      <trkpt lat="45.14634" lon="4.94987">
        <ele>368.60000610352</ele>
        <time>2018-05-20T08:16:06.000Z</time>
      </trkpt>
      <trkpt lat="45.14632" lon="4.94982">
        <ele>369.79998779297</ele>
        <time>2018-05-20T08:16:09.000Z</time>
      </trkpt>
      <trkpt lat="45.14631" lon="4.94982">
        <ele>369.79998779297</ele>
        <time>2018-05-20T08:16:10.000Z</time>
      </trkpt>
      <trkpt lat="45.14629" lon="4.94978">
        <ele>370.79998779297</ele>
        <time>2018-05-20T08:16:13.000Z</time>
      </trkpt>
      <trkpt lat="45.14629" lon="4.94977">
        <ele>371.20001220703</ele>
        <time>2018-05-20T08:16:14.000Z</time>
      </trkpt>
      <trkpt lat="45.14629" lon="4.94974">
        <ele>372</ele>
        <time>2018-05-20T08:16:16.000Z</time>
      </trkpt>
      <trkpt lat="45.14627" lon="4.94972">
        <ele>372.60000610352</ele>
        <time>2018-05-20T08:16:18.000Z</time>
      </trkpt>
      <trkpt lat="45.14627" lon="4.94969">
        <ele>373.39999389648</ele>
        <time>2018-05-20T08:16:20.000Z</time>
      </trkpt>
      <trkpt lat="45.14627" lon="4.94967">
        <ele>374</ele>
        <time>2018-05-20T08:16:21.000Z</time>
      </trkpt>
      <trkpt lat="45.14626" lon="4.94964">
        <ele>374.79998779297</ele>
        <time>2018-05-20T08:16:23.000Z</time>
      </trkpt>
      <trkpt lat="45.14626" lon="4.94962">
        <ele>375.39999389648</ele>
        <time>2018-05-20T08:16:25.000Z</time>
      </trkpt>
      <trkpt lat="45.14645" lon="4.94918">
        <ele>382.60000610352</ele>
        <time>2018-05-20T08:17:41.000Z</time>
      </trkpt>
      <trkpt lat="45.14646" lon="4.94908">
        <ele>383.79998779297</ele>
        <time>2018-05-20T08:17:47.000Z</time>
      </trkpt>
      <trkpt lat="45.14645" lon="4.94904">
        <ele>384.39999389648</ele>
        <time>2018-05-20T08:17:49.000Z</time>
      </trkpt>
      <trkpt lat="45.14644" lon="4.94898">
        <ele>385.20001220703</ele>
        <time>2018-05-20T08:17:53.000Z</time>
      </trkpt>
      <trkpt lat="45.14644" lon="4.94896">
        <ele>385.39999389648</ele>
        <time>2018-05-20T08:17:54.000Z</time>
      </trkpt>
      <trkpt lat="45.14643" lon="4.94893">
        <ele>385.60000610352</ele>
        <time>2018-05-20T08:17:56.000Z</time>
      </trkpt>
      <trkpt lat="45.14642" lon="4.94886">
        <ele>386.20001220703</ele>
        <time>2018-05-20T08:18:00.000Z</time>
      </trkpt>
      <trkpt lat="45.14641" lon="4.94884">
        <ele>386.39999389648</ele>
        <time>2018-05-20T08:18:01.000Z</time>
      </trkpt>
      <trkpt lat="45.14637" lon="4.94878">
        <ele>387</ele>
        <time>2018-05-20T08:18:04.000Z</time>
      </trkpt>
      <trkpt lat="45.14636" lon="4.94875">
        <ele>387.20001220703</ele>
        <time>2018-05-20T08:18:06.000Z</time>
      </trkpt>
      <trkpt lat="45.14634" lon="4.94873">
        <ele>387.60000610352</ele>
        <time>2018-05-20T08:18:08.000Z</time>
      </trkpt>
      <trkpt lat="45.14632" lon="4.94871">
        <ele>387.79998779297</ele>
        <time>2018-05-20T08:18:10.000Z</time>
      </trkpt>
      <trkpt lat="45.14628" lon="4.94865">
        <ele>388.60000610352</ele>
        <time>2018-05-20T08:18:14.000Z</time>
      </trkpt>
      <trkpt lat="45.14627" lon="4.94865">
        <ele>388.79998779297</ele>
        <time>2018-05-20T08:18:15.000Z</time>
      </trkpt>
      <trkpt lat="45.14623" lon="4.94861">
        <ele>389.20001220703</ele>
        <time>2018-05-20T08:18:18.000Z</time>
      </trkpt>
      <trkpt lat="45.1462" lon="4.94858">
        <ele>389.39999389648</ele>
        <time>2018-05-20T08:18:22.000Z</time>
      </trkpt>
      <trkpt lat="45.14619" lon="4.94857">
        <ele>389.60000610352</ele>
        <time>2018-05-20T08:18:23.000Z</time>
      </trkpt>
      <trkpt lat="45.14618" lon="4.94856">
        <ele>389.60000610352</ele>
        <time>2018-05-20T08:18:24.000Z</time>
      </trkpt>
      <trkpt lat="45.14604" lon="4.9484">
        <ele>391.79998779297</ele>
        <time>2018-05-20T08:18:36.000Z</time>
      </trkpt>
      <trkpt lat="45.14603" lon="4.94839">
        <ele>392.20001220703</ele>
        <time>2018-05-20T08:18:37.000Z</time>
      </trkpt>
      <trkpt lat="45.14599" lon="4.94836">
        <ele>392.79998779297</ele>
        <time>2018-05-20T08:18:40.000Z</time>
      </trkpt>
      <trkpt lat="45.14594" lon="4.94834">
        <ele>393.39999389648</ele>
        <time>2018-05-20T08:18:43.000Z</time>
      </trkpt>
      <trkpt lat="45.14592" lon="4.94833">
        <ele>393.60000610352</ele>
        <time>2018-05-20T08:18:44.000Z</time>
      </trkpt>
      <trkpt lat="45.14584" lon="4.94829">
        <ele>394.60000610352</ele>
        <time>2018-05-20T08:18:49.000Z</time>
      </trkpt>
      <trkpt lat="45.14582" lon="4.94828">
        <ele>394.79998779297</ele>
        <time>2018-05-20T08:18:50.000Z</time>
      </trkpt>
      <trkpt lat="45.14578" lon="4.94827">
        <ele>395.20001220703</ele>
        <time>2018-05-20T08:18:53.000Z</time>
      </trkpt>
      <trkpt lat="45.14572" lon="4.94826">
        <ele>395.60000610352</ele>
        <time>2018-05-20T08:18:56.000Z</time>
      </trkpt>
      <trkpt lat="45.14568" lon="4.94825">
        <ele>395.60000610352</ele>
        <time>2018-05-20T08:18:58.000Z</time>
      </trkpt>
      <trkpt lat="45.14557" lon="4.9482">
        <ele>396</ele>
        <time>2018-05-20T08:19:04.000Z</time>
      </trkpt>
      <trkpt lat="45.14555" lon="4.94816">
        <ele>396.39999389648</ele>
        <time>2018-05-20T08:19:06.000Z</time>
      </trkpt>
      <trkpt lat="45.14556" lon="4.94815">
        <ele>396.39999389648</ele>
        <time>2018-05-20T08:19:07.000Z</time>
      </trkpt>
      <trkpt lat="45.14556" lon="4.94814">
        <ele>396.39999389648</ele>
        <time>2018-05-20T08:19:08.000Z</time>
      </trkpt>
      <trkpt lat="45.14558" lon="4.94811">
        <ele>396.39999389648</ele>
        <time>2018-05-20T08:19:10.000Z</time>
      </trkpt>
      <trkpt lat="45.14561" lon="4.94808">
        <ele>396.60000610352</ele>
        <time>2018-05-20T08:19:12.000Z</time>
      </trkpt>
      <trkpt lat="45.14565" lon="4.94804">
        <ele>396.79998779297</ele>
        <time>2018-05-20T08:19:15.000Z</time>
      </trkpt>
      <trkpt lat="45.14569" lon="4.94801">
        <ele>397.39999389648</ele>
        <time>2018-05-20T08:19:18.000Z</time>
      </trkpt>
      <trkpt lat="45.14576" lon="4.94796">
        <ele>397.79998779297</ele>
        <time>2018-05-20T08:19:22.000Z</time>
      </trkpt>
      <trkpt lat="45.14579" lon="4.94794">
        <ele>397.79998779297</ele>
        <time>2018-05-20T08:19:24.000Z</time>
      </trkpt>
      <trkpt lat="45.14587" lon="4.94786">
        <ele>397.79998779297</ele>
        <time>2018-05-20T08:19:29.000Z</time>
      </trkpt>
      <trkpt lat="45.1459" lon="4.94783">
        <ele>397.79998779297</ele>
        <time>2018-05-20T08:19:31.000Z</time>
      </trkpt>
      <trkpt lat="45.14599" lon="4.94773">
        <ele>398</ele>
        <time>2018-05-20T08:19:36.000Z</time>
      </trkpt>
      <trkpt lat="45.14601" lon="4.94772">
        <ele>398</ele>
        <time>2018-05-20T08:19:37.000Z</time>
      </trkpt>
      <trkpt lat="45.1461" lon="4.94768">
        <ele>397.60000610352</ele>
        <time>2018-05-20T08:19:40.000Z</time>
      </trkpt>
      <trkpt lat="45.14621" lon="4.94764">
        <ele>397.79998779297</ele>
        <time>2018-05-20T08:19:44.000Z</time>
      </trkpt>
      <trkpt lat="45.14627" lon="4.94761">
        <ele>397.79998779297</ele>
        <time>2018-05-20T08:19:46.000Z</time>
      </trkpt>
      <trkpt lat="45.14647" lon="4.94751">
        <ele>397.79998779297</ele>
        <time>2018-05-20T08:19:52.000Z</time>
      </trkpt>
      <trkpt lat="45.1467" lon="4.9473">
        <ele>397</ele>
        <time>2018-05-20T08:19:58.000Z</time>
      </trkpt>
      <trkpt lat="45.14691" lon="4.94717">
        <ele>396.20001220703</ele>
        <time>2018-05-20T08:20:03.000Z</time>
      </trkpt>
      <trkpt lat="45.14697" lon="4.94706">
        <ele>396</ele>
        <time>2018-05-20T08:20:06.000Z</time>
      </trkpt>
      <trkpt lat="45.14696" lon="4.94702">
        <ele>396</ele>
        <time>2018-05-20T08:20:07.000Z</time>
      </trkpt>
      <trkpt lat="45.14694" lon="4.947">
        <ele>396</ele>
        <time>2018-05-20T08:20:08.000Z</time>
      </trkpt>
      <trkpt lat="45.1469" lon="4.947">
        <ele>396.39999389648</ele>
        <time>2018-05-20T08:20:10.000Z</time>
      </trkpt>
      <trkpt lat="45.14681" lon="4.94698">
        <ele>396.60000610352</ele>
        <time>2018-05-20T08:20:14.000Z</time>
      </trkpt>
      <trkpt lat="45.14679" lon="4.94698">
        <ele>396.39999389648</ele>
        <time>2018-05-20T08:20:15.000Z</time>
      </trkpt>
      <trkpt lat="45.1467" lon="4.94694">
        <ele>396.20001220703</ele>
        <time>2018-05-20T08:20:20.000Z</time>
      </trkpt>
      <trkpt lat="45.14662" lon="4.94689">
        <ele>395.79998779297</ele>
        <time>2018-05-20T08:20:42.000Z</time>
      </trkpt>
      <trkpt lat="45.14661" lon="4.94684">
        <ele>395.39999389648</ele>
        <time>2018-05-20T08:20:44.000Z</time>
      </trkpt>
      <trkpt lat="45.1466" lon="4.94673">
        <ele>394.60000610352</ele>
        <time>2018-05-20T08:20:47.000Z</time>
      </trkpt>
      <trkpt lat="45.14659" lon="4.94667">
        <ele>394.20001220703</ele>
        <time>2018-05-20T08:20:49.000Z</time>
      </trkpt>
      <trkpt lat="45.14658" lon="4.94653">
        <ele>393.20001220703</ele>
        <time>2018-05-20T08:20:53.000Z</time>
      </trkpt>
      <trkpt lat="45.14656" lon="4.94634">
        <ele>391</ele>
        <time>2018-05-20T08:20:57.000Z</time>
      </trkpt>
      <trkpt lat="45.14655" lon="4.94618">
        <ele>389.39999389648</ele>
        <time>2018-05-20T08:20:59.000Z</time>
      </trkpt>
      <trkpt lat="45.14655" lon="4.94612">
        <ele>388.79998779297</ele>
        <time>2018-05-20T08:21:00.000Z</time>
      </trkpt>
      <trkpt lat="45.14657" lon="4.94603">
        <ele>388.39999389648</ele>
        <time>2018-05-20T08:21:02.000Z</time>
      </trkpt>
      <trkpt lat="45.14659" lon="4.94599">
        <ele>388.39999389648</ele>
        <time>2018-05-20T08:21:03.000Z</time>
      </trkpt>
      <trkpt lat="45.14665" lon="4.94592">
        <ele>388.20001220703</ele>
        <time>2018-05-20T08:21:05.000Z</time>
      </trkpt>
      <trkpt lat="45.14675" lon="4.94582">
        <ele>388</ele>
        <time>2018-05-20T08:21:08.000Z</time>
      </trkpt>
      <trkpt lat="45.14679" lon="4.94578">
        <ele>388</ele>
        <time>2018-05-20T08:21:09.000Z</time>
      </trkpt>
      <trkpt lat="45.14706" lon="4.94549">
        <ele>389.20001220703</ele>
        <time>2018-05-20T08:21:17.000Z</time>
      </trkpt>
      <trkpt lat="45.1471" lon="4.94546">
        <ele>389.20001220703</ele>
        <time>2018-05-20T08:21:18.000Z</time>
      </trkpt>
      <trkpt lat="45.14719" lon="4.94529">
        <ele>389.60000610352</ele>
        <time>2018-05-20T08:21:22.000Z</time>
      </trkpt>
      <trkpt lat="45.14719" lon="4.94505">
        <ele>389</ele>
        <time>2018-05-20T08:21:26.000Z</time>
      </trkpt>
      <trkpt lat="45.14718" lon="4.94497">
        <ele>388.60000610352</ele>
        <time>2018-05-20T08:21:27.000Z</time>
      </trkpt>
      <trkpt lat="45.14718" lon="4.94468">
        <ele>387.60000610352</ele>
        <time>2018-05-20T08:21:30.000Z</time>
      </trkpt>
      <trkpt lat="45.14717" lon="4.94459">
        <ele>387.20001220703</ele>
        <time>2018-05-20T08:21:31.000Z</time>
      </trkpt>
      <trkpt lat="45.14716" lon="4.94451">
        <ele>386.79998779297</ele>
        <time>2018-05-20T08:21:32.000Z</time>
      </trkpt>
      <trkpt lat="45.14715" lon="4.94445">
        <ele>386.20001220703</ele>
        <time>2018-05-20T08:21:33.000Z</time>
      </trkpt>
      <trkpt lat="45.14714" lon="4.9444">
        <ele>385.79998779297</ele>
        <time>2018-05-20T08:21:34.000Z</time>
      </trkpt>
      <trkpt lat="45.14712" lon="4.94431">
        <ele>385.20001220703</ele>
        <time>2018-05-20T08:21:37.000Z</time>
      </trkpt>
      <trkpt lat="45.14711" lon="4.94429">
        <ele>385</ele>
        <time>2018-05-20T08:21:38.000Z</time>
      </trkpt>
      <trkpt lat="45.14709" lon="4.94424">
        <ele>384.39999389648</ele>
        <time>2018-05-20T08:27:14.000Z</time>
      </trkpt>
      <trkpt lat="45.14709" lon="4.94407">
        <ele>382.60000610352</ele>
        <time>2018-05-20T08:27:18.000Z</time>
      </trkpt>
      <trkpt lat="45.14708" lon="4.94394">
        <ele>381</ele>
        <time>2018-05-20T08:27:20.000Z</time>
      </trkpt>
      <trkpt lat="45.14703" lon="4.94381">
        <ele>378.60000610352</ele>
        <time>2018-05-20T08:27:22.000Z</time>
      </trkpt>
      <trkpt lat="45.14689" lon="4.94365">
        <ele>377.20001220703</ele>
        <time>2018-05-20T08:27:25.000Z</time>
      </trkpt>
      <trkpt lat="45.14684" lon="4.94359">
        <ele>377</ele>
        <time>2018-05-20T08:27:26.000Z</time>
      </trkpt>
      <trkpt lat="45.14679" lon="4.94353">
        <ele>376.60000610352</ele>
        <time>2018-05-20T08:27:27.000Z</time>
      </trkpt>
      <trkpt lat="45.14668" lon="4.94342">
        <ele>376.20001220703</ele>
        <time>2018-05-20T08:27:29.000Z</time>
      </trkpt>
      <trkpt lat="45.14654" lon="4.94331">
        <ele>376</ele>
        <time>2018-05-20T08:27:31.000Z</time>
      </trkpt>
      <trkpt lat="45.14642" lon="4.94318">
        <ele>374.60000610352</ele>
        <time>2018-05-20T08:27:33.000Z</time>
      </trkpt>
      <trkpt lat="45.14635" lon="4.94305">
        <ele>373</ele>
        <time>2018-05-20T08:27:35.000Z</time>
      </trkpt>
      <trkpt lat="45.14635" lon="4.94295">
        <ele>371.39999389648</ele>
        <time>2018-05-20T08:27:37.000Z</time>
      </trkpt>
      <trkpt lat="45.14637" lon="4.94291">
        <ele>370.20001220703</ele>
        <time>2018-05-20T08:27:38.000Z</time>
      </trkpt>
      <trkpt lat="45.14639" lon="4.94288">
        <ele>369.39999389648</ele>
        <time>2018-05-20T08:27:39.000Z</time>
      </trkpt>
      <trkpt lat="45.14649" lon="4.94286">
        <ele>367.60000610352</ele>
        <time>2018-05-20T08:27:41.000Z</time>
      </trkpt>
      <trkpt lat="45.14657" lon="4.94286">
        <ele>366.20001220703</ele>
        <time>2018-05-20T08:27:42.000Z</time>
      </trkpt>
      <trkpt lat="45.14672" lon="4.94288">
        <ele>365.60000610352</ele>
        <time>2018-05-20T08:27:44.000Z</time>
      </trkpt>
      <trkpt lat="45.14679" lon="4.9429">
        <ele>365.39999389648</ele>
        <time>2018-05-20T08:27:45.000Z</time>
      </trkpt>
      <trkpt lat="45.14686" lon="4.94291">
        <ele>365.20001220703</ele>
        <time>2018-05-20T08:27:46.000Z</time>
      </trkpt>
      <trkpt lat="45.14694" lon="4.94292">
        <ele>364.20001220703</ele>
        <time>2018-05-20T08:27:48.000Z</time>
      </trkpt>
      <trkpt lat="45.14695" lon="4.9429">
        <ele>363.60000610352</ele>
        <time>2018-05-20T08:27:49.000Z</time>
      </trkpt>
      <trkpt lat="45.14695" lon="4.94287">
        <ele>362.79998779297</ele>
        <time>2018-05-20T08:27:50.000Z</time>
      </trkpt>
      <trkpt lat="45.14691" lon="4.94281">
        <ele>361.79998779297</ele>
        <time>2018-05-20T08:27:52.000Z</time>
      </trkpt>
      <trkpt lat="45.14688" lon="4.94276">
        <ele>361</ele>
        <time>2018-05-20T08:27:53.000Z</time>
      </trkpt>
      <trkpt lat="45.14685" lon="4.94271">
        <ele>360.20001220703</ele>
        <time>2018-05-20T08:27:54.000Z</time>
      </trkpt>
      <trkpt lat="45.14681" lon="4.94266">
        <ele>359.39999389648</ele>
        <time>2018-05-20T08:27:55.000Z</time>
      </trkpt>
      <trkpt lat="45.14679" lon="4.94259">
        <ele>358.39999389648</ele>
        <time>2018-05-20T08:27:56.000Z</time>
      </trkpt>
      <trkpt lat="45.14674" lon="4.94241">
        <ele>356.20001220703</ele>
        <time>2018-05-20T08:27:58.000Z</time>
      </trkpt>
      <trkpt lat="45.14674" lon="4.94231">
        <ele>354.79998779297</ele>
        <time>2018-05-20T08:27:59.000Z</time>
      </trkpt>
      <trkpt lat="45.14675" lon="4.94209">
        <ele>351.79998779297</ele>
        <time>2018-05-20T08:28:01.000Z</time>
      </trkpt>
      <trkpt lat="45.14676" lon="4.94198">
        <ele>350.39999389648</ele>
        <time>2018-05-20T08:28:02.000Z</time>
      </trkpt>
      <trkpt lat="45.14676" lon="4.94187">
        <ele>350.20001220703</ele>
        <time>2018-05-20T08:28:03.000Z</time>
      </trkpt>
      <trkpt lat="45.14675" lon="4.94177">
        <ele>350.20001220703</ele>
        <time>2018-05-20T08:28:04.000Z</time>
      </trkpt>
      <trkpt lat="45.14671" lon="4.94167">
        <ele>349.60000610352</ele>
        <time>2018-05-20T08:28:05.000Z</time>
      </trkpt>
      <trkpt lat="45.14666" lon="4.94158">
        <ele>349.60000610352</ele>
        <time>2018-05-20T08:28:06.000Z</time>
      </trkpt>
      <trkpt lat="45.1466" lon="4.94149">
        <ele>349.60000610352</ele>
        <time>2018-05-20T08:28:07.000Z</time>
      </trkpt>
      <trkpt lat="45.14645" lon="4.94135">
        <ele>347.79998779297</ele>
        <time>2018-05-20T08:28:09.000Z</time>
      </trkpt>
      <trkpt lat="45.14636" lon="4.94128">
        <ele>346.60000610352</ele>
        <time>2018-05-20T08:28:10.000Z</time>
      </trkpt>
      <trkpt lat="45.14627" lon="4.9412">
        <ele>344.79998779297</ele>
        <time>2018-05-20T08:28:11.000Z</time>
      </trkpt>
      <trkpt lat="45.14611" lon="4.94107">
        <ele>338.60000610352</ele>
        <time>2018-05-20T08:28:13.000Z</time>
      </trkpt>
      <trkpt lat="45.14604" lon="4.94101">
        <ele>336.20001220703</ele>
        <time>2018-05-20T08:28:14.000Z</time>
      </trkpt>
      <trkpt lat="45.14598" lon="4.94097">
        <ele>334.39999389648</ele>
        <time>2018-05-20T08:28:15.000Z</time>
      </trkpt>
      <trkpt lat="45.14592" lon="4.94094">
        <ele>333.39999389648</ele>
        <time>2018-05-20T08:28:16.000Z</time>
      </trkpt>
      <trkpt lat="45.14584" lon="4.94093">
        <ele>333.20001220703</ele>
        <time>2018-05-20T08:28:17.000Z</time>
      </trkpt>
      <trkpt lat="45.14576" lon="4.94093">
        <ele>333.39999389648</ele>
        <time>2018-05-20T08:28:18.000Z</time>
      </trkpt>
      <trkpt lat="45.14567" lon="4.94096">
        <ele>332.79998779297</ele>
        <time>2018-05-20T08:28:19.000Z</time>
      </trkpt>
      <trkpt lat="45.14559" lon="4.94101">
        <ele>332.20001220703</ele>
        <time>2018-05-20T08:28:20.000Z</time>
      </trkpt>
      <trkpt lat="45.14552" lon="4.94107">
        <ele>331.79998779297</ele>
        <time>2018-05-20T08:28:21.000Z</time>
      </trkpt>
      <trkpt lat="45.14547" lon="4.94115">
        <ele>331.79998779297</ele>
        <time>2018-05-20T08:28:22.000Z</time>
      </trkpt>
      <trkpt lat="45.14541" lon="4.94123">
        <ele>331.60000610352</ele>
        <time>2018-05-20T08:28:23.000Z</time>
      </trkpt>
      <trkpt lat="45.14531" lon="4.94137">
        <ele>331.39999389648</ele>
        <time>2018-05-20T08:28:25.000Z</time>
      </trkpt>
      <trkpt lat="45.14526" lon="4.94142">
        <ele>331.39999389648</ele>
        <time>2018-05-20T08:28:26.000Z</time>
      </trkpt>
      <trkpt lat="45.14521" lon="4.94145">
        <ele>331</ele>
        <time>2018-05-20T08:28:27.000Z</time>
      </trkpt>
      <trkpt lat="45.14512" lon="4.94142">
        <ele>328.79998779297</ele>
        <time>2018-05-20T08:28:29.000Z</time>
      </trkpt>
      <trkpt lat="45.14506" lon="4.94137">
        <ele>326.79998779297</ele>
        <time>2018-05-20T08:28:30.000Z</time>
      </trkpt>
      <trkpt lat="45.14492" lon="4.94128">
        <ele>322.60000610352</ele>
        <time>2018-05-20T08:28:32.000Z</time>
      </trkpt>
      <trkpt lat="45.14475" lon="4.94123">
        <ele>321.60000610352</ele>
        <time>2018-05-20T08:28:34.000Z</time>
      </trkpt>
      <trkpt lat="45.14459" lon="4.9412">
        <ele>321</ele>
        <time>2018-05-20T08:28:36.000Z</time>
      </trkpt>
      <trkpt lat="45.1445" lon="4.94119">
        <ele>320.79998779297</ele>
        <time>2018-05-20T08:28:37.000Z</time>
      </trkpt>
      <trkpt lat="45.14434" lon="4.9412">
        <ele>320.79998779297</ele>
        <time>2018-05-20T08:28:39.000Z</time>
      </trkpt>
      <trkpt lat="45.14418" lon="4.94121">
        <ele>320.60000610352</ele>
        <time>2018-05-20T08:28:41.000Z</time>
      </trkpt>
      <trkpt lat="45.14403" lon="4.94121">
        <ele>319.79998779297</ele>
        <time>2018-05-20T08:28:43.000Z</time>
      </trkpt>
      <trkpt lat="45.14396" lon="4.94121">
        <ele>318.20001220703</ele>
        <time>2018-05-20T08:28:44.000Z</time>
      </trkpt>
      <trkpt lat="45.14388" lon="4.9412">
        <ele>316.20001220703</ele>
        <time>2018-05-20T08:28:45.000Z</time>
      </trkpt>
      <trkpt lat="45.14381" lon="4.94117">
        <ele>314.20001220703</ele>
        <time>2018-05-20T08:28:46.000Z</time>
      </trkpt>
      <trkpt lat="45.14374" lon="4.94115">
        <ele>312.39999389648</ele>
        <time>2018-05-20T08:28:47.000Z</time>
      </trkpt>
      <trkpt lat="45.14367" lon="4.94112">
        <ele>310.60000610352</ele>
        <time>2018-05-20T08:28:48.000Z</time>
      </trkpt>
      <trkpt lat="45.1436" lon="4.94107">
        <ele>308.39999389648</ele>
        <time>2018-05-20T08:28:49.000Z</time>
      </trkpt>
      <trkpt lat="45.14353" lon="4.94101">
        <ele>306</ele>
        <time>2018-05-20T08:28:50.000Z</time>
      </trkpt>
      <trkpt lat="45.14345" lon="4.94094">
        <ele>303.79998779297</ele>
        <time>2018-05-20T08:28:51.000Z</time>
      </trkpt>
      <trkpt lat="45.14338" lon="4.94085">
        <ele>301.60000610352</ele>
        <time>2018-05-20T08:28:52.000Z</time>
      </trkpt>
      <trkpt lat="45.14331" lon="4.94076">
        <ele>299.39999389648</ele>
        <time>2018-05-20T08:28:53.000Z</time>
      </trkpt>
      <trkpt lat="45.14325" lon="4.94068">
        <ele>297.20001220703</ele>
        <time>2018-05-20T08:28:54.000Z</time>
      </trkpt>
      <trkpt lat="45.14318" lon="4.94061">
        <ele>295.60000610352</ele>
        <time>2018-05-20T08:28:55.000Z</time>
      </trkpt>
      <trkpt lat="45.14311" lon="4.94055">
        <ele>294.20001220703</ele>
        <time>2018-05-20T08:28:56.000Z</time>
      </trkpt>
      <trkpt lat="45.14303" lon="4.9405">
        <ele>292.79998779297</ele>
        <time>2018-05-20T08:28:57.000Z</time>
      </trkpt>
      <trkpt lat="45.14295" lon="4.94045">
        <ele>291.39999389648</ele>
        <time>2018-05-20T08:28:58.000Z</time>
      </trkpt>
      <trkpt lat="45.14286" lon="4.9404">
        <ele>290.60000610352</ele>
        <time>2018-05-20T08:28:59.000Z</time>
      </trkpt>
      <trkpt lat="45.14277" lon="4.94037">
        <ele>290.20001220703</ele>
        <time>2018-05-20T08:29:00.000Z</time>
      </trkpt>
      <trkpt lat="45.14268" lon="4.94033">
        <ele>289.79998779297</ele>
        <time>2018-05-20T08:29:01.000Z</time>
      </trkpt>
      <trkpt lat="45.1426" lon="4.9403">
        <ele>289.39999389648</ele>
        <time>2018-05-20T08:29:02.000Z</time>
      </trkpt>
      <trkpt lat="45.14255" lon="4.94026">
        <ele>289</ele>
        <time>2018-05-20T08:29:03.000Z</time>
      </trkpt>
      <trkpt lat="45.14252" lon="4.94021">
        <ele>288.79998779297</ele>
        <time>2018-05-20T08:29:04.000Z</time>
      </trkpt>
      <trkpt lat="45.1425" lon="4.94016">
        <ele>288.39999389648</ele>
        <time>2018-05-20T08:29:05.000Z</time>
      </trkpt>
      <trkpt lat="45.14252" lon="4.94003">
        <ele>287.79998779297</ele>
        <time>2018-05-20T08:29:07.000Z</time>
      </trkpt>
      <trkpt lat="45.14255" lon="4.93997">
        <ele>287.39999389648</ele>
        <time>2018-05-20T08:29:08.000Z</time>
      </trkpt>
      <trkpt lat="45.14258" lon="4.93992">
        <ele>287.20001220703</ele>
        <time>2018-05-20T08:29:09.000Z</time>
      </trkpt>
      <trkpt lat="45.14264" lon="4.93982">
        <ele>286.60000610352</ele>
        <time>2018-05-20T08:29:11.000Z</time>
      </trkpt>
      <trkpt lat="45.14267" lon="4.93977">
        <ele>286.20001220703</ele>
        <time>2018-05-20T08:29:12.000Z</time>
      </trkpt>
      <trkpt lat="45.14279" lon="4.93961">
        <ele>284</ele>
        <time>2018-05-20T08:29:15.000Z</time>
      </trkpt>
      <trkpt lat="45.14283" lon="4.93956">
        <ele>283.39999389648</ele>
        <time>2018-05-20T08:29:16.000Z</time>
      </trkpt>
      <trkpt lat="45.14288" lon="4.93952">
        <ele>282.60000610352</ele>
        <time>2018-05-20T08:29:17.000Z</time>
      </trkpt>
      <trkpt lat="45.14311" lon="4.93946">
        <ele>279.79998779297</ele>
        <time>2018-05-20T08:29:21.000Z</time>
      </trkpt>
      <trkpt lat="45.14323" lon="4.93946">
        <ele>278.39999389648</ele>
        <time>2018-05-20T08:29:23.000Z</time>
      </trkpt>
      <trkpt lat="45.14342" lon="4.9395">
        <ele>278.39999389648</ele>
        <time>2018-05-20T08:29:26.000Z</time>
      </trkpt>
      <trkpt lat="45.14377" lon="4.93957">
        <ele>279</ele>
        <time>2018-05-20T08:29:31.000Z</time>
      </trkpt>
      <trkpt lat="45.14383" lon="4.93958">
        <ele>279.20001220703</ele>
        <time>2018-05-20T08:29:32.000Z</time>
      </trkpt>
      <trkpt lat="45.14389" lon="4.93958">
        <ele>279.20001220703</ele>
        <time>2018-05-20T08:29:33.000Z</time>
      </trkpt>
      <trkpt lat="45.14402" lon="4.93958">
        <ele>279.20001220703</ele>
        <time>2018-05-20T08:29:35.000Z</time>
      </trkpt>
      <trkpt lat="45.14427" lon="4.93954">
        <ele>279.39999389648</ele>
        <time>2018-05-20T08:29:39.000Z</time>
      </trkpt>
      <trkpt lat="45.14439" lon="4.93949">
        <ele>278.79998779297</ele>
        <time>2018-05-20T08:29:41.000Z</time>
      </trkpt>
      <trkpt lat="45.14455" lon="4.93941">
        <ele>277</ele>
        <time>2018-05-20T08:29:44.000Z</time>
      </trkpt>
      <trkpt lat="45.14499" lon="4.93921">
        <ele>274.39999389648</ele>
        <time>2018-05-20T08:29:52.000Z</time>
      </trkpt>
      <trkpt lat="45.14527" lon="4.93914">
        <ele>274.79998779297</ele>
        <time>2018-05-20T08:29:57.000Z</time>
      </trkpt>
      <trkpt lat="45.14538" lon="4.93912">
        <ele>275.79998779297</ele>
        <time>2018-05-20T08:29:59.000Z</time>
      </trkpt>
      <trkpt lat="45.14543" lon="4.9391">
        <ele>276</ele>
        <time>2018-05-20T08:30:00.000Z</time>
      </trkpt>
      <trkpt lat="45.14552" lon="4.939">
        <ele>275.20001220703</ele>
        <time>2018-05-20T08:30:02.000Z</time>
      </trkpt>
      <trkpt lat="45.14555" lon="4.93892">
        <ele>274.39999389648</ele>
        <time>2018-05-20T08:30:03.000Z</time>
      </trkpt>
      <trkpt lat="45.14561" lon="4.93876">
        <ele>273.39999389648</ele>
        <time>2018-05-20T08:30:05.000Z</time>
      </trkpt>
      <trkpt lat="45.14564" lon="4.93868">
        <ele>273.20001220703</ele>
        <time>2018-05-20T08:30:06.000Z</time>
      </trkpt>
      <trkpt lat="45.14568" lon="4.93861">
        <ele>273</ele>
        <time>2018-05-20T08:30:07.000Z</time>
      </trkpt>
      <trkpt lat="45.14584" lon="4.93845">
        <ele>272.79998779297</ele>
        <time>2018-05-20T08:30:10.000Z</time>
      </trkpt>
      <trkpt lat="45.14597" lon="4.93841">
        <ele>273.60000610352</ele>
        <time>2018-05-20T08:30:12.000Z</time>
      </trkpt>
      <trkpt lat="45.14604" lon="4.9384">
        <ele>273.60000610352</ele>
        <time>2018-05-20T08:30:13.000Z</time>
      </trkpt>
      <trkpt lat="45.14638" lon="4.93835">
        <ele>274.60000610352</ele>
        <time>2018-05-20T08:30:18.000Z</time>
      </trkpt>
      <trkpt lat="45.14643" lon="4.93829">
        <ele>275</ele>
        <time>2018-05-20T08:30:19.000Z</time>
      </trkpt>
      <trkpt lat="45.14657" lon="4.93803">
        <ele>275</ele>
        <time>2018-05-20T08:30:23.000Z</time>
      </trkpt>
      <trkpt lat="45.14672" lon="4.93781">
        <ele>276.20001220703</ele>
        <time>2018-05-20T08:30:27.000Z</time>
      </trkpt>
      <trkpt lat="45.14675" lon="4.93777">
        <ele>276.39999389648</ele>
        <time>2018-05-20T08:30:28.000Z</time>
      </trkpt>
      <trkpt lat="45.14699" lon="4.93755">
        <ele>276.39999389648</ele>
        <time>2018-05-20T08:30:35.000Z</time>
      </trkpt>
      <trkpt lat="45.14711" lon="4.93746">
        <ele>276.20001220703</ele>
        <time>2018-05-20T08:30:39.000Z</time>
      </trkpt>
      <trkpt lat="45.14718" lon="4.93743">
        <ele>276</ele>
        <time>2018-05-20T08:30:41.000Z</time>
      </trkpt>
      <trkpt lat="45.14727" lon="4.93737">
        <ele>275.39999389648</ele>
        <time>2018-05-20T08:30:44.000Z</time>
      </trkpt>
      <trkpt lat="45.14738" lon="4.9373">
        <ele>274.79998779297</ele>
        <time>2018-05-20T08:30:47.000Z</time>
      </trkpt>
      <trkpt lat="45.14761" lon="4.9371">
        <ele>273.39999389648</ele>
        <time>2018-05-20T08:30:53.000Z</time>
      </trkpt>
      <trkpt lat="45.14789" lon="4.93688">
        <ele>275.20001220703</ele>
        <time>2018-05-20T08:30:59.000Z</time>
      </trkpt>
      <trkpt lat="45.14829" lon="4.93661">
        <ele>274.79998779297</ele>
        <time>2018-05-20T08:31:07.000Z</time>
      </trkpt>
      <trkpt lat="45.14866" lon="4.93638">
        <ele>273.60000610352</ele>
        <time>2018-05-20T08:31:14.000Z</time>
      </trkpt>
      <trkpt lat="45.14904" lon="4.93615">
        <ele>274.20001220703</ele>
        <time>2018-05-20T08:31:21.000Z</time>
      </trkpt>
      <trkpt lat="45.14935" lon="4.93596">
        <ele>275</ele>
        <time>2018-05-20T08:31:27.000Z</time>
      </trkpt>
      <trkpt lat="45.1496" lon="4.93581">
        <ele>276.79998779297</ele>
        <time>2018-05-20T08:31:32.000Z</time>
      </trkpt>
      <trkpt lat="45.1497" lon="4.93578">
        <ele>277.60000610352</ele>
        <time>2018-05-20T08:31:34.000Z</time>
      </trkpt>
      <trkpt lat="45.14978" lon="4.93576">
        <ele>277.79998779297</ele>
        <time>2018-05-20T08:31:36.000Z</time>
      </trkpt>
      <trkpt lat="45.14991" lon="4.93576">
        <ele>277.60000610352</ele>
        <time>2018-05-20T08:31:39.000Z</time>
      </trkpt>
      <trkpt lat="45.14995" lon="4.93577">
        <ele>277.39999389648</ele>
        <time>2018-05-20T08:31:40.000Z</time>
      </trkpt>
      <trkpt lat="45.14999" lon="4.93576">
        <ele>277</ele>
        <time>2018-05-20T08:31:41.000Z</time>
      </trkpt>
      <trkpt lat="45.15019" lon="4.93574">
        <ele>275.79998779297</ele>
        <time>2018-05-20T08:31:45.000Z</time>
      </trkpt>
      <trkpt lat="45.15028" lon="4.9357">
        <ele>275.20001220703</ele>
        <time>2018-05-20T08:31:47.000Z</time>
      </trkpt>
      <trkpt lat="45.15037" lon="4.93561">
        <ele>274.79998779297</ele>
        <time>2018-05-20T08:31:49.000Z</time>
      </trkpt>
      <trkpt lat="45.15046" lon="4.93548">
        <ele>274</ele>
        <time>2018-05-20T08:31:51.000Z</time>
      </trkpt>
      <trkpt lat="45.15059" lon="4.93523">
        <ele>274</ele>
        <time>2018-05-20T08:31:54.000Z</time>
      </trkpt>
      <trkpt lat="45.15065" lon="4.93511">
        <ele>273</ele>
        <time>2018-05-20T08:31:55.000Z</time>
      </trkpt>
      <trkpt lat="45.15079" lon="4.93476">
        <ele>273</ele>
        <time>2018-05-20T08:31:58.000Z</time>
      </trkpt>
      <trkpt lat="45.15083" lon="4.93466">
        <ele>273</ele>
        <time>2018-05-20T08:31:59.000Z</time>
      </trkpt>
      <trkpt lat="45.15086" lon="4.93459">
        <ele>273.39999389648</ele>
        <time>2018-05-20T08:32:00.000Z</time>
      </trkpt>
      <trkpt lat="45.1509" lon="4.93454">
        <ele>273.60000610352</ele>
        <time>2018-05-20T08:32:01.000Z</time>
      </trkpt>
      <trkpt lat="45.15094" lon="4.93454">
        <ele>273.79998779297</ele>
        <time>2018-05-20T08:32:02.000Z</time>
      </trkpt>
      <trkpt lat="45.15101" lon="4.93454">
        <ele>274</ele>
        <time>2018-05-20T08:32:04.000Z</time>
      </trkpt>
      <trkpt lat="45.15107" lon="4.93453">
        <ele>274.60000610352</ele>
        <time>2018-05-20T08:32:06.000Z</time>
      </trkpt>
      <trkpt lat="45.1511" lon="4.93453">
        <ele>274.79998779297</ele>
        <time>2018-05-20T08:32:07.000Z</time>
      </trkpt>
      <trkpt lat="45.15125" lon="4.93452">
        <ele>276.60000610352</ele>
        <time>2018-05-20T08:32:13.000Z</time>
      </trkpt>
      <trkpt lat="45.15127" lon="4.93452">
        <ele>276.79998779297</ele>
        <time>2018-05-20T08:32:14.000Z</time>
      </trkpt>
      <trkpt lat="45.15137" lon="4.9345">
        <ele>278.20001220703</ele>
        <time>2018-05-20T08:32:18.000Z</time>
      </trkpt>
      <trkpt lat="45.15139" lon="4.9345">
        <ele>278.39999389648</ele>
        <time>2018-05-20T08:32:19.000Z</time>
      </trkpt>
      <trkpt lat="45.15146" lon="4.9345">
        <ele>279.39999389648</ele>
        <time>2018-05-20T08:32:22.000Z</time>
      </trkpt>
      <trkpt lat="45.15151" lon="4.9345">
        <ele>280.20001220703</ele>
        <time>2018-05-20T08:32:24.000Z</time>
      </trkpt>
      <trkpt lat="45.15158" lon="4.93449">
        <ele>280.79998779297</ele>
        <time>2018-05-20T08:32:27.000Z</time>
      </trkpt>
      <trkpt lat="45.15168" lon="4.93447">
        <ele>282.60000610352</ele>
        <time>2018-05-20T08:32:31.000Z</time>
      </trkpt>
      <trkpt lat="45.1517" lon="4.93447">
        <ele>283</ele>
        <time>2018-05-20T08:32:32.000Z</time>
      </trkpt>
      <trkpt lat="45.15181" lon="4.93446">
        <ele>285.20001220703</ele>
        <time>2018-05-20T08:32:37.000Z</time>
      </trkpt>
      <trkpt lat="45.15182" lon="4.93447">
        <ele>285.39999389648</ele>
        <time>2018-05-20T08:32:38.000Z</time>
      </trkpt>
      <trkpt lat="45.15184" lon="4.93449">
        <ele>285.79998779297</ele>
        <time>2018-05-20T08:32:39.000Z</time>
      </trkpt>
      <trkpt lat="45.15187" lon="4.93459">
        <ele>286.79998779297</ele>
        <time>2018-05-20T08:32:43.000Z</time>
      </trkpt>
      <trkpt lat="45.15188" lon="4.93461">
        <ele>287.20001220703</ele>
        <time>2018-05-20T08:32:44.000Z</time>
      </trkpt>
      <trkpt lat="45.15189" lon="4.93468">
        <ele>288.39999389648</ele>
        <time>2018-05-20T08:32:47.000Z</time>
      </trkpt>
      <trkpt lat="45.15189" lon="4.93477">
        <ele>289.20001220703</ele>
        <time>2018-05-20T08:32:50.000Z</time>
      </trkpt>
      <trkpt lat="45.15188" lon="4.9348">
        <ele>289.39999389648</ele>
        <time>2018-05-20T08:32:51.000Z</time>
      </trkpt>
      <trkpt lat="45.15182" lon="4.93498">
        <ele>288.79998779297</ele>
        <time>2018-05-20T08:32:56.000Z</time>
      </trkpt>
      <trkpt lat="45.15176" lon="4.93516">
        <ele>287.60000610352</ele>
        <time>2018-05-20T08:33:00.000Z</time>
      </trkpt>
      <trkpt lat="45.15176" lon="4.93522">
        <ele>288.20001220703</ele>
        <time>2018-05-20T08:33:01.000Z</time>
      </trkpt>
      <trkpt lat="45.15183" lon="4.93549">
        <ele>291.60000610352</ele>
        <time>2018-05-20T08:33:06.000Z</time>
      </trkpt>
      <trkpt lat="45.15187" lon="4.93571">
        <ele>293.60000610352</ele>
        <time>2018-05-20T08:33:12.000Z</time>
      </trkpt>
      <trkpt lat="45.1519" lon="4.93582">
        <ele>295</ele>
        <time>2018-05-20T08:33:16.000Z</time>
      </trkpt>
      <trkpt lat="45.15193" lon="4.93588">
        <ele>296.20001220703</ele>
        <time>2018-05-20T08:33:18.000Z</time>
      </trkpt>
      <trkpt lat="45.15196" lon="4.93593">
        <ele>297</ele>
        <time>2018-05-20T08:33:20.000Z</time>
      </trkpt>
      <trkpt lat="45.15204" lon="4.93603">
        <ele>299</ele>
        <time>2018-05-20T08:33:25.000Z</time>
      </trkpt>
      <trkpt lat="45.1521" lon="4.93622">
        <ele>299.20001220703</ele>
        <time>2018-05-20T08:33:31.000Z</time>
      </trkpt>
      <trkpt lat="45.15211" lon="4.93634">
        <ele>299.20001220703</ele>
        <time>2018-05-20T08:33:35.000Z</time>
      </trkpt>
      <trkpt lat="45.15213" lon="4.93639">
        <ele>299.39999389648</ele>
        <time>2018-05-20T08:33:37.000Z</time>
      </trkpt>
      <trkpt lat="45.15213" lon="4.93646">
        <ele>299.39999389648</ele>
        <time>2018-05-20T08:33:39.000Z</time>
      </trkpt>
      <trkpt lat="45.15213" lon="4.9365">
        <ele>299.20001220703</ele>
        <time>2018-05-20T08:33:40.000Z</time>
      </trkpt>
      <trkpt lat="45.15212" lon="4.93653">
        <ele>298.79998779297</ele>
        <time>2018-05-20T08:33:41.000Z</time>
      </trkpt>
      <trkpt lat="45.15212" lon="4.93673">
        <ele>298.79998779297</ele>
        <time>2018-05-20T08:33:45.000Z</time>
      </trkpt>
      <trkpt lat="45.15214" lon="4.93692">
        <ele>300</ele>
        <time>2018-05-20T08:33:49.000Z</time>
      </trkpt>
      <trkpt lat="45.15216" lon="4.93699">
        <ele>300.79998779297</ele>
        <time>2018-05-20T08:33:51.000Z</time>
      </trkpt>
      <trkpt lat="45.15216" lon="4.93709">
        <ele>301.20001220703</ele>
        <time>2018-05-20T08:33:54.000Z</time>
      </trkpt>
      <trkpt lat="45.15216" lon="4.93712">
        <ele>301.39999389648</ele>
        <time>2018-05-20T08:33:55.000Z</time>
      </trkpt>
      <trkpt lat="45.15219" lon="4.93724">
        <ele>303</ele>
        <time>2018-05-20T08:34:00.000Z</time>
      </trkpt>
      <trkpt lat="45.15219" lon="4.93726">
        <ele>303.20001220703</ele>
        <time>2018-05-20T08:34:01.000Z</time>
      </trkpt>
      <trkpt lat="45.15219" lon="4.93736">
        <ele>303.79998779297</ele>
        <time>2018-05-20T08:34:06.000Z</time>
      </trkpt>
      <trkpt lat="45.1522" lon="4.93738">
        <ele>304.20001220703</ele>
        <time>2018-05-20T08:34:07.000Z</time>
      </trkpt>
      <trkpt lat="45.15221" lon="4.93744">
        <ele>305.39999389648</ele>
        <time>2018-05-20T08:34:10.000Z</time>
      </trkpt>
      <trkpt lat="45.15223" lon="4.93756">
        <ele>306.60000610352</ele>
        <time>2018-05-20T08:34:20.000Z</time>
      </trkpt>
      <trkpt lat="45.15225" lon="4.93773">
        <ele>308.39999389648</ele>
        <time>2018-05-20T08:34:27.000Z</time>
      </trkpt>
      <trkpt lat="45.15225" lon="4.93776">
        <ele>308.79998779297</ele>
        <time>2018-05-20T08:34:28.000Z</time>
      </trkpt>
      <trkpt lat="45.15226" lon="4.93781">
        <ele>309.39999389648</ele>
        <time>2018-05-20T08:34:30.000Z</time>
      </trkpt>
      <trkpt lat="45.15229" lon="4.93796">
        <ele>311.20001220703</ele>
        <time>2018-05-20T08:34:36.000Z</time>
      </trkpt>
      <trkpt lat="45.15232" lon="4.93808">
        <ele>312.20001220703</ele>
        <time>2018-05-20T08:34:41.000Z</time>
      </trkpt>
      <trkpt lat="45.15233" lon="4.9381">
        <ele>312.60000610352</ele>
        <time>2018-05-20T08:34:42.000Z</time>
      </trkpt>
      <trkpt lat="45.15236" lon="4.93818">
        <ele>314.20001220703</ele>
        <time>2018-05-20T08:34:46.000Z</time>
      </trkpt>
      <trkpt lat="45.15239" lon="4.93824">
        <ele>315.20001220703</ele>
        <time>2018-05-20T08:34:50.000Z</time>
      </trkpt>
      <trkpt lat="45.1524" lon="4.93826">
        <ele>315.39999389648</ele>
        <time>2018-05-20T08:34:51.000Z</time>
      </trkpt>
      <trkpt lat="45.15297" lon="4.93899">
        <ele>336.60000610352</ele>
        <time>2018-05-20T08:36:26.000Z</time>
      </trkpt>
      <trkpt lat="45.15296" lon="4.93898">
        <ele>336.39999389648</ele>
        <time>2018-05-20T08:36:27.000Z</time>
      </trkpt>
      <trkpt lat="45.15293" lon="4.93897">
        <ele>335.39999389648</ele>
        <time>2018-05-20T08:36:30.000Z</time>
      </trkpt>
      <trkpt lat="45.1529" lon="4.93893">
        <ele>334.79998779297</ele>
        <time>2018-05-20T08:36:34.000Z</time>
      </trkpt>
      <trkpt lat="45.15288" lon="4.93887">
        <ele>335</ele>
        <time>2018-05-20T08:36:38.000Z</time>
      </trkpt>
      <trkpt lat="45.15288" lon="4.93886">
        <ele>335.20001220703</ele>
        <time>2018-05-20T08:36:39.000Z</time>
      </trkpt>
      <trkpt lat="45.15288" lon="4.93885">
        <ele>335.39999389648</ele>
        <time>2018-05-20T08:36:40.000Z</time>
      </trkpt>
      <trkpt lat="45.15287" lon="4.93879">
        <ele>335.79998779297</ele>
        <time>2018-05-20T08:36:43.000Z</time>
      </trkpt>
      <trkpt lat="45.15287" lon="4.93875">
        <ele>336</ele>
        <time>2018-05-20T08:36:45.000Z</time>
      </trkpt>
      <trkpt lat="45.15286" lon="4.93874">
        <ele>336</ele>
        <time>2018-05-20T08:36:46.000Z</time>
      </trkpt>
      <trkpt lat="45.15285" lon="4.93871">
        <ele>335.79998779297</ele>
        <time>2018-05-20T08:36:48.000Z</time>
      </trkpt>
      <trkpt lat="45.15288" lon="4.9386">
        <ele>338.39999389648</ele>
        <time>2018-05-20T08:36:59.000Z</time>
      </trkpt>
      <trkpt lat="45.15372" lon="4.93967">
        <ele>355.20001220703</ele>
        <time>2018-05-20T08:38:55.000Z</time>
      </trkpt>
      <trkpt lat="45.15372" lon="4.93977">
        <ele>356</ele>
        <time>2018-05-20T08:39:00.000Z</time>
      </trkpt>
      <trkpt lat="45.15372" lon="4.93983">
        <ele>356.39999389648</ele>
        <time>2018-05-20T08:39:03.000Z</time>
      </trkpt>
      <trkpt lat="45.15363" lon="4.93995">
        <ele>356.60000610352</ele>
        <time>2018-05-20T08:39:09.000Z</time>
      </trkpt>
      <trkpt lat="45.1536" lon="4.93996">
        <ele>356.39999389648</ele>
        <time>2018-05-20T08:39:10.000Z</time>
      </trkpt>
      <trkpt lat="45.15351" lon="4.93999">
        <ele>356</ele>
        <time>2018-05-20T08:39:14.000Z</time>
      </trkpt>
      <trkpt lat="45.15342" lon="4.94002">
        <ele>354.20001220703</ele>
        <time>2018-05-20T08:39:19.000Z</time>
      </trkpt>
      <trkpt lat="45.15336" lon="4.94004">
        <ele>353.39999389648</ele>
        <time>2018-05-20T08:39:22.000Z</time>
      </trkpt>
      <trkpt lat="45.15328" lon="4.9401">
        <ele>352.60000610352</ele>
        <time>2018-05-20T08:39:25.000Z</time>
      </trkpt>
      <trkpt lat="45.15319" lon="4.94028">
        <ele>351.39999389648</ele>
        <time>2018-05-20T08:39:29.000Z</time>
      </trkpt>
      <trkpt lat="45.15318" lon="4.94034">
        <ele>351.39999389648</ele>
        <time>2018-05-20T08:39:30.000Z</time>
      </trkpt>
      <trkpt lat="45.15319" lon="4.94054">
        <ele>354</ele>
        <time>2018-05-20T08:39:33.000Z</time>
      </trkpt>
      <trkpt lat="45.15317" lon="4.94071">
        <ele>356</ele>
        <time>2018-05-20T08:39:36.000Z</time>
      </trkpt>
      <trkpt lat="45.15317" lon="4.94085">
        <ele>357.39999389648</ele>
        <time>2018-05-20T08:39:38.000Z</time>
      </trkpt>
      <trkpt lat="45.15316" lon="4.94107">
        <ele>360</ele>
        <time>2018-05-20T08:39:42.000Z</time>
      </trkpt>
      <trkpt lat="45.15311" lon="4.94123">
        <ele>361.60000610352</ele>
        <time>2018-05-20T08:39:46.000Z</time>
      </trkpt>
      <trkpt lat="45.1531" lon="4.94125">
        <ele>361.79998779297</ele>
        <time>2018-05-20T08:39:47.000Z</time>
      </trkpt>
      <trkpt lat="45.15307" lon="4.94132">
        <ele>362.79998779297</ele>
        <time>2018-05-20T08:39:51.000Z</time>
      </trkpt>
      <trkpt lat="45.15307" lon="4.94138">
        <ele>363.60000610352</ele>
        <time>2018-05-20T08:39:54.000Z</time>
      </trkpt>
      <trkpt lat="45.15306" lon="4.94141">
        <ele>363.79998779297</ele>
        <time>2018-05-20T08:39:55.000Z</time>
      </trkpt>
      <trkpt lat="45.15297" lon="4.94243">
        <ele>379.60000610352</ele>
        <time>2018-05-20T08:41:26.000Z</time>
      </trkpt>
      <trkpt lat="45.15298" lon="4.94246">
        <ele>380</ele>
        <time>2018-05-20T08:41:28.000Z</time>
      </trkpt>
      <trkpt lat="45.15301" lon="4.94251">
        <ele>380.60000610352</ele>
        <time>2018-05-20T08:41:33.000Z</time>
      </trkpt>
      <trkpt lat="45.15301" lon="4.94252">
        <ele>380.79998779297</ele>
        <time>2018-05-20T08:41:34.000Z</time>
      </trkpt>
      <trkpt lat="45.15302" lon="4.94257">
        <ele>381.20001220703</ele>
        <time>2018-05-20T08:41:38.000Z</time>
      </trkpt>
      <trkpt lat="45.15304" lon="4.94259">
        <ele>381.60000610352</ele>
        <time>2018-05-20T08:41:40.000Z</time>
      </trkpt>
      <trkpt lat="45.15305" lon="4.9426">
        <ele>381.79998779297</ele>
        <time>2018-05-20T08:41:41.000Z</time>
      </trkpt>
      <trkpt lat="45.15307" lon="4.94263">
        <ele>382.20001220703</ele>
        <time>2018-05-20T08:41:43.000Z</time>
      </trkpt>
      <trkpt lat="45.15308" lon="4.94264">
        <ele>382.39999389648</ele>
        <time>2018-05-20T08:41:44.000Z</time>
      </trkpt>
      <trkpt lat="45.1531" lon="4.94269">
        <ele>383</ele>
        <time>2018-05-20T08:41:47.000Z</time>
      </trkpt>
      <trkpt lat="45.15312" lon="4.94272">
        <ele>383.39999389648</ele>
        <time>2018-05-20T08:41:49.000Z</time>
      </trkpt>
      <trkpt lat="45.15314" lon="4.94276">
        <ele>383.79998779297</ele>
        <time>2018-05-20T08:41:52.000Z</time>
      </trkpt>
      <trkpt lat="45.15316" lon="4.94279">
        <ele>384.39999389648</ele>
        <time>2018-05-20T08:41:55.000Z</time>
      </trkpt>
      <trkpt lat="45.15317" lon="4.94282">
        <ele>384.60000610352</ele>
        <time>2018-05-20T08:41:57.000Z</time>
      </trkpt>
      <trkpt lat="45.1532" lon="4.94287">
        <ele>385.39999389648</ele>
        <time>2018-05-20T08:42:02.000Z</time>
      </trkpt>
      <trkpt lat="45.15323" lon="4.94293">
        <ele>386</ele>
        <time>2018-05-20T08:42:08.000Z</time>
      </trkpt>
      <trkpt lat="45.15326" lon="4.94303">
        <ele>386.39999389648</ele>
        <time>2018-05-20T08:42:20.000Z</time>
      </trkpt>
      <trkpt lat="45.15325" lon="4.94303">
        <ele>386.39999389648</ele>
        <time>2018-05-20T08:42:21.000Z</time>
      </trkpt>
      <trkpt lat="45.15331" lon="4.94305">
        <ele>386.60000610352</ele>
        <time>2018-05-20T08:43:59.000Z</time>
      </trkpt>
      <trkpt lat="45.15333" lon="4.94307">
        <ele>386.60000610352</ele>
        <time>2018-05-20T08:44:00.000Z</time>
      </trkpt>
      <trkpt lat="45.15339" lon="4.94317">
        <ele>387</ele>
        <time>2018-05-20T08:44:04.000Z</time>
      </trkpt>
      <trkpt lat="45.15343" lon="4.94323">
        <ele>386.79998779297</ele>
        <time>2018-05-20T08:44:06.000Z</time>
      </trkpt>
      <trkpt lat="45.15346" lon="4.94328">
        <ele>386.60000610352</ele>
        <time>2018-05-20T08:44:08.000Z</time>
      </trkpt>
      <trkpt lat="45.15347" lon="4.94337">
        <ele>386.39999389648</ele>
        <time>2018-05-20T08:44:11.000Z</time>
      </trkpt>
      <trkpt lat="45.15351" lon="4.94349">
        <ele>386</ele>
        <time>2018-05-20T08:44:16.000Z</time>
      </trkpt>
      <trkpt lat="45.15359" lon="4.94372">
        <ele>383.60000610352</ele>
        <time>2018-05-20T08:44:23.000Z</time>
      </trkpt>
      <trkpt lat="45.15371" lon="4.94397">
        <ele>381.20001220703</ele>
        <time>2018-05-20T08:44:30.000Z</time>
      </trkpt>
      <trkpt lat="45.15385" lon="4.94422">
        <ele>379.60000610352</ele>
        <time>2018-05-20T08:44:36.000Z</time>
      </trkpt>
      <trkpt lat="45.15399" lon="4.9444">
        <ele>379.39999389648</ele>
        <time>2018-05-20T08:44:41.000Z</time>
      </trkpt>
      <trkpt lat="45.15422" lon="4.9445">
        <ele>379.60000610352</ele>
        <time>2018-05-20T08:44:47.000Z</time>
      </trkpt>
      <trkpt lat="45.15445" lon="4.94459">
        <ele>380.60000610352</ele>
        <time>2018-05-20T08:44:53.000Z</time>
      </trkpt>
      <trkpt lat="45.15469" lon="4.94475">
        <ele>381.60000610352</ele>
        <time>2018-05-20T08:45:00.000Z</time>
      </trkpt>
      <trkpt lat="45.15489" lon="4.94498">
        <ele>381.60000610352</ele>
        <time>2018-05-20T08:45:07.000Z</time>
      </trkpt>
      <trkpt lat="45.15512" lon="4.94533">
        <ele>382</ele>
        <time>2018-05-20T08:45:16.000Z</time>
      </trkpt>
      <trkpt lat="45.15535" lon="4.94563">
        <ele>382.79998779297</ele>
        <time>2018-05-20T08:45:25.000Z</time>
      </trkpt>
      <trkpt lat="45.15542" lon="4.9457">
        <ele>383</ele>
        <time>2018-05-20T08:45:28.000Z</time>
      </trkpt>
      <trkpt lat="45.15546" lon="4.94576">
        <ele>383.20001220703</ele>
        <time>2018-05-20T08:45:30.000Z</time>
      </trkpt>
      <trkpt lat="45.15558" lon="4.94598">
        <ele>384.20001220703</ele>
        <time>2018-05-20T08:45:37.000Z</time>
      </trkpt>
      <trkpt lat="45.15559" lon="4.94602">
        <ele>384.39999389648</ele>
        <time>2018-05-20T08:45:38.000Z</time>
      </trkpt>
      <trkpt lat="45.1556" lon="4.94621">
        <ele>387</ele>
        <time>2018-05-20T08:45:43.000Z</time>
      </trkpt>
      <trkpt lat="45.1556" lon="4.94624">
        <ele>387.60000610352</ele>
        <time>2018-05-20T08:45:44.000Z</time>
      </trkpt>
      <trkpt lat="45.15553" lon="4.94641">
        <ele>391</ele>
        <time>2018-05-20T08:45:50.000Z</time>
      </trkpt>
      <trkpt lat="45.1555" lon="4.94647">
        <ele>392.39999389648</ele>
        <time>2018-05-20T08:45:52.000Z</time>
      </trkpt>
      <trkpt lat="45.15546" lon="4.94666">
        <ele>394.60000610352</ele>
        <time>2018-05-20T08:45:58.000Z</time>
      </trkpt>
      <trkpt lat="45.15546" lon="4.94682">
        <ele>395.20001220703</ele>
        <time>2018-05-20T08:46:03.000Z</time>
      </trkpt>
      <trkpt lat="45.15549" lon="4.9469">
        <ele>395</ele>
        <time>2018-05-20T08:46:06.000Z</time>
      </trkpt>
      <trkpt lat="45.15549" lon="4.94693">
        <ele>395</ele>
        <time>2018-05-20T08:46:07.000Z</time>
      </trkpt>
      <trkpt lat="45.15554" lon="4.947">
        <ele>394.60000610352</ele>
        <time>2018-05-20T08:46:10.000Z</time>
      </trkpt>
      <trkpt lat="45.15558" lon="4.94706">
        <ele>394.20001220703</ele>
        <time>2018-05-20T08:46:13.000Z</time>
      </trkpt>
      <trkpt lat="45.15566" lon="4.94716">
        <ele>393.39999389648</ele>
        <time>2018-05-20T08:46:18.000Z</time>
      </trkpt>
      <trkpt lat="45.15572" lon="4.94721">
        <ele>392.60000610352</ele>
        <time>2018-05-20T08:46:21.000Z</time>
      </trkpt>
      <trkpt lat="45.15582" lon="4.94729">
        <ele>392</ele>
        <time>2018-05-20T08:46:26.000Z</time>
      </trkpt>
      <trkpt lat="45.15587" lon="4.94734">
        <ele>391.60000610352</ele>
        <time>2018-05-20T08:46:28.000Z</time>
      </trkpt>
      <trkpt lat="45.15602" lon="4.94745">
        <ele>390</ele>
        <time>2018-05-20T08:46:33.000Z</time>
      </trkpt>
      <trkpt lat="45.15616" lon="4.94753">
        <ele>389</ele>
        <time>2018-05-20T08:46:38.000Z</time>
      </trkpt>
      <trkpt lat="45.15627" lon="4.9476">
        <ele>388.20001220703</ele>
        <time>2018-05-20T08:46:41.000Z</time>
      </trkpt>
      <trkpt lat="45.15639" lon="4.94768">
        <ele>387.39999389648</ele>
        <time>2018-05-20T08:46:44.000Z</time>
      </trkpt>
      <trkpt lat="45.15643" lon="4.94771">
        <ele>387</ele>
        <time>2018-05-20T08:46:45.000Z</time>
      </trkpt>
      <trkpt lat="45.15647" lon="4.94776">
        <ele>386.79998779297</ele>
        <time>2018-05-20T08:46:46.000Z</time>
      </trkpt>
      <trkpt lat="45.15656" lon="4.94785">
        <ele>386</ele>
        <time>2018-05-20T08:46:48.000Z</time>
      </trkpt>
      <trkpt lat="45.15679" lon="4.94808">
        <ele>387.60000610352</ele>
        <time>2018-05-20T08:46:52.000Z</time>
      </trkpt>
      <trkpt lat="45.15686" lon="4.94814">
        <ele>388</ele>
        <time>2018-05-20T08:46:53.000Z</time>
      </trkpt>
      <trkpt lat="45.15701" lon="4.94826">
        <ele>387.60000610352</ele>
        <time>2018-05-20T08:46:55.000Z</time>
      </trkpt>
      <trkpt lat="45.15708" lon="4.94833">
        <ele>387.20001220703</ele>
        <time>2018-05-20T08:46:56.000Z</time>
      </trkpt>
      <trkpt lat="45.15721" lon="4.94847">
        <ele>386.20001220703</ele>
        <time>2018-05-20T08:46:58.000Z</time>
      </trkpt>
      <trkpt lat="45.15736" lon="4.9487">
        <ele>385.20001220703</ele>
        <time>2018-05-20T08:47:01.000Z</time>
      </trkpt>
      <trkpt lat="45.15745" lon="4.94885">
        <ele>385</ele>
        <time>2018-05-20T08:47:03.000Z</time>
      </trkpt>
      <trkpt lat="45.15757" lon="4.94906">
        <ele>385.39999389648</ele>
        <time>2018-05-20T08:47:06.000Z</time>
      </trkpt>
      <trkpt lat="45.15757" lon="4.94922">
        <ele>386.39999389648</ele>
        <time>2018-05-20T08:47:08.000Z</time>
      </trkpt>
      <trkpt lat="45.15751" lon="4.9494">
        <ele>387.20001220703</ele>
        <time>2018-05-20T08:47:11.000Z</time>
      </trkpt>
      <trkpt lat="45.15749" lon="4.94947">
        <ele>387.20001220703</ele>
        <time>2018-05-20T08:47:12.000Z</time>
      </trkpt>
      <trkpt lat="45.15737" lon="4.9499">
        <ele>387.39999389648</ele>
        <time>2018-05-20T08:47:19.000Z</time>
      </trkpt>
      <trkpt lat="45.15722" lon="4.95026">
        <ele>385.39999389648</ele>
        <time>2018-05-20T08:47:26.000Z</time>
      </trkpt>
      <trkpt lat="45.1572" lon="4.95031">
        <ele>385.39999389648</ele>
        <time>2018-05-20T08:47:27.000Z</time>
      </trkpt>
      <trkpt lat="45.15715" lon="4.9505">
        <ele>385.20001220703</ele>
        <time>2018-05-20T08:47:30.000Z</time>
      </trkpt>
      <trkpt lat="45.15713" lon="4.95057">
        <ele>385</ele>
        <time>2018-05-20T08:47:31.000Z</time>
      </trkpt>
      <trkpt lat="45.15708" lon="4.95091">
        <ele>384.79998779297</ele>
        <time>2018-05-20T08:47:36.000Z</time>
      </trkpt>
      <trkpt lat="45.15704" lon="4.95117">
        <ele>382.60000610352</ele>
        <time>2018-05-20T08:47:40.000Z</time>
      </trkpt>
      <trkpt lat="45.15704" lon="4.95127">
        <ele>381.60000610352</ele>
        <time>2018-05-20T08:47:41.000Z</time>
      </trkpt>
      <trkpt lat="45.15706" lon="4.95146">
        <ele>379</ele>
        <time>2018-05-20T08:47:43.000Z</time>
      </trkpt>
      <trkpt lat="45.15707" lon="4.95162">
        <ele>377.39999389648</ele>
        <time>2018-05-20T08:47:45.000Z</time>
      </trkpt>
      <trkpt lat="45.15708" lon="4.95169">
        <ele>376.79998779297</ele>
        <time>2018-05-20T08:47:46.000Z</time>
      </trkpt>
      <trkpt lat="45.15708" lon="4.95177">
        <ele>376</ele>
        <time>2018-05-20T08:47:47.000Z</time>
      </trkpt>
      <trkpt lat="45.15708" lon="4.95183">
        <ele>375</ele>
        <time>2018-05-20T08:47:48.000Z</time>
      </trkpt>
      <trkpt lat="45.15707" lon="4.9519">
        <ele>374</ele>
        <time>2018-05-20T08:47:49.000Z</time>
      </trkpt>
      <trkpt lat="45.15704" lon="4.95198">
        <ele>372.60000610352</ele>
        <time>2018-05-20T08:47:50.000Z</time>
      </trkpt>
      <trkpt lat="45.15702" lon="4.95207">
        <ele>371.60000610352</ele>
        <time>2018-05-20T08:47:51.000Z</time>
      </trkpt>
      <trkpt lat="45.157" lon="4.95215">
        <ele>370.39999389648</ele>
        <time>2018-05-20T08:47:52.000Z</time>
      </trkpt>
      <trkpt lat="45.15699" lon="4.95224">
        <ele>369</ele>
        <time>2018-05-20T08:47:53.000Z</time>
      </trkpt>
      <trkpt lat="45.15698" lon="4.95232">
        <ele>367.79998779297</ele>
        <time>2018-05-20T08:47:54.000Z</time>
      </trkpt>
      <trkpt lat="45.15698" lon="4.9524">
        <ele>367.20001220703</ele>
        <time>2018-05-20T08:47:55.000Z</time>
      </trkpt>
      <trkpt lat="45.15699" lon="4.95247">
        <ele>367</ele>
        <time>2018-05-20T08:47:56.000Z</time>
      </trkpt>
      <trkpt lat="45.157" lon="4.95252">
        <ele>367</ele>
        <time>2018-05-20T08:47:57.000Z</time>
      </trkpt>
      <trkpt lat="45.15702" lon="4.95257">
        <ele>366.79998779297</ele>
        <time>2018-05-20T08:47:58.000Z</time>
      </trkpt>
      <trkpt lat="45.15704" lon="4.95263">
        <ele>366.60000610352</ele>
        <time>2018-05-20T08:47:59.000Z</time>
      </trkpt>
      <trkpt lat="45.15705" lon="4.95274">
        <ele>366.79998779297</ele>
        <time>2018-05-20T08:48:01.000Z</time>
      </trkpt>
      <trkpt lat="45.15706" lon="4.9528">
        <ele>366.79998779297</ele>
        <time>2018-05-20T08:48:02.000Z</time>
      </trkpt>
      <trkpt lat="45.15705" lon="4.95286">
        <ele>366.60000610352</ele>
        <time>2018-05-20T08:48:03.000Z</time>
      </trkpt>
      <trkpt lat="45.15698" lon="4.95295">
        <ele>366.20001220703</ele>
        <time>2018-05-20T08:48:05.000Z</time>
      </trkpt>
      <trkpt lat="45.15687" lon="4.953">
        <ele>365.39999389648</ele>
        <time>2018-05-20T08:48:08.000Z</time>
      </trkpt>
      <trkpt lat="45.15683" lon="4.95301">
        <ele>365.39999389648</ele>
        <time>2018-05-20T08:48:09.000Z</time>
      </trkpt>
      <trkpt lat="45.15673" lon="4.95307">
        <ele>365.20001220703</ele>
        <time>2018-05-20T08:48:13.000Z</time>
      </trkpt>
      <trkpt lat="45.15658" lon="4.95308">
        <ele>363.39999389648</ele>
        <time>2018-05-20T08:48:18.000Z</time>
      </trkpt>
      <trkpt lat="45.15651" lon="4.95307">
        <ele>362.79998779297</ele>
        <time>2018-05-20T08:48:20.000Z</time>
      </trkpt>
      <trkpt lat="45.15636" lon="4.9531">
        <ele>361.60000610352</ele>
        <time>2018-05-20T08:48:24.000Z</time>
      </trkpt>
      <trkpt lat="45.15616" lon="4.95324">
        <ele>360.39999389648</ele>
        <time>2018-05-20T08:48:30.000Z</time>
      </trkpt>
      <trkpt lat="45.15594" lon="4.95346">
        <ele>359.20001220703</ele>
        <time>2018-05-20T08:48:37.000Z</time>
      </trkpt>
      <trkpt lat="45.15591" lon="4.95349">
        <ele>359.39999389648</ele>
        <time>2018-05-20T08:48:38.000Z</time>
      </trkpt>
      <trkpt lat="45.15572" lon="4.95365">
        <ele>359</ele>
        <time>2018-05-20T08:48:44.000Z</time>
      </trkpt>
      <trkpt lat="45.15568" lon="4.95367">
        <ele>358.79998779297</ele>
        <time>2018-05-20T08:48:45.000Z</time>
      </trkpt>
      <trkpt lat="45.1556" lon="4.95382">
        <ele>359.79998779297</ele>
        <time>2018-05-20T08:48:49.000Z</time>
      </trkpt>
      <trkpt lat="45.15558" lon="4.95396">
        <ele>362</ele>
        <time>2018-05-20T08:48:53.000Z</time>
      </trkpt>
      <trkpt lat="45.15557" lon="4.95401">
        <ele>362.60000610352</ele>
        <time>2018-05-20T08:48:55.000Z</time>
      </trkpt>
      <trkpt lat="45.15556" lon="4.95403">
        <ele>362.79998779297</ele>
        <time>2018-05-20T08:48:56.000Z</time>
      </trkpt>
      <trkpt lat="45.15552" lon="4.95412">
        <ele>364</ele>
        <time>2018-05-20T08:49:00.000Z</time>
      </trkpt>
      <trkpt lat="45.1555" lon="4.95417">
        <ele>364.39999389648</ele>
        <time>2018-05-20T08:49:02.000Z</time>
      </trkpt>
      <trkpt lat="45.15549" lon="4.95424">
        <ele>365.39999389648</ele>
        <time>2018-05-20T08:49:05.000Z</time>
      </trkpt>
      <trkpt lat="45.15549" lon="4.95429">
        <ele>366.20001220703</ele>
        <time>2018-05-20T08:49:08.000Z</time>
      </trkpt>
      <trkpt lat="45.15549" lon="4.95431">
        <ele>366.39999389648</ele>
        <time>2018-05-20T08:49:09.000Z</time>
      </trkpt>
      <trkpt lat="45.15549" lon="4.95435">
        <ele>366.60000610352</ele>
        <time>2018-05-20T08:49:11.000Z</time>
      </trkpt>
      <trkpt lat="45.15549" lon="4.95436">
        <ele>366.79998779297</ele>
        <time>2018-05-20T08:49:12.000Z</time>
      </trkpt>
      <trkpt lat="45.1555" lon="4.95439">
        <ele>367</ele>
        <time>2018-05-20T08:49:14.000Z</time>
      </trkpt>
      <trkpt lat="45.15549" lon="4.95442">
        <ele>367.20001220703</ele>
        <time>2018-05-20T08:49:16.000Z</time>
      </trkpt>
      <trkpt lat="45.15547" lon="4.95446">
        <ele>367.39999389648</ele>
        <time>2018-05-20T08:49:19.000Z</time>
      </trkpt>
      <trkpt lat="45.15547" lon="4.95447">
        <ele>367.39999389648</ele>
        <time>2018-05-20T08:49:20.000Z</time>
      </trkpt>
      <trkpt lat="45.15546" lon="4.95449">
        <ele>367.39999389648</ele>
        <time>2018-05-20T08:49:21.000Z</time>
      </trkpt>
      <trkpt lat="45.15548" lon="4.95452">
        <ele>367.79998779297</ele>
        <time>2018-05-20T08:49:25.000Z</time>
      </trkpt>
      <trkpt lat="45.15549" lon="4.95456">
        <ele>368.20001220703</ele>
        <time>2018-05-20T08:49:29.000Z</time>
      </trkpt>
      <trkpt lat="45.15549" lon="4.95459">
        <ele>368.20001220703</ele>
        <time>2018-05-20T08:49:30.000Z</time>
      </trkpt>
      <trkpt lat="45.1555" lon="4.9547">
        <ele>368.60000610352</ele>
        <time>2018-05-20T08:49:36.000Z</time>
      </trkpt>
      <trkpt lat="45.15553" lon="4.95477">
        <ele>369</ele>
        <time>2018-05-20T08:49:39.000Z</time>
      </trkpt>
      <trkpt lat="45.15553" lon="4.95483">
        <ele>369.20001220703</ele>
        <time>2018-05-20T08:49:41.000Z</time>
      </trkpt>
      <trkpt lat="45.15552" lon="4.95486">
        <ele>369</ele>
        <time>2018-05-20T08:49:42.000Z</time>
      </trkpt>
      <trkpt lat="45.15547" lon="4.95492">
        <ele>368.60000610352</ele>
        <time>2018-05-20T08:49:44.000Z</time>
      </trkpt>
      <trkpt lat="45.1554" lon="4.955">
        <ele>368.60000610352</ele>
        <time>2018-05-20T08:49:46.000Z</time>
      </trkpt>
      <trkpt lat="45.15531" lon="4.95511">
        <ele>368.60000610352</ele>
        <time>2018-05-20T08:49:48.000Z</time>
      </trkpt>
      <trkpt lat="45.15521" lon="4.95522">
        <ele>368</ele>
        <time>2018-05-20T08:49:50.000Z</time>
      </trkpt>
      <trkpt lat="45.15515" lon="4.95531">
        <ele>367.79998779297</ele>
        <time>2018-05-20T08:49:51.000Z</time>
      </trkpt>
      <trkpt lat="45.1551" lon="4.95539">
        <ele>367</ele>
        <time>2018-05-20T08:49:52.000Z</time>
      </trkpt>
      <trkpt lat="45.155" lon="4.95558">
        <ele>363.39999389648</ele>
        <time>2018-05-20T08:49:54.000Z</time>
      </trkpt>
      <trkpt lat="45.15496" lon="4.95569">
        <ele>362.39999389648</ele>
        <time>2018-05-20T08:49:55.000Z</time>
      </trkpt>
      <trkpt lat="45.1549" lon="4.9558">
        <ele>360.20001220703</ele>
        <time>2018-05-20T08:49:56.000Z</time>
      </trkpt>
      <trkpt lat="45.15486" lon="4.9559">
        <ele>357.60000610352</ele>
        <time>2018-05-20T08:49:57.000Z</time>
      </trkpt>
      <trkpt lat="45.15482" lon="4.95599">
        <ele>356</ele>
        <time>2018-05-20T08:49:58.000Z</time>
      </trkpt>
      <trkpt lat="45.15478" lon="4.95606">
        <ele>354.79998779297</ele>
        <time>2018-05-20T08:49:59.000Z</time>
      </trkpt>
      <trkpt lat="45.15477" lon="4.95612">
        <ele>353.60000610352</ele>
        <time>2018-05-20T08:50:00.000Z</time>
      </trkpt>
      <trkpt lat="45.15476" lon="4.95619">
        <ele>352.39999389648</ele>
        <time>2018-05-20T08:50:01.000Z</time>
      </trkpt>
      <trkpt lat="45.15478" lon="4.95626">
        <ele>351</ele>
        <time>2018-05-20T08:50:02.000Z</time>
      </trkpt>
      <trkpt lat="45.1548" lon="4.95632">
        <ele>349.39999389648</ele>
        <time>2018-05-20T08:50:03.000Z</time>
      </trkpt>
      <trkpt lat="45.15483" lon="4.95641">
        <ele>347</ele>
        <time>2018-05-20T08:50:04.000Z</time>
      </trkpt>
      <trkpt lat="45.15487" lon="4.9565">
        <ele>344.79998779297</ele>
        <time>2018-05-20T08:50:05.000Z</time>
      </trkpt>
      <trkpt lat="45.15493" lon="4.95659">
        <ele>343.20001220703</ele>
        <time>2018-05-20T08:50:06.000Z</time>
      </trkpt>
      <trkpt lat="45.155" lon="4.95666">
        <ele>341.60000610352</ele>
        <time>2018-05-20T08:50:07.000Z</time>
      </trkpt>
      <trkpt lat="45.15507" lon="4.95673">
        <ele>340</ele>
        <time>2018-05-20T08:50:08.000Z</time>
      </trkpt>
      <trkpt lat="45.1552" lon="4.95684">
        <ele>338</ele>
        <time>2018-05-20T08:50:10.000Z</time>
      </trkpt>
      <trkpt lat="45.15524" lon="4.9569">
        <ele>337.79998779297</ele>
        <time>2018-05-20T08:50:11.000Z</time>
      </trkpt>
      <trkpt lat="45.15526" lon="4.95698">
        <ele>337.79998779297</ele>
        <time>2018-05-20T08:50:12.000Z</time>
      </trkpt>
      <trkpt lat="45.15527" lon="4.95707">
        <ele>338</ele>
        <time>2018-05-20T08:50:13.000Z</time>
      </trkpt>
      <trkpt lat="45.15529" lon="4.95715">
        <ele>337.79998779297</ele>
        <time>2018-05-20T08:50:14.000Z</time>
      </trkpt>
      <trkpt lat="45.15529" lon="4.95724">
        <ele>337.60000610352</ele>
        <time>2018-05-20T08:50:15.000Z</time>
      </trkpt>
      <trkpt lat="45.15528" lon="4.95733">
        <ele>337.39999389648</ele>
        <time>2018-05-20T08:50:16.000Z</time>
      </trkpt>
      <trkpt lat="45.15527" lon="4.95743">
        <ele>337</ele>
        <time>2018-05-20T08:50:17.000Z</time>
      </trkpt>
      <trkpt lat="45.15523" lon="4.95778">
        <ele>336.60000610352</ele>
        <time>2018-05-20T08:50:21.000Z</time>
      </trkpt>
      <trkpt lat="45.15522" lon="4.95794">
        <ele>335.60000610352</ele>
        <time>2018-05-20T08:50:23.000Z</time>
      </trkpt>
      <trkpt lat="45.15521" lon="4.95801">
        <ele>335.39999389648</ele>
        <time>2018-05-20T08:50:24.000Z</time>
      </trkpt>
      <trkpt lat="45.1552" lon="4.95821">
        <ele>334.79998779297</ele>
        <time>2018-05-20T08:50:27.000Z</time>
      </trkpt>
      <trkpt lat="45.1552" lon="4.95831">
        <ele>334.39999389648</ele>
        <time>2018-05-20T08:50:29.000Z</time>
      </trkpt>
      <trkpt lat="45.15522" lon="4.95834">
        <ele>334.39999389648</ele>
        <time>2018-05-20T08:50:30.000Z</time>
      </trkpt>
      <trkpt lat="45.1553" lon="4.95838">
        <ele>333.79998779297</ele>
        <time>2018-05-20T08:50:32.000Z</time>
      </trkpt>
      <trkpt lat="45.15536" lon="4.95839">
        <ele>333.60000610352</ele>
        <time>2018-05-20T08:50:33.000Z</time>
      </trkpt>
      <trkpt lat="45.15547" lon="4.95839">
        <ele>332.79998779297</ele>
        <time>2018-05-20T08:50:35.000Z</time>
      </trkpt>
      <trkpt lat="45.15554" lon="4.95838">
        <ele>331.79998779297</ele>
        <time>2018-05-20T08:50:36.000Z</time>
      </trkpt>
      <trkpt lat="45.15561" lon="4.95838">
        <ele>330.79998779297</ele>
        <time>2018-05-20T08:50:37.000Z</time>
      </trkpt>
      <trkpt lat="45.15568" lon="4.95838">
        <ele>330</ele>
        <time>2018-05-20T08:50:38.000Z</time>
      </trkpt>
      <trkpt lat="45.15583" lon="4.95839">
        <ele>328.79998779297</ele>
        <time>2018-05-20T08:50:40.000Z</time>
      </trkpt>
      <trkpt lat="45.1559" lon="4.95841">
        <ele>328.20001220703</ele>
        <time>2018-05-20T08:50:41.000Z</time>
      </trkpt>
      <trkpt lat="45.15597" lon="4.95844">
        <ele>327.39999389648</ele>
        <time>2018-05-20T08:50:42.000Z</time>
      </trkpt>
      <trkpt lat="45.15611" lon="4.95856">
        <ele>325.60000610352</ele>
        <time>2018-05-20T08:50:44.000Z</time>
      </trkpt>
      <trkpt lat="45.15619" lon="4.95862">
        <ele>324.60000610352</ele>
        <time>2018-05-20T08:50:45.000Z</time>
      </trkpt>
      <trkpt lat="45.15628" lon="4.95867">
        <ele>323.60000610352</ele>
        <time>2018-05-20T08:50:46.000Z</time>
      </trkpt>
      <trkpt lat="45.15638" lon="4.95872">
        <ele>322.20001220703</ele>
        <time>2018-05-20T08:50:47.000Z</time>
      </trkpt>
      <trkpt lat="45.15647" lon="4.95878">
        <ele>320.79998779297</ele>
        <time>2018-05-20T08:50:48.000Z</time>
      </trkpt>
      <trkpt lat="45.15657" lon="4.95883">
        <ele>319.39999389648</ele>
        <time>2018-05-20T08:50:49.000Z</time>
      </trkpt>
      <trkpt lat="45.15667" lon="4.95889">
        <ele>317.79998779297</ele>
        <time>2018-05-20T08:50:50.000Z</time>
      </trkpt>
      <trkpt lat="45.15678" lon="4.95894">
        <ele>316.20001220703</ele>
        <time>2018-05-20T08:50:51.000Z</time>
      </trkpt>
      <trkpt lat="45.15688" lon="4.95899">
        <ele>315</ele>
        <time>2018-05-20T08:50:52.000Z</time>
      </trkpt>
      <trkpt lat="45.15695" lon="4.95904">
        <ele>313.79998779297</ele>
        <time>2018-05-20T08:50:53.000Z</time>
      </trkpt>
      <trkpt lat="45.15702" lon="4.95909">
        <ele>312.39999389648</ele>
        <time>2018-05-20T08:50:54.000Z</time>
      </trkpt>
      <trkpt lat="45.15707" lon="4.95916">
        <ele>311</ele>
        <time>2018-05-20T08:50:55.000Z</time>
      </trkpt>
      <trkpt lat="45.15712" lon="4.95924">
        <ele>309.60000610352</ele>
        <time>2018-05-20T08:50:56.000Z</time>
      </trkpt>
      <trkpt lat="45.15715" lon="4.95934">
        <ele>308.79998779297</ele>
        <time>2018-05-20T08:50:57.000Z</time>
      </trkpt>
      <trkpt lat="45.1572" lon="4.95954">
        <ele>308.20001220703</ele>
        <time>2018-05-20T08:50:59.000Z</time>
      </trkpt>
      <trkpt lat="45.15726" lon="4.95968">
        <ele>307.20001220703</ele>
        <time>2018-05-20T08:51:01.000Z</time>
      </trkpt>
      <trkpt lat="45.15731" lon="4.95975">
        <ele>306.39999389648</ele>
        <time>2018-05-20T08:51:02.000Z</time>
      </trkpt>
      <trkpt lat="45.15737" lon="4.95983">
        <ele>305.39999389648</ele>
        <time>2018-05-20T08:51:03.000Z</time>
      </trkpt>
      <trkpt lat="45.15751" lon="4.95988">
        <ele>304.39999389648</ele>
        <time>2018-05-20T08:51:05.000Z</time>
      </trkpt>
      <trkpt lat="45.15758" lon="4.9599">
        <ele>303.79998779297</ele>
        <time>2018-05-20T08:51:06.000Z</time>
      </trkpt>
      <trkpt lat="45.15763" lon="4.95995">
        <ele>303.20001220703</ele>
        <time>2018-05-20T08:51:07.000Z</time>
      </trkpt>
      <trkpt lat="45.15768" lon="4.96001">
        <ele>302.20001220703</ele>
        <time>2018-05-20T08:51:08.000Z</time>
      </trkpt>
      <trkpt lat="45.15771" lon="4.96008">
        <ele>301.39999389648</ele>
        <time>2018-05-20T08:51:09.000Z</time>
      </trkpt>
      <trkpt lat="45.15774" lon="4.96016">
        <ele>300.79998779297</ele>
        <time>2018-05-20T08:51:10.000Z</time>
      </trkpt>
      <trkpt lat="45.15779" lon="4.96031">
        <ele>299.60000610352</ele>
        <time>2018-05-20T08:51:12.000Z</time>
      </trkpt>
      <trkpt lat="45.15782" lon="4.96033">
        <ele>299.60000610352</ele>
        <time>2018-05-20T08:51:13.000Z</time>
      </trkpt>
      <trkpt lat="45.15785" lon="4.96031">
        <ele>299.60000610352</ele>
        <time>2018-05-20T08:51:14.000Z</time>
      </trkpt>
      <trkpt lat="45.15793" lon="4.96019">
        <ele>300.60000610352</ele>
        <time>2018-05-20T08:51:18.000Z</time>
      </trkpt>
      <trkpt lat="45.15797" lon="4.96012">
        <ele>301.20001220703</ele>
        <time>2018-05-20T08:51:20.000Z</time>
      </trkpt>
      <trkpt lat="45.15798" lon="4.95998">
        <ele>303.39999389648</ele>
        <time>2018-05-20T08:51:23.000Z</time>
      </trkpt>
      <trkpt lat="45.158" lon="4.95973">
        <ele>307.20001220703</ele>
        <time>2018-05-20T08:51:29.000Z</time>
      </trkpt>
      <trkpt lat="45.158" lon="4.95969">
        <ele>307.79998779297</ele>
        <time>2018-05-20T08:51:30.000Z</time>
      </trkpt>
      <trkpt lat="45.15804" lon="4.9596">
        <ele>309.79998779297</ele>
        <time>2018-05-20T08:51:33.000Z</time>
      </trkpt>
      <trkpt lat="45.15808" lon="4.95958">
        <ele>310.60000610352</ele>
        <time>2018-05-20T08:51:34.000Z</time>
      </trkpt>
      <trkpt lat="45.15815" lon="4.9596">
        <ele>311.39999389648</ele>
        <time>2018-05-20T08:51:36.000Z</time>
      </trkpt>
      <trkpt lat="45.15828" lon="4.95975">
        <ele>311.60000610352</ele>
        <time>2018-05-20T08:51:40.000Z</time>
      </trkpt>
      <trkpt lat="45.1583" lon="4.95978">
        <ele>312.20001220703</ele>
        <time>2018-05-20T08:51:41.000Z</time>
      </trkpt>
      <trkpt lat="45.15837" lon="4.95987">
        <ele>313.20001220703</ele>
        <time>2018-05-20T08:51:44.000Z</time>
      </trkpt>
      <trkpt lat="45.15846" lon="4.96007">
        <ele>313.79998779297</ele>
        <time>2018-05-20T08:51:50.000Z</time>
      </trkpt>
      <trkpt lat="45.15852" lon="4.96021">
        <ele>314.20001220703</ele>
        <time>2018-05-20T08:51:54.000Z</time>
      </trkpt>
      <trkpt lat="45.15856" lon="4.96032">
        <ele>314.60000610352</ele>
        <time>2018-05-20T08:51:57.000Z</time>
      </trkpt>
      <trkpt lat="45.15859" lon="4.96045">
        <ele>314.20001220703</ele>
        <time>2018-05-20T08:52:00.000Z</time>
      </trkpt>
      <trkpt lat="45.15864" lon="4.9606">
        <ele>313.20001220703</ele>
        <time>2018-05-20T08:52:04.000Z</time>
      </trkpt>
      <trkpt lat="45.15876" lon="4.96075">
        <ele>313.60000610352</ele>
        <time>2018-05-20T08:52:09.000Z</time>
      </trkpt>
      <trkpt lat="45.15886" lon="4.96083">
        <ele>314.60000610352</ele>
        <time>2018-05-20T08:52:12.000Z</time>
      </trkpt>
      <trkpt lat="45.15895" lon="4.96094">
        <ele>314.20001220703</ele>
        <time>2018-05-20T08:52:14.000Z</time>
      </trkpt>
      <trkpt lat="45.15904" lon="4.96109">
        <ele>312.20001220703</ele>
        <time>2018-05-20T08:52:16.000Z</time>
      </trkpt>
      <trkpt lat="45.15915" lon="4.96126">
        <ele>310</ele>
        <time>2018-05-20T08:52:18.000Z</time>
      </trkpt>
      <trkpt lat="45.15927" lon="4.96142">
        <ele>309.20001220703</ele>
        <time>2018-05-20T08:52:20.000Z</time>
      </trkpt>
      <trkpt lat="45.1594" lon="4.96157">
        <ele>308.60000610352</ele>
        <time>2018-05-20T08:52:22.000Z</time>
      </trkpt>
      <trkpt lat="45.15952" lon="4.96171">
        <ele>307</ele>
        <time>2018-05-20T08:52:24.000Z</time>
      </trkpt>
      <trkpt lat="45.15965" lon="4.96184">
        <ele>306.39999389648</ele>
        <time>2018-05-20T08:52:26.000Z</time>
      </trkpt>
      <trkpt lat="45.15978" lon="4.96193">
        <ele>306.39999389648</ele>
        <time>2018-05-20T08:52:28.000Z</time>
      </trkpt>
      <trkpt lat="45.15988" lon="4.96202">
        <ele>305.79998779297</ele>
        <time>2018-05-20T08:52:30.000Z</time>
      </trkpt>
      <trkpt lat="45.1599" lon="4.96205">
        <ele>305.39999389648</ele>
        <time>2018-05-20T08:52:31.000Z</time>
      </trkpt>
      <trkpt lat="45.15994" lon="4.96214">
        <ele>303.60000610352</ele>
        <time>2018-05-20T08:52:33.000Z</time>
      </trkpt>
      <trkpt lat="45.15998" lon="4.96217">
        <ele>303.39999389648</ele>
        <time>2018-05-20T08:52:35.000Z</time>
      </trkpt>
      <trkpt lat="45.16003" lon="4.96217">
        <ele>303.79998779297</ele>
        <time>2018-05-20T08:52:37.000Z</time>
      </trkpt>
      <trkpt lat="45.16009" lon="4.96217">
        <ele>304.39999389648</ele>
        <time>2018-05-20T08:52:40.000Z</time>
      </trkpt>
      <trkpt lat="45.16012" lon="4.96217">
        <ele>304.79998779297</ele>
        <time>2018-05-20T08:52:41.000Z</time>
      </trkpt>
      <trkpt lat="45.16023" lon="4.96218">
        <ele>305.60000610352</ele>
        <time>2018-05-20T08:52:46.000Z</time>
      </trkpt>
      <trkpt lat="45.16036" lon="4.96222">
        <ele>305</ele>
        <time>2018-05-20T08:52:51.000Z</time>
      </trkpt>
      <trkpt lat="45.16044" lon="4.96222">
        <ele>306</ele>
        <time>2018-05-20T08:52:55.000Z</time>
      </trkpt>
      <trkpt lat="45.16046" lon="4.96222">
        <ele>306.20001220703</ele>
        <time>2018-05-20T08:52:56.000Z</time>
      </trkpt>
      <trkpt lat="45.16053" lon="4.96222">
        <ele>307.60000610352</ele>
        <time>2018-05-20T08:53:01.000Z</time>
      </trkpt>
      <trkpt lat="45.16057" lon="4.96223">
        <ele>307.60000610352</ele>
        <time>2018-05-20T08:53:04.000Z</time>
      </trkpt>
      <trkpt lat="45.16059" lon="4.96224">
        <ele>308</ele>
        <time>2018-05-20T08:53:06.000Z</time>
      </trkpt>
      <trkpt lat="45.16071" lon="4.96238">
        <ele>306</ele>
        <time>2018-05-20T08:53:20.000Z</time>
      </trkpt>
      <trkpt lat="45.16073" lon="4.96243">
        <ele>305.39999389648</ele>
        <time>2018-05-20T08:53:23.000Z</time>
      </trkpt>
      <trkpt lat="45.16075" lon="4.96248">
        <ele>305</ele>
        <time>2018-05-20T08:53:26.000Z</time>
      </trkpt>
      <trkpt lat="45.16079" lon="4.96252">
        <ele>305.20001220703</ele>
        <time>2018-05-20T08:53:29.000Z</time>
      </trkpt>
      <trkpt lat="45.16085" lon="4.96259">
        <ele>305.39999389648</ele>
        <time>2018-05-20T08:53:33.000Z</time>
      </trkpt>
      <trkpt lat="45.16092" lon="4.96268">
        <ele>305.79998779297</ele>
        <time>2018-05-20T08:53:38.000Z</time>
      </trkpt>
      <trkpt lat="45.16093" lon="4.96269">
        <ele>306</ele>
        <time>2018-05-20T08:53:39.000Z</time>
      </trkpt>
      <trkpt lat="45.16102" lon="4.96276">
        <ele>307</ele>
        <time>2018-05-20T08:53:45.000Z</time>
      </trkpt>
      <trkpt lat="45.16108" lon="4.96283">
        <ele>307.39999389648</ele>
        <time>2018-05-20T08:53:50.000Z</time>
      </trkpt>
      <trkpt lat="45.16112" lon="4.96286">
        <ele>307.79998779297</ele>
        <time>2018-05-20T08:53:53.000Z</time>
      </trkpt>
      <trkpt lat="45.16114" lon="4.96289">
        <ele>308</ele>
        <time>2018-05-20T08:53:55.000Z</time>
      </trkpt>
      <trkpt lat="45.16125" lon="4.96292">
        <ele>309.60000610352</ele>
        <time>2018-05-20T08:54:01.000Z</time>
      </trkpt>
      <trkpt lat="45.16129" lon="4.96293">
        <ele>310.39999389648</ele>
        <time>2018-05-20T08:54:04.000Z</time>
      </trkpt>
      <trkpt lat="45.16135" lon="4.96294">
        <ele>311.39999389648</ele>
        <time>2018-05-20T08:54:08.000Z</time>
      </trkpt>
      <trkpt lat="45.16137" lon="4.96295">
        <ele>311.60000610352</ele>
        <time>2018-05-20T08:54:09.000Z</time>
      </trkpt>
      <trkpt lat="45.16144" lon="4.96299">
        <ele>312.39999389648</ele>
        <time>2018-05-20T08:54:15.000Z</time>
      </trkpt>
      <trkpt lat="45.16156" lon="4.96303">
        <ele>314.20001220703</ele>
        <time>2018-05-20T08:54:24.000Z</time>
      </trkpt>
      <trkpt lat="45.1616" lon="4.96305">
        <ele>314.20001220703</ele>
        <time>2018-05-20T08:54:27.000Z</time>
      </trkpt>
      <trkpt lat="45.16162" lon="4.96306">
        <ele>314.39999389648</ele>
        <time>2018-05-20T08:54:29.000Z</time>
      </trkpt>
      <trkpt lat="45.16176" lon="4.96316">
        <ele>314.20001220703</ele>
        <time>2018-05-20T08:54:40.000Z</time>
      </trkpt>
      <trkpt lat="45.1618" lon="4.96318">
        <ele>314.20001220703</ele>
        <time>2018-05-20T08:54:42.000Z</time>
      </trkpt>
      <trkpt lat="45.16191" lon="4.96328">
        <ele>313.60000610352</ele>
        <time>2018-05-20T08:54:46.000Z</time>
      </trkpt>
      <trkpt lat="45.16208" lon="4.96356">
        <ele>309.60000610352</ele>
        <time>2018-05-20T08:54:50.000Z</time>
      </trkpt>
      <trkpt lat="45.16216" lon="4.96375">
        <ele>307</ele>
        <time>2018-05-20T08:54:52.000Z</time>
      </trkpt>
      <trkpt lat="45.16225" lon="4.96395">
        <ele>304.60000610352</ele>
        <time>2018-05-20T08:54:54.000Z</time>
      </trkpt>
      <trkpt lat="45.1624" lon="4.96424">
        <ele>301.60000610352</ele>
        <time>2018-05-20T08:54:57.000Z</time>
      </trkpt>
      <trkpt lat="45.1626" lon="4.96466">
        <ele>299.79998779297</ele>
        <time>2018-05-20T08:55:01.000Z</time>
      </trkpt>
      <trkpt lat="45.1627" lon="4.96488">
        <ele>299.79998779297</ele>
        <time>2018-05-20T08:55:03.000Z</time>
      </trkpt>
      <trkpt lat="45.16278" lon="4.96507">
        <ele>298.39999389648</ele>
        <time>2018-05-20T08:55:05.000Z</time>
      </trkpt>
      <trkpt lat="45.16285" lon="4.96522">
        <ele>297.60000610352</ele>
        <time>2018-05-20T08:55:07.000Z</time>
      </trkpt>
      <trkpt lat="45.16288" lon="4.96527">
        <ele>297.39999389648</ele>
        <time>2018-05-20T08:55:08.000Z</time>
      </trkpt>
      <trkpt lat="45.16292" lon="4.96527">
        <ele>297.39999389648</ele>
        <time>2018-05-20T08:55:09.000Z</time>
      </trkpt>
      <trkpt lat="45.16296" lon="4.96526">
        <ele>297.60000610352</ele>
        <time>2018-05-20T08:55:10.000Z</time>
      </trkpt>
      <trkpt lat="45.16299" lon="4.9652">
        <ele>297.79998779297</ele>
        <time>2018-05-20T08:55:11.000Z</time>
      </trkpt>
      <trkpt lat="45.16301" lon="4.96515">
        <ele>298</ele>
        <time>2018-05-20T08:55:12.000Z</time>
      </trkpt>
      <trkpt lat="45.16303" lon="4.96509">
        <ele>298.39999389648</ele>
        <time>2018-05-20T08:55:13.000Z</time>
      </trkpt>
      <trkpt lat="45.16309" lon="4.96499">
        <ele>299</ele>
        <time>2018-05-20T08:55:15.000Z</time>
      </trkpt>
      <trkpt lat="45.16315" lon="4.9649">
        <ele>300</ele>
        <time>2018-05-20T08:55:17.000Z</time>
      </trkpt>
      <trkpt lat="45.16318" lon="4.96488">
        <ele>300.39999389648</ele>
        <time>2018-05-20T08:55:18.000Z</time>
      </trkpt>
      <trkpt lat="45.16333" lon="4.96486">
        <ele>302.20001220703</ele>
        <time>2018-05-20T08:55:22.000Z</time>
      </trkpt>
      <trkpt lat="45.16348" lon="4.96487">
        <ele>304.39999389648</ele>
        <time>2018-05-20T08:55:28.000Z</time>
      </trkpt>
      <trkpt lat="45.16363" lon="4.96494">
        <ele>305.79998779297</ele>
        <time>2018-05-20T08:55:34.000Z</time>
      </trkpt>
      <trkpt lat="45.16381" lon="4.965">
        <ele>308</ele>
        <time>2018-05-20T08:55:41.000Z</time>
      </trkpt>
      <trkpt lat="45.16383" lon="4.96501">
        <ele>308</ele>
        <time>2018-05-20T08:55:42.000Z</time>
      </trkpt>
      <trkpt lat="45.16393" lon="4.96505">
        <ele>308.60000610352</ele>
        <time>2018-05-20T08:55:46.000Z</time>
      </trkpt>
      <trkpt lat="45.16403" lon="4.96507">
        <ele>309.39999389648</ele>
        <time>2018-05-20T08:55:50.000Z</time>
      </trkpt>
      <trkpt lat="45.16413" lon="4.96509">
        <ele>309.79998779297</ele>
        <time>2018-05-20T08:55:54.000Z</time>
      </trkpt>
      <trkpt lat="45.16418" lon="4.9651">
        <ele>309.39999389648</ele>
        <time>2018-05-20T08:55:56.000Z</time>
      </trkpt>
      <trkpt lat="45.16435" lon="4.96509">
        <ele>309.79998779297</ele>
        <time>2018-05-20T08:56:03.000Z</time>
      </trkpt>
      <trkpt lat="45.16449" lon="4.96508">
        <ele>309</ele>
        <time>2018-05-20T08:56:09.000Z</time>
      </trkpt>
      <trkpt lat="45.16454" lon="4.96506">
        <ele>308.79998779297</ele>
        <time>2018-05-20T08:56:11.000Z</time>
      </trkpt>
      <trkpt lat="45.16472" lon="4.96504">
        <ele>310</ele>
        <time>2018-05-20T08:56:18.000Z</time>
      </trkpt>
      <trkpt lat="45.16475" lon="4.96504">
        <ele>310.20001220703</ele>
        <time>2018-05-20T08:56:19.000Z</time>
      </trkpt>
      <trkpt lat="45.1649" lon="4.96503">
        <ele>311.79998779297</ele>
        <time>2018-05-20T08:56:25.000Z</time>
      </trkpt>
      <trkpt lat="45.16493" lon="4.96504">
        <ele>312</ele>
        <time>2018-05-20T08:56:26.000Z</time>
      </trkpt>
      <trkpt lat="45.16508" lon="4.96509">
        <ele>313.79998779297</ele>
        <time>2018-05-20T08:56:32.000Z</time>
      </trkpt>
      <trkpt lat="45.16513" lon="4.96513">
        <ele>314</ele>
        <time>2018-05-20T08:56:34.000Z</time>
      </trkpt>
      <trkpt lat="45.16525" lon="4.96525">
        <ele>315.20001220703</ele>
        <time>2018-05-20T08:56:40.000Z</time>
      </trkpt>
      <trkpt lat="45.16527" lon="4.96527">
        <ele>315.20001220703</ele>
        <time>2018-05-20T08:56:41.000Z</time>
      </trkpt>
      <trkpt lat="45.16536" lon="4.96543">
        <ele>315.60000610352</ele>
        <time>2018-05-20T08:56:47.000Z</time>
      </trkpt>
      <trkpt lat="45.1654" lon="4.96552">
        <ele>315.79998779297</ele>
        <time>2018-05-20T08:56:50.000Z</time>
      </trkpt>
      <trkpt lat="45.16545" lon="4.96569">
        <ele>315.60000610352</ele>
        <time>2018-05-20T08:56:55.000Z</time>
      </trkpt>
      <trkpt lat="45.16548" lon="4.96578">
        <ele>315.39999389648</ele>
        <time>2018-05-20T08:56:58.000Z</time>
      </trkpt>
      <trkpt lat="45.16551" lon="4.96591">
        <ele>314.79998779297</ele>
        <time>2018-05-20T08:57:02.000Z</time>
      </trkpt>
      <trkpt lat="45.16552" lon="4.96601">
        <ele>314.20001220703</ele>
        <time>2018-05-20T08:57:05.000Z</time>
      </trkpt>
      <trkpt lat="45.16557" lon="4.96616">
        <ele>314.60000610352</ele>
        <time>2018-05-20T08:57:10.000Z</time>
      </trkpt>
      <trkpt lat="45.1656" lon="4.96629">
        <ele>314.60000610352</ele>
        <time>2018-05-20T08:57:14.000Z</time>
      </trkpt>
      <trkpt lat="45.16566" lon="4.9665">
        <ele>314.60000610352</ele>
        <time>2018-05-20T08:57:20.000Z</time>
      </trkpt>
      <trkpt lat="45.16567" lon="4.96653">
        <ele>314.79998779297</ele>
        <time>2018-05-20T08:57:21.000Z</time>
      </trkpt>
      <trkpt lat="45.16577" lon="4.96674">
        <ele>315.39999389648</ele>
        <time>2018-05-20T08:57:28.000Z</time>
      </trkpt>
      <trkpt lat="45.16583" lon="4.96682">
        <ele>315.79998779297</ele>
        <time>2018-05-20T08:57:31.000Z</time>
      </trkpt>
      <trkpt lat="45.16585" lon="4.9669">
        <ele>315.79998779297</ele>
        <time>2018-05-20T08:57:34.000Z</time>
      </trkpt>
      <trkpt lat="45.16583" lon="4.96692">
        <ele>315.60000610352</ele>
        <time>2018-05-20T08:57:35.000Z</time>
      </trkpt>
      <trkpt lat="45.16577" lon="4.96691">
        <ele>315</ele>
        <time>2018-05-20T08:57:37.000Z</time>
      </trkpt>
      <trkpt lat="45.16563" lon="4.96703">
        <ele>312.39999389648</ele>
        <time>2018-05-20T08:57:41.000Z</time>
      </trkpt>
      <trkpt lat="45.16559" lon="4.96708">
        <ele>311.79998779297</ele>
        <time>2018-05-20T08:57:42.000Z</time>
      </trkpt>
      <trkpt lat="45.1655" lon="4.96718">
        <ele>311.20001220703</ele>
        <time>2018-05-20T08:57:44.000Z</time>
      </trkpt>
      <trkpt lat="45.16541" lon="4.96729">
        <ele>310.60000610352</ele>
        <time>2018-05-20T08:57:46.000Z</time>
      </trkpt>
      <trkpt lat="45.16536" lon="4.96736">
        <ele>310.60000610352</ele>
        <time>2018-05-20T08:57:47.000Z</time>
      </trkpt>
      <trkpt lat="45.16518" lon="4.96758">
        <ele>310.20001220703</ele>
        <time>2018-05-20T08:57:50.000Z</time>
      </trkpt>
      <trkpt lat="45.16511" lon="4.96766">
        <ele>309.79998779297</ele>
        <time>2018-05-20T08:57:51.000Z</time>
      </trkpt>
      <trkpt lat="45.16506" lon="4.96775">
        <ele>309.60000610352</ele>
        <time>2018-05-20T08:57:52.000Z</time>
      </trkpt>
      <trkpt lat="45.16501" lon="4.96784">
        <ele>309.39999389648</ele>
        <time>2018-05-20T08:57:53.000Z</time>
      </trkpt>
      <trkpt lat="45.16496" lon="4.96794">
        <ele>309.60000610352</ele>
        <time>2018-05-20T08:57:54.000Z</time>
      </trkpt>
      <trkpt lat="45.16488" lon="4.96815">
        <ele>309.79998779297</ele>
        <time>2018-05-20T08:57:56.000Z</time>
      </trkpt>
      <trkpt lat="45.16486" lon="4.96825">
        <ele>310.20001220703</ele>
        <time>2018-05-20T08:57:57.000Z</time>
      </trkpt>
      <trkpt lat="45.16484" lon="4.96835">
        <ele>311</ele>
        <time>2018-05-20T08:57:58.000Z</time>
      </trkpt>
      <trkpt lat="45.1648" lon="4.96865">
        <ele>314.39999389648</ele>
        <time>2018-05-20T08:58:01.000Z</time>
      </trkpt>
      <trkpt lat="45.1648" lon="4.96875">
        <ele>316</ele>
        <time>2018-05-20T08:58:02.000Z</time>
      </trkpt>
      <trkpt lat="45.16479" lon="4.96883">
        <ele>316.79998779297</ele>
        <time>2018-05-20T08:58:03.000Z</time>
      </trkpt>
      <trkpt lat="45.16475" lon="4.9692">
        <ele>318</ele>
        <time>2018-05-20T08:58:08.000Z</time>
      </trkpt>
      <trkpt lat="45.16471" lon="4.96947">
        <ele>315.60000610352</ele>
        <time>2018-05-20T08:58:12.000Z</time>
      </trkpt>
      <trkpt lat="45.16463" lon="4.96959">
        <ele>313</ele>
        <time>2018-05-20T08:58:14.000Z</time>
      </trkpt>
      <trkpt lat="45.16452" lon="4.96979">
        <ele>308.39999389648</ele>
        <time>2018-05-20T08:58:17.000Z</time>
      </trkpt>
      <trkpt lat="45.16451" lon="4.96995">
        <ele>307.39999389648</ele>
        <time>2018-05-20T08:58:19.000Z</time>
      </trkpt>
      <trkpt lat="45.16457" lon="4.97022">
        <ele>306</ele>
        <time>2018-05-20T08:58:22.000Z</time>
      </trkpt>
      <trkpt lat="45.16461" lon="4.9703">
        <ele>306</ele>
        <time>2018-05-20T08:58:23.000Z</time>
      </trkpt>
      <trkpt lat="45.16465" lon="4.97038">
        <ele>305.60000610352</ele>
        <time>2018-05-20T08:58:24.000Z</time>
      </trkpt>
      <trkpt lat="45.16468" lon="4.97048">
        <ele>305</ele>
        <time>2018-05-20T08:58:25.000Z</time>
      </trkpt>
      <trkpt lat="45.16474" lon="4.97066">
        <ele>303.20001220703</ele>
        <time>2018-05-20T08:58:27.000Z</time>
      </trkpt>
      <trkpt lat="45.16474" lon="4.97076">
        <ele>301.39999389648</ele>
        <time>2018-05-20T08:58:28.000Z</time>
      </trkpt>
      <trkpt lat="45.1647" lon="4.97094">
        <ele>298</ele>
        <time>2018-05-20T08:58:30.000Z</time>
      </trkpt>
      <trkpt lat="45.16466" lon="4.97104">
        <ele>295.79998779297</ele>
        <time>2018-05-20T08:58:31.000Z</time>
      </trkpt>
      <trkpt lat="45.16462" lon="4.97116">
        <ele>293.39999389648</ele>
        <time>2018-05-20T08:58:32.000Z</time>
      </trkpt>
      <trkpt lat="45.16459" lon="4.97128">
        <ele>290.79998779297</ele>
        <time>2018-05-20T08:58:33.000Z</time>
      </trkpt>
      <trkpt lat="45.16456" lon="4.97142">
        <ele>288.60000610352</ele>
        <time>2018-05-20T08:58:34.000Z</time>
      </trkpt>
      <trkpt lat="45.16453" lon="4.97155">
        <ele>286.79998779297</ele>
        <time>2018-05-20T08:58:35.000Z</time>
      </trkpt>
      <trkpt lat="45.16446" lon="4.97183">
        <ele>282.39999389648</ele>
        <time>2018-05-20T08:58:37.000Z</time>
      </trkpt>
      <trkpt lat="45.16441" lon="4.97214">
        <ele>278.79998779297</ele>
        <time>2018-05-20T08:58:39.000Z</time>
      </trkpt>
      <trkpt lat="45.16439" lon="4.9723">
        <ele>277.39999389648</ele>
        <time>2018-05-20T08:58:40.000Z</time>
      </trkpt>
      <trkpt lat="45.16437" lon="4.97244">
        <ele>276.20001220703</ele>
        <time>2018-05-20T08:58:41.000Z</time>
      </trkpt>
      <trkpt lat="45.16432" lon="4.9727">
        <ele>274.79998779297</ele>
        <time>2018-05-20T08:58:43.000Z</time>
      </trkpt>
      <trkpt lat="45.16429" lon="4.97282">
        <ele>274</ele>
        <time>2018-05-20T08:58:44.000Z</time>
      </trkpt>
      <trkpt lat="45.16426" lon="4.97295">
        <ele>273.20001220703</ele>
        <time>2018-05-20T08:58:45.000Z</time>
      </trkpt>
      <trkpt lat="45.16424" lon="4.9731">
        <ele>272.39999389648</ele>
        <time>2018-05-20T08:58:46.000Z</time>
      </trkpt>
      <trkpt lat="45.16421" lon="4.97325">
        <ele>271.39999389648</ele>
        <time>2018-05-20T08:58:47.000Z</time>
      </trkpt>
      <trkpt lat="45.16418" lon="4.9734">
        <ele>270</ele>
        <time>2018-05-20T08:58:48.000Z</time>
      </trkpt>
      <trkpt lat="45.16415" lon="4.97356">
        <ele>268.60000610352</ele>
        <time>2018-05-20T08:58:49.000Z</time>
      </trkpt>
      <trkpt lat="45.16412" lon="4.97372">
        <ele>268</ele>
        <time>2018-05-20T08:58:50.000Z</time>
      </trkpt>
      <trkpt lat="45.16407" lon="4.97404">
        <ele>266.79998779297</ele>
        <time>2018-05-20T08:58:52.000Z</time>
      </trkpt>
      <trkpt lat="45.16401" lon="4.97435">
        <ele>264.79998779297</ele>
        <time>2018-05-20T08:58:54.000Z</time>
      </trkpt>
      <trkpt lat="45.16399" lon="4.9745">
        <ele>263.79998779297</ele>
        <time>2018-05-20T08:58:55.000Z</time>
      </trkpt>
      <trkpt lat="45.16396" lon="4.97465">
        <ele>263.39999389648</ele>
        <time>2018-05-20T08:58:56.000Z</time>
      </trkpt>
      <trkpt lat="45.16391" lon="4.97492">
        <ele>263.60000610352</ele>
        <time>2018-05-20T08:58:58.000Z</time>
      </trkpt>
      <trkpt lat="45.16386" lon="4.97519">
        <ele>262.79998779297</ele>
        <time>2018-05-20T08:59:00.000Z</time>
      </trkpt>
      <trkpt lat="45.16384" lon="4.97531">
        <ele>262.79998779297</ele>
        <time>2018-05-20T08:59:01.000Z</time>
      </trkpt>
      <trkpt lat="45.16377" lon="4.97575">
        <ele>261.79998779297</ele>
        <time>2018-05-20T08:59:05.000Z</time>
      </trkpt>
      <trkpt lat="45.16373" lon="4.97595">
        <ele>261.39999389648</ele>
        <time>2018-05-20T08:59:07.000Z</time>
      </trkpt>
      <trkpt lat="45.16366" lon="4.9761">
        <ele>261.39999389648</ele>
        <time>2018-05-20T08:59:09.000Z</time>
      </trkpt>
      <trkpt lat="45.16363" lon="4.97617">
        <ele>261.79998779297</ele>
        <time>2018-05-20T08:59:10.000Z</time>
      </trkpt>
      <trkpt lat="45.16349" lon="4.97649">
        <ele>263</ele>
        <time>2018-05-20T08:59:15.000Z</time>
      </trkpt>
      <trkpt lat="45.16348" lon="4.97656">
        <ele>263</ele>
        <time>2018-05-20T08:59:16.000Z</time>
      </trkpt>
      <trkpt lat="45.16348" lon="4.97678">
        <ele>262.39999389648</ele>
        <time>2018-05-20T08:59:19.000Z</time>
      </trkpt>
      <trkpt lat="45.16349" lon="4.97727">
        <ele>263</ele>
        <time>2018-05-20T08:59:25.000Z</time>
      </trkpt>
      <trkpt lat="45.1635" lon="4.97771">
        <ele>263</ele>
        <time>2018-05-20T08:59:31.000Z</time>
      </trkpt>
      <trkpt lat="45.1635" lon="4.97778">
        <ele>263</ele>
        <time>2018-05-20T08:59:32.000Z</time>
      </trkpt>
      <trkpt lat="45.16352" lon="4.97814">
        <ele>263</ele>
        <time>2018-05-20T08:59:37.000Z</time>
      </trkpt>
      <trkpt lat="45.16353" lon="4.97821">
        <ele>263</ele>
        <time>2018-05-20T08:59:38.000Z</time>
      </trkpt>
      <trkpt lat="45.16355" lon="4.97839">
        <ele>262.39999389648</ele>
        <time>2018-05-20T08:59:41.000Z</time>
      </trkpt>
      <trkpt lat="45.16361" lon="4.97847">
        <ele>262.39999389648</ele>
        <time>2018-05-20T08:59:43.000Z</time>
      </trkpt>
      <trkpt lat="45.16376" lon="4.97846">
        <ele>262.79998779297</ele>
        <time>2018-05-20T08:59:46.000Z</time>
      </trkpt>
      <trkpt lat="45.16381" lon="4.97845">
        <ele>263</ele>
        <time>2018-05-20T08:59:47.000Z</time>
      </trkpt>
      <trkpt lat="45.16419" lon="4.97836">
        <ele>262</ele>
        <time>2018-05-20T08:59:55.000Z</time>
      </trkpt>
      <trkpt lat="45.16458" lon="4.97827">
        <ele>262.60000610352</ele>
        <time>2018-05-20T09:00:04.000Z</time>
      </trkpt>
      <trkpt lat="45.16491" lon="4.9782">
        <ele>262</ele>
        <time>2018-05-20T09:00:12.000Z</time>
      </trkpt>
      <trkpt lat="45.16534" lon="4.97811">
        <ele>263.79998779297</ele>
        <time>2018-05-20T09:00:22.000Z</time>
      </trkpt>
      <trkpt lat="45.16564" lon="4.97804">
        <ele>264</ele>
        <time>2018-05-20T09:00:29.000Z</time>
      </trkpt>
      <trkpt lat="45.16607" lon="4.97794">
        <ele>265.20001220703</ele>
        <time>2018-05-20T09:00:39.000Z</time>
      </trkpt>
      <trkpt lat="45.1664" lon="4.97787">
        <ele>264.79998779297</ele>
        <time>2018-05-20T09:00:47.000Z</time>
      </trkpt>
      <trkpt lat="45.16648" lon="4.97786">
        <ele>264.79998779297</ele>
        <time>2018-05-20T09:00:49.000Z</time>
      </trkpt>
      <trkpt lat="45.16667" lon="4.9778">
        <ele>264.60000610352</ele>
        <time>2018-05-20T09:00:54.000Z</time>
      </trkpt>
      <trkpt lat="45.16675" lon="4.97779">
        <ele>264.60000610352</ele>
        <time>2018-05-20T09:00:56.000Z</time>
      </trkpt>
      <trkpt lat="45.16703" lon="4.97774">
        <ele>265.20001220703</ele>
        <time>2018-05-20T09:01:03.000Z</time>
      </trkpt>
      <trkpt lat="45.16706" lon="4.97772">
        <ele>265.39999389648</ele>
        <time>2018-05-20T09:01:04.000Z</time>
      </trkpt>
      <trkpt lat="45.16718" lon="4.97768">
        <ele>266</ele>
        <time>2018-05-20T09:01:07.000Z</time>
      </trkpt>
      <trkpt lat="45.16736" lon="4.97765">
        <ele>266.79998779297</ele>
        <time>2018-05-20T09:01:12.000Z</time>
      </trkpt>
      <trkpt lat="45.16763" lon="4.97755">
        <ele>268.60000610352</ele>
        <time>2018-05-20T09:01:19.000Z</time>
      </trkpt>
      <trkpt lat="45.16789" lon="4.97744">
        <ele>270.60000610352</ele>
        <time>2018-05-20T09:01:26.000Z</time>
      </trkpt>
      <trkpt lat="45.16805" lon="4.97737">
        <ele>271.39999389648</ele>
        <time>2018-05-20T09:01:30.000Z</time>
      </trkpt>
      <trkpt lat="45.16822" lon="4.97729">
        <ele>271.60000610352</ele>
        <time>2018-05-20T09:01:35.000Z</time>
      </trkpt>
      <trkpt lat="45.16825" lon="4.97728">
        <ele>271.79998779297</ele>
        <time>2018-05-20T09:01:36.000Z</time>
      </trkpt>
      <trkpt lat="45.16843" lon="4.97722">
        <ele>273.39999389648</ele>
        <time>2018-05-20T09:01:41.000Z</time>
      </trkpt>
      <trkpt lat="45.16852" lon="4.97718">
        <ele>273.79998779297</ele>
        <time>2018-05-20T09:01:44.000Z</time>
      </trkpt>
      <trkpt lat="45.16865" lon="4.97713">
        <ele>275</ele>
        <time>2018-05-20T09:01:48.000Z</time>
      </trkpt>
      <trkpt lat="45.16877" lon="4.97709">
        <ele>275.79998779297</ele>
        <time>2018-05-20T09:01:52.000Z</time>
      </trkpt>
      <trkpt lat="45.1688" lon="4.97708">
        <ele>276</ele>
        <time>2018-05-20T09:01:53.000Z</time>
      </trkpt>
      <trkpt lat="45.16894" lon="4.97702">
        <ele>277.39999389648</ele>
        <time>2018-05-20T09:01:58.000Z</time>
      </trkpt>
      <trkpt lat="45.16897" lon="4.97701">
        <ele>277.79998779297</ele>
        <time>2018-05-20T09:01:59.000Z</time>
      </trkpt>
      <trkpt lat="45.16922" lon="4.97694">
        <ele>278.60000610352</ele>
        <time>2018-05-20T09:02:07.000Z</time>
      </trkpt>
      <trkpt lat="45.16932" lon="4.97692">
        <ele>278.60000610352</ele>
        <time>2018-05-20T09:02:10.000Z</time>
      </trkpt>
      <trkpt lat="45.16945" lon="4.97689">
        <ele>278.39999389648</ele>
        <time>2018-05-20T09:02:14.000Z</time>
      </trkpt>
      <trkpt lat="45.16958" lon="4.97688">
        <ele>278</ele>
        <time>2018-05-20T09:02:18.000Z</time>
      </trkpt>
      <trkpt lat="45.16976" lon="4.97683">
        <ele>277.60000610352</ele>
        <time>2018-05-20T09:02:23.000Z</time>
      </trkpt>
      <trkpt lat="45.17011" lon="4.97674">
        <ele>276.20001220703</ele>
        <time>2018-05-20T09:02:32.000Z</time>
      </trkpt>
      <trkpt lat="45.17041" lon="4.97668">
        <ele>277.20001220703</ele>
        <time>2018-05-20T09:02:39.000Z</time>
      </trkpt>
      <trkpt lat="45.17081" lon="4.97661">
        <ele>276.60000610352</ele>
        <time>2018-05-20T09:02:48.000Z</time>
      </trkpt>
      <trkpt lat="45.17107" lon="4.97658">
        <ele>276.20001220703</ele>
        <time>2018-05-20T09:02:54.000Z</time>
      </trkpt>
      <trkpt lat="45.17141" lon="4.9765">
        <ele>277.39999389648</ele>
        <time>2018-05-20T09:03:02.000Z</time>
      </trkpt>
      <trkpt lat="45.17165" lon="4.9764">
        <ele>277.79998779297</ele>
        <time>2018-05-20T09:03:08.000Z</time>
      </trkpt>
      <trkpt lat="45.17173" lon="4.97637">
        <ele>278</ele>
        <time>2018-05-20T09:03:10.000Z</time>
      </trkpt>
      <trkpt lat="45.17189" lon="4.97631">
        <ele>278.39999389648</ele>
        <time>2018-05-20T09:03:14.000Z</time>
      </trkpt>
      <trkpt lat="45.17205" lon="4.97626">
        <ele>278.79998779297</ele>
        <time>2018-05-20T09:03:18.000Z</time>
      </trkpt>
      <trkpt lat="45.17229" lon="4.9762">
        <ele>278.79998779297</ele>
        <time>2018-05-20T09:03:24.000Z</time>
      </trkpt>
      <trkpt lat="45.17233" lon="4.97621">
        <ele>278.79998779297</ele>
        <time>2018-05-20T09:03:25.000Z</time>
      </trkpt>
      <trkpt lat="45.17241" lon="4.97621">
        <ele>278.79998779297</ele>
        <time>2018-05-20T09:03:27.000Z</time>
      </trkpt>
      <trkpt lat="45.17266" lon="4.97624">
        <ele>280</ele>
        <time>2018-05-20T09:03:33.000Z</time>
      </trkpt>
      <trkpt lat="45.17283" lon="4.97626">
        <ele>280.60000610352</ele>
        <time>2018-05-20T09:03:37.000Z</time>
      </trkpt>
      <trkpt lat="45.17303" lon="4.97629">
        <ele>281</ele>
        <time>2018-05-20T09:03:42.000Z</time>
      </trkpt>
      <trkpt lat="45.17336" lon="4.97632">
        <ele>280.60000610352</ele>
        <time>2018-05-20T09:03:50.000Z</time>
      </trkpt>
      <trkpt lat="45.17373" lon="4.97635">
        <ele>281.60000610352</ele>
        <time>2018-05-20T09:03:59.000Z</time>
      </trkpt>
      <trkpt lat="45.17381" lon="4.97635">
        <ele>281.60000610352</ele>
        <time>2018-05-20T09:04:01.000Z</time>
      </trkpt>
      <trkpt lat="45.17399" lon="4.97634">
        <ele>281.39999389648</ele>
        <time>2018-05-20T09:04:06.000Z</time>
      </trkpt>
      <trkpt lat="45.1743" lon="4.97633">
        <ele>281</ele>
        <time>2018-05-20T09:04:14.000Z</time>
      </trkpt>
      <trkpt lat="45.17442" lon="4.97631">
        <ele>281.39999389648</ele>
        <time>2018-05-20T09:04:17.000Z</time>
      </trkpt>
      <trkpt lat="45.17461" lon="4.9763">
        <ele>282.79998779297</ele>
        <time>2018-05-20T09:04:22.000Z</time>
      </trkpt>
      <trkpt lat="45.17489" lon="4.97637">
        <ele>284.39999389648</ele>
        <time>2018-05-20T09:04:29.000Z</time>
      </trkpt>
      <trkpt lat="45.17493" lon="4.97639">
        <ele>284.60000610352</ele>
        <time>2018-05-20T09:04:30.000Z</time>
      </trkpt>
      <trkpt lat="45.1752" lon="4.97653">
        <ele>285</ele>
        <time>2018-05-20T09:04:37.000Z</time>
      </trkpt>
      <trkpt lat="45.17527" lon="4.97657">
        <ele>285.39999389648</ele>
        <time>2018-05-20T09:04:39.000Z</time>
      </trkpt>
      <trkpt lat="45.17552" lon="4.97672">
        <ele>286.60000610352</ele>
        <time>2018-05-20T09:04:46.000Z</time>
      </trkpt>
      <trkpt lat="45.17571" lon="4.9768">
        <ele>287.79998779297</ele>
        <time>2018-05-20T09:04:51.000Z</time>
      </trkpt>
      <trkpt lat="45.17578" lon="4.97681">
        <ele>288.20001220703</ele>
        <time>2018-05-20T09:04:53.000Z</time>
      </trkpt>
      <trkpt lat="45.17599" lon="4.9769">
        <ele>288.60000610352</ele>
        <time>2018-05-20T09:04:59.000Z</time>
      </trkpt>
      <trkpt lat="45.17607" lon="4.97697">
        <ele>288.39999389648</ele>
        <time>2018-05-20T09:05:04.000Z</time>
      </trkpt>
      <trkpt lat="45.17621" lon="4.97706">
        <ele>287.79998779297</ele>
        <time>2018-05-20T09:05:12.000Z</time>
      </trkpt>
      <trkpt lat="45.17628" lon="4.97711">
        <ele>287.79998779297</ele>
        <time>2018-05-20T09:05:16.000Z</time>
      </trkpt>
      <trkpt lat="45.17637" lon="4.97717">
        <ele>288.20001220703</ele>
        <time>2018-05-20T09:05:20.000Z</time>
      </trkpt>
      <trkpt lat="45.17659" lon="4.9773">
        <ele>289.20001220703</ele>
        <time>2018-05-20T09:05:29.000Z</time>
      </trkpt>
      <trkpt lat="45.17679" lon="4.97746">
        <ele>290.20001220703</ele>
        <time>2018-05-20T09:05:37.000Z</time>
      </trkpt>
      <trkpt lat="45.17698" lon="4.97758">
        <ele>290.60000610352</ele>
        <time>2018-05-20T09:05:44.000Z</time>
      </trkpt>
      <trkpt lat="45.17719" lon="4.9777">
        <ele>291.20001220703</ele>
        <time>2018-05-20T09:05:52.000Z</time>
      </trkpt>
      <trkpt lat="45.1774" lon="4.97791">
        <ele>292</ele>
        <time>2018-05-20T09:06:00.000Z</time>
      </trkpt>
      <trkpt lat="45.17754" lon="4.97813">
        <ele>292.20001220703</ele>
        <time>2018-05-20T09:06:07.000Z</time>
      </trkpt>
      <trkpt lat="45.17756" lon="4.97816">
        <ele>292.20001220703</ele>
        <time>2018-05-20T09:06:08.000Z</time>
      </trkpt>
      <trkpt lat="45.17766" lon="4.9784">
        <ele>292</ele>
        <time>2018-05-20T09:06:14.000Z</time>
      </trkpt>
      <trkpt lat="45.17779" lon="4.97864">
        <ele>293.39999389648</ele>
        <time>2018-05-20T09:06:20.000Z</time>
      </trkpt>
      <trkpt lat="45.1779" lon="4.97876">
        <ele>294.60000610352</ele>
        <time>2018-05-20T09:06:25.000Z</time>
      </trkpt>
      <trkpt lat="45.17792" lon="4.97878">
        <ele>294.79998779297</ele>
        <time>2018-05-20T09:06:26.000Z</time>
      </trkpt>
      <trkpt lat="45.1781" lon="4.9788">
        <ele>295.39999389648</ele>
        <time>2018-05-20T09:06:32.000Z</time>
      </trkpt>
      <trkpt lat="45.17827" lon="4.97892">
        <ele>296</ele>
        <time>2018-05-20T09:06:38.000Z</time>
      </trkpt>
      <trkpt lat="45.17837" lon="4.97915">
        <ele>296</ele>
        <time>2018-05-20T09:06:44.000Z</time>
      </trkpt>
      <trkpt lat="45.17844" lon="4.97926">
        <ele>296</ele>
        <time>2018-05-20T09:06:47.000Z</time>
      </trkpt>
      <trkpt lat="45.17857" lon="4.97941">
        <ele>296.60000610352</ele>
        <time>2018-05-20T09:06:52.000Z</time>
      </trkpt>
      <trkpt lat="45.17872" lon="4.97952">
        <ele>297.60000610352</ele>
        <time>2018-05-20T09:06:58.000Z</time>
      </trkpt>
      <trkpt lat="45.17883" lon="4.97967">
        <ele>298.20001220703</ele>
        <time>2018-05-20T09:07:03.000Z</time>
      </trkpt>
      <trkpt lat="45.17906" lon="4.97988">
        <ele>299.79998779297</ele>
        <time>2018-05-20T09:07:11.000Z</time>
      </trkpt>
      <trkpt lat="45.17913" lon="4.98008">
        <ele>300.39999389648</ele>
        <time>2018-05-20T09:07:16.000Z</time>
      </trkpt>
      <trkpt lat="45.17925" lon="4.98022">
        <ele>301.60000610352</ele>
        <time>2018-05-20T09:07:21.000Z</time>
      </trkpt>
      <trkpt lat="45.17942" lon="4.98034">
        <ele>303</ele>
        <time>2018-05-20T09:07:28.000Z</time>
      </trkpt>
      <trkpt lat="45.17954" lon="4.98047">
        <ele>304</ele>
        <time>2018-05-20T09:07:33.000Z</time>
      </trkpt>
      <trkpt lat="45.17961" lon="4.98053">
        <ele>304.39999389648</ele>
        <time>2018-05-20T09:07:36.000Z</time>
      </trkpt>
      <trkpt lat="45.1798" lon="4.98059">
        <ele>304.60000610352</ele>
        <time>2018-05-20T09:07:42.000Z</time>
      </trkpt>
      <trkpt lat="45.18001" lon="4.98069">
        <ele>305.60000610352</ele>
        <time>2018-05-20T09:07:48.000Z</time>
      </trkpt>
      <trkpt lat="45.18014" lon="4.98079">
        <ele>307</ele>
        <time>2018-05-20T09:07:53.000Z</time>
      </trkpt>
      <trkpt lat="45.18032" lon="4.98083">
        <ele>308</ele>
        <time>2018-05-20T09:07:59.000Z</time>
      </trkpt>
      <trkpt lat="45.18052" lon="4.98085">
        <ele>308.79998779297</ele>
        <time>2018-05-20T09:08:05.000Z</time>
      </trkpt>
      <trkpt lat="45.18068" lon="4.98092">
        <ele>308.20001220703</ele>
        <time>2018-05-20T09:08:10.000Z</time>
      </trkpt>
      <trkpt lat="45.18071" lon="4.98094">
        <ele>308.20001220703</ele>
        <time>2018-05-20T09:08:11.000Z</time>
      </trkpt>
      <trkpt lat="45.1808" lon="4.98103">
        <ele>308</ele>
        <time>2018-05-20T09:08:16.000Z</time>
      </trkpt>
      <trkpt lat="45.18094" lon="4.98115">
        <ele>308</ele>
        <time>2018-05-20T09:08:22.000Z</time>
      </trkpt>
      <trkpt lat="45.18104" lon="4.98132">
        <ele>308.39999389648</ele>
        <time>2018-05-20T09:08:27.000Z</time>
      </trkpt>
      <trkpt lat="45.18104" lon="4.98135">
        <ele>308.39999389648</ele>
        <time>2018-05-20T09:08:28.000Z</time>
      </trkpt>
      <trkpt lat="45.18126" lon="4.98126">
        <ele>309.79998779297</ele>
        <time>2018-05-20T09:08:37.000Z</time>
      </trkpt>
      <trkpt lat="45.18133" lon="4.98123">
        <ele>310</ele>
        <time>2018-05-20T09:08:39.000Z</time>
      </trkpt>
      <trkpt lat="45.18142" lon="4.98124">
        <ele>310</ele>
        <time>2018-05-20T09:08:42.000Z</time>
      </trkpt>
      <trkpt lat="45.18154" lon="4.98134">
        <ele>310</ele>
        <time>2018-05-20T09:08:47.000Z</time>
      </trkpt>
      <trkpt lat="45.18158" lon="4.98139">
        <ele>310</ele>
        <time>2018-05-20T09:08:49.000Z</time>
      </trkpt>
      <trkpt lat="45.18169" lon="4.98145">
        <ele>310</ele>
        <time>2018-05-20T09:08:54.000Z</time>
      </trkpt>
      <trkpt lat="45.18192" lon="4.9815">
        <ele>310.60000610352</ele>
        <time>2018-05-20T09:09:02.000Z</time>
      </trkpt>
      <trkpt lat="45.18209" lon="4.98148">
        <ele>311.79998779297</ele>
        <time>2018-05-20T09:09:08.000Z</time>
      </trkpt>
      <trkpt lat="45.1822" lon="4.98146">
        <ele>312.20001220703</ele>
        <time>2018-05-20T09:09:12.000Z</time>
      </trkpt>
      <trkpt lat="45.18222" lon="4.98146">
        <ele>312.39999389648</ele>
        <time>2018-05-20T09:09:13.000Z</time>
      </trkpt>
      <trkpt lat="45.18232" lon="4.98154">
        <ele>312.79998779297</ele>
        <time>2018-05-20T09:09:18.000Z</time>
      </trkpt>
      <trkpt lat="45.18235" lon="4.98164">
        <ele>313.20001220703</ele>
        <time>2018-05-20T09:09:22.000Z</time>
      </trkpt>
      <trkpt lat="45.18234" lon="4.98167">
        <ele>313.20001220703</ele>
        <time>2018-05-20T09:09:23.000Z</time>
      </trkpt>
      <trkpt lat="45.18238" lon="4.98191">
        <ele>314.20001220703</ele>
        <time>2018-05-20T09:09:29.000Z</time>
      </trkpt>
      <trkpt lat="45.18239" lon="4.98195">
        <ele>314.39999389648</ele>
        <time>2018-05-20T09:09:31.000Z</time>
      </trkpt>
      <trkpt lat="45.18245" lon="4.98194">
        <ele>314.60000610352</ele>
        <time>2018-05-20T09:09:33.000Z</time>
      </trkpt>
      <trkpt lat="45.18251" lon="4.98191">
        <ele>314.39999389648</ele>
        <time>2018-05-20T09:09:34.000Z</time>
      </trkpt>
      <trkpt lat="45.18269" lon="4.98176">
        <ele>314</ele>
        <time>2018-05-20T09:09:43.000Z</time>
      </trkpt>
      <trkpt lat="45.18272" lon="4.98174">
        <ele>314</ele>
        <time>2018-05-20T09:09:44.000Z</time>
      </trkpt>
      <trkpt lat="45.18274" lon="4.98171">
        <ele>314</ele>
        <time>2018-05-20T09:09:45.000Z</time>
      </trkpt>
      <trkpt lat="45.18279" lon="4.98168">
        <ele>314</ele>
        <time>2018-05-20T09:09:47.000Z</time>
      </trkpt>
      <trkpt lat="45.18284" lon="4.98168">
        <ele>314</ele>
        <time>2018-05-20T09:09:49.000Z</time>
      </trkpt>
      <trkpt lat="45.1829" lon="4.98171">
        <ele>314.20001220703</ele>
        <time>2018-05-20T09:09:51.000Z</time>
      </trkpt>
      <trkpt lat="45.18301" lon="4.98176">
        <ele>314.60000610352</ele>
        <time>2018-05-20T09:09:55.000Z</time>
      </trkpt>
      <trkpt lat="45.18309" lon="4.9818">
        <ele>315.39999389648</ele>
        <time>2018-05-20T09:09:59.000Z</time>
      </trkpt>
      <trkpt lat="45.18313" lon="4.98183">
        <ele>316</ele>
        <time>2018-05-20T09:10:01.000Z</time>
      </trkpt>
      <trkpt lat="45.18326" lon="4.98192">
        <ele>318</ele>
        <time>2018-05-20T09:10:08.000Z</time>
      </trkpt>
      <trkpt lat="45.18336" lon="4.98208">
        <ele>319.39999389648</ele>
        <time>2018-05-20T09:10:14.000Z</time>
      </trkpt>
      <trkpt lat="45.18344" lon="4.9822">
        <ele>321</ele>
        <time>2018-05-20T09:10:18.000Z</time>
      </trkpt>
      <trkpt lat="45.18347" lon="4.98225">
        <ele>321.60000610352</ele>
        <time>2018-05-20T09:10:20.000Z</time>
      </trkpt>
      <trkpt lat="45.18357" lon="4.98234">
        <ele>322.39999389648</ele>
        <time>2018-05-20T09:10:25.000Z</time>
      </trkpt>
      <trkpt lat="45.18372" lon="4.98234">
        <ele>321.39999389648</ele>
        <time>2018-05-20T09:10:29.000Z</time>
      </trkpt>
      <trkpt lat="45.18392" lon="4.98216">
        <ele>319.39999389648</ele>
        <time>2018-05-20T09:10:34.000Z</time>
      </trkpt>
      <trkpt lat="45.18399" lon="4.98203">
        <ele>319.20001220703</ele>
        <time>2018-05-20T09:10:38.000Z</time>
      </trkpt>
      <trkpt lat="45.18403" lon="4.98194">
        <ele>319.20001220703</ele>
        <time>2018-05-20T09:10:41.000Z</time>
      </trkpt>
      <trkpt lat="45.18406" lon="4.98185">
        <ele>319</ele>
        <time>2018-05-20T09:10:44.000Z</time>
      </trkpt>
      <trkpt lat="45.18406" lon="4.9818">
        <ele>319.20001220703</ele>
        <time>2018-05-20T09:10:46.000Z</time>
      </trkpt>
      <trkpt lat="45.18403" lon="4.98172">
        <ele>320.20001220703</ele>
        <time>2018-05-20T09:10:49.000Z</time>
      </trkpt>
      <trkpt lat="45.18401" lon="4.98169">
        <ele>320.60000610352</ele>
        <time>2018-05-20T09:10:52.000Z</time>
      </trkpt>
      <trkpt lat="45.184" lon="4.98169">
        <ele>320.60000610352</ele>
        <time>2018-05-20T09:10:53.000Z</time>
      </trkpt>
      <trkpt lat="45.18399" lon="4.98167">
        <ele>321</ele>
        <time>2018-05-20T09:10:55.000Z</time>
      </trkpt>
      <trkpt lat="45.184" lon="4.98162">
        <ele>321.60000610352</ele>
        <time>2018-05-20T09:10:58.000Z</time>
      </trkpt>
      <trkpt lat="45.18399" lon="4.9816">
        <ele>321.79998779297</ele>
        <time>2018-05-20T09:10:59.000Z</time>
      </trkpt>
      <trkpt lat="45.18402" lon="4.9815">
        <ele>323.39999389648</ele>
        <time>2018-05-20T09:11:03.000Z</time>
      </trkpt>
      <trkpt lat="45.18404" lon="4.98148">
        <ele>323.79998779297</ele>
        <time>2018-05-20T09:11:04.000Z</time>
      </trkpt>
      <trkpt lat="45.18414" lon="4.98138">
        <ele>324.79998779297</ele>
        <time>2018-05-20T09:11:09.000Z</time>
      </trkpt>
      <trkpt lat="45.18415" lon="4.98135">
        <ele>325</ele>
        <time>2018-05-20T09:11:10.000Z</time>
      </trkpt>
      <trkpt lat="45.18424" lon="4.9812">
        <ele>326.39999389648</ele>
        <time>2018-05-20T09:11:16.000Z</time>
      </trkpt>
      <trkpt lat="45.18426" lon="4.98117">
        <ele>326.79998779297</ele>
        <time>2018-05-20T09:11:17.000Z</time>
      </trkpt>
      <trkpt lat="45.1843" lon="4.98098">
        <ele>326.60000610352</ele>
        <time>2018-05-20T09:11:23.000Z</time>
      </trkpt>
      <trkpt lat="45.1843" lon="4.98079">
        <ele>327.60000610352</ele>
        <time>2018-05-20T09:11:28.000Z</time>
      </trkpt>
      <trkpt lat="45.18431" lon="4.9807">
        <ele>327.79998779297</ele>
        <time>2018-05-20T09:11:31.000Z</time>
      </trkpt>
      <trkpt lat="45.18434" lon="4.9806">
        <ele>329</ele>
        <time>2018-05-20T09:11:35.000Z</time>
      </trkpt>
      <trkpt lat="45.18435" lon="4.98059">
        <ele>328.60000610352</ele>
        <time>2018-05-20T09:11:36.000Z</time>
      </trkpt>
      <trkpt lat="45.18443" lon="4.98061">
        <ele>328.20001220703</ele>
        <time>2018-05-20T09:11:41.000Z</time>
      </trkpt>
      <trkpt lat="45.18449" lon="4.98062">
        <ele>328</ele>
        <time>2018-05-20T09:11:44.000Z</time>
      </trkpt>
      <trkpt lat="45.18451" lon="4.9806">
        <ele>328.39999389648</ele>
        <time>2018-05-20T09:11:45.000Z</time>
      </trkpt>
      <trkpt lat="45.18456" lon="4.98046">
        <ele>328</ele>
        <time>2018-05-20T09:11:50.000Z</time>
      </trkpt>
      <trkpt lat="45.18463" lon="4.98035">
        <ele>328.39999389648</ele>
        <time>2018-05-20T09:11:55.000Z</time>
      </trkpt>
      <trkpt lat="45.18471" lon="4.98033">
        <ele>330.20001220703</ele>
        <time>2018-05-20T09:11:58.000Z</time>
      </trkpt>
      <trkpt lat="45.18477" lon="4.98032">
        <ele>331.39999389648</ele>
        <time>2018-05-20T09:12:00.000Z</time>
      </trkpt>
      <trkpt lat="45.18479" lon="4.98032">
        <ele>332</ele>
        <time>2018-05-20T09:12:01.000Z</time>
      </trkpt>
      <trkpt lat="45.18486" lon="4.98028">
        <ele>332.79998779297</ele>
        <time>2018-05-20T09:12:04.000Z</time>
      </trkpt>
      <trkpt lat="45.18489" lon="4.98027">
        <ele>333</ele>
        <time>2018-05-20T09:12:05.000Z</time>
      </trkpt>
      <trkpt lat="45.18502" lon="4.98023">
        <ele>335.60000610352</ele>
        <time>2018-05-20T09:12:10.000Z</time>
      </trkpt>
      <trkpt lat="45.18512" lon="4.98019">
        <ele>338</ele>
        <time>2018-05-20T09:12:15.000Z</time>
      </trkpt>
      <trkpt lat="45.18527" lon="4.98019">
        <ele>340.20001220703</ele>
        <time>2018-05-20T09:12:22.000Z</time>
      </trkpt>
      <trkpt lat="45.18531" lon="4.98021">
        <ele>340.39999389648</ele>
        <time>2018-05-20T09:12:24.000Z</time>
      </trkpt>
      <trkpt lat="45.18534" lon="4.98023">
        <ele>340.39999389648</ele>
        <time>2018-05-20T09:12:26.000Z</time>
      </trkpt>
      <trkpt lat="45.18536" lon="4.98023">
        <ele>340.79998779297</ele>
        <time>2018-05-20T09:12:27.000Z</time>
      </trkpt>
      <trkpt lat="45.1854" lon="4.98022">
        <ele>341.39999389648</ele>
        <time>2018-05-20T09:12:29.000Z</time>
      </trkpt>
      <trkpt lat="45.18571" lon="4.98034">
        <ele>340.79998779297</ele>
        <time>2018-05-20T09:12:55.000Z</time>
      </trkpt>
      <trkpt lat="45.18571" lon="4.98037">
        <ele>340.60000610352</ele>
        <time>2018-05-20T09:12:56.000Z</time>
      </trkpt>
      <trkpt lat="45.18577" lon="4.98041">
        <ele>340</ele>
        <time>2018-05-20T09:13:06.000Z</time>
      </trkpt>
      <trkpt lat="45.18578" lon="4.98041">
        <ele>340.20001220703</ele>
        <time>2018-05-20T09:13:07.000Z</time>
      </trkpt>
      <trkpt lat="45.18588" lon="4.98038">
        <ele>341</ele>
        <time>2018-05-20T09:13:13.000Z</time>
      </trkpt>
      <trkpt lat="45.18595" lon="4.98032">
        <ele>342</ele>
        <time>2018-05-20T09:13:17.000Z</time>
      </trkpt>
      <trkpt lat="45.18604" lon="4.98031">
        <ele>342.39999389648</ele>
        <time>2018-05-20T09:13:21.000Z</time>
      </trkpt>
      <trkpt lat="45.18606" lon="4.98031">
        <ele>342.39999389648</ele>
        <time>2018-05-20T09:13:22.000Z</time>
      </trkpt>
      <trkpt lat="45.18613" lon="4.98036">
        <ele>341.39999389648</ele>
        <time>2018-05-20T09:13:25.000Z</time>
      </trkpt>
      <trkpt lat="45.18617" lon="4.98039">
        <ele>340.79998779297</ele>
        <time>2018-05-20T09:13:28.000Z</time>
      </trkpt>
      <trkpt lat="45.1865" lon="4.97955">
        <ele>356</ele>
        <time>2018-05-20T09:16:54.000Z</time>
      </trkpt>
      <trkpt lat="45.18651" lon="4.97953">
        <ele>356.20001220703</ele>
        <time>2018-05-20T09:16:55.000Z</time>
      </trkpt>
      <trkpt lat="45.18661" lon="4.97919">
        <ele>360.79998779297</ele>
        <time>2018-05-20T09:17:22.000Z</time>
      </trkpt>
      <trkpt lat="45.1866" lon="4.97915">
        <ele>361.20001220703</ele>
        <time>2018-05-20T09:17:25.000Z</time>
      </trkpt>
      <trkpt lat="45.1866" lon="4.97913">
        <ele>361.39999389648</ele>
        <time>2018-05-20T09:17:27.000Z</time>
      </trkpt>
      <trkpt lat="45.1866" lon="4.9791">
        <ele>361.60000610352</ele>
        <time>2018-05-20T09:17:29.000Z</time>
      </trkpt>
      <trkpt lat="45.18659" lon="4.97894">
        <ele>363.20001220703</ele>
        <time>2018-05-20T09:17:40.000Z</time>
      </trkpt>
      <trkpt lat="45.18651" lon="4.97886">
        <ele>364.20001220703</ele>
        <time>2018-05-20T09:17:47.000Z</time>
      </trkpt>
      <trkpt lat="45.1865" lon="4.97885">
        <ele>364.20001220703</ele>
        <time>2018-05-20T09:17:48.000Z</time>
      </trkpt>
      <trkpt lat="45.18643" lon="4.97878">
        <ele>365</ele>
        <time>2018-05-20T09:17:54.000Z</time>
      </trkpt>
      <trkpt lat="45.18643" lon="4.97873">
        <ele>365.79998779297</ele>
        <time>2018-05-20T09:17:57.000Z</time>
      </trkpt>
      <trkpt lat="45.18643" lon="4.97872">
        <ele>366.20001220703</ele>
        <time>2018-05-20T09:17:58.000Z</time>
      </trkpt>
      <trkpt lat="45.18643" lon="4.97867">
        <ele>367.20001220703</ele>
        <time>2018-05-20T09:18:00.000Z</time>
      </trkpt>
      <trkpt lat="45.18642" lon="4.97861">
        <ele>368.79998779297</ele>
        <time>2018-05-20T09:18:04.000Z</time>
      </trkpt>
      <trkpt lat="45.18642" lon="4.9786">
        <ele>369.20001220703</ele>
        <time>2018-05-20T09:18:05.000Z</time>
      </trkpt>
      <trkpt lat="45.18643" lon="4.97856">
        <ele>369.79998779297</ele>
        <time>2018-05-20T09:18:07.000Z</time>
      </trkpt>
      <trkpt lat="45.18642" lon="4.97852">
        <ele>370.60000610352</ele>
        <time>2018-05-20T09:18:09.000Z</time>
      </trkpt>
      <trkpt lat="45.18641" lon="4.97849">
        <ele>371.20001220703</ele>
        <time>2018-05-20T09:18:11.000Z</time>
      </trkpt>
      <trkpt lat="45.18639" lon="4.97845">
        <ele>372.20001220703</ele>
        <time>2018-05-20T09:18:14.000Z</time>
      </trkpt>
      <trkpt lat="45.18638" lon="4.97844">
        <ele>372.39999389648</ele>
        <time>2018-05-20T09:18:15.000Z</time>
      </trkpt>
      <trkpt lat="45.18637" lon="4.97841">
        <ele>373</ele>
        <time>2018-05-20T09:18:17.000Z</time>
      </trkpt>
      <trkpt lat="45.18639" lon="4.97835">
        <ele>374.20001220703</ele>
        <time>2018-05-20T09:18:21.000Z</time>
      </trkpt>
      <trkpt lat="45.18645" lon="4.97829">
        <ele>375.39999389648</ele>
        <time>2018-05-20T09:18:34.000Z</time>
      </trkpt>
      <trkpt lat="45.1865" lon="4.9783">
        <ele>375</ele>
        <time>2018-05-20T09:18:41.000Z</time>
      </trkpt>
      <trkpt lat="45.18653" lon="4.97829">
        <ele>375</ele>
        <time>2018-05-20T09:18:44.000Z</time>
      </trkpt>
      <trkpt lat="45.18655" lon="4.97827">
        <ele>375.20001220703</ele>
        <time>2018-05-20T09:18:46.000Z</time>
      </trkpt>
      <trkpt lat="45.18659" lon="4.97824">
        <ele>375.79998779297</ele>
        <time>2018-05-20T09:18:49.000Z</time>
      </trkpt>
      <trkpt lat="45.18659" lon="4.97823">
        <ele>376.20001220703</ele>
        <time>2018-05-20T09:18:50.000Z</time>
      </trkpt>
      <trkpt lat="45.18671" lon="4.97769">
        <ele>388.39999389648</ele>
        <time>2018-05-20T09:19:32.000Z</time>
      </trkpt>
      <trkpt lat="45.18672" lon="4.97768">
        <ele>388.79998779297</ele>
        <time>2018-05-20T09:19:33.000Z</time>
      </trkpt>
      <trkpt lat="45.18697" lon="4.97745">
        <ele>393.39999389648</ele>
        <time>2018-05-20T09:20:02.000Z</time>
      </trkpt>
      <trkpt lat="45.18701" lon="4.97739">
        <ele>394.39999389648</ele>
        <time>2018-05-20T09:20:05.000Z</time>
      </trkpt>
      <trkpt lat="45.18719" lon="4.97687">
        <ele>401.79998779297</ele>
        <time>2018-05-20T09:22:43.000Z</time>
      </trkpt>
      <trkpt lat="45.18721" lon="4.97685">
        <ele>402.20001220703</ele>
        <time>2018-05-20T09:22:45.000Z</time>
      </trkpt>
      <trkpt lat="45.18729" lon="4.97674">
        <ele>403.39999389648</ele>
        <time>2018-05-20T09:22:52.000Z</time>
      </trkpt>
      <trkpt lat="45.1875" lon="4.97628">
        <ele>407.79998779297</ele>
        <time>2018-05-20T09:23:18.000Z</time>
      </trkpt>
      <trkpt lat="45.18752" lon="4.97621">
        <ele>408.20001220703</ele>
        <time>2018-05-20T09:23:21.000Z</time>
      </trkpt>
      <trkpt lat="45.18754" lon="4.97616">
        <ele>408.60000610352</ele>
        <time>2018-05-20T09:23:24.000Z</time>
      </trkpt>
      <trkpt lat="45.18757" lon="4.97611">
        <ele>409</ele>
        <time>2018-05-20T09:23:28.000Z</time>
      </trkpt>
      <trkpt lat="45.18761" lon="4.97609">
        <ele>409.20001220703</ele>
        <time>2018-05-20T09:23:31.000Z</time>
      </trkpt>
      <trkpt lat="45.18767" lon="4.97611">
        <ele>409</ele>
        <time>2018-05-20T09:23:34.000Z</time>
      </trkpt>
      <trkpt lat="45.18775" lon="4.97617">
        <ele>409</ele>
        <time>2018-05-20T09:23:40.000Z</time>
      </trkpt>
      <trkpt lat="45.18786" lon="4.9763">
        <ele>408.60000610352</ele>
        <time>2018-05-20T09:23:47.000Z</time>
      </trkpt>
      <trkpt lat="45.18787" lon="4.97632">
        <ele>408.39999389648</ele>
        <time>2018-05-20T09:23:48.000Z</time>
      </trkpt>
      <trkpt lat="45.18801" lon="4.97651">
        <ele>407.39999389648</ele>
        <time>2018-05-20T09:23:56.000Z</time>
      </trkpt>
      <trkpt lat="45.18815" lon="4.97666">
        <ele>407.20001220703</ele>
        <time>2018-05-20T09:24:04.000Z</time>
      </trkpt>
      <trkpt lat="45.18818" lon="4.97669">
        <ele>407.39999389648</ele>
        <time>2018-05-20T09:24:06.000Z</time>
      </trkpt>
      <trkpt lat="45.18829" lon="4.97675">
        <ele>408</ele>
        <time>2018-05-20T09:24:12.000Z</time>
      </trkpt>
      <trkpt lat="45.18833" lon="4.97678">
        <ele>408.39999389648</ele>
        <time>2018-05-20T09:24:14.000Z</time>
      </trkpt>
      <trkpt lat="45.1884" lon="4.97682">
        <ele>409.20001220703</ele>
        <time>2018-05-20T09:24:18.000Z</time>
      </trkpt>
      <trkpt lat="45.18847" lon="4.97686">
        <ele>410</ele>
        <time>2018-05-20T09:24:22.000Z</time>
      </trkpt>
      <trkpt lat="45.18853" lon="4.97689">
        <ele>410.60000610352</ele>
        <time>2018-05-20T09:24:25.000Z</time>
      </trkpt>
      <trkpt lat="45.18863" lon="4.97695">
        <ele>412</ele>
        <time>2018-05-20T09:24:31.000Z</time>
      </trkpt>
      <trkpt lat="45.18866" lon="4.97697">
        <ele>412.39999389648</ele>
        <time>2018-05-20T09:24:33.000Z</time>
      </trkpt>
      <trkpt lat="45.18873" lon="4.97703">
        <ele>413</ele>
        <time>2018-05-20T09:24:37.000Z</time>
      </trkpt>
      <trkpt lat="45.18877" lon="4.97707">
        <ele>413.60000610352</ele>
        <time>2018-05-20T09:24:40.000Z</time>
      </trkpt>
      <trkpt lat="45.18884" lon="4.97715">
        <ele>414</ele>
        <time>2018-05-20T09:24:44.000Z</time>
      </trkpt>
      <trkpt lat="45.18889" lon="4.97722">
        <ele>414.20001220703</ele>
        <time>2018-05-20T09:24:48.000Z</time>
      </trkpt>
      <trkpt lat="45.1889" lon="4.97724">
        <ele>414.20001220703</ele>
        <time>2018-05-20T09:24:49.000Z</time>
      </trkpt>
      <trkpt lat="45.18898" lon="4.97736">
        <ele>414.39999389648</ele>
        <time>2018-05-20T09:24:55.000Z</time>
      </trkpt>
      <trkpt lat="45.18901" lon="4.9774">
        <ele>414.79998779297</ele>
        <time>2018-05-20T09:24:57.000Z</time>
      </trkpt>
      <trkpt lat="45.18911" lon="4.97755">
        <ele>415.79998779297</ele>
        <time>2018-05-20T09:25:04.000Z</time>
      </trkpt>
      <trkpt lat="45.18916" lon="4.97762">
        <ele>416.39999389648</ele>
        <time>2018-05-20T09:25:07.000Z</time>
      </trkpt>
      <trkpt lat="45.18926" lon="4.97776">
        <ele>417</ele>
        <time>2018-05-20T09:25:13.000Z</time>
      </trkpt>
      <trkpt lat="45.18937" lon="4.97794">
        <ele>416.79998779297</ele>
        <time>2018-05-20T09:25:19.000Z</time>
      </trkpt>
      <trkpt lat="45.18951" lon="4.97821">
        <ele>415.39999389648</ele>
        <time>2018-05-20T09:25:26.000Z</time>
      </trkpt>
      <trkpt lat="45.1896" lon="4.97855">
        <ele>414</ele>
        <time>2018-05-20T09:25:33.000Z</time>
      </trkpt>
      <trkpt lat="45.18963" lon="4.97864">
        <ele>413.60000610352</ele>
        <time>2018-05-20T09:25:35.000Z</time>
      </trkpt>
      <trkpt lat="45.18974" lon="4.9789">
        <ele>413.20001220703</ele>
        <time>2018-05-20T09:25:40.000Z</time>
      </trkpt>
      <trkpt lat="45.18995" lon="4.97925">
        <ele>412.60000610352</ele>
        <time>2018-05-20T09:25:46.000Z</time>
      </trkpt>
      <trkpt lat="45.19007" lon="4.97941">
        <ele>411.79998779297</ele>
        <time>2018-05-20T09:25:49.000Z</time>
      </trkpt>
      <trkpt lat="45.19016" lon="4.97951">
        <ele>411.39999389648</ele>
        <time>2018-05-20T09:25:51.000Z</time>
      </trkpt>
      <trkpt lat="45.19025" lon="4.97962">
        <ele>410.60000610352</ele>
        <time>2018-05-20T09:25:53.000Z</time>
      </trkpt>
      <trkpt lat="45.19032" lon="4.97973">
        <ele>409.39999389648</ele>
        <time>2018-05-20T09:25:55.000Z</time>
      </trkpt>
      <trkpt lat="45.19039" lon="4.97983">
        <ele>408.39999389648</ele>
        <time>2018-05-20T09:25:57.000Z</time>
      </trkpt>
      <trkpt lat="45.19048" lon="4.97978">
        <ele>408.60000610352</ele>
        <time>2018-05-20T09:26:00.000Z</time>
      </trkpt>
      <trkpt lat="45.1905" lon="4.97974">
        <ele>408.79998779297</ele>
        <time>2018-05-20T09:26:01.000Z</time>
      </trkpt>
      <trkpt lat="45.19051" lon="4.9797">
        <ele>409</ele>
        <time>2018-05-20T09:26:02.000Z</time>
      </trkpt>
      <trkpt lat="45.19062" lon="4.97954">
        <ele>409.20001220703</ele>
        <time>2018-05-20T09:26:06.000Z</time>
      </trkpt>
      <trkpt lat="45.19064" lon="4.97949">
        <ele>409.39999389648</ele>
        <time>2018-05-20T09:26:07.000Z</time>
      </trkpt>
      <trkpt lat="45.19067" lon="4.97944">
        <ele>409.20001220703</ele>
        <time>2018-05-20T09:26:08.000Z</time>
      </trkpt>
      <trkpt lat="45.1908" lon="4.97914">
        <ele>407.39999389648</ele>
        <time>2018-05-20T09:26:13.000Z</time>
      </trkpt>
      <trkpt lat="45.19081" lon="4.97908">
        <ele>407.20001220703</ele>
        <time>2018-05-20T09:26:14.000Z</time>
      </trkpt>
      <trkpt lat="45.19083" lon="4.97902">
        <ele>406.79998779297</ele>
        <time>2018-05-20T09:26:15.000Z</time>
      </trkpt>
      <trkpt lat="45.19086" lon="4.97884">
        <ele>407</ele>
        <time>2018-05-20T09:26:18.000Z</time>
      </trkpt>
      <trkpt lat="45.19088" lon="4.97832">
        <ele>407.20001220703</ele>
        <time>2018-05-20T09:26:27.000Z</time>
      </trkpt>
      <trkpt lat="45.19083" lon="4.97781">
        <ele>407.79998779297</ele>
        <time>2018-05-20T09:26:35.000Z</time>
      </trkpt>
      <trkpt lat="45.19081" lon="4.97755">
        <ele>408</ele>
        <time>2018-05-20T09:26:40.000Z</time>
      </trkpt>
      <trkpt lat="45.1908" lon="4.97745">
        <ele>408.39999389648</ele>
        <time>2018-05-20T09:26:42.000Z</time>
      </trkpt>
      <trkpt lat="45.19081" lon="4.97729">
        <ele>408.79998779297</ele>
        <time>2018-05-20T09:26:45.000Z</time>
      </trkpt>
      <trkpt lat="45.19083" lon="4.97723">
        <ele>408.79998779297</ele>
        <time>2018-05-20T09:26:46.000Z</time>
      </trkpt>
      <trkpt lat="45.1909" lon="4.97691">
        <ele>410.20001220703</ele>
        <time>2018-05-20T09:26:52.000Z</time>
      </trkpt>
      <trkpt lat="45.19093" lon="4.97669">
        <ele>411.79998779297</ele>
        <time>2018-05-20T09:26:57.000Z</time>
      </trkpt>
      <trkpt lat="45.19104" lon="4.97657">
        <ele>412.60000610352</ele>
        <time>2018-05-20T09:27:01.000Z</time>
      </trkpt>
      <trkpt lat="45.19107" lon="4.97654">
        <ele>412.60000610352</ele>
        <time>2018-05-20T09:27:02.000Z</time>
      </trkpt>
      <trkpt lat="45.19122" lon="4.97636">
        <ele>412</ele>
        <time>2018-05-20T09:27:08.000Z</time>
      </trkpt>
      <trkpt lat="45.19123" lon="4.97633">
        <ele>411.79998779297</ele>
        <time>2018-05-20T09:27:09.000Z</time>
      </trkpt>
      <trkpt lat="45.19128" lon="4.97621">
        <ele>411.20001220703</ele>
        <time>2018-05-20T09:27:13.000Z</time>
      </trkpt>
      <trkpt lat="45.19131" lon="4.97612">
        <ele>410.79998779297</ele>
        <time>2018-05-20T09:27:15.000Z</time>
      </trkpt>
      <trkpt lat="45.19133" lon="4.97583">
        <ele>409</ele>
        <time>2018-05-20T09:27:19.000Z</time>
      </trkpt>
      <trkpt lat="45.19127" lon="4.97553">
        <ele>408.39999389648</ele>
        <time>2018-05-20T09:27:22.000Z</time>
      </trkpt>
      <trkpt lat="45.19123" lon="4.97543">
        <ele>408.20001220703</ele>
        <time>2018-05-20T09:27:23.000Z</time>
      </trkpt>
      <trkpt lat="45.19117" lon="4.97521">
        <ele>408.39999389648</ele>
        <time>2018-05-20T09:27:25.000Z</time>
      </trkpt>
      <trkpt lat="45.19116" lon="4.9751">
        <ele>408.60000610352</ele>
        <time>2018-05-20T09:27:26.000Z</time>
      </trkpt>
      <trkpt lat="45.19116" lon="4.975">
        <ele>408.60000610352</ele>
        <time>2018-05-20T09:27:27.000Z</time>
      </trkpt>
      <trkpt lat="45.19117" lon="4.97472">
        <ele>408</ele>
        <time>2018-05-20T09:27:30.000Z</time>
      </trkpt>
      <trkpt lat="45.19118" lon="4.97433">
        <ele>406</ele>
        <time>2018-05-20T09:27:35.000Z</time>
      </trkpt>
      <trkpt lat="45.19118" lon="4.97425">
        <ele>405.60000610352</ele>
        <time>2018-05-20T09:27:36.000Z</time>
      </trkpt>
      <trkpt lat="45.1912" lon="4.97382">
        <ele>404.20001220703</ele>
        <time>2018-05-20T09:27:41.000Z</time>
      </trkpt>
      <trkpt lat="45.19122" lon="4.97373">
        <ele>403.79998779297</ele>
        <time>2018-05-20T09:27:42.000Z</time>
      </trkpt>
      <trkpt lat="45.19133" lon="4.97349">
        <ele>401.79998779297</ele>
        <time>2018-05-20T09:27:45.000Z</time>
      </trkpt>
      <trkpt lat="45.19144" lon="4.97323">
        <ele>400</ele>
        <time>2018-05-20T09:27:48.000Z</time>
      </trkpt>
      <trkpt lat="45.1915" lon="4.97305">
        <ele>399.60000610352</ele>
        <time>2018-05-20T09:27:50.000Z</time>
      </trkpt>
      <trkpt lat="45.19161" lon="4.97267">
        <ele>397</ele>
        <time>2018-05-20T09:27:54.000Z</time>
      </trkpt>
      <trkpt lat="45.19167" lon="4.97249">
        <ele>396.60000610352</ele>
        <time>2018-05-20T09:27:56.000Z</time>
      </trkpt>
      <trkpt lat="45.1917" lon="4.97242">
        <ele>396.20001220703</ele>
        <time>2018-05-20T09:27:57.000Z</time>
      </trkpt>
      <trkpt lat="45.19176" lon="4.97235">
        <ele>395</ele>
        <time>2018-05-20T09:27:59.000Z</time>
      </trkpt>
      <trkpt lat="45.19179" lon="4.97233">
        <ele>394.39999389648</ele>
        <time>2018-05-20T09:28:00.000Z</time>
      </trkpt>
      <trkpt lat="45.19184" lon="4.9723">
        <ele>393.60000610352</ele>
        <time>2018-05-20T09:28:01.000Z</time>
      </trkpt>
      <trkpt lat="45.19189" lon="4.97227">
        <ele>393</ele>
        <time>2018-05-20T09:28:02.000Z</time>
      </trkpt>
      <trkpt lat="45.19193" lon="4.97224">
        <ele>392.20001220703</ele>
        <time>2018-05-20T09:28:03.000Z</time>
      </trkpt>
      <trkpt lat="45.19202" lon="4.97214">
        <ele>390.20001220703</ele>
        <time>2018-05-20T09:28:05.000Z</time>
      </trkpt>
      <trkpt lat="45.19206" lon="4.97209">
        <ele>389</ele>
        <time>2018-05-20T09:28:06.000Z</time>
      </trkpt>
      <trkpt lat="45.19207" lon="4.97203">
        <ele>388</ele>
        <time>2018-05-20T09:28:07.000Z</time>
      </trkpt>
      <trkpt lat="45.19207" lon="4.97192">
        <ele>385.60000610352</ele>
        <time>2018-05-20T09:28:09.000Z</time>
      </trkpt>
      <trkpt lat="45.19207" lon="4.97184">
        <ele>384.20001220703</ele>
        <time>2018-05-20T09:28:10.000Z</time>
      </trkpt>
      <trkpt lat="45.19205" lon="4.97177">
        <ele>383</ele>
        <time>2018-05-20T09:28:11.000Z</time>
      </trkpt>
      <trkpt lat="45.19205" lon="4.97165">
        <ele>381.39999389648</ele>
        <time>2018-05-20T09:28:13.000Z</time>
      </trkpt>
      <trkpt lat="45.19206" lon="4.9716">
        <ele>380.60000610352</ele>
        <time>2018-05-20T09:28:14.000Z</time>
      </trkpt>
      <trkpt lat="45.19209" lon="4.97156">
        <ele>380</ele>
        <time>2018-05-20T09:28:15.000Z</time>
      </trkpt>
      <trkpt lat="45.19218" lon="4.97152">
        <ele>378.79998779297</ele>
        <time>2018-05-20T09:28:17.000Z</time>
      </trkpt>
      <trkpt lat="45.19231" lon="4.97145">
        <ele>377.60000610352</ele>
        <time>2018-05-20T09:28:19.000Z</time>
      </trkpt>
      <trkpt lat="45.19237" lon="4.97139">
        <ele>376.79998779297</ele>
        <time>2018-05-20T09:28:20.000Z</time>
      </trkpt>
      <trkpt lat="45.19245" lon="4.97133">
        <ele>376</ele>
        <time>2018-05-20T09:28:21.000Z</time>
      </trkpt>
      <trkpt lat="45.19261" lon="4.97123">
        <ele>375.39999389648</ele>
        <time>2018-05-20T09:28:23.000Z</time>
      </trkpt>
      <trkpt lat="45.19268" lon="4.97119">
        <ele>375</ele>
        <time>2018-05-20T09:28:24.000Z</time>
      </trkpt>
      <trkpt lat="45.19275" lon="4.97115">
        <ele>374.20001220703</ele>
        <time>2018-05-20T09:28:25.000Z</time>
      </trkpt>
      <trkpt lat="45.19292" lon="4.97106">
        <ele>373.20001220703</ele>
        <time>2018-05-20T09:28:27.000Z</time>
      </trkpt>
      <trkpt lat="45.19299" lon="4.97103">
        <ele>372.79998779297</ele>
        <time>2018-05-20T09:28:28.000Z</time>
      </trkpt>
      <trkpt lat="45.19307" lon="4.97101">
        <ele>372.20001220703</ele>
        <time>2018-05-20T09:28:29.000Z</time>
      </trkpt>
      <trkpt lat="45.19322" lon="4.97096">
        <ele>371</ele>
        <time>2018-05-20T09:28:31.000Z</time>
      </trkpt>
      <trkpt lat="45.19337" lon="4.97089">
        <ele>369.20001220703</ele>
        <time>2018-05-20T09:28:33.000Z</time>
      </trkpt>
      <trkpt lat="45.19345" lon="4.97083">
        <ele>368.20001220703</ele>
        <time>2018-05-20T09:28:34.000Z</time>
      </trkpt>
      <trkpt lat="45.19359" lon="4.97069">
        <ele>366.60000610352</ele>
        <time>2018-05-20T09:28:36.000Z</time>
      </trkpt>
      <trkpt lat="45.19365" lon="4.97061">
        <ele>365</ele>
        <time>2018-05-20T09:28:37.000Z</time>
      </trkpt>
      <trkpt lat="45.19373" lon="4.97056">
        <ele>363.79998779297</ele>
        <time>2018-05-20T09:28:38.000Z</time>
      </trkpt>
      <trkpt lat="45.19381" lon="4.97052">
        <ele>363.20001220703</ele>
        <time>2018-05-20T09:28:39.000Z</time>
      </trkpt>
      <trkpt lat="45.19396" lon="4.97049">
        <ele>362.39999389648</ele>
        <time>2018-05-20T09:28:41.000Z</time>
      </trkpt>
      <trkpt lat="45.19403" lon="4.9705">
        <ele>362.20001220703</ele>
        <time>2018-05-20T09:28:42.000Z</time>
      </trkpt>
      <trkpt lat="45.19411" lon="4.9705">
        <ele>362</ele>
        <time>2018-05-20T09:28:43.000Z</time>
      </trkpt>
      <trkpt lat="45.19427" lon="4.97046">
        <ele>362.60000610352</ele>
        <time>2018-05-20T09:28:45.000Z</time>
      </trkpt>
      <trkpt lat="45.19442" lon="4.97043">
        <ele>363.39999389648</ele>
        <time>2018-05-20T09:28:47.000Z</time>
      </trkpt>
      <trkpt lat="45.19461" lon="4.97035">
        <ele>363.39999389648</ele>
        <time>2018-05-20T09:28:50.000Z</time>
      </trkpt>
      <trkpt lat="45.19467" lon="4.97034">
        <ele>363.39999389648</ele>
        <time>2018-05-20T09:28:51.000Z</time>
      </trkpt>
      <trkpt lat="45.19478" lon="4.97031">
        <ele>362.79998779297</ele>
        <time>2018-05-20T09:28:53.000Z</time>
      </trkpt>
      <trkpt lat="45.19483" lon="4.97029">
        <ele>362.20001220703</ele>
        <time>2018-05-20T09:28:54.000Z</time>
      </trkpt>
      <trkpt lat="45.19522" lon="4.97019">
        <ele>359</ele>
        <time>2018-05-20T09:29:01.000Z</time>
      </trkpt>
      <trkpt lat="45.1955" lon="4.97014">
        <ele>357.79998779297</ele>
        <time>2018-05-20T09:29:05.000Z</time>
      </trkpt>
      <trkpt lat="45.19559" lon="4.97013">
        <ele>357.60000610352</ele>
        <time>2018-05-20T09:29:06.000Z</time>
      </trkpt>
      <trkpt lat="45.19567" lon="4.97012">
        <ele>357.20001220703</ele>
        <time>2018-05-20T09:29:07.000Z</time>
      </trkpt>
      <trkpt lat="45.19599" lon="4.9701">
        <ele>356.20001220703</ele>
        <time>2018-05-20T09:29:11.000Z</time>
      </trkpt>
      <trkpt lat="45.19614" lon="4.9701">
        <ele>355.20001220703</ele>
        <time>2018-05-20T09:29:14.000Z</time>
      </trkpt>
      <trkpt lat="45.19619" lon="4.97008">
        <ele>355</ele>
        <time>2018-05-20T09:29:15.000Z</time>
      </trkpt>
      <trkpt lat="45.19623" lon="4.97005">
        <ele>354.79998779297</ele>
        <time>2018-05-20T09:29:16.000Z</time>
      </trkpt>
      <trkpt lat="45.19626" lon="4.96999">
        <ele>354.79998779297</ele>
        <time>2018-05-20T09:29:17.000Z</time>
      </trkpt>
      <trkpt lat="45.19628" lon="4.96994">
        <ele>354.79998779297</ele>
        <time>2018-05-20T09:29:18.000Z</time>
      </trkpt>
      <trkpt lat="45.19632" lon="4.96983">
        <ele>355</ele>
        <time>2018-05-20T09:29:20.000Z</time>
      </trkpt>
      <trkpt lat="45.19634" lon="4.96979">
        <ele>355</ele>
        <time>2018-05-20T09:29:21.000Z</time>
      </trkpt>
      <trkpt lat="45.19646" lon="4.96942">
        <ele>354.60000610352</ele>
        <time>2018-05-20T09:29:28.000Z</time>
      </trkpt>
      <trkpt lat="45.19649" lon="4.96929">
        <ele>355</ele>
        <time>2018-05-20T09:29:30.000Z</time>
      </trkpt>
      <trkpt lat="45.19656" lon="4.9692">
        <ele>354.60000610352</ele>
        <time>2018-05-20T09:29:33.000Z</time>
      </trkpt>
      <trkpt lat="45.19675" lon="4.96917">
        <ele>354</ele>
        <time>2018-05-20T09:29:37.000Z</time>
      </trkpt>
      <trkpt lat="45.19699" lon="4.96916">
        <ele>353.60000610352</ele>
        <time>2018-05-20T09:29:43.000Z</time>
      </trkpt>
      <trkpt lat="45.19719" lon="4.96922">
        <ele>352.60000610352</ele>
        <time>2018-05-20T09:29:49.000Z</time>
      </trkpt>
      <trkpt lat="45.19736" lon="4.96933">
        <ele>351.20001220703</ele>
        <time>2018-05-20T09:29:54.000Z</time>
      </trkpt>
      <trkpt lat="45.19737" lon="4.96936">
        <ele>350.79998779297</ele>
        <time>2018-05-20T09:29:55.000Z</time>
      </trkpt>
      <trkpt lat="45.19737" lon="4.96943">
        <ele>350.39999389648</ele>
        <time>2018-05-20T09:29:57.000Z</time>
      </trkpt>
      <trkpt lat="45.19737" lon="4.96949">
        <ele>350</ele>
        <time>2018-05-20T09:29:59.000Z</time>
      </trkpt>
      <trkpt lat="45.19736" lon="4.96954">
        <ele>349.60000610352</ele>
        <time>2018-05-20T09:30:02.000Z</time>
      </trkpt>
    </trkseg>
  </trk>
</gpx>